# Wetter Temperatur Luftdruck Luftfeuchtigkeit Sichtweite Windgeschwindigkeit Windrichtung Zeit
1 Clouds 15 1019 76 10000 1 0 07:56 14.07.2020
2 Clouds 14 1019 82 10000 0.5 0 07:37 14.07.2020
3 Clouds 13 1019 82 10000 0.5 0 07:18 14.07.2020
4 Clouds 11 1019 87 10000 1.5 160 06:36 14.07.2020
5 Clouds 11 1019 87 10000 1.5 160 06:18 14.07.2020
6 Clouds 11 1019 87 10000 1.5 130 05:25 14.07.2020
7 Clouds 11 1019 87 10000 2.1 170 04:36 14.07.2020
8 Clouds 12 1020 71 10000 1.5 240 03:34 14.07.2020
9 Clouds 12 1020 76 10000 1 0 02:41 14.07.2020
10 Clear 13 1020 67 10000 2.1 330 02:21 14.07.2020
11 Clear 13 1020 71 10000 1 290 01:35 14.07.2020
12 Clear 14 1021 82 10000 2.1 10 00:49 14.07.2020
13 Clear 14 1021 67 10000 1.5 20 00:28 14.07.2020
14 Clear 15 1021 71 10000 1.5 30 23:59 13.07.2020
15 Clear 15 1021 71 10000 1.5 30 23:37 13.07.2020
16 Clear 16 1021 62 10000 1.5 50 23:18 13.07.2020
17 Clear 16 1021 63 10000 1.5 50 22:40 13.07.2020
18 Clear 17 1021 55 10000 2.1 60 22:21 13.07.2020
19 Clear 17 1021 52 10000 2.6 50 21:57 13.07.2020
20 Clear 18 1021 52 10000 2.6 50 21:38 13.07.2020
21 Clear 18 1020 52 10000 2.6 50 21:20 13.07.2020
22 Clear 19 1020 48 10000 3.1 50 20:57 13.07.2020
23 Clear 20 1020 48 10000 3.1 50 20:38 13.07.2020
24 Clear 20 1020 43 10000 3.1 40 20:20 13.07.2020
25 Clear 21 1020 43 10000 2.6 70 19:45 13.07.2020
26 Clear 21 1020 40 10000 4.1 30 19:26 13.07.2020
27 Clear 22 1020 40 10000 3.6 30 18:59 13.07.2020
28 Clear 22 1020 40 10000 3.6 30 18:40 13.07.2020
29 Clear 22 1021 37 10000 4.6 50 18:21 13.07.2020
30 Clear 23 1021 38 10000 3.6 20 17:56 13.07.2020
31 Clear 22 1021 38 10000 3.6 20 17:38 13.07.2020
32 Clear 23 1021 37 10000 3.1 40 17:20 13.07.2020
33 Clear 23 1021 35 10000 2.1 10 16:55 13.07.2020
34 Clear 23 1022 40 10000 2.6 350 16:37 13.07.2020
35 Clear 23 1022 40 10000 2.6 350 16:18 13.07.2020
36 Clear 23 1022 37 10000 2.1 40 15:55 13.07.2020
37 Clear 23 1022 37 10000 2.1 40 15:37 13.07.2020
38 Clear 23 1022 37 10000 2.1 20 15:18 13.07.2020
39 Clear 23 1022 37 10000 3.1 0 14:55 13.07.2020
40 Clear 23 1022 37 10000 3.1 0 14:36 13.07.2020
41 Clear 23 1023 40 10000 2.1 350 14:18 13.07.2020
42 Clear 22 1023 40 10000 4.6 350 13:41 13.07.2020
43 Clear 22 1023 40 10000 1.5 0 13:21 13.07.2020
44 Clear 22 1024 40 10000 2.1 0 12:54 13.07.2020
45 Clouds 21 1024 49 10000 2.6 20 12:36 13.07.2020
46 Clear 22 1024 49 10000 2.6 20 12:36 13.07.2020
47 Clouds 21 1024 49 10000 2.6 20 12:18 13.07.2020
48 Clouds 21 1024 45 10000 3.1 0 11:40 13.07.2020
49 Clouds 21 1024 52 10000 2.1 0 11:22 13.07.2020
50 Clouds 20 1024 55 10000 2.1 0 10:43 13.07.2020
51 Clouds 20 1024 59 10000 1 0 10:20 13.07.2020
52 Clouds 19 1025 63 10000 1.5 360 09:56 13.07.2020
53 Clouds 18 1025 67 10000 2.1 320 09:38 13.07.2020
54 Clouds 17 1025 67 10000 2.1 320 09:18 13.07.2020
55 Clouds 16 1025 67 10000 1 0 08:46 13.07.2020
56 Clouds 16 1025 72 10000 1.5 320 08:26 13.07.2020
57 Clouds 14 1025 87 10000 1.5 160 07:22 13.07.2020
58 Clouds 13 1025 87 10000 1.5 140 06:53 13.07.2020
59 Clear 11 1024 87 10000 0.5 0 06:35 13.07.2020
60 Clear 11 1025 87 10000 2.1 190 05:33 13.07.2020
61 Clear 13 1025 71 10000 1.5 270 02:46 13.07.2020
62 Clear 13 1025 71 10000 1 320 01:44 13.07.2020
63 Clear 13 1025 76 10000 0.5 0 01:22 13.07.2020
64 Clear 14 1025 67 10000 1.5 10 00:44 13.07.2020
65 Clear 14 1025 67 10000 2.6 320 00:22 13.07.2020
66 Clear 14 1025 76 10000 2.6 340 23:43 12.07.2020
67 Clear 15 1025 62 10000 1.5 330 23:23 12.07.2020
68 Clear 15 1025 67 10000 1.5 360 22:57 12.07.2020
69 Clear 15 1025 67 10000 1.5 360 22:37 12.07.2020
70 Clear 16 1025 59 10000 2.1 360 22:19 12.07.2020
71 Clear 16 1025 55 10000 1.5 350 21:57 12.07.2020
72 Clear 17 1025 55 10000 1.5 350 21:39 12.07.2020
73 Clear 17 1025 55 10000 2.1 10 21:19 12.07.2020
74 Clear 17 1025 55 10000 2.1 10 21:19 12.07.2020
75 Clear 18 1024 48 10000 4.1 10 20:57 12.07.2020
76 Clear 18 1024 48 10000 4.1 10 20:57 12.07.2020
77 Clouds 19 1024 45 10000 4.6 350 20:38 12.07.2020
78 Clouds 19 1024 45 10000 4.6 350 20:19 12.07.2020
79 Clouds 21 1024 40 10000 3.1 350 19:40 12.07.2020
80 Clouds 21 1024 43 10000 4.1 10 19:22 12.07.2020
81 Clouds 21 1024 45 10000 3.1 10 18:58 12.07.2020
82 Clouds 21 1024 45 10000 3.1 10 18:39 12.07.2020
83 Clouds 22 1024 43 10000 4.1 10 18:18 12.07.2020
84 Clouds 22 1024 35 10000 4.6 340 17:39 12.07.2020
85 Clouds 22 1024 35 10000 4.6 320 17:21 12.07.2020
86 Clouds 23 1024 37 10000 4.6 350 16:56 12.07.2020
87 Clouds 22 1024 37 10000 4.6 350 16:38 12.07.2020
88 Clouds 22 1024 40 10000 4.6 330 16:18 12.07.2020
89 Clouds 22 1025 40 10000 5.7 330 15:41 12.07.2020
90 Clouds 22 1025 40 10000 4.6 360 15:21 12.07.2020
91 Clouds 21 1025 40 10000 4.6 330 14:42 12.07.2020
92 Clouds 21 1025 43 10000 5.1 10 14:23 12.07.2020
93 Clouds 21 1025 46 10000 5.7 20 13:41 12.07.2020
94 Clouds 21 1025 43 10000 6.2 10 13:22 12.07.2020
95 Clouds 21 1025 45 10000 5.1 360 12:58 12.07.2020
96 Clouds 21 1025 45 10000 5.1 360 12:58 12.07.2020
97 Clouds 21 1025 45 10000 5.1 360 12:39 12.07.2020
98 Clouds 19 1025 48 10000 5.7 360 12:19 12.07.2020
99 Clouds 20 1025 49 10000 5.7 360 11:55 12.07.2020
100 Clouds 19 1025 55 10000 6.7 350 11:36 12.07.2020
101 Clouds 19 1025 55 10000 6.7 350 11:18 12.07.2020
102 Clouds 18 1025 59 10000 6.2 360 10:41 12.07.2020
103 Clouds 18 1025 63 10000 6.2 340 10:19 12.07.2020
104 Clouds 17 1025 67 10000 5.1 350 09:43 12.07.2020
105 Clouds 16 1025 72 10000 3.6 350 09:22 12.07.2020
106 Clouds 16 1025 72 10000 4.6 350 08:57 12.07.2020
107 Clouds 15 1025 77 10000 4.6 340 08:38 12.07.2020
108 Clouds 15 1025 77 10000 4.6 340 08:20 12.07.2020
109 Clouds 14 1025 82 10000 5.7 330 07:49 12.07.2020
110 Clouds 13 1024 82 10000 4.6 330 07:31 12.07.2020
111 Clouds 13 1024 82 10000 5.1 330 06:55 12.07.2020
112 Clouds 12 1024 82 10000 5.7 320 06:37 12.07.2020
113 Rain 12 1024 82 10000 5.7 320 06:18 12.07.2020
114 Clouds 12 1023 93 10000 4.1 320 04:58 12.07.2020
115 Clouds 12 1023 93 10000 4.1 320 04:29 12.07.2020
116 Clouds 12 1024 87 10000 3.6 320 03:45 12.07.2020
117 Clouds 12 1024 87 10000 5.1 320 03:25 12.07.2020
118 Clouds 12 1024 87 10000 4.6 320 02:26 12.07.2020
119 Clouds 12 1023 87 10000 5.1 320 01:29 12.07.2020
120 Clouds 12 1024 87 10000 5.1 320 00:39 12.07.2020
121 Clouds 13 1023 87 10000 4.1 330 00:21 12.07.2020
122 Clouds 13 1023 93 10000 4.1 330 23:41 11.07.2020
123 Clouds 13 1023 93 10000 3.6 320 23:22 11.07.2020
124 Clouds 13 1023 93 10000 4.1 330 22:57 11.07.2020
125 Clouds 13 1023 87 10000 3.6 330 22:38 11.07.2020
126 Clouds 13 1023 87 10000 3.6 330 22:20 11.07.2020
127 Clouds 14 1022 93 10000 4.1 350 21:55 11.07.2020
128 Clouds 14 1022 93 10000 4.1 350 21:36 11.07.2020
129 Rain 14 1020 98 0 0.89 87 21:18 11.07.2020
130 Rain 14 1022 93 10000 4.1 350 20:54 11.07.2020
131 Rain 14 1023 93 10000 3.6 350 20:36 11.07.2020
132 Rain 14 1023 93 10000 3.6 350 20:18 11.07.2020
133 Clouds 15 1022 93 10000 2.6 360 19:44 11.07.2020
134 Rain 14 1022 87 10000 4.1 360 19:26 11.07.2020
135 Rain 15 1021 93 10000 4.1 20 18:57 11.07.2020
136 Rain 15 1021 93 10000 4.1 20 18:39 11.07.2020
137 Rain 15 1022 93 10000 4.6 20 18:20 11.07.2020
138 Rain 15 1022 93 10000 4.6 20 17:56 11.07.2020
139 Rain 15 1022 93 10000 4.6 20 17:38 11.07.2020
140 Rain 15 1021 87 10000 5.7 330 17:19 11.07.2020
141 Rain 16 1021 87 10000 5.7 330 16:43 11.07.2020
142 Rain 16 1021 87 10000 6.2 330 16:24 11.07.2020
143 Rain 16 1021 87 10000 5.1 330 15:58 11.07.2020
144 Rain 16 1021 87 10000 5.1 330 15:40 11.07.2020
145 Rain 16 1020 93 10000 5.7 340 15:20 11.07.2020
146 Rain 16 1020 93 10000 6.2 330 14:57 11.07.2020
147 Rain 16 1021 93 10000 6.2 330 14:37 11.07.2020
148 Rain 15 1021 93 10000 6.2 330 14:19 11.07.2020
149 Rain 15 1020 93 10000 6.7 320 13:42 11.07.2020
150 Rain 15 1020 82 8000 8.7 320 13:22 11.07.2020
151 Rain 15 1019 77 10000 9.8 320 12:57 11.07.2020
152 Rain 16 1018 68 10000 9.8 310 12:39 11.07.2020
153 Clouds 18 1018 68 10000 9.8 310 12:20 11.07.2020
154 Clouds 20 1017 68 10000 7.7 310 11:42 11.07.2020
155 Clouds 20 1017 64 10000 6.7 330 11:21 11.07.2020
156 Clouds 21 1017 64 10000 7.2 340 10:57 11.07.2020
157 Clouds 21 1017 64 10000 7.2 340 10:39 11.07.2020
158 Clouds 21 1016 64 10000 7.2 330 10:21 11.07.2020
159 Clouds 21 1016 68 10000 6.7 340 09:43 11.07.2020
160 Clouds 21 1016 68 10000 6.2 350 09:20 11.07.2020
161 Clouds 21 1016 68 10000 6.2 320 08:49 11.07.2020
162 Clouds 21 1016 73 10000 5.7 330 08:31 11.07.2020
163 Clouds 21 1016 73 10000 4.6 330 07:59 11.07.2020
164 Clouds 20 1016 73 10000 4.6 330 07:40 11.07.2020
165 Clouds 20 1016 82 10000 3.6 320 07:19 11.07.2020
166 Clouds 20 1016 82 10000 3.6 350 06:46 11.07.2020
167 Clouds 19 1016 88 10000 3.1 330 06:18 11.07.2020
168 Clouds 19 1016 88 10000 1.5 10 05:20 11.07.2020
169 Clouds 20 1016 82 10000 2.1 350 04:54 11.07.2020
170 Clouds 20 1016 82 10000 2.1 350 04:31 11.07.2020
171 Clouds 20 1016 77 10000 3.1 360 02:58 11.07.2020
172 Clouds 20 1016 73 10000 4.6 320 02:36 11.07.2020
173 Clouds 21 1016 68 10000 4.1 340 01:27 11.07.2020
174 Clouds 21 1015 64 10000 5.1 320 00:59 11.07.2020
175 Clouds 22 1015 64 10000 5.1 320 00:40 11.07.2020
176 Clouds 22 1015 64 10000 5.7 300 00:21 11.07.2020
177 Clouds 22 1014 60 10000 9.8 300 23:57 10.07.2020
178 Clouds 23 1014 50 10000 7.2 270 23:38 10.07.2020
179 Clouds 23 1014 50 10000 7.2 270 23:38 10.07.2020
180 Clouds 24 1014 50 10000 7.2 270 23:18 10.07.2020
181 Clouds 25 1012 47 10000 4.6 180 22:43 10.07.2020
182 Clouds 26 1011 50 10000 6.7 160 22:19 10.07.2020
183 Clouds 27 1011 50 10000 5.7 160 21:41 10.07.2020
184 Clouds 27 1011 47 10000 5.1 160 21:21 10.07.2020
185 Clear 28 1010 42 10000 5.7 160 20:59 10.07.2020
186 Clear 29 1010 42 10000 5.7 160 20:41 10.07.2020
187 Clouds 29 1010 37 10000 6.2 150 20:21 10.07.2020
188 Clouds 30 1010 35 10000 6.7 160 19:57 10.07.2020
189 Clouds 31 1011 33 10000 7.7 150 19:39 10.07.2020
190 Clouds 31 1011 33 10000 7.7 150 19:20 10.07.2020
191 Clouds 32 1011 29 10000 7.7 150 18:41 10.07.2020
192 Clouds 32 1011 29 10000 9.3 160 18:20 10.07.2020
193 Clouds 32 1011 31 10000 8.2 150 17:58 10.07.2020
194 Clouds 33 1011 31 10000 8.2 150 17:39 10.07.2020
195 Clouds 33 1011 31 10000 8.2 160 17:21 10.07.2020
196 Clouds 33 1012 27 10000 8.2 150 16:43 10.07.2020
197 Clouds 34 1012 29 10000 8.2 150 16:21 10.07.2020
198 Clouds 34 1012 29 10000 7.7 150 15:48 10.07.2020
199 Clear 33 1012 35 10000 6.7 150 15:27 10.07.2020
200 Clear 32 1013 35 10000 6.2 150 14:59 10.07.2020
201 Clear 32 1013 35 10000 6.2 150 14:40 10.07.2020
202 Clear 32 1013 33 10000 6.7 140 14:20 10.07.2020
203 Clear 32 1013 35 10000 6.7 160 13:58 10.07.2020
204 Clear 32 1013 35 10000 6.7 160 13:38 10.07.2020
205 Clear 31 1013 38 10000 5.1 150 13:20 10.07.2020
206 Clear 31 1013 45 10000 5.7 160 12:56 10.07.2020
207 Clear 30 1013 45 10000 5.7 160 12:37 10.07.2020
208 Clouds 29 1014 48 10000 5.7 160 12:19 10.07.2020
209 Clouds 28 1014 54 10000 4.1 130 11:41 10.07.2020
210 Clouds 28 1014 51 10000 2.6 140 11:21 10.07.2020
211 Clouds 28 1014 51 10000 2.6 140 10:57 10.07.2020
212 Clouds 27 1015 54 10000 3.1 160 10:38 10.07.2020
213 Clear 26 1015 57 10000 2.1 120 10:19 10.07.2020
214 Clear 25 1015 57 10000 2.1 120 09:40 10.07.2020
215 Clear 23 1015 64 10000 2.1 150 09:22 10.07.2020
216 Clear 23 1015 68 10000 3.1 160 08:58 10.07.2020
217 Clear 22 1015 68 10000 3.1 160 08:40 10.07.2020
218 Clear 21 1015 73 10000 2.6 170 08:22 10.07.2020
219 Clear 21 1015 77 10000 2.1 150 07:44 10.07.2020
220 Clear 20 1015 82 10000 1.5 150 07:23 10.07.2020
221 Clear 19 1015 82 10000 2.1 160 06:54 10.07.2020
222 Clear 19 1015 82 10000 2.1 160 06:54 10.07.2020
223 Clear 18 1015 82 10000 1.5 190 06:36 10.07.2020
224 Clear 17 1015 82 10000 1.5 180 05:27 10.07.2020
225 Clear 18 1015 77 10000 1.5 140 03:44 10.07.2020
226 Clear 19 1015 68 10000 1 0 02:53 10.07.2020
227 Clouds 19 1015 72 10000 1 0 01:57 10.07.2020
228 Clouds 19 1015 72 10000 2.6 170 00:55 10.07.2020
229 Clouds 20 1015 77 10000 2.6 170 00:23 10.07.2020
230 Clouds 21 1015 72 10000 4.1 170 23:56 09.07.2020
231 Clouds 21 1015 72 10000 4.1 170 23:37 09.07.2020
232 Clouds 21 1015 72 10000 4.1 170 23:19 09.07.2020
233 Clouds 22 1015 72 10000 3.6 180 22:56 09.07.2020
234 Clouds 22 1015 68 10000 3.1 170 22:38 09.07.2020
235 Clouds 22 1015 68 10000 3.1 170 22:19 09.07.2020
236 Clouds 23 1015 64 10000 3.1 170 21:54 09.07.2020
237 Clouds 24 1015 60 10000 4.6 160 21:36 09.07.2020
238 Clouds 24 1015 60 10000 4.6 160 21:18 09.07.2020
239 Clouds 25 1015 53 10000 3.6 150 20:41 09.07.2020
240 Clouds 26 1015 50 10000 4.6 150 20:22 09.07.2020
241 Clouds 26 1015 47 10000 4.1 150 19:43 09.07.2020
242 Clouds 27 1015 44 10000 5.1 160 19:22 09.07.2020
243 Clouds 27 1015 42 10000 5.7 160 18:58 09.07.2020
244 Clouds 27 1015 42 10000 5.7 160 18:40 09.07.2020
245 Clouds 28 1016 42 10000 4.6 150 18:19 09.07.2020
246 Clouds 28 1016 44 10000 4.6 140 17:43 09.07.2020
247 Clouds 28 1016 44 10000 5.1 140 17:23 09.07.2020
248 Clouds 28 1016 44 10000 5.1 150 16:58 09.07.2020
249 Clouds 28 1016 44 10000 5.1 150 16:39 09.07.2020
250 Clouds 28 1017 47 10000 5.7 140 16:19 09.07.2020
251 Clouds 29 1017 42 10000 5.1 150 15:59 09.07.2020
252 Clouds 29 1017 42 10000 5.1 150 15:38 09.07.2020
253 Clouds 29 1017 48 10000 4.6 150 15:20 09.07.2020
254 Clouds 28 1017 48 10000 3.1 0 14:58 09.07.2020
255 Clouds 29 1017 48 10000 3.1 0 14:40 09.07.2020
256 Rain 28 1018 50 10000 1 0 14:20 09.07.2020
257 Rain 28 1016 69 0 1.34 262 13:56 09.07.2020
258 Rain 28 1016 70 0 0.89 237 13:56 09.07.2020
259 Rain 27 1018 53 10000 3.1 100 13:38 09.07.2020
260 Clouds 26 1018 57 10000 3.1 120 13:19 09.07.2020
261 Clouds 26 1019 50 10000 3.1 140 12:42 09.07.2020
262 Clouds 25 1019 57 10000 2.1 0 12:23 09.07.2020
263 Clouds 25 1019 57 10000 2.1 0 12:23 09.07.2020
264 Clouds 24 1019 60 10000 2.6 120 11:58 09.07.2020
265 Clouds 25 1019 60 10000 2.6 120 11:40 09.07.2020
266 Clouds 24 1019 60 10000 2.1 0 11:19 09.07.2020
267 Clouds 23 1019 64 10000 2.1 60 10:56 09.07.2020
268 Clouds 23 1019 64 10000 2.1 60 10:38 09.07.2020
269 Clouds 22 1019 60 10000 1.5 150 10:20 09.07.2020
270 Clouds 20 1019 64 10000 1.5 150 09:43 09.07.2020
271 Clouds 20 1019 68 10000 1.5 0 09:23 09.07.2020
272 Clouds 19 1019 72 10000 1.5 110 08:52 09.07.2020
273 Clouds 18 1019 82 10000 1.5 160 08:27 09.07.2020
274 Clouds 17 1019 77 10000 1 0 07:58 09.07.2020
275 Clouds 17 1019 77 10000 1 0 07:40 09.07.2020
276 Clouds 17 1019 82 10000 2.1 140 07:21 09.07.2020
277 Clouds 16 1019 82 10000 1 110 06:21 09.07.2020
278 Clouds 16 1019 82 10000 1 80 05:57 09.07.2020
279 Rain 16 1019 82 10000 1.5 360 04:29 09.07.2020
280 Clouds 16 1019 82 10000 2.1 350 03:24 09.07.2020
281 Clouds 17 1019 82 10000 1.5 330 01:58 09.07.2020
282 Clouds 17 1019 82 10000 1.5 350 01:21 09.07.2020
283 Clouds 17 1019 82 10000 2.1 10 00:43 09.07.2020
284 Clouds 17 1019 82 10000 2.1 10 00:23 09.07.2020
285 Clouds 17 1019 77 10000 3.1 360 23:44 08.07.2020
286 Clouds 17 1018 77 10000 4.1 10 23:26 08.07.2020
287 Clouds 17 1018 72 10000 6.7 10 22:57 08.07.2020
288 Clouds 17 1018 72 10000 6.7 10 22:38 08.07.2020
289 Clouds 17 1018 72 10000 6.7 10 22:38 08.07.2020
290 Clouds 18 1018 68 10000 7.2 350 22:20 08.07.2020
291 Clouds 18 1017 63 10000 5.7 350 21:57 08.07.2020
292 Clouds 19 1017 63 10000 5.7 350 21:38 08.07.2020
293 Clouds 20 1016 49 10000 7.2 350 21:20 08.07.2020
294 Clouds 22 1015 50 10000 1.5 250 20:43 08.07.2020
295 Clouds 24 1015 47 10000 2.1 220 20:25 08.07.2020
296 Clouds 24 1015 44 10000 3.6 230 19:58 08.07.2020
297 Clouds 25 1015 44 10000 3.6 230 19:39 08.07.2020
298 Clouds 25 1015 41 10000 2.6 190 19:21 08.07.2020
299 Clouds 26 1015 39 10000 4.1 190 18:55 08.07.2020
300 Clouds 26 1015 39 10000 4.1 190 18:55 08.07.2020
301 Clouds 26 1015 36 10000 4.6 180 18:36 08.07.2020
302 Clouds 26 1015 36 10000 4.6 180 18:18 08.07.2020
303 Clouds 26 1015 36 10000 4.6 180 18:18 08.07.2020
304 Clouds 27 1015 36 10000 5.1 180 17:54 08.07.2020
305 Clouds 27 1015 36 10000 5.1 180 17:54 08.07.2020
306 Clouds 26 1015 36 10000 5.1 180 17:36 08.07.2020
307 Clouds 26 1015 36 10000 4.6 180 17:18 08.07.2020
308 Clouds 27 1014 59 0 1.34 256 16:39 08.07.2020
309 Clouds 27 1015 36 10000 2.6 190 16:20 08.07.2020
310 Clouds 27 1016 34 10000 3.6 210 15:58 08.07.2020
311 Clouds 27 1016 34 10000 3.6 210 15:39 08.07.2020
312 Clouds 26 1016 36 10000 3.1 130 15:19 08.07.2020
313 Clouds 26 1016 36 10000 2.6 220 14:46 08.07.2020
314 Clouds 26 1017 36 10000 1.5 0 14:28 08.07.2020
315 Clouds 26 1017 38 10000 3.6 150 13:58 08.07.2020
316 Clouds 25 1017 38 10000 3.6 150 13:40 08.07.2020
317 Clouds 25 1017 41 10000 3.1 180 13:20 08.07.2020
318 Clouds 24 1017 38 10000 2.1 220 12:43 08.07.2020
319 Clouds 23 1018 40 10000 2.6 0 12:21 08.07.2020
320 Clouds 23 1018 46 10000 2.1 20 11:56 08.07.2020
321 Clouds 23 1018 46 10000 2.1 20 11:38 08.07.2020
322 Clouds 23 1018 40 10000 2.1 360 11:20 08.07.2020
323 Clouds 23 1018 43 10000 2.1 0 10:44 08.07.2020
324 Clouds 22 1018 43 10000 1.5 250 10:25 08.07.2020
325 Clouds 21 1018 49 10000 1.5 0 09:46 08.07.2020
326 Clear 20 1018 55 10000 1.5 170 09:26 08.07.2020
327 Clear 18 1018 59 10000 1.5 210 08:58 08.07.2020
328 Clear 19 1018 59 10000 1.5 210 08:39 08.07.2020
329 Clear 17 1018 67 10000 1.5 180 08:20 08.07.2020
330 Clear 16 1018 76 10000 2.1 160 07:44 08.07.2020
331 Clear 14 1018 87 10000 2.1 160 07:22 08.07.2020
332 Clear 14 1018 81 10000 2.1 170 06:52 08.07.2020
333 Clear 12 1018 87 10000 2.1 200 06:31 08.07.2020
334 Clear 11 1018 87 10000 2.6 180 05:49 08.07.2020
335 Clear 11 1018 87 10000 2.6 170 04:58 08.07.2020
336 Clear 12 1018 87 10000 2.6 170 04:20 08.07.2020
337 Clear 13 1017 83 0 0.74 223 02:20 08.07.2020
338 Clear 13 1017 82 0 0.74 223 01:39 08.07.2020
339 Clear 13 1019 67 10000 2.1 230 00:56 08.07.2020
340 Clear 14 1019 62 10000 2.1 180 00:22 08.07.2020
341 Clear 14 1019 67 10000 2.1 170 23:44 07.07.2020
342 Clear 14 1019 62 10000 1.5 150 23:22 07.07.2020
343 Clear 15 1018 62 10000 2.1 130 22:58 07.07.2020
344 Clear 15 1018 62 10000 2.1 130 22:39 07.07.2020
345 Clear 16 1018 63 10000 1.5 110 22:20 07.07.2020
346 Clear 16 1018 59 10000 1.5 80 21:58 07.07.2020
347 Clear 17 1018 59 10000 1.5 80 21:38 07.07.2020
348 Clear 18 1018 52 10000 2.1 60 21:19 07.07.2020
349 Clear 18 1018 48 10000 2.1 10 20:56 07.07.2020
350 Clear 19 1018 48 10000 2.1 10 20:37 07.07.2020
351 Clouds 20 1018 48 10000 2.6 10 20:19 07.07.2020
352 Clouds 20 1018 45 10000 3.1 330 19:39 07.07.2020
353 Clouds 21 1018 45 10000 3.1 330 19:20 07.07.2020
354 Clouds 21 1018 37 10000 4.1 320 18:55 07.07.2020
355 Clouds 21 1018 37 10000 4.1 320 18:37 07.07.2020
356 Clouds 21 1018 40 10000 5.1 330 18:19 07.07.2020
357 Clouds 21 1018 45 10000 4.1 330 17:56 07.07.2020
358 Clouds 21 1018 45 10000 4.1 330 17:37 07.07.2020
359 Clouds 21 1018 40 10000 5.7 330 17:19 07.07.2020
360 Clouds 21 1019 42 10000 5.1 330 16:42 07.07.2020
361 Clouds 21 1019 43 10000 4.6 320 16:23 07.07.2020
362 Clouds 21 1019 42 10000 6.2 340 15:56 07.07.2020
363 Clouds 21 1019 42 10000 6.2 340 15:37 07.07.2020
364 Clouds 21 1019 40 10000 6.2 320 15:19 07.07.2020
365 Clouds 21 1019 43 10000 6.7 350 14:46 07.07.2020
366 Clouds 21 1019 45 10000 5.7 340 14:25 07.07.2020
367 Clouds 20 1019 45 10000 6.2 330 13:46 07.07.2020
368 Clear 20 1019 45 10000 8.2 320 13:22 07.07.2020
369 Clouds 20 1019 45 10000 6.7 320 12:58 07.07.2020
370 Clouds 20 1019 45 10000 6.7 320 12:40 07.07.2020
371 Clouds 19 1019 48 10000 7.7 320 12:21 07.07.2020
372 Clouds 19 1019 48 10000 6.7 320 11:48 07.07.2020
373 Clouds 19 1020 48 10000 7.2 310 11:24 07.07.2020
374 Clouds 18 1020 55 10000 6.2 320 10:59 07.07.2020
375 Clouds 18 1020 55 10000 6.2 320 10:41 07.07.2020
376 Clouds 18 1020 55 10000 6.7 320 10:21 07.07.2020
377 Clouds 17 1020 55 10000 6.2 330 09:55 07.07.2020
378 Clouds 17 1020 55 10000 6.2 330 09:37 07.07.2020
379 Clouds 16 1020 59 10000 6.2 330 09:18 07.07.2020
380 Clear 16 1020 59 10000 7.2 320 08:40 07.07.2020
381 Clouds 16 1019 55 10000 6.7 320 08:21 07.07.2020
382 Clouds 15 1019 62 10000 5.7 320 07:41 07.07.2020
383 Clouds 15 1019 62 10000 5.7 320 07:21 07.07.2020
384 Clouds 15 1019 58 10000 4.6 330 06:49 07.07.2020
385 Clouds 14 1018 62 10000 4.6 330 06:28 07.07.2020
386 Clouds 14 1018 54 10000 6.2 320 05:51 07.07.2020
387 Clouds 14 1017 51 10000 7.7 320 05:21 07.07.2020
388 Clouds 15 1017 51 10000 6.2 320 04:38 07.07.2020
389 Clouds 16 1016 51 10000 7.7 320 03:35 07.07.2020
390 Rain 17 1016 59 10000 6.7 300 02:21 07.07.2020
391 Clouds 17 1016 63 10000 6.2 310 01:22 07.07.2020
392 Clouds 17 1016 63 10000 6.7 300 00:42 07.07.2020
393 Rain 17 1016 63 10000 7.2 310 00:24 07.07.2020
394 Rain 17 1016 72 10000 9.3 280 23:46 06.07.2020
395 Rain 17 1014 72 10000 7.7 280 23:26 06.07.2020
396 Rain 16 1015 77 10000 7.2 280 22:59 06.07.2020
397 Rain 16 1015 77 10000 7.2 280 22:40 06.07.2020
398 Rain 17 1014 77 10000 8.2 280 22:19 06.07.2020
399 Rain 17 1014 77 10000 9.8 290 21:57 06.07.2020
400 Rain 17 1014 77 10000 9.8 290 21:38 06.07.2020
401 Rain 19 1013 68 10000 9.8 280 21:19 06.07.2020
402 Rain 19 1012 84 0 0.89 218 20:59 06.07.2020
403 Clouds 20 1012 53 10000 8.2 290 20:37 06.07.2020
404 Rain 20 1012 53 10000 9.8 300 20:19 06.07.2020
405 Clouds 21 1011 60 10000 7.2 320 19:56 06.07.2020
406 Clouds 23 1011 56 10000 5.1 330 19:37 06.07.2020
407 Clouds 23 1011 56 10000 5.1 330 19:19 06.07.2020
408 Clouds 23 1011 56 10000 6.2 330 18:41 06.07.2020
409 Clouds 24 1011 60 10000 5.7 340 18:23 06.07.2020
410 Clouds 24 1011 57 10000 8.7 330 17:59 06.07.2020
411 Clouds 24 1011 57 10000 8.7 330 17:41 06.07.2020
412 Clouds 24 1010 54 10000 7.7 330 17:21 06.07.2020
413 Clouds 25 1010 54 10000 7.7 330 16:55 06.07.2020
414 Clouds 26 1010 54 10000 7.7 330 16:37 06.07.2020
415 Clouds 28 1009 40 10000 8.7 310 16:18 06.07.2020
416 Clouds 28 1009 35 10000 8.2 300 15:42 06.07.2020
417 Clouds 30 1010 37 10000 9.3 280 15:24 06.07.2020
418 Rain 30 1010 33 10000 9.3 280 14:57 06.07.2020
419 Rain 30 1010 33 10000 9.3 280 14:37 06.07.2020
420 Rain 30 1010 35 10000 8.7 280 14:19 06.07.2020
421 Rain 30 1010 40 10000 7.7 290 13:48 06.07.2020
422 Clear 29 1010 45 10000 6.7 260 13:28 06.07.2020
423 Clouds 29 1011 39 10000 6.7 270 12:58 06.07.2020
424 Clouds 29 1011 39 10000 6.7 270 12:39 06.07.2020
425 Clouds 28 1011 42 10000 6.2 290 12:18 06.07.2020
426 Clouds 28 1011 45 10000 6.7 280 11:57 06.07.2020
427 Clouds 28 1011 45 10000 6.7 280 11:37 06.07.2020
428 Clouds 28 1011 48 10000 4.6 300 11:19 06.07.2020
429 Clouds 27 1012 54 10000 4.1 320 10:42 06.07.2020
430 Clouds 27 1012 54 10000 4.1 320 10:22 06.07.2020
431 Clouds 27 1012 57 10000 2.6 330 09:58 06.07.2020
432 Clouds 27 1012 57 10000 2.6 330 09:39 06.07.2020
433 Clouds 25 1012 57 10000 3.6 300 09:21 06.07.2020
434 Clouds 24 1012 61 10000 4.1 270 08:55 06.07.2020
435 Clouds 24 1012 69 10000 1 0 08:36 06.07.2020
436 Clouds 23 1012 69 10000 1 0 08:18 06.07.2020
437 Clouds 23 1012 68 10000 1 0 07:40 06.07.2020
438 Clouds 22 1013 82 10000 2.1 180 07:22 06.07.2020
439 Clouds 20 1013 77 10000 2.1 160 06:39 06.07.2020
440 Clear 19 1013 82 10000 2.1 180 06:20 06.07.2020
441 Clear 19 1013 82 10000 2.1 180 06:20 06.07.2020
442 Clear 18 1013 88 10000 3.1 180 05:33 06.07.2020
443 Clear 19 1013 77 10000 1.5 210 04:52 06.07.2020
444 Clear 19 1013 82 10000 1 0 03:26 06.07.2020
445 Clear 20 1013 72 10000 2.1 230 02:22 06.07.2020
446 Clear 21 1013 64 10000 3.6 250 01:26 06.07.2020
447 Clouds 22 1014 60 10000 3.1 260 00:36 06.07.2020
448 Clouds 22 1014 60 10000 3.1 260 00:18 06.07.2020
449 Clouds 22 1013 57 10000 3.1 250 23:41 05.07.2020
450 Clouds 22 1013 53 10000 3.1 260 23:23 05.07.2020
451 Clouds 22 1014 50 10000 3.1 260 22:59 05.07.2020
452 Clouds 23 1014 50 10000 3.1 260 22:39 05.07.2020
453 Clear 23 1014 53 10000 3.1 260 22:19 05.07.2020
454 Clear 23 1014 50 10000 2.6 260 21:57 05.07.2020
455 Clouds 25 1014 50 10000 2.6 260 21:38 05.07.2020
456 Clouds 25 1013 44 10000 3.6 270 21:18 05.07.2020
457 Clouds 26 1013 44 10000 4.1 300 20:57 05.07.2020
458 Clear 27 1013 39 10000 6.2 290 20:38 05.07.2020
459 Clear 27 1013 39 10000 6.2 290 20:20 05.07.2020
460 Clear 27 1014 39 10000 5.7 270 19:42 05.07.2020
461 Clear 28 1014 39 10000 6.2 260 19:21 05.07.2020
462 Clear 28 1014 39 10000 5.1 260 18:56 05.07.2020
463 Clear 29 1014 39 10000 5.1 260 18:37 05.07.2020
464 Clear 29 1014 39 10000 5.7 270 18:19 05.07.2020
465 Clear 29 1014 42 10000 5.7 270 17:43 05.07.2020
466 Clear 29 1014 39 10000 4.6 260 17:20 05.07.2020
467 Clear 29 1015 39 10000 4.6 250 16:59 05.07.2020
468 Clear 29 1015 39 10000 4.6 250 16:40 05.07.2020
469 Clear 29 1015 39 10000 3.6 290 16:21 05.07.2020
470 Clear 29 1015 39 10000 3.6 330 15:41 05.07.2020
471 Clear 29 1016 42 10000 4.1 330 15:20 05.07.2020
472 Clear 29 1016 42 10000 4.1 330 15:20 05.07.2020
473 Clear 28 1016 42 10000 4.6 320 14:57 05.07.2020
474 Clear 29 1016 45 10000 4.1 310 14:38 05.07.2020
475 Clear 29 1016 45 10000 4.1 310 14:20 05.07.2020
476 Clear 28 1016 42 10000 5.1 310 13:41 05.07.2020
477 Clear 28 1017 42 10000 4.6 290 13:23 05.07.2020
478 Clear 27 1017 42 10000 5.7 310 12:46 05.07.2020
479 Clear 27 1017 42 10000 4.6 300 12:22 05.07.2020
480 Clear 26 1017 44 10000 4.6 330 11:57 05.07.2020
481 Clear 26 1017 44 10000 4.6 330 11:38 05.07.2020
482 Clear 26 1017 44 10000 4.6 330 11:38 05.07.2020
483 Clear 26 1017 47 10000 5.1 310 11:20 05.07.2020
484 Clear 26 1018 44 10000 5.1 300 10:56 05.07.2020
485 Clear 25 1018 47 10000 6.2 310 10:37 05.07.2020
486 Clear 25 1018 47 10000 6.2 310 10:18 05.07.2020
487 Clear 24 1018 50 10000 6.7 300 09:42 05.07.2020
488 Clear 23 1018 50 10000 5.7 310 09:21 05.07.2020
489 Clear 22 1018 56 10000 4.6 300 08:58 05.07.2020
490 Clear 21 1018 60 10000 4.1 310 08:38 05.07.2020
491 Clear 21 1018 60 10000 4.1 310 08:19 05.07.2020
492 Clear 21 1018 64 10000 2.1 320 07:43 05.07.2020
493 Clear 20 1018 68 10000 0.5 0 07:22 05.07.2020
494 Clear 18 1018 77 10000 0.5 0 06:47 05.07.2020
495 Clouds 17 1017 68 10000 3.1 260 04:37 05.07.2020
496 Clear 17 1017 82 10000 1 0 03:19 05.07.2020
497 Clear 18 1017 63 10000 2.1 280 02:41 05.07.2020
498 Clear 18 1017 63 10000 2.1 280 02:41 05.07.2020
499 Clear 18 1017 63 10000 2.6 270 01:59 05.07.2020
500 Clear 19 1017 63 10000 3.1 270 01:31 05.07.2020
501 Clear 19 1017 56 10000 3.1 260 00:53 05.07.2020
502 Clear 19 1017 52 10000 4.1 260 00:31 05.07.2020
503 Clear 19 1017 52 10000 3.6 250 23:58 04.07.2020
504 Clear 20 1017 52 10000 3.6 250 23:40 04.07.2020
505 Clear 20 1017 49 10000 3.6 260 23:22 04.07.2020
506 Clear 20 1017 49 10000 2.1 250 22:43 04.07.2020
507 Clear 20 1017 49 10000 2.6 270 22:25 04.07.2020
508 Clear 21 1017 46 10000 3.1 270 21:58 04.07.2020
509 Clear 21 1017 46 10000 3.1 270 21:40 04.07.2020
510 Clear 22 1017 44 10000 4.1 280 21:22 04.07.2020
511 Clear 24 1016 50 10000 3.1 320 20:43 04.07.2020
512 Clear 24 1016 50 10000 2.6 330 20:22 04.07.2020
513 Clouds 24 1016 47 10000 3.6 330 19:59 04.07.2020
514 Clouds 25 1016 47 10000 3.6 330 19:41 04.07.2020
515 Clear 25 1016 41 10000 3.6 320 19:21 04.07.2020
516 Clear 26 1017 41 10000 3.1 330 18:46 04.07.2020
517 Clear 26 1017 41 10000 3.1 330 18:24 04.07.2020
518 Clear 26 1017 36 10000 3.1 330 17:59 04.07.2020
519 Clear 27 1017 36 10000 3.1 330 17:41 04.07.2020
520 Clear 26 1017 36 10000 4.6 320 17:22 04.07.2020
521 Clear 26 1017 36 10000 3.6 300 16:56 04.07.2020
522 Clear 26 1017 36 10000 3.6 300 16:37 04.07.2020
523 Clear 26 1017 41 10000 2.6 350 16:18 04.07.2020
524 Clear 26 1018 41 10000 3.1 360 15:42 04.07.2020
525 Clear 26 1018 47 10000 2.6 10 15:24 04.07.2020
526 Clear 26 1018 44 10000 2.1 0 14:58 04.07.2020
527 Clear 26 1018 44 10000 2.1 0 14:37 04.07.2020
528 Clear 26 1019 41 10000 4.1 350 14:18 04.07.2020
529 Clear 25 1019 44 10000 3.6 350 13:43 04.07.2020
530 Clear 25 1019 38 10000 3.1 320 13:20 04.07.2020
531 Clear 25 1019 41 10000 3.6 320 12:59 04.07.2020
532 Clear 25 1019 41 10000 3.6 320 12:40 04.07.2020
533 Clear 24 1019 46 10000 3.6 350 12:20 04.07.2020
534 Clouds 24 1019 47 10000 3.6 330 11:45 04.07.2020
535 Clouds 23 1019 53 10000 3.6 330 11:24 04.07.2020
536 Clouds 23 1019 53 10000 3.6 320 10:57 04.07.2020
537 Clouds 23 1019 56 10000 3.1 330 10:38 04.07.2020
538 Clouds 23 1019 56 10000 3.1 330 10:19 04.07.2020
539 Clouds 22 1019 56 10000 3.1 330 09:54 04.07.2020
540 Clouds 22 1019 56 10000 3.1 330 09:36 04.07.2020
541 Clouds 21 1019 64 10000 2.6 320 09:18 04.07.2020
542 Clouds 20 1019 64 10000 2.6 330 08:43 04.07.2020
543 Clear 19 1019 72 10000 1.5 320 08:24 04.07.2020
544 Clear 18 1019 77 10000 1 0 07:43 04.07.2020
545 Clear 17 1019 82 10000 0.5 0 07:25 04.07.2020
546 Clear 16 1019 87 10000 0.5 0 06:48 04.07.2020
547 Clear 16 1019 82 10000 1 100 06:20 04.07.2020
548 Clear 15 1018 77 10000 3.6 300 05:32 04.07.2020
549 Clear 15 1018 77 10000 2.6 290 04:23 04.07.2020
550 Clear 16 1019 72 10000 3.1 280 02:48 04.07.2020
551 Clear 16 1019 72 10000 3.1 260 01:51 04.07.2020
552 Clear 17 1018 67 10000 3.1 310 00:59 04.07.2020
553 Clear 16 1018 67 10000 3.1 310 00:40 04.07.2020
554 Clear 17 1018 63 10000 4.1 300 00:21 04.07.2020
555 Clear 18 1018 63 10000 3.1 300 23:39 03.07.2020
556 Clear 18 1018 63 10000 3.1 300 23:18 03.07.2020
557 Clear 18 1018 63 10000 3.1 310 22:43 03.07.2020
558 Clear 19 1018 56 10000 3.6 310 22:25 03.07.2020
559 Clear 19 1017 56 10000 3.6 310 21:59 03.07.2020
560 Clear 19 1017 56 10000 3.6 310 21:59 03.07.2020
561 Clear 20 1017 52 10000 2.6 330 21:39 03.07.2020
562 Clear 20 1017 52 10000 2.6 330 21:19 03.07.2020
563 Clear 21 1016 49 10000 3.1 330 20:46 03.07.2020
564 Clouds 22 1016 49 10000 4.1 350 20:26 03.07.2020
565 Clouds 23 1016 44 10000 4.6 340 19:59 03.07.2020
566 Clouds 23 1015 44 10000 6.7 310 19:40 03.07.2020
567 Clouds 23 1015 44 10000 6.7 310 19:18 03.07.2020
568 Clouds 24 1015 44 10000 6.7 310 18:45 03.07.2020
569 Clouds 24 1015 47 10000 6.2 310 18:24 03.07.2020
570 Clouds 24 1015 44 10000 5.7 300 17:59 03.07.2020
571 Clouds 24 1015 44 10000 5.7 300 17:41 03.07.2020
572 Clouds 24 1015 47 10000 6.2 310 17:20 03.07.2020
573 Clouds 24 1015 44 10000 7.7 310 16:41 03.07.2020
574 Clouds 24 1015 47 10000 4.6 320 16:23 03.07.2020
575 Clouds 24 1016 56 10000 4.6 310 15:46 03.07.2020
576 Clouds 24 1016 57 10000 7.2 320 15:24 03.07.2020
577 Clouds 24 1016 60 10000 6.2 310 14:57 03.07.2020
578 Clouds 24 1016 60 10000 6.2 310 14:39 03.07.2020
579 Clouds 23 1016 60 10000 7.2 320 14:19 03.07.2020
580 Clouds 23 1016 64 10000 7.7 310 13:47 03.07.2020
581 Clouds 23 1016 64 10000 6.2 320 13:29 03.07.2020
582 Clouds 22 1016 68 10000 6.2 310 12:54 03.07.2020
583 Clouds 21 1016 77 10000 4.6 320 12:36 03.07.2020
584 Clouds 21 1016 77 10000 4.6 320 12:18 03.07.2020
585 Rain 20 1016 88 10000 4.1 310 11:42 03.07.2020
586 Rain 19 1016 88 10000 5.1 310 11:23 03.07.2020
587 Rain 19 1016 88 10000 5.1 310 10:58 03.07.2020
588 Rain 18 1016 88 10000 5.1 310 10:39 03.07.2020
589 Rain 18 1016 82 10000 6.2 300 10:20 03.07.2020
590 Rain 18 1016 77 10000 6.7 280 09:54 03.07.2020
591 Rain 17 1016 77 10000 6.7 280 09:36 03.07.2020
592 Rain 18 1015 72 10000 8.2 280 09:18 03.07.2020
593 Rain 18 1015 77 10000 8.2 300 08:39 03.07.2020
594 Rain 18 1015 77 10000 6.2 290 08:19 03.07.2020
595 Rain 18 1014 72 10000 6.2 290 07:48 03.07.2020
596 Rain 18 1014 68 10000 8.7 290 07:26 03.07.2020
597 Rain 18 1014 68 10000 6.2 290 06:49 03.07.2020
598 Clouds 18 1014 72 10000 8.2 290 06:19 03.07.2020
599 Clouds 19 1013 77 10000 4.1 310 04:55 03.07.2020
600 Clouds 19 1012 82 10000 2.1 340 03:32 03.07.2020
601 Clouds 19 1012 77 10000 2.6 290 02:47 03.07.2020
602 Clouds 19 1012 77 10000 2.6 280 02:27 03.07.2020
603 Clouds 19 1012 77 10000 2.6 320 01:28 03.07.2020
604 Clouds 19 1012 77 10000 3.6 320 00:50 03.07.2020
605 Clouds 19 1012 82 10000 3.1 340 00:32 03.07.2020
606 Clouds 19 1012 82 10000 3.1 340 23:47 02.07.2020
607 Rain 20 1012 82 10000 1.5 300 23:20 02.07.2020
608 Rain 20 1012 88 10000 2.1 170 22:58 02.07.2020
609 Rain 20 1012 88 10000 2.1 170 22:40 02.07.2020
610 Rain 20 1012 88 10000 2.1 140 22:20 02.07.2020
611 Rain 21 1012 88 10000 3.6 170 21:56 02.07.2020
612 Clouds 21 1012 88 10000 3.6 170 21:38 02.07.2020
613 Clouds 22 1012 78 10000 2.1 0 21:18 02.07.2020
614 Clouds 23 1012 73 10000 1 0 20:57 02.07.2020
615 Clouds 24 1012 73 10000 1 0 20:39 02.07.2020
616 Clouds 24 1011 64 10000 3.6 300 20:18 02.07.2020
617 Clouds 25 1011 65 10000 4.1 340 19:41 02.07.2020
618 Clouds 26 1011 65 10000 4.1 340 19:22 02.07.2020
619 Clouds 25 1011 57 10000 3.6 320 18:58 02.07.2020
620 Clouds 26 1011 57 10000 3.6 320 18:40 02.07.2020
621 Clouds 26 1011 57 10000 4.1 320 18:21 02.07.2020
622 Clouds 28 1011 57 10000 3.6 320 17:54 02.07.2020
623 Clouds 28 1011 57 10000 3.6 320 17:36 02.07.2020
624 Clouds 28 1011 57 10000 3.6 320 17:36 02.07.2020
625 Clouds 28 1011 58 10000 3.1 330 17:18 02.07.2020
626 Clouds 29 1011 48 10000 3.6 320 16:40 02.07.2020
627 Clouds 29 1011 48 10000 3.6 320 16:20 02.07.2020
628 Clouds 30 1011 51 10000 4.1 320 15:55 02.07.2020
629 Clouds 30 1011 51 10000 4.1 320 15:36 02.07.2020
630 Clouds 29 1011 51 10000 3.6 330 15:18 02.07.2020
631 Clouds 29 1011 51 10000 4.1 320 14:44 02.07.2020
632 Clouds 29 1011 51 10000 5.1 320 14:21 02.07.2020
633 Clouds 29 1012 48 10000 5.7 310 13:56 02.07.2020
634 Clouds 29 1012 48 10000 5.7 310 13:37 02.07.2020
635 Clouds 28 1012 51 10000 6.2 310 13:18 02.07.2020
636 Clouds 27 1012 51 10000 6.2 310 12:41 02.07.2020
637 Clouds 27 1012 51 10000 6.2 310 12:22 02.07.2020
638 Clouds 27 1012 50 10000 6.7 310 11:55 02.07.2020
639 Clouds 26 1012 54 10000 7.2 310 11:37 02.07.2020
640 Clouds 26 1012 54 10000 7.2 310 11:19 02.07.2020
641 Clouds 25 1012 57 10000 7.2 310 10:42 02.07.2020
642 Clouds 25 1012 57 10000 5.1 310 10:23 02.07.2020
643 Clouds 24 1012 60 10000 7.2 300 09:44 02.07.2020
644 Clouds 23 1012 60 10000 6.7 300 09:23 02.07.2020
645 Clouds 22 1012 68 10000 5.7 300 08:59 02.07.2020
646 Clouds 22 1011 73 10000 2.6 340 08:40 02.07.2020
647 Clouds 22 1011 73 10000 2.6 340 08:20 02.07.2020
648 Rain 21 1011 73 10000 3.6 280 07:42 02.07.2020
649 Rain 20 1011 72 10000 4.6 280 07:22 02.07.2020
650 Rain 19 1011 82 10000 3.1 280 06:47 02.07.2020
651 Clouds 18 1011 88 10000 1 0 06:27 02.07.2020
652 Clouds 17 1010 93 10000 1.5 180 05:49 02.07.2020
653 Clouds 17 1010 88 10000 1.5 210 04:55 02.07.2020
654 Clouds 18 1010 88 10000 1 0 03:34 02.07.2020
655 Rain 18 1010 93 10000 4.6 160 01:51 02.07.2020
656 Clouds 19 1010 88 10000 2.1 210 00:44 02.07.2020
657 Rain 19 1010 93 10000 1.5 180 00:18 02.07.2020
658 Rain 19 1010 88 10000 1.5 230 23:43 01.07.2020
659 Rain 19 1011 88 10000 7.2 220 23:22 01.07.2020
660 Rain 20 1011 88 10000 10.3 230 22:55 01.07.2020
661 Rain 20 1011 88 10000 10.3 230 22:37 01.07.2020
662 Rain 20 1011 82 10000 3.6 190 22:18 01.07.2020
663 Rain 20 1010 77 10000 2.6 220 21:56 01.07.2020
664 Rain 20 1010 77 10000 2.6 220 21:38 01.07.2020
665 Rain 20 1011 77 10000 6.7 220 21:19 01.07.2020
666 Rain 21 1010 78 10000 7.7 280 20:46 01.07.2020
667 Rain 22 1010 74 10000 3.6 200 20:26 01.07.2020
668 Rain 24 1010 65 10000 2.6 180 19:58 01.07.2020
669 Rain 26 1010 65 10000 3.1 180 19:39 01.07.2020
670 Rain 26 1010 65 10000 3.1 180 19:20 01.07.2020
671 Rain 27 1010 61 10000 3.6 150 18:56 01.07.2020
672 Clouds 27 1010 61 10000 3.6 150 18:38 01.07.2020
673 Clouds 28 1010 58 10000 3.6 150 18:20 01.07.2020
674 Clouds 29 1010 54 10000 4.1 130 17:41 01.07.2020
675 Clouds 29 1010 54 10000 4.1 130 17:20 01.07.2020
676 Clouds 30 1010 51 10000 5.1 150 16:57 01.07.2020
677 Clouds 30 1010 51 10000 5.1 150 16:39 01.07.2020
678 Clouds 30 1011 51 10000 5.1 130 16:20 01.07.2020
679 Clouds 29 1011 51 10000 3.6 140 15:42 01.07.2020
680 Clouds 30 1011 51 10000 4.6 150 15:23 01.07.2020
681 Clouds 30 1012 48 10000 5.1 150 14:58 01.07.2020
682 Clouds 30 1012 51 10000 4.6 160 14:38 01.07.2020
683 Clouds 30 1012 51 10000 4.6 160 14:19 01.07.2020
684 Clouds 30 1012 51 10000 2.6 140 13:40 01.07.2020
685 Clouds 29 1012 48 10000 3.6 150 13:22 01.07.2020
686 Clouds 29 1013 51 10000 4.6 160 12:59 01.07.2020
687 Clouds 29 1013 51 10000 4.6 160 12:40 01.07.2020
688 Clouds 28 1013 51 10000 4.1 150 12:22 01.07.2020
689 Clouds 28 1013 51 10000 3.6 150 11:58 01.07.2020
690 Clouds 28 1013 51 10000 3.6 150 11:39 01.07.2020
691 Clouds 27 1013 50 10000 3.1 150 11:20 01.07.2020
692 Clouds 26 1013 50 10000 3.1 120 10:43 01.07.2020
693 Clear 26 1013 53 10000 2.1 150 10:23 01.07.2020
694 Clear 26 1013 53 10000 1.5 140 09:59 01.07.2020
695 Clear 25 1013 53 10000 1.5 140 09:38 01.07.2020
696 Clear 23 1013 60 10000 2.1 150 09:20 01.07.2020
697 Clear 23 1013 60 10000 2.1 150 09:20 01.07.2020
698 Clear 23 1013 69 10000 1.5 210 08:57 01.07.2020
699 Clear 23 1013 69 10000 1.5 210 08:38 01.07.2020
700 Clear 21 1013 77 10000 1.5 160 08:19 01.07.2020
701 Clear 21 1013 77 10000 1.5 160 07:40 01.07.2020
702 Clear 19 1013 82 10000 2.6 170 07:21 01.07.2020
703 Clear 18 1013 82 10000 2.1 170 06:51 01.07.2020
704 Clear 18 1013 82 10000 2.1 170 06:30 01.07.2020
705 Clear 17 1013 87 10000 2.6 180 05:35 01.07.2020
706 Clear 18 1012 82 10000 2.6 180 03:55 01.07.2020
707 Clear 18 1011 89 0 0.49 314 03:36 01.07.2020
708 Clear 18 1012 82 10000 2.1 170 03:18 01.07.2020
709 Clouds 19 1012 82 10000 1.5 170 01:55 01.07.2020
710 Clouds 20 1012 72 10000 2.1 200 00:48 01.07.2020
711 Clouds 20 1012 72 10000 2.6 190 00:26 01.07.2020
712 Clouds 20 1012 72 10000 2.6 160 23:57 30.06.2020
713 Clouds 20 1012 72 10000 2.6 160 23:39 30.06.2020
714 Clouds 20 1012 68 10000 2.1 160 23:19 30.06.2020
715 Clouds 21 1012 72 10000 2.6 160 22:41 30.06.2020
716 Clear 21 1012 68 10000 2.6 160 22:18 30.06.2020
717 Clear 22 1011 72 10000 3.1 150 21:41 30.06.2020
718 Clear 23 1011 68 10000 4.1 160 21:19 30.06.2020
719 Clear 23 1011 53 10000 4.6 180 20:57 30.06.2020
720 Clear 24 1011 53 10000 4.6 180 20:39 30.06.2020
721 Clouds 25 1011 53 10000 5.1 180 20:20 30.06.2020
722 Clouds 26 1011 47 10000 4.6 180 19:43 30.06.2020
723 Clouds 26 1011 47 10000 4.6 180 19:20 30.06.2020
724 Clouds 27 1011 47 10000 4.6 180 18:54 30.06.2020
725 Clouds 28 1011 44 10000 5.1 210 18:36 30.06.2020
726 Clouds 27 1011 44 10000 5.1 210 18:18 30.06.2020
727 Clouds 27 1012 42 10000 2.6 210 17:38 30.06.2020
728 Clouds 27 1012 47 10000 2.6 0 17:19 30.06.2020
729 Clouds 27 1012 50 10000 2.1 140 16:55 30.06.2020
730 Clouds 27 1012 50 10000 2.1 140 16:36 30.06.2020
731 Clouds 27 1012 47 10000 2.1 160 16:18 30.06.2020
732 Clouds 27 1013 50 10000 3.6 150 15:41 30.06.2020
733 Clouds 26 1013 53 10000 3.1 140 15:22 30.06.2020
734 Clouds 26 1013 57 10000 3.1 150 14:58 30.06.2020
735 Clouds 25 1014 60 10000 3.6 160 14:39 30.06.2020
736 Clouds 26 1014 60 10000 3.6 160 14:18 30.06.2020
737 Clouds 26 1014 53 10000 4.6 180 13:41 30.06.2020
738 Clouds 26 1014 44 10000 3.6 270 13:21 30.06.2020
739 Clouds 25 1014 47 10000 5.7 280 12:59 30.06.2020
740 Clouds 25 1014 47 10000 5.1 270 12:40 30.06.2020
741 Clouds 25 1014 47 10000 5.1 270 12:21 30.06.2020
742 Clouds 25 1014 47 10000 5.1 270 12:21 30.06.2020
743 Clouds 25 1014 50 10000 5.1 250 11:58 30.06.2020
744 Clouds 24 1014 50 10000 5.1 250 11:39 30.06.2020
745 Clouds 24 1014 49 10000 5.1 300 11:20 30.06.2020
746 Clouds 24 1014 50 10000 5.7 270 10:59 30.06.2020
747 Clear 32 1012 44 0 3.03 94 16:44 28.06.2020
748 Clouds 32 1014 45 10000 1.5 10 16:26 28.06.2020
749 Clouds 32 1014 45 10000 0.5 0 15:57 28.06.2020
750 Clouds 32 1014 42 10000 1 0 15:38 28.06.2020
751 Clouds 31 1014 42 10000 1 0 15:19 28.06.2020
752 Clouds 31 1015 45 10000 1 0 14:46 28.06.2020
753 Clouds 32 1015 48 10000 2.1 340 14:28 28.06.2020
754 Clouds 31 1015 45 10000 1 0 13:58 28.06.2020
755 Clouds 31 1015 45 10000 1 0 13:38 28.06.2020
756 Clouds 30 1016 51 10000 2.1 350 13:19 28.06.2020
757 Clouds 29 1016 48 10000 2.1 0 12:56 28.06.2020
758 Clouds 29 1016 48 10000 2.1 0 12:37 28.06.2020
759 Clouds 29 1016 51 10000 2.6 320 12:19 28.06.2020
760 Clouds 28 1016 51 10000 3.6 340 11:56 28.06.2020
761 Clouds 29 1016 51 10000 3.6 340 11:38 28.06.2020
762 Clouds 27 1016 54 10000 3.6 330 11:19 28.06.2020
763 Clouds 27 1016 54 10000 5.7 310 10:55 28.06.2020
764 Clouds 27 1016 54 10000 5.7 310 10:36 28.06.2020
765 Clouds 27 1016 54 10000 5.7 310 10:36 28.06.2020
766 Clouds 27 1016 54 10000 5.7 310 10:36 28.06.2020
767 Clouds 26 1016 61 10000 1 0 10:18 28.06.2020
768 Clouds 25 1016 69 10000 1 0 09:39 28.06.2020
769 Clouds 24 1016 78 10000 1.5 60 09:21 28.06.2020
770 Clouds 24 1016 73 10000 1.5 40 08:48 28.06.2020
771 Clouds 24 1016 73 10000 2.6 50 08:26 28.06.2020
772 Clouds 23 1016 73 10000 2.1 50 07:49 28.06.2020
773 Clouds 23 1015 73 10000 1.5 40 07:29 28.06.2020
774 Clouds 22 1015 68 10000 2.1 350 06:43 28.06.2020
775 Clouds 22 1015 64 10000 3.6 320 06:24 28.06.2020
776 Clouds 21 1015 68 10000 3.6 310 05:26 28.06.2020
777 Clouds 21 1015 82 10000 3.6 270 03:33 28.06.2020
778 Clouds 20 1014 77 10000 3.6 240 02:40 28.06.2020
779 Clear 20 1013 86 0 1.61 287 01:53 28.06.2020
780 Clear 20 1014 82 10000 2.1 180 01:27 28.06.2020
781 Clear 20 1014 82 10000 2.1 160 00:48 28.06.2020
782 Clear 20 1014 77 10000 0.5 0 00:25 28.06.2020
783 Clear 21 1014 77 10000 1 0 23:42 27.06.2020
784 Clear 21 1013 77 10000 2.1 190 23:24 27.06.2020
785 Clear 22 1013 77 10000 3.1 170 22:58 27.06.2020
786 Clear 22 1013 77 10000 3.1 170 22:40 27.06.2020
787 Clear 23 1013 83 10000 2.6 180 22:21 27.06.2020
788 Clear 24 1013 73 10000 2.6 190 21:55 27.06.2020
789 Clear 24 1013 65 10000 3.1 210 21:37 27.06.2020
790 Clear 25 1013 65 10000 3.1 210 21:19 27.06.2020
791 Clear 26 1013 61 10000 2.1 210 20:43 27.06.2020
792 Clouds 26 1013 61 10000 2.6 220 20:19 27.06.2020
793 Clouds 27 1013 57 10000 4.1 220 19:56 27.06.2020
794 Clouds 28 1013 54 10000 4.1 210 19:36 27.06.2020
795 Clouds 29 1013 54 10000 4.1 210 19:18 27.06.2020
796 Clouds 29 1013 51 10000 4.6 190 18:46 27.06.2020
797 Clouds 29 1013 54 10000 5.1 200 18:28 27.06.2020
798 Clouds 29 1013 54 10000 5.1 210 17:58 27.06.2020
799 Clouds 29 1013 54 10000 5.1 210 17:38 27.06.2020
800 Clouds 29 1014 54 10000 6.7 190 17:19 27.06.2020
801 Clouds 30 1014 51 10000 5.1 170 16:46 27.06.2020
802 Clouds 29 1014 54 10000 5.7 180 16:28 27.06.2020
803 Clouds 29 1014 54 10000 4.1 150 15:59 27.06.2020
804 Clouds 29 1014 54 10000 4.1 150 15:39 27.06.2020
805 Clouds 30 1014 45 10000 1.5 0 15:21 27.06.2020
806 Clouds 30 1014 45 10000 1.5 0 14:43 27.06.2020
807 Clouds 30 1014 51 10000 1.5 0 14:24 27.06.2020
808 Clouds 30 1015 48 10000 1 0 13:58 27.06.2020
809 Clouds 29 1015 54 10000 1 0 13:38 27.06.2020
810 Clouds 29 1015 54 10000 1 0 13:19 27.06.2020
811 Clouds 28 1015 54 10000 1.5 0 12:57 27.06.2020
812 Rain 28 1015 61 10000 1.5 30 12:38 27.06.2020
813 Rain 28 1015 61 10000 1.5 30 12:20 27.06.2020
814 Rain 27 1015 61 10000 1 0 11:54 27.06.2020
815 Rain 27 1015 61 10000 1.5 50 11:36 27.06.2020
816 Rain 27 1015 61 10000 1.5 50 11:18 27.06.2020
817 Clouds 25 1015 69 10000 1 0 10:38 27.06.2020
818 Clouds 24 1015 69 10000 1.5 60 10:19 27.06.2020
819 Clouds 23 1015 73 10000 1 0 09:41 27.06.2020
820 Clouds 21 1015 73 10000 1 0 09:22 27.06.2020
821 Clouds 20 1015 82 10000 1 0 08:57 27.06.2020
822 Clouds 19 1015 88 10000 0.5 0 08:39 27.06.2020
823 Clouds 19 1015 88 10000 0.5 0 08:20 27.06.2020
824 Clouds 19 1015 88 10000 1 0 07:41 27.06.2020
825 Rain 18 1015 88 10000 2.1 110 07:23 27.06.2020
826 Rain 18 1014 88 10000 3.1 180 06:38 27.06.2020
827 Clouds 18 1014 88 10000 3.1 180 06:19 27.06.2020
828 Rain 18 1015 88 10000 5.7 260 04:22 27.06.2020
829 Clouds 17 1014 88 10000 1 240 03:51 27.06.2020
830 Clouds 17 1014 88 10000 1.5 190 02:49 27.06.2020
831 Clouds 17 1014 88 10000 1 230 02:29 27.06.2020
832 Clouds 17 1014 88 10000 1.5 270 01:42 27.06.2020
833 Clouds 17 1014 82 10000 1 0 00:56 27.06.2020
834 Clear 18 1014 88 10000 1 230 00:28 27.06.2020
835 Clear 18 1014 88 10000 2.1 0 23:41 26.06.2020
836 Clear 18 1014 82 10000 1.5 260 23:22 26.06.2020
837 Clear 18 1014 77 10000 1.5 260 22:56 26.06.2020
838 Clear 19 1014 77 10000 1.5 260 22:37 26.06.2020
839 Clear 19 1013 82 10000 2.1 180 22:19 26.06.2020
840 Clear 19 1013 82 10000 2.1 210 21:57 26.06.2020
841 Clear 19 1013 82 10000 2.1 210 21:37 26.06.2020
842 Clear 21 1013 78 10000 2.6 240 21:19 26.06.2020
843 Clear 22 1013 73 10000 1 130 20:42 26.06.2020
844 Clouds 22 1013 69 10000 1.5 320 20:19 26.06.2020
845 Rain 22 1013 69 10000 4.1 170 19:43 26.06.2020
846 Thunderstorm 23 1013 73 10000 4.6 160 19:23 26.06.2020
847 Clouds 24 1013 69 10000 6.2 160 18:55 26.06.2020
848 Clouds 25 1013 69 10000 6.2 160 18:37 26.06.2020
849 Clouds 25 1013 78 10000 3.6 110 18:18 26.06.2020
850 Thunderstorm 24 1014 68 8000 6.7 330 17:43 26.06.2020
851 Thunderstorm 25 1014 73 8000 3.1 140 17:24 26.06.2020
852 Rain 25 1014 61 10000 7.2 150 16:48 26.06.2020
853 Rain 25 1014 57 10000 8.7 160 16:25 26.06.2020
854 Clouds 27 1014 54 10000 7.2 160 15:55 26.06.2020
855 Clouds 28 1014 54 10000 7.2 160 15:37 26.06.2020
856 Clouds 27 1014 57 10000 7.2 150 15:18 26.06.2020
857 Clouds 27 1015 61 10000 7.2 150 14:55 26.06.2020
858 Clouds 27 1013 76 0 3.75 163 14:37 26.06.2020
859 Clouds 27 1015 61 10000 6.7 150 14:19 26.06.2020
860 Clouds 26 1015 61 10000 6.7 160 13:43 26.06.2020
861 Clouds 25 1016 60 10000 6.7 150 13:18 26.06.2020
862 Clouds 26 1016 60 10000 6.7 150 13:18 26.06.2020
863 Clouds 25 1014 82 0 0.45 247 12:41 26.06.2020
864 Clouds 24 1016 64 10000 7.2 150 12:23 26.06.2020
865 Clouds 24 1016 68 10000 7.7 160 11:59 26.06.2020
866 Clouds 23 1016 68 10000 7.7 160 11:40 26.06.2020
867 Clouds 23 1015 87 0 1.34 87 11:22 26.06.2020
868 Clouds 22 1017 68 10000 7.2 160 10:58 26.06.2020
869 Clouds 22 1017 68 10000 7.2 160 10:39 26.06.2020
870 Clouds 21 1017 72 10000 5.7 150 10:19 26.06.2020
871 Rain 19 1017 77 10000 5.1 150 09:45 26.06.2020
872 Rain 18 1017 82 10000 5.1 150 09:26 26.06.2020
873 Rain 17 1017 82 10000 4.6 140 08:59 26.06.2020
874 Rain 17 1017 82 10000 4.6 140 08:41 26.06.2020
875 Rain 17 1017 88 10000 3.1 130 08:23 26.06.2020
876 Rain 16 1017 88 10000 4.1 160 07:44 26.06.2020
877 Clouds 16 1017 82 10000 5.7 130 07:22 26.06.2020
878 Rain 15 1017 87 10000 5.7 130 06:47 26.06.2020
879 Clouds 15 1017 87 10000 5.1 140 06:28 26.06.2020
880 Clouds 14 1015 97 0 0.74 117 05:49 26.06.2020
881 Clouds 14 1017 87 10000 2.6 100 04:42 26.06.2020
882 Clouds 15 1019 87 10000 2.6 110 02:22 26.06.2020
883 Clouds 15 1019 93 10000 2.1 140 01:25 26.06.2020
884 Clouds 15 1020 93 10000 1.5 200 00:42 26.06.2020
885 Clouds 16 1020 87 10000 0.5 0 00:20 26.06.2020
886 Rain 16 1020 87 10000 2.6 190 23:46 25.06.2020
887 Rain 17 1020 82 10000 5.1 210 23:21 25.06.2020
888 Rain 17 1020 77 10000 3.1 190 22:57 25.06.2020
889 Clouds 18 1020 77 10000 1 130 22:38 25.06.2020
890 Clouds 18 1020 77 10000 1 130 22:19 25.06.2020
891 Clouds 18 1020 77 10000 2.1 110 21:56 25.06.2020
892 Clouds 18 1020 77 10000 2.1 110 21:38 25.06.2020
893 Clouds 18 1020 82 10000 1.5 120 21:20 25.06.2020
894 Clouds 19 1020 82 10000 1.5 110 20:55 25.06.2020
895 Clouds 19 1020 82 10000 1.5 110 20:37 25.06.2020
896 Clouds 20 1020 72 10000 2.1 130 20:19 25.06.2020
897 Clouds 20 1020 68 10000 2.1 220 19:41 25.06.2020
898 Clouds 21 1020 77 10000 3.1 220 19:20 25.06.2020
899 Clouds 21 1020 77 10000 3.1 220 18:59 25.06.2020
900 Clouds 21 1020 77 10000 3.1 210 18:38 25.06.2020
901 Clouds 22 1019 77 0 0.45 22 18:19 25.06.2020
902 Rain 21 1021 72 10000 5.7 180 17:44 25.06.2020
903 Rain 21 1021 72 10000 5.7 180 17:44 25.06.2020
904 Clouds 22 1021 56 10000 3.6 150 17:20 25.06.2020
905 Clouds 22 1021 56 10000 4.6 160 16:58 25.06.2020
906 Clouds 22 1021 56 10000 4.6 160 16:37 25.06.2020
907 Clouds 22 1021 56 10000 4.6 170 16:19 25.06.2020
908 Clouds 22 1021 53 10000 4.1 180 15:42 25.06.2020
909 Clouds 21 1022 56 10000 3.6 180 15:22 25.06.2020
910 Clouds 21 1022 56 10000 3.6 190 14:46 25.06.2020
911 Clouds 22 1022 56 10000 4.1 180 14:25 25.06.2020
912 Clouds 21 1022 60 10000 3.6 170 13:59 25.06.2020
913 Clouds 21 1022 60 10000 3.6 170 13:41 25.06.2020
914 Clouds 21 1022 60 10000 3.6 130 13:20 25.06.2020
915 Clouds 21 1022 60 10000 4.6 160 12:57 25.06.2020
916 Clouds 21 1022 60 10000 4.6 160 12:39 25.06.2020
917 Clouds 21 1022 60 10000 4.6 160 12:19 25.06.2020
918 Clouds 20 1022 60 10000 4.6 150 11:42 25.06.2020
919 Clouds 19 1022 68 10000 4.6 140 11:21 25.06.2020
920 Clouds 19 1022 68 10000 4.1 130 10:44 25.06.2020
921 Clouds 18 1022 82 10000 4.1 110 10:26 25.06.2020
922 Clouds 18 1022 77 10000 3.6 110 09:58 25.06.2020
923 Clouds 18 1022 77 10000 3.6 110 09:40 25.06.2020
924 Clouds 17 1022 77 10000 3.6 120 09:18 25.06.2020
925 Clouds 17 1022 77 10000 1.5 90 08:43 25.06.2020
926 Clouds 16 1022 77 10000 1.5 70 08:18 25.06.2020
927 Clouds 16 1022 77 10000 1.5 70 08:18 25.06.2020
928 Clouds 16 1022 82 10000 3.1 50 07:44 25.06.2020
929 Clouds 15 1021 82 10000 1 0 07:26 25.06.2020
930 Clouds 13 1022 87 10000 1 340 06:45 25.06.2020
931 Clouds 12 1021 87 10000 0.5 0 06:25 25.06.2020
932 Clouds 12 1021 87 10000 0.5 0 05:39 25.06.2020
933 Clouds 12 1022 82 10000 2.1 150 03:55 25.06.2020
934 Clouds 12 1022 82 10000 1.5 190 03:25 25.06.2020
935 Clouds 13 1022 82 10000 2.1 160 02:41 25.06.2020
936 Clouds 14 1022 77 10000 1.5 260 01:43 25.06.2020
937 Clouds 14 1022 77 10000 1.5 260 01:19 25.06.2020
938 Clouds 14 1022 77 10000 1.5 260 01:19 25.06.2020
939 Clouds 14 1022 72 10000 3.1 270 00:40 25.06.2020
940 Clouds 14 1022 72 10000 3.1 270 00:18 25.06.2020
941 Clouds 15 1022 72 10000 3.6 270 23:42 24.06.2020
942 Clouds 15 1022 72 10000 3.6 260 23:23 24.06.2020
943 Clouds 15 1022 67 10000 3.6 250 22:57 24.06.2020
944 Clouds 16 1022 67 10000 3.6 250 22:37 24.06.2020
945 Clouds 15 1022 72 10000 3.1 310 22:19 24.06.2020
946 Clouds 17 1022 67 10000 2.6 330 21:55 24.06.2020
947 Clouds 17 1022 63 10000 3.6 310 21:36 24.06.2020
948 Clouds 18 1022 63 10000 3.6 310 21:18 24.06.2020
949 Clouds 18 1022 59 10000 2.6 310 20:56 24.06.2020
950 Clouds 19 1022 59 10000 2.6 310 20:38 24.06.2020
951 Clouds 19 1022 63 10000 2.6 340 20:19 24.06.2020
952 Clouds 19 1021 60 10000 4.6 20 19:55 24.06.2020
953 Clouds 20 1021 60 10000 4.6 20 19:36 24.06.2020
954 Rain 21 1021 60 10000 4.1 360 19:18 24.06.2020
955 Rain 21 1021 60 10000 5.7 10 18:56 24.06.2020
956 Rain 21 1021 60 10000 5.7 10 18:37 24.06.2020
957 Clouds 21 1021 60 10000 4.6 360 18:19 24.06.2020
958 Rain 21 1022 56 10000 7.2 350 17:41 24.06.2020
959 Rain 22 1021 64 10000 5.1 360 17:19 24.06.2020
960 Rain 21 1021 60 10000 6.2 360 16:58 24.06.2020
961 Rain 21 1021 60 10000 6.2 360 16:39 24.06.2020
962 Rain 21 1021 52 10000 3.6 340 16:21 24.06.2020
963 Clouds 22 1021 53 10000 4.1 330 15:57 24.06.2020
964 Clouds 23 1021 56 10000 4.1 320 15:38 24.06.2020
965 Clouds 23 1021 56 10000 4.1 320 15:20 24.06.2020
966 Clear 23 1020 67 0 0.45 247 14:43 24.06.2020
967 Clouds 22 1022 52 10000 4.1 330 14:25 24.06.2020
968 Clouds 23 1022 49 10000 5.1 320 13:57 24.06.2020
969 Clouds 22 1022 49 10000 5.1 320 13:38 24.06.2020
970 Clouds 22 1022 60 10000 5.1 340 13:18 24.06.2020
971 Clouds 21 1022 52 10000 5.1 320 12:41 24.06.2020
972 Clouds 21 1022 52 10000 5.1 320 12:20 24.06.2020
973 Clouds 21 1022 52 10000 5.1 330 11:56 24.06.2020
974 Clouds 21 1022 52 10000 5.1 360 11:38 24.06.2020
975 Clouds 21 1022 52 10000 5.1 360 11:18 24.06.2020
976 Clouds 20 1022 56 10000 5.1 360 10:43 24.06.2020
977 Clear 20 1022 55 10000 5.1 340 10:19 24.06.2020
978 Clear 19 1022 55 10000 5.1 350 09:44 24.06.2020
979 Clear 18 1022 59 10000 6.2 350 09:23 24.06.2020
980 Clear 18 1022 63 10000 5.1 340 08:45 24.06.2020
981 Clear 17 1022 63 10000 5.1 350 08:26 24.06.2020
982 Clear 17 1022 67 10000 5.1 330 07:58 24.06.2020
983 Clear 16 1022 67 10000 5.1 330 07:40 24.06.2020
984 Clear 15 1022 72 10000 4.1 330 07:18 24.06.2020
985 Clear 14 1022 72 10000 4.1 330 06:40 24.06.2020
986 Clear 14 1022 71 10000 4.1 330 06:21 24.06.2020
987 Clear 14 1022 71 10000 4.1 320 05:38 24.06.2020
988 Clear 14 1022 71 10000 3.1 330 04:38 24.06.2020
989 Clear 14 1022 71 10000 3.1 320 03:37 24.06.2020
990 Clear 14 1022 71 10000 3.1 330 02:53 24.06.2020
991 Clear 15 1022 71 10000 3.6 350 02:18 24.06.2020
992 Clear 16 1023 72 10000 3.1 10 00:51 24.06.2020
993 Clear 16 1022 67 10000 3.1 320 00:33 24.06.2020
994 Clear 17 1022 63 10000 2.6 320 23:48 23.06.2020
995 Clear 18 1022 59 10000 2.1 330 23:21 23.06.2020
996 Clear 18 1022 63 10000 3.1 360 22:59 23.06.2020
997 Clear 18 1022 63 10000 3.1 360 22:41 23.06.2020
998 Clear 19 1022 52 10000 4.1 350 22:18 23.06.2020
999 Clear 19 1021 45 10000 5.1 340 21:54 23.06.2020
1000 Clear 20 1021 45 10000 5.1 340 21:36 23.06.2020
1001 Clear 20 1021 46 10000 5.1 330 21:18 23.06.2020
1002 Clear 21 1021 46 10000 5.7 340 20:54 23.06.2020
1003 Clear 21 1021 46 10000 5.7 340 20:36 23.06.2020
1004 Clear 22 1021 43 10000 6.2 340 20:18 23.06.2020
1005 Clear 22 1021 40 10000 6.2 330 19:41 23.06.2020
1006 Clear 23 1021 40 10000 6.2 330 19:23 23.06.2020
1007 Clear 23 1021 40 10000 7.2 350 18:38 23.06.2020
1008 Clear 23 1021 40 10000 7.2 350 18:19 23.06.2020
1009 Clear 23 1021 43 10000 7.2 350 17:43 23.06.2020
1010 Clear 24 1021 43 10000 6.7 340 17:25 23.06.2020
1011 Clear 24 1021 46 10000 7.7 350 16:57 23.06.2020
1012 Clear 24 1021 46 10000 7.7 350 16:38 23.06.2020
1013 Clear 24 1021 43 10000 7.7 330 16:20 23.06.2020
1014 Clear 24 1021 40 10000 8.7 350 15:57 23.06.2020
1015 Clear 23 1021 40 10000 8.7 350 15:39 23.06.2020
1016 Clear 24 1021 43 10000 7.7 350 15:18 23.06.2020
1017 Clear 23 1021 40 10000 7.7 330 14:43 23.06.2020
1018 Clear 24 1021 40 10000 9.3 330 14:20 23.06.2020
1019 Clear 23 1021 43 10000 7.2 340 13:58 23.06.2020
1020 Clouds 23 1022 40 10000 9.8 350 13:39 23.06.2020
1021 Clouds 23 1022 40 10000 9.8 350 13:20 23.06.2020
1022 Clouds 23 1022 43 10000 9.3 350 12:45 23.06.2020
1023 Clouds 22 1022 49 10000 8.7 350 12:23 23.06.2020
1024 Clouds 22 1022 46 10000 9.3 340 11:59 23.06.2020
1025 Clouds 22 1022 46 10000 9.3 340 11:40 23.06.2020
1026 Clouds 22 1022 46 10000 9.3 330 11:19 23.06.2020
1027 Clouds 22 1022 52 10000 9.8 330 10:58 23.06.2020
1028 Clouds 22 1022 52 10000 9.8 330 10:39 23.06.2020
1029 Clouds 21 1021 52 10000 8.7 330 10:21 23.06.2020
1030 Clouds 21 1021 52 10000 8.7 330 10:21 23.06.2020
1031 Clouds 21 1021 64 10000 8.7 330 09:43 23.06.2020
1032 Clouds 20 1021 64 10000 5.7 330 09:21 23.06.2020
1033 Clouds 20 1021 64 10000 7.2 340 08:59 23.06.2020
1034 Clouds 19 1021 64 10000 7.2 340 08:41 23.06.2020
1035 Clouds 19 1021 68 10000 6.2 330 08:22 23.06.2020
1036 Clouds 18 1021 68 10000 6.2 330 07:44 23.06.2020
1037 Clouds 18 1020 68 10000 6.7 330 07:24 23.06.2020
1038 Clouds 17 1020 68 10000 6.2 320 06:51 23.06.2020
1039 Clear 17 1020 72 10000 5.1 320 06:31 23.06.2020
1040 Clear 16 1020 72 10000 5.1 320 05:47 23.06.2020
1041 Clear 17 1020 68 10000 5.7 330 04:41 23.06.2020
1042 Clear 18 1020 68 10000 6.2 320 03:19 23.06.2020
1043 Clear 18 1020 63 10000 6.2 320 02:46 23.06.2020
1044 Clear 18 1020 63 10000 7.2 320 02:26 23.06.2020
1045 Clear 18 1019 60 10000 7.2 320 01:44 23.06.2020
1046 Clear 18 1019 60 10000 7.2 320 01:20 23.06.2020
1047 Clear 19 1019 60 10000 6.2 320 00:25 23.06.2020
1048 Clear 19 1019 56 10000 5.7 320 23:59 22.06.2020
1049 Clear 19 1019 56 10000 5.7 320 23:39 22.06.2020
1050 Clear 20 1019 56 10000 5.7 320 23:19 22.06.2020
1051 Clear 20 1019 56 10000 5.1 320 22:58 22.06.2020
1052 Clear 21 1019 53 10000 5.1 320 22:40 22.06.2020
1053 Clear 20 1019 56 10000 5.1 320 22:40 22.06.2020
1054 Clear 21 1019 53 10000 5.1 320 22:20 22.06.2020
1055 Clear 21 1018 53 10000 6.2 320 21:58 22.06.2020
1056 Clear 22 1018 49 10000 6.2 330 21:39 22.06.2020
1057 Clear 22 1018 49 10000 6.2 330 21:21 22.06.2020
1058 Clear 22 1018 47 10000 6.2 330 20:54 22.06.2020
1059 Clear 23 1018 44 10000 7.7 330 20:36 22.06.2020
1060 Clouds 23 1018 44 10000 7.7 330 20:18 22.06.2020
1061 Clouds 23 1017 41 10000 6.7 340 19:42 22.06.2020
1062 Clouds 24 1017 41 10000 8.7 330 19:19 22.06.2020
1063 Clouds 25 1017 41 10000 8.7 330 18:56 22.06.2020
1064 Clouds 24 1017 44 10000 7.7 330 18:36 22.06.2020
1065 Clouds 25 1017 44 10000 8.7 330 18:18 22.06.2020
1066 Clouds 25 1018 47 10000 8.7 330 17:39 22.06.2020
1067 Clouds 25 1018 47 10000 8.7 330 17:21 22.06.2020
1068 Clouds 25 1018 47 10000 7.7 330 16:59 22.06.2020
1069 Clouds 25 1018 53 10000 8.2 340 16:41 22.06.2020
1070 Clouds 24 1018 53 10000 8.2 340 16:18 22.06.2020
1071 Clouds 24 1018 53 10000 8.2 320 15:55 22.06.2020
1072 Clouds 24 1018 56 10000 7.7 320 15:37 22.06.2020
1073 Clouds 23 1018 56 10000 7.7 320 15:19 22.06.2020
1074 Clouds 21 1018 60 10000 8.2 310 14:39 22.06.2020
1075 Clouds 21 1018 60 10000 7.2 310 14:20 22.06.2020
1076 Clouds 21 1018 60 10000 7.2 310 13:56 22.06.2020
1077 Clouds 22 1018 56 10000 8.7 310 13:37 22.06.2020
1078 Clouds 22 1018 60 10000 8.2 310 13:19 22.06.2020
1079 Clouds 22 1018 64 10000 8.7 310 12:42 22.06.2020
1080 Clouds 22 1018 64 10000 8.7 310 12:23 22.06.2020
1081 Clouds 21 1018 64 10000 9.3 300 11:57 22.06.2020
1082 Clouds 20 1018 64 10000 9.3 300 11:37 22.06.2020
1083 Clouds 20 1018 64 10000 9.3 300 11:18 22.06.2020
1084 Clouds 20 1018 60 10000 9.8 300 10:54 22.06.2020
1085 Clouds 20 1017 60 10000 11.3 300 10:36 22.06.2020
1086 Clouds 19 1017 63 10000 9.8 310 10:18 22.06.2020
1087 Clouds 18 1017 63 10000 7.7 300 09:41 22.06.2020
1088 Clouds 18 1017 63 10000 7.7 300 09:20 22.06.2020
1089 Clouds 18 1017 63 10000 7.7 300 09:20 22.06.2020
1090 Clouds 18 1017 68 10000 9.3 300 08:58 22.06.2020
1091 Clouds 18 1017 68 10000 8.7 310 08:39 22.06.2020
1092 Clouds 18 1017 68 10000 8.7 310 08:39 22.06.2020
1093 Clouds 17 1017 68 10000 8.7 310 08:39 22.06.2020
1094 Clouds 17 1017 68 10000 6.7 300 08:20 22.06.2020
1095 Clouds 17 1017 68 10000 6.7 300 07:52 22.06.2020
1096 Rain 16 1017 72 10000 9.8 310 07:33 22.06.2020
1097 Rain 16 1017 72 10000 10.3 300 06:45 22.06.2020
1098 Rain 16 1017 72 10000 10.3 300 06:26 22.06.2020
1099 Rain 16 1017 72 10000 8.7 300 05:58 22.06.2020
1100 Rain 16 1016 63 10000 7.7 310 04:59 22.06.2020
1101 Clouds 17 1016 68 10000 6.7 310 02:55 22.06.2020
1102 Clouds 16 1017 77 10000 5.7 300 01:25 22.06.2020
1103 Clouds 16 1017 77 10000 5.7 310 00:41 22.06.2020
1104 Clouds 16 1017 77 10000 5.7 310 23:59 21.06.2020
1105 Clouds 16 1017 77 10000 4.6 310 23:39 21.06.2020
1106 Clouds 16 1017 77 10000 6.2 310 23:21 21.06.2020
1107 Clouds 16 1017 77 10000 6.2 310 22:57 21.06.2020
1108 Clouds 16 1016 77 10000 7.7 310 22:38 21.06.2020
1109 Clouds 16 1016 82 10000 6.7 310 22:19 21.06.2020
1110 Clouds 16 1016 82 10000 6.7 310 21:58 21.06.2020
1111 Clouds 16 1016 87 10000 6.2 310 21:40 21.06.2020
1112 Clouds 16 1016 87 10000 7.2 310 21:21 21.06.2020
1113 Clouds 16 1016 87 10000 7.2 310 20:59 21.06.2020
1114 Clouds 16 1016 87 10000 6.2 310 20:38 21.06.2020
1115 Rain 16 1016 87 10000 7.2 310 20:19 21.06.2020
1116 Rain 16 1016 87 10000 7.2 310 19:56 21.06.2020
1117 Clouds 16 1015 87 10000 7.7 310 19:38 21.06.2020
1118 Clouds 15 1015 87 10000 7.7 300 19:19 21.06.2020
1119 Clouds 16 1015 87 10000 7.7 300 18:54 21.06.2020
1120 Rain 15 1015 87 10000 8.2 310 18:36 21.06.2020
1121 Rain 15 1015 93 10000 7.2 300 18:18 21.06.2020
1122 Rain 15 1015 93 10000 8.2 300 17:40 21.06.2020
1123 Rain 15 1015 93 10000 8.2 300 17:20 21.06.2020
1124 Rain 15 1015 93 10000 7.7 300 16:56 21.06.2020
1125 Rain 15 1015 93 10000 8.7 300 16:37 21.06.2020
1126 Rain 15 1015 93 10000 8.7 300 16:18 21.06.2020
1127 Rain 15 1016 93 5000 7.2 300 15:38 21.06.2020
1128 Rain 15 1016 93 10000 8.2 300 15:20 21.06.2020
1129 Rain 15 1016 93 8000 8.7 300 14:39 21.06.2020
1130 Rain 15 1016 93 8000 8.7 300 14:21 21.06.2020
1131 Rain 15 1016 93 10000 8.2 300 13:59 21.06.2020
1132 Rain 15 1016 93 10000 8.2 300 13:59 21.06.2020
1133 Rain 15 1015 93 6000 8.7 300 13:41 21.06.2020
1134 Rain 15 1015 93 6000 8.7 300 13:22 21.06.2020
1135 Rain 15 1015 87 8000 8.2 310 12:56 21.06.2020
1136 Rain 15 1015 87 10000 8.2 300 12:37 21.06.2020
1137 Rain 15 1015 87 10000 8.7 300 12:19 21.06.2020
1138 Rain 14 1015 93 10000 7.2 300 11:42 21.06.2020
1139 Rain 14 1015 93 10000 7.2 300 11:42 21.06.2020
1140 Rain 14 1015 93 10000 7.2 300 11:23 21.06.2020
1141 Rain 14 1015 93 10000 6.7 300 10:58 21.06.2020
1142 Rain 14 1015 87 10000 8.2 300 10:39 21.06.2020
1143 Rain 14 1015 87 10000 8.2 300 10:21 21.06.2020
1144 Rain 14 1014 87 5000 8.2 300 09:44 21.06.2020
1145 Rain 14 1014 87 5000 8.2 300 09:24 21.06.2020
1146 Rain 14 1014 93 5000 8.2 300 08:59 21.06.2020
1147 Rain 14 1014 87 10000 7.7 300 08:41 21.06.2020
1148 Rain 14 1014 93 10000 7.7 310 08:20 21.06.2020
1149 Rain 14 1014 93 10000 7.7 310 07:58 21.06.2020
1150 Rain 14 1014 93 10000 7.2 310 07:39 21.06.2020
1151 Rain 14 1014 93 10000 7.2 300 07:18 21.06.2020
1152 Rain 14 1014 93 10000 8.7 310 06:45 21.06.2020
1153 Rain 14 1014 93 10000 8.2 310 05:57 21.06.2020
1154 Rain 14 1014 93 10000 7.2 310 04:48 21.06.2020
1155 Rain 14 1014 87 8000 7.2 310 03:20 21.06.2020
1156 Rain 14 1014 87 10000 6.7 310 02:46 21.06.2020
1157 Rain 14 1014 87 10000 7.2 310 01:48 21.06.2020
1158 Rain 14 1014 87 10000 7.7 300 01:20 21.06.2020
1159 Rain 14 1015 87 9000 7.7 300 00:46 21.06.2020
1160 Rain 14 1015 87 9000 7.7 300 00:27 21.06.2020
1161 Rain 14 1015 87 10000 7.7 290 23:57 20.06.2020
1162 Rain 14 1015 87 10000 9.3 290 23:37 20.06.2020
1163 Rain 14 1015 87 10000 9.3 290 23:18 20.06.2020
1164 Rain 14 1015 87 10000 8.2 300 22:55 20.06.2020
1165 Rain 14 1015 87 10000 8.2 300 22:36 20.06.2020
1166 Rain 14 1015 87 10000 8.7 300 22:18 20.06.2020
1167 Rain 14 1015 87 10000 8.7 300 21:55 20.06.2020
1168 Rain 14 1015 87 5000 7.7 290 21:37 20.06.2020
1169 Rain 14 1015 87 7000 8.2 300 21:18 20.06.2020
1170 Rain 14 1015 87 7000 8.2 300 20:54 20.06.2020
1171 Rain 14 1015 87 10000 7.7 300 20:36 20.06.2020
1172 Rain 14 1015 87 10000 7.7 300 20:36 20.06.2020
1173 Rain 14 1015 87 10000 7.7 300 20:18 20.06.2020
1174 Rain 14 1015 87 10000 7.7 300 20:18 20.06.2020
1175 Rain 14 1015 87 10000 7.7 300 19:42 20.06.2020
1176 Rain 14 1015 87 10000 7.7 300 19:21 20.06.2020
1177 Rain 14 1015 87 9000 8.2 300 18:43 20.06.2020
1178 Rain 14 1015 87 9000 8.2 300 18:21 20.06.2020
1179 Rain 14 1015 82 10000 9.3 300 17:58 20.06.2020
1180 Rain 14 1015 87 10000 9.3 300 17:40 20.06.2020
1181 Rain 14 1015 87 10000 9.3 300 17:21 20.06.2020
1182 Rain 15 1015 77 10000 9.8 310 16:56 20.06.2020
1183 Rain 15 1015 72 10000 10.8 310 16:38 20.06.2020
1184 Rain 15 1015 72 10000 10.3 300 16:18 20.06.2020
1185 Rain 15 1015 67 10000 11.8 310 15:42 20.06.2020
1186 Rain 16 1015 67 10000 12.3 310 15:18 20.06.2020
1187 Rain 16 1015 67 10000 12.3 310 14:55 20.06.2020
1188 Rain 16 1015 82 10000 8.7 300 14:36 20.06.2020
1189 Rain 16 1015 82 10000 8.7 300 14:18 20.06.2020
1190 Rain 16 1015 72 10000 9.3 300 13:41 20.06.2020
1191 Rain 16 1015 72 10000 9.3 300 13:19 20.06.2020
1192 Rain 16 1015 82 10000 8.7 290 12:43 20.06.2020
1193 Rain 15 1015 82 10000 8.7 290 12:22 20.06.2020
1194 Rain 16 1015 82 10000 9.8 300 11:58 20.06.2020
1195 Rain 15 1015 82 10000 10.3 300 11:38 20.06.2020
1196 Rain 15 1015 82 10000 10.3 300 11:20 20.06.2020
1197 Rain 15 1015 77 10000 10.3 300 10:55 20.06.2020
1198 Rain 16 1015 72 10000 9.3 300 10:37 20.06.2020
1199 Rain 16 1015 72 10000 7.2 300 10:18 20.06.2020
1200 Rain 16 1015 72 10000 8.2 290 09:40 20.06.2020
1201 Rain 16 1015 72 10000 8.2 290 09:22 20.06.2020
1202 Rain 16 1015 72 10000 8.7 290 08:56 20.06.2020
1203 Clouds 16 1015 72 10000 7.2 300 08:37 20.06.2020
1204 Clouds 16 1015 72 10000 7.2 300 08:18 20.06.2020
1205 Clouds 16 1015 72 10000 6.7 290 07:44 20.06.2020
1206 Clouds 16 1015 72 10000 6.7 290 07:25 20.06.2020
1207 Clouds 16 1015 77 10000 7.7 280 06:24 20.06.2020
1208 Clouds 15 1015 77 10000 8.2 280 05:55 20.06.2020
1209 Clouds 15 1014 77 10000 7.7 280 05:30 20.06.2020
1210 Clouds 16 1015 77 10000 6.7 280 02:56 20.06.2020
1211 Clouds 16 1015 72 10000 8.2 280 01:52 20.06.2020
1212 Clouds 16 1015 72 10000 6.7 280 01:33 20.06.2020
1213 Clouds 16 1015 77 10000 6.7 290 00:22 20.06.2020
1214 Clouds 16 1015 77 10000 6.7 290 23:58 19.06.2020
1215 Clouds 16 1015 77 10000 5.1 290 23:39 19.06.2020
1216 Clouds 16 1015 72 10000 6.7 300 23:19 19.06.2020
1217 Clouds 17 1015 72 10000 6.7 290 22:42 19.06.2020
1218 Clouds 17 1015 72 10000 6.7 290 22:24 19.06.2020
1219 Clouds 17 1015 72 10000 5.1 290 21:59 19.06.2020
1220 Clouds 17 1015 72 10000 5.1 320 21:39 19.06.2020
1221 Clouds 18 1014 68 10000 5.7 310 21:18 19.06.2020
1222 Clouds 18 1014 68 10000 5.7 310 20:59 19.06.2020
1223 Clouds 18 1014 68 10000 7.2 300 20:40 19.06.2020
1224 Clouds 18 1014 68 10000 7.2 300 20:21 19.06.2020
1225 Clouds 18 1014 68 10000 7.2 300 20:21 19.06.2020
1226 Clouds 18 1014 68 10000 7.2 300 20:21 19.06.2020
1227 Clouds 18 1014 72 10000 3.1 310 19:59 19.06.2020
1228 Clouds 19 1013 68 10000 3.6 340 19:41 19.06.2020
1229 Clouds 19 1013 68 10000 3.6 340 19:23 19.06.2020
1230 Rain 20 1013 68 10000 3.1 360 18:58 19.06.2020
1231 Rain 20 1013 64 10000 4.1 340 18:38 19.06.2020
1232 Rain 20 1013 64 10000 4.1 340 18:20 19.06.2020
1233 Rain 20 1013 68 10000 4.6 360 17:42 19.06.2020
1234 Clouds 21 1013 68 10000 4.6 360 17:23 19.06.2020
1235 Clouds 21 1013 60 10000 5.1 350 16:57 19.06.2020
1236 Clouds 21 1013 64 10000 6.2 350 16:39 19.06.2020
1237 Clouds 22 1013 64 10000 6.2 350 16:21 19.06.2020
1238 Clouds 22 1013 68 10000 4.6 360 15:45 19.06.2020
1239 Clouds 21 1013 68 10000 4.6 360 15:25 19.06.2020
1240 Clouds 22 1013 64 10000 5.1 350 14:58 19.06.2020
1241 Clouds 22 1013 56 10000 5.1 320 14:39 19.06.2020
1242 Clouds 22 1013 56 10000 5.1 320 14:21 19.06.2020
1243 Clouds 23 1013 56 10000 6.2 320 13:58 19.06.2020
1244 Clouds 22 1013 56 10000 7.2 320 13:40 19.06.2020
1245 Clouds 22 1013 56 10000 7.2 320 13:22 19.06.2020
1246 Clouds 21 1013 64 10000 6.7 320 12:45 19.06.2020
1247 Clouds 22 1013 64 10000 6.7 320 12:21 19.06.2020
1248 Clouds 21 1013 60 10000 7.7 320 11:55 19.06.2020
1249 Clouds 21 1013 60 10000 6.7 310 11:36 19.06.2020
1250 Clouds 20 1013 68 10000 5.7 310 11:18 19.06.2020
1251 Rain 19 1013 68 10000 7.7 300 10:41 19.06.2020
1252 Rain 18 1013 68 10000 7.7 300 10:21 19.06.2020
1253 Rain 17 1013 68 10000 6.7 300 09:55 19.06.2020
1254 Rain 17 1013 68 10000 7.2 300 09:37 19.06.2020
1255 Rain 17 1012 68 10000 6.7 290 09:18 19.06.2020
1256 Clouds 17 1012 68 10000 6.2 300 08:41 19.06.2020
1257 Clouds 17 1012 68 10000 6.2 300 08:23 19.06.2020
1258 Clouds 17 1012 68 10000 7.2 310 07:42 19.06.2020
1259 Clouds 17 1012 68 10000 7.2 310 07:22 19.06.2020
1260 Clouds 17 1012 68 10000 5.1 300 06:59 19.06.2020
1261 Clouds 17 1012 68 10000 6.2 290 06:23 19.06.2020
1262 Clouds 17 1012 68 10000 4.6 290 05:34 19.06.2020
1263 Clouds 17 1011 68 10000 6.2 290 04:21 19.06.2020
1264 Clouds 17 1012 72 10000 3.1 270 02:27 19.06.2020
1265 Clouds 18 1012 72 10000 3.6 310 00:47 19.06.2020
1266 Clouds 18 1012 72 10000 3.6 310 00:22 19.06.2020
1267 Clouds 18 1012 72 10000 2.6 300 23:58 18.06.2020
1268 Clouds 18 1011 63 10000 4.6 290 23:40 18.06.2020
1269 Clouds 18 1011 63 10000 4.6 290 23:22 18.06.2020
1270 Clouds 19 1011 56 10000 5.1 300 22:41 18.06.2020
1271 Clouds 19 1011 56 10000 5.1 300 22:41 18.06.2020
1272 Clouds 19 1011 56 10000 5.1 300 22:21 18.06.2020
1273 Clouds 19 1011 56 10000 5.1 300 21:58 18.06.2020
1274 Clouds 19 1011 56 10000 5.7 300 21:38 18.06.2020
1275 Clouds 19 1011 56 10000 5.7 300 21:19 18.06.2020
1276 Clouds 20 1010 60 10000 4.6 320 20:44 18.06.2020
1277 Clouds 20 1010 60 10000 4.6 320 20:23 18.06.2020
1278 Clouds 20 1010 56 10000 6.2 310 19:59 18.06.2020
1279 Clouds 21 1010 52 10000 5.7 310 19:41 18.06.2020
1280 Clouds 21 1010 52 10000 5.7 310 19:20 18.06.2020
1281 Clouds 21 1010 52 10000 6.7 290 18:57 18.06.2020
1282 Clouds 21 1010 52 10000 5.7 290 18:36 18.06.2020
1283 Clouds 21 1010 52 10000 7.2 280 18:18 18.06.2020
1284 Clouds 21 1010 52 10000 9.3 290 17:43 18.06.2020
1285 Clouds 21 1010 52 10000 9.3 290 17:25 18.06.2020
1286 Clouds 21 1010 53 10000 8.7 290 16:55 18.06.2020
1287 Clouds 21 1010 56 10000 9.3 280 16:37 18.06.2020
1288 Clouds 21 1010 56 10000 10.3 280 16:18 18.06.2020
1289 Clouds 21 1010 56 10000 10.8 290 15:40 18.06.2020
1290 Clouds 21 1010 56 10000 10.8 290 15:21 18.06.2020
1291 Clouds 20 1010 56 10000 9.8 290 14:58 18.06.2020
1292 Clouds 20 1010 56 10000 9.8 290 14:58 18.06.2020
1293 Clouds 21 1010 56 10000 9.3 290 14:40 18.06.2020
1294 Clouds 21 1010 56 10000 9.3 290 14:21 18.06.2020
1295 Clouds 21 1010 56 10000 8.7 290 13:56 18.06.2020
1296 Clouds 21 1010 56 10000 7.7 290 13:38 18.06.2020
1297 Clouds 21 1010 56 10000 7.7 290 13:19 18.06.2020
1298 Clouds 20 1010 60 10000 10.3 280 12:55 18.06.2020
1299 Clouds 20 1010 60 10000 9.3 280 12:36 18.06.2020
1300 Clouds 19 1010 63 10000 9.3 280 12:18 18.06.2020
1301 Clouds 18 1010 68 10000 8.7 290 11:44 18.06.2020
1302 Clouds 18 1010 68 10000 8.7 290 11:21 18.06.2020
1303 Clouds 18 1010 68 10000 8.2 290 10:41 18.06.2020
1304 Rain 17 1010 77 10000 9.3 280 10:20 18.06.2020
1305 Rain 17 1010 77 10000 9.3 280 09:57 18.06.2020
1306 Rain 17 1010 72 10000 8.7 290 09:39 18.06.2020
1307 Clouds 16 1010 72 10000 8.7 290 09:21 18.06.2020
1308 Clouds 16 1009 77 10000 9.3 290 08:40 18.06.2020
1309 Clouds 16 1009 72 10000 9.8 290 08:21 18.06.2020
1310 Clouds 16 1009 77 10000 9.8 280 07:47 18.06.2020
1311 Clouds 16 1009 77 10000 9.8 280 07:27 18.06.2020
1312 Clouds 16 1009 77 10000 10.3 280 06:59 18.06.2020
1313 Clouds 16 1008 72 10000 9.8 280 06:22 18.06.2020
1314 Clouds 16 1008 72 10000 8.7 280 04:26 18.06.2020
1315 Clouds 18 1008 82 10000 4.1 270 02:51 18.06.2020
1316 Rain 19 1008 77 10000 3.6 300 01:30 18.06.2020
1317 Rain 19 1008 72 10000 4.1 310 00:58 18.06.2020
1318 Rain 19 1008 77 10000 3.6 310 00:39 18.06.2020
1319 Clouds 19 1008 77 10000 3.6 310 00:20 18.06.2020
1320 Clouds 19 1008 72 10000 3.6 310 23:44 17.06.2020
1321 Clouds 19 1008 72 10000 3.6 310 23:21 17.06.2020
1322 Clouds 19 1008 72 10000 4.6 300 22:57 17.06.2020
1323 Clouds 19 1008 68 10000 5.1 290 22:39 17.06.2020
1324 Clouds 19 1008 68 10000 5.1 290 22:20 17.06.2020
1325 Clouds 20 1008 73 10000 4.1 300 21:55 17.06.2020
1326 Clouds 20 1008 73 10000 4.1 300 21:37 17.06.2020
1327 Clouds 20 1008 73 10000 4.6 310 21:19 17.06.2020
1328 Clouds 20 1008 73 10000 4.1 310 20:38 17.06.2020
1329 Clouds 20 1008 73 10000 4.1 310 20:38 17.06.2020
1330 Clouds 21 1008 73 10000 4.1 310 20:20 17.06.2020
1331 Clouds 21 1008 68 10000 3.6 310 19:57 17.06.2020
1332 Clouds 21 1007 68 10000 4.6 320 19:39 17.06.2020
1333 Clouds 22 1007 68 10000 4.6 320 19:19 17.06.2020
1334 Clouds 22 1008 68 10000 4.1 330 18:45 17.06.2020
1335 Clouds 22 1008 68 10000 4.1 330 18:27 17.06.2020
1336 Clouds 22 1008 68 10000 5.1 310 17:46 17.06.2020
1337 Clouds 22 1008 68 10000 5.7 300 17:23 17.06.2020
1338 Clouds 22 1008 68 10000 5.7 300 16:58 17.06.2020
1339 Clouds 22 1008 68 10000 4.1 300 16:39 17.06.2020
1340 Clouds 22 1008 68 10000 4.1 300 16:21 17.06.2020
1341 Clouds 22 1008 68 10000 4.6 310 15:58 17.06.2020
1342 Clouds 22 1008 68 10000 5.1 310 15:39 17.06.2020
1343 Clouds 22 1009 68 10000 5.7 310 15:20 17.06.2020
1344 Clouds 22 1009 68 10000 5.7 310 14:58 17.06.2020
1345 Clouds 22 1009 68 10000 5.1 310 14:39 17.06.2020
1346 Clouds 22 1009 64 10000 5.1 300 14:19 17.06.2020
1347 Clouds 22 1009 64 10000 5.1 300 13:56 17.06.2020
1348 Clouds 22 1009 68 10000 5.1 310 13:37 17.06.2020
1349 Clouds 22 1009 68 10000 5.1 310 13:19 17.06.2020
1350 Clouds 21 1010 68 10000 5.7 320 12:42 17.06.2020
1351 Clouds 21 1010 68 10000 5.7 320 12:23 17.06.2020
1352 Clouds 21 1010 68 10000 5.1 340 11:57 17.06.2020
1353 Clouds 20 1010 72 10000 5.7 340 11:37 17.06.2020
1354 Clouds 21 1010 72 10000 5.1 330 11:18 17.06.2020
1355 Clouds 20 1010 72 10000 4.1 330 10:38 17.06.2020
1356 Clouds 20 1010 72 10000 4.1 330 10:19 17.06.2020
1357 Clouds 20 1010 77 10000 4.1 330 09:58 17.06.2020
1358 Clouds 20 1010 72 10000 5.1 340 09:40 17.06.2020
1359 Clouds 19 1010 72 10000 5.1 340 09:20 17.06.2020
1360 Clouds 19 1010 68 10000 5.7 330 08:45 17.06.2020
1361 Clouds 19 1010 68 10000 5.7 330 08:20 17.06.2020
1362 Clouds 18 1010 72 10000 5.1 330 07:56 17.06.2020
1363 Clouds 19 1010 72 10000 4.6 330 07:37 17.06.2020
1364 Clouds 18 1010 72 10000 4.6 330 07:19 17.06.2020
1365 Clouds 17 1010 82 10000 4.6 320 06:55 17.06.2020
1366 Clouds 17 1010 82 10000 4.1 320 06:36 17.06.2020
1367 Clouds 17 1010 77 10000 3.6 320 06:18 17.06.2020
1368 Clouds 17 1010 72 10000 4.6 330 04:39 17.06.2020
1369 Clouds 17 1011 68 10000 4.6 320 02:49 17.06.2020
1370 Clouds 18 1011 68 10000 4.6 320 01:29 17.06.2020
1371 Clouds 18 1012 72 10000 4.1 320 00:38 17.06.2020
1372 Clouds 18 1012 68 10000 4.1 320 00:19 17.06.2020
1373 Clouds 18 1012 68 10000 4.1 320 23:55 16.06.2020
1374 Clouds 18 1012 72 10000 4.1 320 23:37 16.06.2020
1375 Clouds 18 1012 63 10000 3.6 340 23:18 16.06.2020
1376 Clouds 18 1012 68 10000 3.6 330 22:40 16.06.2020
1377 Clouds 19 1012 72 10000 3.6 340 22:19 16.06.2020
1378 Clouds 18 1012 72 10000 3.6 340 21:58 16.06.2020
1379 Clouds 19 1012 68 10000 3.6 330 21:40 16.06.2020
1380 Clouds 19 1012 68 10000 3.6 330 21:22 16.06.2020
1381 Clouds 20 1011 60 10000 5.1 340 20:57 16.06.2020
1382 Clouds 20 1011 64 10000 4.1 330 20:39 16.06.2020
1383 Clouds 20 1011 64 10000 4.1 330 20:18 16.06.2020
1384 Clouds 20 1011 64 10000 4.1 340 19:56 16.06.2020
1385 Clouds 20 1011 64 10000 3.6 340 19:38 16.06.2020
1386 Rain 21 1011 68 10000 3.1 350 19:18 16.06.2020
1387 Clouds 21 1011 64 10000 4.6 10 18:45 16.06.2020
1388 Rain 20 1011 64 10000 4.6 10 18:21 16.06.2020
1389 Rain 20 1012 64 10000 5.1 20 17:58 16.06.2020
1390 Clouds 21 1012 64 10000 5.1 20 17:39 16.06.2020
1391 Clouds 21 1012 64 10000 5.1 20 17:21 16.06.2020
1392 Clouds 21 1012 60 10000 6.7 40 16:59 16.06.2020
1393 Clouds 22 1012 64 10000 6.2 30 16:40 16.06.2020
1394 Clouds 22 1012 64 10000 6.2 30 16:20 16.06.2020
1395 Clouds 22 1012 49 10000 5.7 350 15:57 16.06.2020
1396 Clouds 22 1012 56 10000 4.6 350 15:39 16.06.2020
1397 Rain 21 1012 60 10000 4.1 360 15:21 16.06.2020
1398 Rain 21 1012 60 10000 4.1 360 14:56 16.06.2020
1399 Clouds 21 1012 56 10000 3.6 350 14:38 16.06.2020
1400 Clouds 21 1012 56 10000 3.6 350 14:19 16.06.2020
1401 Clouds 21 1012 56 10000 5.7 350 13:45 16.06.2020
1402 Clouds 21 1012 56 10000 5.7 350 13:25 16.06.2020
1403 Clouds 21 1013 60 10000 5.7 340 12:43 16.06.2020
1404 Clouds 21 1013 64 10000 6.2 320 12:23 16.06.2020
1405 Clouds 21 1013 64 10000 6.2 320 11:59 16.06.2020
1406 Clouds 21 1013 64 10000 6.7 330 11:40 16.06.2020
1407 Clouds 21 1013 64 10000 6.2 320 11:22 16.06.2020
1408 Clouds 21 1013 64 10000 6.2 320 10:59 16.06.2020
1409 Clouds 21 1013 64 10000 6.7 310 10:39 16.06.2020
1410 Clouds 20 1013 68 10000 6.7 310 10:20 16.06.2020
1411 Clouds 19 1013 68 10000 6.7 310 09:45 16.06.2020
1412 Clouds 19 1013 68 10000 6.7 310 09:23 16.06.2020
1413 Clouds 18 1013 72 10000 6.7 310 08:55 16.06.2020
1414 Clouds 18 1013 72 10000 7.2 310 08:34 16.06.2020
1415 Clouds 18 1013 77 10000 7.2 300 07:55 16.06.2020
1416 Clouds 17 1013 82 10000 7.7 300 07:37 16.06.2020
1417 Clouds 17 1013 77 10000 7.2 300 07:19 16.06.2020
1418 Clouds 16 1013 77 10000 6.7 300 06:34 16.06.2020
1419 Clouds 15 1013 82 10000 6.7 300 05:52 16.06.2020
1420 Clouds 15 1013 82 10000 6.2 300 05:19 16.06.2020
1421 Clouds 15 1013 82 10000 6.2 300 04:26 16.06.2020
1422 Clouds 16 1013 82 10000 6.7 300 02:46 16.06.2020
1423 Clouds 16 1013 82 10000 5.7 300 01:34 16.06.2020
1424 Clouds 16 1013 82 10000 4.6 300 00:58 16.06.2020
1425 Clouds 16 1013 82 10000 6.2 300 00:27 16.06.2020
1426 Clouds 16 1013 82 10000 6.2 300 23:59 15.06.2020
1427 Clouds 16 1013 82 10000 6.2 300 23:41 15.06.2020
1428 Clouds 16 1013 82 10000 6.2 300 23:21 15.06.2020
1429 Clouds 16 1013 82 10000 6.2 300 23:21 15.06.2020
1430 Clouds 17 1013 77 10000 5.1 290 22:42 15.06.2020
1431 Clouds 17 1013 77 10000 5.1 290 22:42 15.06.2020
1432 Clouds 17 1013 77 10000 5.1 290 22:23 15.06.2020
1433 Clouds 17 1013 77 10000 5.7 290 21:59 15.06.2020
1434 Clouds 17 1013 68 10000 7.2 280 21:38 15.06.2020
1435 Clouds 17 1012 68 10000 7.7 280 21:20 15.06.2020
1436 Clouds 17 1012 68 10000 7.7 280 20:59 15.06.2020
1437 Clouds 18 1012 68 10000 7.7 280 20:59 15.06.2020
1438 Clouds 18 1012 68 10000 7.7 280 20:39 15.06.2020
1439 Clouds 18 1012 64 10000 7.2 290 20:20 15.06.2020
1440 Clouds 18 1012 64 10000 7.2 290 20:00 15.06.2020
1441 Clouds 19 1012 64 10000 6.7 300 19:40 15.06.2020
1442 Clouds 19 1012 64 10000 6.7 300 19:22 15.06.2020
1443 Clouds 20 1012 64 10000 6.7 300 18:57 15.06.2020
1444 Clouds 20 1012 64 10000 7.2 300 18:39 15.06.2020
1445 Clouds 20 1012 64 10000 7.2 300 18:19 15.06.2020
1446 Clouds 20 1012 60 10000 7.2 300 17:57 15.06.2020
1447 Clouds 20 1012 60 10000 7.2 270 17:39 15.06.2020
1448 Clouds 20 1012 60 10000 7.2 270 17:19 15.06.2020
1449 Clouds 20 1012 64 10000 7.2 270 16:43 15.06.2020
1450 Clouds 21 1012 64 10000 7.2 270 16:20 15.06.2020
1451 Clouds 20 1012 68 10000 8.7 270 15:58 15.06.2020
1452 Clouds 20 1012 68 10000 8.2 280 15:40 15.06.2020
1453 Clouds 20 1012 68 10000 8.2 280 15:20 15.06.2020
1454 Clouds 20 1012 64 10000 8.7 280 14:57 15.06.2020
1455 Clouds 20 1012 68 10000 7.7 290 14:39 15.06.2020
1456 Clouds 20 1012 60 10000 7.2 300 14:18 15.06.2020
1457 Clouds 19 1012 64 10000 7.7 310 13:42 15.06.2020
1458 Clouds 20 1012 64 10000 7.7 310 13:24 15.06.2020
1459 Clouds 19 1013 68 10000 6.7 300 12:59 15.06.2020
1460 Clouds 19 1013 68 10000 7.2 300 12:41 15.06.2020
1461 Clouds 19 1013 68 10000 7.7 290 12:21 15.06.2020
1462 Clouds 18 1012 77 10000 8.7 280 11:46 15.06.2020
1463 Clouds 18 1012 77 10000 8.7 280 11:26 15.06.2020
1464 Clouds 18 1012 77 10000 7.7 290 10:58 15.06.2020
1465 Clouds 17 1012 82 10000 6.2 280 10:39 15.06.2020
1466 Clouds 16 1012 77 10000 7.2 280 10:19 15.06.2020
1467 Rain 16 1012 82 10000 7.2 280 09:43 15.06.2020
1468 Rain 16 1012 82 10000 7.2 280 09:23 15.06.2020
1469 Rain 16 1012 82 10000 7.7 290 08:46 15.06.2020
1470 Rain 16 1012 82 10000 6.7 280 08:26 15.06.2020
1471 Rain 16 1012 77 10000 6.7 290 07:53 15.06.2020
1472 Rain 16 1012 77 10000 7.2 280 07:34 15.06.2020
1473 Rain 16 1011 77 10000 7.2 280 06:58 15.06.2020
1474 Rain 16 1011 77 10000 7.2 280 06:27 15.06.2020
1475 Clouds 16 1011 77 10000 7.7 280 05:51 15.06.2020
1476 Clouds 16 1011 77 10000 7.7 280 05:29 15.06.2020
1477 Clouds 16 1011 77 10000 7.7 290 04:22 15.06.2020
1478 Clouds 16 1011 77 10000 7.7 290 03:48 15.06.2020
1479 Clouds 16 1011 77 10000 6.2 300 02:56 15.06.2020
1480 Clouds 17 1011 77 10000 6.2 290 02:26 15.06.2020
1481 Clouds 17 1011 77 10000 6.2 290 01:44 15.06.2020
1482 Clouds 16 1011 77 10000 6.2 290 01:24 15.06.2020
1483 Clouds 16 1011 77 10000 9.3 280 00:44 15.06.2020
1484 Clouds 16 1011 77 10000 9.8 280 00:23 15.06.2020
1485 Clouds 16 1011 77 10000 9.8 280 23:57 14.06.2020
1486 Clouds 17 1011 77 10000 9.3 290 23:39 14.06.2020
1487 Clouds 17 1011 77 10000 9.3 290 23:21 14.06.2020
1488 Clouds 16 1011 82 10000 8.7 290 22:57 14.06.2020
1489 Clouds 16 1011 82 10000 9.3 280 22:38 14.06.2020
1490 Clouds 16 1011 82 10000 9.3 280 22:18 14.06.2020
1491 Clouds 16 1011 82 10000 7.7 280 21:56 14.06.2020
1492 Clouds 17 1011 88 10000 7.7 290 21:38 14.06.2020
1493 Clouds 17 1011 88 10000 7.2 280 21:18 14.06.2020
1494 Clouds 17 1011 88 10000 7.2 280 20:57 14.06.2020
1495 Rain 17 1011 88 10000 5.1 280 20:38 14.06.2020
1496 Rain 17 1011 88 10000 5.1 280 20:19 14.06.2020
1497 Rain 17 1010 93 10000 4.1 290 19:56 14.06.2020
1498 Rain 17 1010 88 10000 6.2 290 19:37 14.06.2020
1499 Rain 17 1010 93 10000 7.2 290 19:19 14.06.2020
1500 Rain 17 1010 93 10000 7.2 290 18:56 14.06.2020
1501 Rain 17 1010 93 10000 7.2 290 18:37 14.06.2020
1502 Rain 17 1010 88 10000 6.2 290 18:19 14.06.2020
1503 Rain 17 1010 88 10000 6.2 290 17:55 14.06.2020
1504 Thunderstorm 17 1010 93 10000 7.2 300 17:37 14.06.2020
1505 Rain 18 1010 93 10000 7.2 300 17:18 14.06.2020
1506 Thunderstorm 18 1009 82 10000 10.3 290 16:40 14.06.2020
1507 Rain 18 1009 88 10000 10.8 280 16:20 14.06.2020
1508 Rain 18 1009 88 10000 10.8 280 15:57 14.06.2020
1509 Clouds 18 1009 82 10000 7.2 290 15:39 14.06.2020
1510 Thunderstorm 19 1009 82 10000 9.8 290 15:18 14.06.2020
1511 Thunderstorm 20 1009 82 10000 9.8 290 14:57 14.06.2020
1512 Thunderstorm 20 1009 82 10000 9.8 290 14:57 14.06.2020
1513 Thunderstorm 20 1009 64 10000 11.8 270 14:37 14.06.2020
1514 Thunderstorm 20 1009 64 10000 11.8 270 14:18 14.06.2020
1515 Clouds 22 1009 64 10000 8.7 280 13:41 14.06.2020
1516 Clouds 22 1009 64 10000 8.7 280 13:22 14.06.2020
1517 Clouds 22 1009 64 10000 9.8 280 12:59 14.06.2020
1518 Clouds 22 1009 60 10000 10.3 280 12:41 14.06.2020
1519 Clouds 22 1009 60 10000 10.3 280 12:41 14.06.2020
1520 Clouds 22 1009 60 10000 10.3 280 12:23 14.06.2020
1521 Clouds 22 1009 60 10000 8.7 270 11:59 14.06.2020
1522 Clouds 22 1009 64 10000 8.2 320 11:40 14.06.2020
1523 Rain 22 1009 64 10000 8.2 320 11:22 14.06.2020
1524 Clouds 23 1009 64 10000 7.2 310 10:59 14.06.2020
1525 Clouds 22 1008 64 10000 6.7 290 10:39 14.06.2020
1526 Clouds 22 1008 64 10000 6.7 290 10:18 14.06.2020
1527 Clouds 22 1008 64 10000 6.2 310 09:43 14.06.2020
1528 Clouds 21 1008 64 10000 6.2 310 09:23 14.06.2020
1529 Clouds 21 1008 72 10000 4.6 310 08:42 14.06.2020
1530 Clouds 20 1008 72 10000 4.6 310 08:22 14.06.2020
1531 Clouds 20 1008 72 10000 6.2 310 07:55 14.06.2020
1532 Rain 19 1007 77 10000 3.1 310 07:35 14.06.2020
1533 Rain 18 1007 88 10000 2.6 340 06:59 14.06.2020
1534 Rain 17 1007 93 10000 1.5 330 05:56 14.06.2020
1535 Clear 17 1007 93 10000 1.5 330 05:34 14.06.2020
1536 Clear 17 1007 88 10000 1 340 04:41 14.06.2020
1537 Clear 18 1007 88 10000 0.5 0 03:55 14.06.2020
1538 Clear 18 1007 77 10000 1.5 330 02:44 14.06.2020
1539 Clear 18 1007 77 10000 1.5 330 02:23 14.06.2020
1540 Clear 19 1008 77 10000 2.1 60 01:31 14.06.2020
1541 Clear 20 1008 77 10000 1 110 00:49 14.06.2020
1542 Clear 20 1008 77 10000 1 0 00:30 14.06.2020
1543 Clear 20 1008 77 10000 1.5 350 23:56 13.06.2020
1544 Clear 20 1008 77 10000 2.6 330 23:38 13.06.2020
1545 Clear 20 1008 77 10000 2.6 330 23:20 13.06.2020
1546 Clear 21 1008 73 10000 2.1 320 22:54 13.06.2020
1547 Clear 21 1008 73 10000 1.5 30 22:36 13.06.2020
1548 Rain 21 1008 73 10000 1.5 30 22:18 13.06.2020
1549 Rain 23 1007 69 10000 3.6 50 21:42 13.06.2020
1550 Clouds 23 1007 53 10000 3.6 60 21:24 13.06.2020
1551 Clouds 24 1007 53 10000 3.6 60 20:57 13.06.2020
1552 Clouds 25 1007 50 10000 4.1 70 20:39 13.06.2020
1553 Clouds 26 1007 51 10000 4.1 60 20:18 13.06.2020
1554 Clouds 28 1007 51 10000 3.6 60 19:41 13.06.2020
1555 Clouds 29 1007 51 10000 2.6 130 19:20 13.06.2020
1556 Clouds 30 1007 51 10000 2.6 130 18:59 13.06.2020
1557 Clouds 30 1007 48 10000 2.6 80 18:40 13.06.2020
1558 Clouds 29 1008 48 10000 2.6 60 18:20 13.06.2020
1559 Clouds 30 1008 48 10000 2.6 60 17:57 13.06.2020
1560 Clouds 30 1008 48 10000 1.5 50 17:39 13.06.2020
1561 Clouds 30 1008 48 10000 2.6 60 17:20 13.06.2020
1562 Clouds 30 1009 48 10000 1.5 0 16:55 13.06.2020
1563 Clouds 30 1009 48 10000 1.5 0 16:37 13.06.2020
1564 Clouds 30 1009 51 10000 1.5 0 16:18 13.06.2020
1565 Clouds 29 1009 48 10000 2.1 310 15:44 13.06.2020
1566 Clouds 29 1010 47 10000 2.1 0 15:25 13.06.2020
1567 Clouds 29 1010 51 10000 2.1 50 14:45 13.06.2020
1568 Clouds 29 1010 51 10000 2.1 50 14:26 13.06.2020
1569 Clouds 29 1010 47 10000 2.1 0 13:59 13.06.2020
1570 Clouds 28 1010 47 10000 1.5 50 13:40 13.06.2020
1571 Clouds 28 1010 47 10000 1.5 50 13:22 13.06.2020
1572 Clouds 28 1010 54 10000 2.1 30 12:44 13.06.2020
1573 Clouds 28 1010 54 10000 2.1 30 12:26 13.06.2020
1574 Clouds 27 1010 54 10000 2.1 30 11:59 13.06.2020
1575 Clouds 27 1010 65 10000 1.5 0 11:39 13.06.2020
1576 Clouds 26 1010 64 10000 1 0 11:19 13.06.2020
1577 Clouds 26 1010 64 10000 1 0 10:57 13.06.2020
1578 Clouds 26 1010 64 10000 1 0 10:38 13.06.2020
1579 Clouds 25 1010 64 10000 1 0 10:19 13.06.2020
1580 Clouds 24 1010 73 10000 0.5 0 09:44 13.06.2020
1581 Clouds 23 1010 73 10000 0.5 0 09:25 13.06.2020
1582 Clouds 22 1010 77 10000 1 0 08:49 13.06.2020
1583 Clouds 20 1010 77 10000 1.5 250 08:31 13.06.2020
1584 Clouds 20 1010 77 10000 1 0 07:55 13.06.2020
1585 Clouds 19 1010 88 10000 1.5 320 07:30 13.06.2020
1586 Clouds 17 1010 88 10000 1.5 10 06:51 13.06.2020
1587 Clouds 17 1010 88 10000 1.5 80 06:33 13.06.2020
1588 Clouds 16 1009 93 10000 1 0 05:53 13.06.2020
1589 Clouds 17 1009 93 10000 2.6 120 05:25 13.06.2020
1590 Clouds 17 1009 88 10000 2.6 150 03:55 13.06.2020
1591 Clouds 17 1009 82 10000 1.5 190 02:55 13.06.2020
1592 Clear 18 1009 82 10000 1 170 02:35 13.06.2020
1593 Clouds 18 1009 88 10000 1.5 60 01:46 13.06.2020
1594 Clouds 18 1009 88 10000 1.5 60 01:21 13.06.2020
1595 Clouds 19 1009 82 10000 1.5 130 00:42 13.06.2020
1596 Clouds 19 1009 82 10000 1.5 130 00:42 13.06.2020
1597 Clouds 19 1009 82 10000 1.5 130 00:23 13.06.2020
1598 Clouds 20 1009 77 10000 1.5 160 23:42 12.06.2020
1599 Clouds 19 1009 77 10000 1.5 160 23:19 12.06.2020
1600 Clouds 20 1009 73 10000 1 130 23:19 12.06.2020
1601 Clouds 20 1009 73 10000 1 130 22:59 12.06.2020
1602 Clouds 20 1008 73 10000 1.5 180 22:40 12.06.2020
1603 Clear 21 1008 68 10000 1.5 160 22:19 12.06.2020
1604 Clouds 22 1008 64 10000 1 160 21:49 12.06.2020
1605 Clouds 22 1008 64 10000 1 160 21:26 12.06.2020
1606 Clouds 23 1008 69 10000 1.5 150 20:58 12.06.2020
1607 Clouds 23 1008 69 10000 1.5 150 20:58 12.06.2020
1608 Clouds 24 1008 60 10000 1.5 120 20:40 12.06.2020
1609 Clouds 24 1008 60 10000 1.5 120 20:22 12.06.2020
1610 Clouds 25 1008 61 10000 2.6 150 19:56 12.06.2020
1611 Clouds 25 1008 61 10000 1.5 140 19:38 12.06.2020
1612 Clouds 27 1008 61 10000 2.6 40 19:18 12.06.2020
1613 Clouds 26 1008 51 10000 1 0 18:39 12.06.2020
1614 Clouds 26 1008 50 10000 1.5 350 18:19 12.06.2020
1615 Clouds 27 1008 50 10000 1.5 350 17:54 12.06.2020
1616 Clouds 27 1008 54 10000 2.1 350 17:36 12.06.2020
1617 Clouds 27 1008 51 10000 2.1 300 17:18 12.06.2020
1618 Clouds 26 1008 54 10000 1 0 16:40 12.06.2020
1619 Clouds 26 1008 50 10000 1.5 360 16:19 12.06.2020
1620 Clouds 26 1008 53 10000 4.1 20 15:47 12.06.2020
1621 Clouds 26 1008 53 10000 4.1 20 15:25 12.06.2020
1622 Clouds 26 1008 53 10000 3.1 360 14:56 12.06.2020
1623 Clouds 26 1009 53 10000 3.6 30 14:38 12.06.2020
1624 Clouds 26 1009 53 10000 4.1 20 14:19 12.06.2020
1625 Clouds 26 1009 53 10000 3.6 340 13:41 12.06.2020
1626 Clouds 26 1009 53 10000 3.6 340 13:21 12.06.2020
1627 Clouds 25 1009 53 10000 4.1 310 12:41 12.06.2020
1628 Clouds 24 1009 53 10000 4.1 310 12:20 12.06.2020
1629 Clouds 24 1009 57 10000 4.1 350 11:58 12.06.2020
1630 Clouds 24 1010 56 10000 3.1 310 11:39 12.06.2020
1631 Clouds 24 1010 56 10000 3.1 310 11:21 12.06.2020
1632 Clouds 23 1010 68 10000 2.6 310 10:46 12.06.2020
1633 Clouds 23 1010 68 10000 2.1 310 10:24 12.06.2020
1634 Clouds 21 1010 68 10000 2.6 300 09:47 12.06.2020
1635 Clouds 19 1010 77 10000 1.5 280 09:21 12.06.2020
1636 Clouds 19 1010 77 10000 1.5 240 08:45 12.06.2020
1637 Clouds 18 1010 77 10000 1.5 240 08:25 12.06.2020
1638 Clouds 17 1010 82 10000 2.1 260 07:56 12.06.2020
1639 Clouds 16 1010 87 10000 2.1 260 07:38 12.06.2020
1640 Clouds 16 1010 87 10000 2.1 260 07:19 12.06.2020
1641 Clouds 13 1010 87 10000 0.5 0 06:31 12.06.2020
1642 Clouds 13 1009 87 10000 1.5 220 05:57 12.06.2020
1643 Clouds 13 1009 93 10000 2.1 190 05:37 12.06.2020
1644 Clouds 13 1009 93 10000 2.1 190 05:19 12.06.2020
1645 Clouds 14 1009 93 10000 1 280 03:33 12.06.2020
1646 Clouds 14 1009 87 10000 1 0 01:58 12.06.2020
1647 Clouds 14 1009 87 10000 1 0 01:32 12.06.2020
1648 Clouds 15 1009 82 10000 0.5 0 00:55 12.06.2020
1649 Clouds 15 1009 77 10000 1.5 70 00:37 12.06.2020
1650 Clouds 15 1009 77 10000 1.5 90 00:18 12.06.2020
1651 Clouds 16 1010 77 10000 2.6 30 23:41 11.06.2020
1652 Clouds 16 1010 77 10000 2.6 30 23:22 11.06.2020
1653 Clouds 16 1009 68 10000 1.5 100 22:59 11.06.2020
1654 Clouds 16 1009 77 10000 1.5 110 22:39 11.06.2020
1655 Clear 17 1009 77 10000 1.5 110 22:20 11.06.2020
1656 Clear 18 1009 63 10000 1.5 70 21:57 11.06.2020
1657 Clouds 19 1009 60 10000 1.5 60 21:38 11.06.2020
1658 Clouds 19 1009 56 10000 1.5 80 21:20 11.06.2020
1659 Clouds 21 1009 53 10000 2.1 70 20:45 11.06.2020
1660 Clouds 21 1009 53 10000 2.1 70 20:22 11.06.2020
1661 Clouds 22 1008 53 10000 3.1 60 19:58 11.06.2020
1662 Clouds 22 1008 43 10000 2.1 100 19:40 11.06.2020
1663 Clouds 23 1008 43 10000 2.1 100 19:22 11.06.2020
1664 Clouds 23 1008 43 10000 2.6 120 18:42 11.06.2020
1665 Clouds 23 1008 46 10000 3.1 110 18:24 11.06.2020
1666 Clouds 24 1008 46 10000 3.1 130 17:57 11.06.2020
1667 Clouds 24 1008 46 10000 3.1 130 17:38 11.06.2020
1668 Clouds 24 1008 49 10000 4.1 150 17:20 11.06.2020
1669 Clouds 24 1008 46 10000 4.1 130 16:58 11.06.2020
1670 Clouds 24 1008 46 10000 4.1 130 16:40 11.06.2020
1671 Clouds 24 1009 46 10000 3.6 120 16:21 11.06.2020
1672 Clouds 24 1009 46 10000 4.1 140 15:55 11.06.2020
1673 Clouds 24 1009 46 10000 4.1 140 15:37 11.06.2020
1674 Clouds 24 1009 49 10000 4.1 110 15:18 11.06.2020
1675 Clouds 24 1009 56 10000 4.1 160 14:42 11.06.2020
1676 Clouds 24 1009 56 10000 4.1 160 14:20 11.06.2020
1677 Clouds 23 1009 64 10000 3.1 120 13:56 11.06.2020
1678 Clouds 23 1009 64 10000 3.1 120 13:37 11.06.2020
1679 Clouds 22 1010 68 10000 3.1 130 13:18 11.06.2020
1680 Clouds 22 1010 68 10000 3.1 130 13:18 11.06.2020
1681 Clouds 22 1010 68 10000 3.1 140 12:55 11.06.2020
1682 Clouds 22 1010 68 10000 3.1 130 12:37 11.06.2020
1683 Clouds 20 1010 68 10000 3.1 130 12:18 11.06.2020
1684 Clouds 20 1010 72 10000 1.5 0 11:56 11.06.2020
1685 Clouds 19 1010 72 10000 1.5 0 11:37 11.06.2020
1686 Clouds 18 1010 77 10000 2.1 120 11:18 11.06.2020
1687 Clouds 18 1010 82 10000 2.1 30 10:43 11.06.2020
1688 Clouds 17 1010 88 10000 2.1 30 10:20 11.06.2020
1689 Clouds 16 1010 87 10000 1.5 50 09:59 11.06.2020
1690 Clouds 17 1010 87 10000 1.5 50 09:40 11.06.2020
1691 Clouds 16 1010 93 10000 1.5 50 09:21 11.06.2020
1692 Fog 15 1010 93 6000 0.5 0 08:42 11.06.2020
1693 Fog 14 1010 100 9000 1.5 40 08:19 11.06.2020
1694 Fog 14 1010 100 10000 1.5 20 07:42 11.06.2020
1695 Fog 14 1010 93 10000 0.5 0 07:24 11.06.2020
1696 Fog 13 1009 93 10000 1 0 06:37 11.06.2020
1697 Fog 12 1009 100 10000 1.5 200 05:58 11.06.2020
1698 Clouds 12 1009 100 10000 2.6 190 04:51 11.06.2020
1699 Clouds 12 1009 93 10000 1.5 200 03:26 11.06.2020
1700 Clouds 12 1009 93 10000 1.5 200 02:49 11.06.2020
1701 Clouds 13 1009 93 10000 1.5 180 01:58 11.06.2020
1702 Clouds 13 1009 93 10000 1.5 180 01:39 11.06.2020
1703 Clouds 13 1009 93 10000 1.5 180 01:19 11.06.2020
1704 Clouds 13 1010 93 10000 2.1 200 00:43 11.06.2020
1705 Clouds 14 1010 93 10000 2.1 200 00:24 11.06.2020
1706 Clouds 14 1009 87 10000 0.5 0 23:43 10.06.2020
1707 Clouds 14 1009 87 10000 0.5 0 23:24 10.06.2020
1708 Clouds 14 1009 87 10000 1 0 22:56 10.06.2020
1709 Clouds 15 1009 82 10000 2.1 260 22:37 10.06.2020
1710 Clouds 15 1009 82 10000 2.1 260 22:18 10.06.2020
1711 Clouds 15 1009 82 10000 3.1 230 21:55 10.06.2020
1712 Clouds 15 1009 82 10000 3.1 230 21:37 10.06.2020
1713 Clouds 15 1008 77 10000 1.5 330 21:18 10.06.2020
1714 Clouds 16 1008 82 10000 2.1 320 20:55 10.06.2020
1715 Clouds 16 1008 77 10000 4.1 290 20:37 10.06.2020
1716 Clouds 17 1008 77 10000 4.1 290 20:19 10.06.2020
1717 Clouds 17 1008 77 10000 3.6 310 19:39 10.06.2020
1718 Clouds 18 1008 77 10000 3.6 310 19:18 10.06.2020
1719 Clouds 18 1008 77 10000 3.6 310 18:57 10.06.2020
1720 Clouds 18 1008 77 10000 3.6 290 18:38 10.06.2020
1721 Clouds 19 1008 72 10000 4.1 280 18:19 10.06.2020
1722 Clouds 18 1008 72 10000 4.1 280 17:55 10.06.2020
1723 Rain 18 1008 77 10000 3.1 300 17:36 10.06.2020
1724 Rain 17 1008 77 10000 3.1 300 17:18 10.06.2020
1725 Rain 18 1009 77 10000 4.1 310 16:55 10.06.2020
1726 Clouds 18 1009 77 10000 4.1 310 16:37 10.06.2020
1727 Clouds 17 1009 77 10000 4.6 310 16:18 10.06.2020
1728 Clouds 17 1009 88 10000 3.6 300 15:39 10.06.2020
1729 Rain 16 1009 88 10000 3.6 310 15:21 10.06.2020
1730 Rain 16 1009 93 10000 4.6 330 14:56 10.06.2020
1731 Rain 16 1009 93 3600 4.1 310 14:37 10.06.2020
1732 Rain 16 1009 93 3600 4.1 310 14:19 10.06.2020
1733 Rain 15 1010 93 10000 3.6 300 13:40 10.06.2020
1734 Rain 15 1010 93 10000 3.6 300 13:21 10.06.2020
1735 Rain 15 1010 93 8000 3.1 290 12:43 10.06.2020
1736 Rain 15 1010 93 5000 3.6 280 12:20 10.06.2020
1737 Rain 15 1010 93 4400 4.1 300 11:57 10.06.2020
1738 Rain 15 1010 93 4400 4.1 300 11:39 10.06.2020
1739 Rain 15 1010 93 4100 3.1 320 11:19 10.06.2020
1740 Rain 15 1010 87 5000 3.1 320 10:57 10.06.2020
1741 Rain 15 1010 87 8000 3.1 320 10:39 10.06.2020
1742 Rain 15 1010 87 8000 3.1 320 10:20 10.06.2020
1743 Drizzle 15 1010 87 10000 3.6 310 09:41 10.06.2020
1744 Drizzle 15 1010 87 10000 3.6 310 09:22 10.06.2020
1745 Drizzle 15 1010 87 9000 3.6 310 08:44 10.06.2020
1746 Drizzle 15 1010 87 9000 4.1 310 08:24 10.06.2020
1747 Rain 14 1010 87 8000 3.1 320 07:57 10.06.2020
1748 Rain 14 1010 93 8000 3.1 330 07:38 10.06.2020
1749 Rain 14 1010 93 8000 3.1 330 07:18 10.06.2020
1750 Rain 14 1010 93 8000 3.1 330 06:44 10.06.2020
1751 Rain 14 1010 93 7000 3.1 330 06:22 10.06.2020
1752 Rain 14 1010 93 7000 3.6 330 05:55 10.06.2020
1753 Clouds 14 1010 93 8000 3.1 330 05:25 10.06.2020
1754 Clouds 14 1010 93 9000 2.6 320 04:35 10.06.2020
1755 Clouds 15 1011 93 8000 2.6 330 02:56 10.06.2020
1756 Clouds 15 1011 93 8000 3.1 320 02:20 10.06.2020
1757 Clouds 15 1011 93 7000 3.1 320 01:36 10.06.2020
1758 Clouds 15 1011 93 7000 3.1 340 00:39 10.06.2020
1759 Clouds 15 1011 93 7000 2.6 330 00:21 10.06.2020
1760 Clouds 15 1011 93 6000 2.6 350 23:56 09.06.2020
1761 Rain 15 1011 93 7000 3.1 10 23:38 09.06.2020
1762 Rain 15 1011 93 7000 3.1 10 23:19 09.06.2020
1763 Rain 15 1011 93 6000 2.6 350 22:55 09.06.2020
1764 Rain 15 1011 93 6000 2.6 350 22:37 09.06.2020
1765 Rain 15 1011 93 6000 2.6 350 22:19 09.06.2020
1766 Rain 16 1011 87 10000 3.1 360 21:56 09.06.2020
1767 Rain 16 1011 87 10000 3.1 360 21:37 09.06.2020
1768 Rain 16 1011 87 10000 4.1 350 21:19 09.06.2020
1769 Thunderstorm 17 1011 88 10000 5.1 360 20:56 09.06.2020
1770 Thunderstorm 17 1011 88 10000 5.1 360 20:38 09.06.2020
1771 Clouds 17 1010 82 10000 5.7 360 20:18 09.06.2020
1772 Clouds 18 1010 82 10000 5.7 10 19:56 09.06.2020
1773 Clouds 18 1010 82 10000 5.7 10 19:37 09.06.2020
1774 Clouds 18 1010 77 10000 6.2 20 19:19 09.06.2020
1775 Thunderstorm 19 1010 77 10000 6.2 20 18:45 09.06.2020
1776 Thunderstorm 20 1010 68 10000 6.2 20 18:26 09.06.2020
1777 Clouds 22 1010 53 10000 1.5 280 17:58 09.06.2020
1778 Clouds 22 1010 53 10000 1.5 280 17:40 09.06.2020
1779 Clouds 22 1010 56 10000 1 0 17:22 09.06.2020
1780 Clouds 22 1010 56 10000 2.1 320 16:58 09.06.2020
1781 Clouds 23 1010 56 10000 2.1 320 16:39 09.06.2020
1782 Clouds 23 1010 56 10000 1.5 0 16:20 09.06.2020
1783 Clouds 23 1010 60 10000 2.1 0 15:40 09.06.2020
1784 Clouds 22 1011 60 10000 2.1 290 15:22 09.06.2020
1785 Clouds 22 1011 64 10000 1.5 250 14:59 09.06.2020
1786 Clouds 22 1011 64 10000 1.5 250 14:39 09.06.2020
1787 Clouds 22 1011 64 10000 1.5 0 14:19 09.06.2020
1788 Clouds 21 1012 64 10000 2.1 270 13:56 09.06.2020
1789 Clouds 21 1012 64 10000 2.1 270 13:56 09.06.2020
1790 Clouds 21 1012 68 10000 2.1 350 13:38 09.06.2020
1791 Clouds 20 1012 68 10000 2.1 350 13:20 09.06.2020
1792 Clouds 19 1012 68 10000 3.1 350 12:42 09.06.2020
1793 Clouds 19 1012 68 10000 3.1 350 12:21 09.06.2020
1794 Clouds 18 1012 77 10000 3.6 350 11:58 09.06.2020
1795 Clouds 18 1012 77 10000 3.6 350 11:40 09.06.2020
1796 Clouds 17 1012 72 10000 4.1 340 11:20 09.06.2020
1797 Clouds 17 1012 72 10000 3.1 340 10:55 09.06.2020
1798 Clouds 17 1012 72 10000 3.1 340 10:55 09.06.2020
1799 Clouds 17 1012 72 10000 3.1 340 10:55 09.06.2020
1800 Clouds 17 1012 72 10000 3.1 340 10:36 09.06.2020
1801 Clouds 17 1012 77 10000 3.6 10 10:18 09.06.2020
1802 Clouds 16 1012 77 10000 3.6 340 09:41 09.06.2020
1803 Clouds 16 1012 77 10000 3.1 340 09:22 09.06.2020
1804 Clouds 15 1012 77 10000 2.6 340 08:56 09.06.2020
1805 Clouds 15 1012 82 10000 2.6 340 08:37 09.06.2020
1806 Clouds 15 1012 82 10000 2.6 340 08:19 09.06.2020
1807 Clouds 15 1011 82 10000 4.1 330 07:37 09.06.2020
1808 Clouds 15 1011 82 10000 4.1 330 07:19 09.06.2020
1809 Clouds 15 1012 77 10000 3.1 330 06:52 09.06.2020
1810 Clouds 14 1011 77 10000 4.1 330 06:33 09.06.2020
1811 Clouds 14 1011 77 10000 4.1 320 05:23 09.06.2020
1812 Clouds 15 1012 82 10000 3.1 330 02:56 09.06.2020
1813 Clouds 15 1012 77 10000 3.6 330 01:41 09.06.2020
1814 Clouds 15 1012 82 10000 3.1 330 01:19 09.06.2020
1815 Clouds 15 1012 82 10000 3.1 320 00:45 09.06.2020
1816 Clouds 15 1013 77 10000 3.1 320 00:20 09.06.2020
1817 Clouds 15 1012 87 10000 3.6 320 23:55 08.06.2020
1818 Clouds 15 1012 82 10000 3.6 320 23:37 08.06.2020
1819 Clouds 15 1012 82 10000 3.6 320 23:19 08.06.2020
1820 Clouds 15 1013 82 10000 4.1 340 22:41 08.06.2020
1821 Clouds 15 1013 82 10000 4.1 350 22:22 08.06.2020
1822 Clouds 15 1013 82 10000 3.1 340 21:58 08.06.2020
1823 Clouds 15 1013 82 10000 3.1 340 21:58 08.06.2020
1824 Clouds 15 1012 82 10000 3.6 340 21:40 08.06.2020
1825 Clouds 15 1012 82 10000 3.6 340 21:21 08.06.2020
1826 Clouds 15 1012 77 10000 4.6 350 20:57 08.06.2020
1827 Clouds 16 1012 77 10000 4.6 350 20:39 08.06.2020
1828 Clouds 16 1012 82 10000 4.6 350 20:20 08.06.2020
1829 Clouds 16 1012 77 10000 4.1 350 19:55 08.06.2020
1830 Clouds 16 1012 77 10000 4.1 350 19:37 08.06.2020
1831 Clouds 16 1012 77 10000 4.1 360 19:18 08.06.2020
1832 Clouds 17 1012 67 10000 4.6 330 18:40 08.06.2020
1833 Clouds 17 1012 67 10000 4.6 330 18:18 08.06.2020
1834 Clouds 18 1012 67 10000 4.1 340 17:56 08.06.2020
1835 Clouds 18 1012 67 10000 4.1 340 17:37 08.06.2020
1836 Clouds 18 1012 67 10000 5.1 350 17:19 08.06.2020
1837 Clouds 18 1012 63 10000 5.1 330 16:45 08.06.2020
1838 Clouds 18 1012 63 10000 5.7 330 16:25 08.06.2020
1839 Clouds 18 1012 63 10000 6.7 320 15:58 08.06.2020
1840 Clouds 17 1012 67 10000 5.1 320 15:40 08.06.2020
1841 Clouds 17 1012 67 10000 5.1 320 15:20 08.06.2020
1842 Clouds 17 1012 67 10000 5.1 320 15:20 08.06.2020
1843 Clouds 17 1013 72 10000 4.1 330 14:42 08.06.2020
1844 Clouds 16 1013 72 10000 4.1 330 14:23 08.06.2020
1845 Clouds 16 1013 72 10000 3.6 310 13:57 08.06.2020
1846 Clouds 16 1013 72 10000 5.1 310 13:38 08.06.2020
1847 Clouds 16 1013 72 10000 5.1 310 13:19 08.06.2020
1848 Rain 16 1013 72 10000 5.7 310 12:40 08.06.2020
1849 Rain 16 1013 72 10000 5.7 310 12:19 08.06.2020
1850 Rain 16 1013 67 10000 5.7 310 11:57 08.06.2020
1851 Rain 16 1013 67 10000 5.7 310 11:38 08.06.2020
1852 Rain 16 1013 67 10000 5.7 310 11:38 08.06.2020
1853 Clouds 15 1013 72 10000 5.7 310 11:20 08.06.2020
1854 Clouds 15 1012 67 10000 5.1 310 10:56 08.06.2020
1855 Clouds 15 1012 67 10000 5.1 310 10:37 08.06.2020
1856 Clouds 14 1012 71 10000 6.2 310 10:19 08.06.2020
1857 Clouds 14 1012 71 10000 6.2 310 09:43 08.06.2020
1858 Clouds 14 1012 71 10000 6.7 310 09:23 08.06.2020
1859 Clouds 14 1012 67 10000 6.2 300 08:49 08.06.2020
1860 Clouds 13 1012 71 10000 6.7 300 08:24 08.06.2020
1861 Clouds 13 1012 71 10000 7.2 300 07:56 08.06.2020
1862 Clouds 13 1012 71 10000 7.7 300 07:37 08.06.2020
1863 Clouds 13 1012 71 10000 7.7 300 07:37 08.06.2020
1864 Clouds 13 1012 71 10000 7.7 300 07:18 08.06.2020
1865 Clouds 12 1011 71 10000 8.2 300 06:38 08.06.2020
1866 Clouds 12 1011 71 10000 7.7 300 05:54 08.06.2020
1867 Clouds 12 1011 71 10000 7.2 300 04:36 08.06.2020
1868 Clouds 12 1011 76 10000 8.2 300 03:24 08.06.2020
1869 Clouds 12 1011 76 10000 6.7 290 02:26 08.06.2020
1870 Clouds 12 1011 82 10000 7.2 300 01:42 08.06.2020
1871 Clouds 12 1010 82 10000 8.2 310 00:57 08.06.2020
1872 Rain 12 1010 87 10000 5.7 290 00:24 08.06.2020
1873 Rain 12 1010 82 10000 7.7 280 23:38 07.06.2020
1874 Rain 13 1009 82 10000 8.7 290 23:19 07.06.2020
1875 Rain 13 1008 77 10000 9.3 290 22:57 07.06.2020
1876 Rain 14 1008 67 10000 10.8 280 22:37 07.06.2020
1877 Rain 14 1008 67 10000 10.8 280 22:18 07.06.2020
1878 Clouds 15 1007 67 10000 10.3 280 21:58 07.06.2020
1879 Clouds 15 1007 67 10000 10.3 280 21:36 07.06.2020
1880 Clouds 15 1007 67 10000 10.3 280 21:18 07.06.2020
1881 Clouds 16 1006 63 10000 10.3 290 20:39 07.06.2020
1882 Clouds 17 1005 64 10000 10.3 290 20:21 07.06.2020
1883 Rain 18 1003 83 0 4.02 232 19:57 07.06.2020
1884 Rain 18 1007 73 0 4.47 300 19:39 07.06.2020
1885 Clouds 22 1003 47 10000 6.7 170 19:21 07.06.2020
1886 Clouds 24 1003 47 10000 6.7 160 18:59 07.06.2020
1887 Clouds 26 1003 44 10000 7.7 160 18:38 07.06.2020
1888 Clouds 26 1003 44 10000 7.7 160 18:20 07.06.2020
1889 Clouds 26 1003 42 10000 10.3 150 17:57 07.06.2020
1890 Clouds 27 1003 42 10000 9.8 150 17:38 07.06.2020
1891 Clouds 27 1003 42 10000 9.8 150 17:20 07.06.2020
1892 Clouds 28 1003 42 10000 9.8 150 16:43 07.06.2020
1893 Clouds 28 1003 44 10000 9.3 160 16:22 07.06.2020
1894 Clouds 28 1003 47 10000 8.7 150 15:44 07.06.2020
1895 Clouds 28 1003 47 10000 8.7 150 15:44 07.06.2020
1896 Clouds 27 1004 44 10000 9.3 160 15:22 07.06.2020
1897 Clouds 27 1004 47 10000 8.2 160 14:41 07.06.2020
1898 Clouds 26 1005 50 10000 8.7 150 14:23 07.06.2020
1899 Clouds 26 1005 50 10000 8.7 150 14:23 07.06.2020
1900 Clouds 26 1005 50 10000 8.7 150 14:23 07.06.2020
1901 Clouds 26 1005 50 10000 8.7 150 14:23 07.06.2020
1902 Clouds 26 1005 50 10000 8.7 150 13:56 07.06.2020
1903 Clouds 26 1005 50 10000 8.7 150 13:37 07.06.2020
1904 Clouds 26 1005 50 10000 8.7 150 13:37 07.06.2020
1905 Clouds 26 1005 50 10000 8.7 150 13:37 07.06.2020
1906 Clouds 26 1005 53 10000 8.7 150 13:19 07.06.2020
1907 Clouds 25 1005 53 10000 9.3 160 12:43 07.06.2020
1908 Clouds 24 1006 64 10000 8.2 150 12:24 07.06.2020
1909 Clouds 23 1006 64 10000 6.7 150 11:55 07.06.2020
1910 Clouds 23 1006 64 10000 6.7 150 11:55 07.06.2020
1911 Clouds 23 1006 64 10000 5.7 130 11:37 07.06.2020
1912 Clouds 22 1006 64 10000 5.7 130 11:19 07.06.2020
1913 Clouds 22 1006 64 10000 5.7 130 11:19 07.06.2020
1914 Clouds 22 1006 68 10000 3.6 130 10:54 07.06.2020
1915 Clouds 21 1006 68 10000 3.6 130 10:36 07.06.2020
1916 Clouds 22 1006 68 10000 1.5 0 10:18 07.06.2020
1917 Clouds 21 1006 68 10000 2.1 110 09:41 07.06.2020
1918 Clouds 20 1007 68 10000 1 0 09:22 07.06.2020
1919 Clouds 19 1007 77 10000 1.5 250 08:59 07.06.2020
1920 Clouds 18 1007 77 10000 1.5 250 08:41 07.06.2020
1921 Clouds 18 1006 72 10000 1 0 08:22 07.06.2020
1922 Clouds 18 1006 77 10000 1 0 07:43 07.06.2020
1923 Clouds 17 1006 77 10000 1 0 07:24 07.06.2020
1924 Clouds 16 1007 82 10000 0.5 0 06:22 07.06.2020
1925 Clouds 16 1007 77 10000 4.1 310 04:49 07.06.2020
1926 Clouds 16 1007 77 10000 3.1 310 04:18 07.06.2020
1927 Rain 16 1007 77 10000 5.1 270 02:26 07.06.2020
1928 Rain 17 1007 82 10000 2.6 240 01:40 07.06.2020
1929 Rain 17 1006 82 10000 2.6 180 01:22 07.06.2020
1930 Rain 17 1006 82 10000 3.1 160 00:40 07.06.2020
1931 Clouds 17 1006 87 10000 4.6 160 00:18 07.06.2020
1932 Clouds 18 1006 77 10000 3.1 120 23:55 06.06.2020
1933 Clouds 19 1006 77 10000 3.1 120 23:36 06.06.2020
1934 Clouds 19 1006 72 10000 4.1 140 23:18 06.06.2020
1935 Clouds 19 1006 72 10000 4.1 130 22:55 06.06.2020
1936 Clouds 19 1006 72 10000 4.1 130 22:36 06.06.2020
1937 Clouds 20 1005 72 10000 4.6 160 22:18 06.06.2020
1938 Clouds 20 1005 72 10000 5.1 160 21:42 06.06.2020
1939 Clouds 21 1005 64 10000 5.1 150 21:20 06.06.2020
1940 Clouds 22 1005 64 10000 6.2 150 20:41 06.06.2020
1941 Clear 22 1005 56 10000 6.7 140 20:21 06.06.2020
1942 Clouds 23 1005 56 10000 5.7 140 19:59 06.06.2020
1943 Clouds 23 1005 56 10000 5.7 140 19:40 06.06.2020
1944 Clouds 24 1005 56 10000 7.2 140 19:22 06.06.2020
1945 Clouds 24 1005 53 10000 7.7 150 18:57 06.06.2020
1946 Clouds 24 1005 57 10000 7.2 140 18:39 06.06.2020
1947 Clouds 24 1005 57 10000 7.2 140 18:20 06.06.2020
1948 Clouds 24 1005 57 10000 7.7 150 17:44 06.06.2020
1949 Clouds 24 1005 57 10000 7.2 160 17:21 06.06.2020
1950 Clouds 24 1005 57 10000 7.2 160 17:21 06.06.2020
1951 Clouds 24 1006 53 10000 8.2 150 16:57 06.06.2020
1952 Clouds 24 1006 53 10000 8.2 150 16:39 06.06.2020
1953 Clouds 24 1006 53 10000 7.7 150 16:20 06.06.2020
1954 Clouds 24 1006 53 10000 8.7 160 15:45 06.06.2020
1955 Clouds 24 1006 57 10000 8.7 170 15:21 06.06.2020
1956 Clouds 24 1007 56 10000 8.7 160 14:59 06.06.2020
1957 Clouds 24 1007 56 10000 8.7 160 14:39 06.06.2020
1958 Clouds 24 1007 56 10000 9.3 150 14:20 06.06.2020
1959 Clouds 24 1007 53 10000 10.3 160 13:49 06.06.2020
1960 Clouds 23 1007 60 10000 9.3 150 13:20 06.06.2020
1961 Clouds 24 1007 56 10000 7.7 150 12:59 06.06.2020
1962 Clouds 23 1007 56 10000 7.7 150 12:40 06.06.2020
1963 Clouds 22 1007 60 10000 7.7 140 12:21 06.06.2020
1964 Clear 22 1004 76 0 0.89 242 11:57 06.06.2020
1965 Clouds 22 1007 60 10000 8.2 150 11:38 06.06.2020
1966 Clouds 21 1007 60 10000 8.2 150 11:19 06.06.2020
1967 Clear 21 1007 60 10000 7.2 150 10:57 06.06.2020
1968 Clear 21 1007 60 10000 7.2 150 10:38 06.06.2020
1969 Clear 21 1008 56 10000 5.7 150 10:20 06.06.2020
1970 Clear 20 1008 64 10000 4.6 160 09:45 06.06.2020
1971 Clear 19 1008 72 10000 4.1 160 09:27 06.06.2020
1972 Clear 18 1008 72 10000 4.1 180 08:50 06.06.2020
1973 Clouds 17 1008 77 10000 3.6 170 08:25 06.06.2020
1974 Clouds 16 1007 82 10000 2.6 200 07:59 06.06.2020
1975 Clouds 15 1007 82 10000 2.6 200 07:40 06.06.2020
1976 Clouds 15 1007 87 10000 2.1 180 07:20 06.06.2020
1977 Clouds 13 1007 87 10000 2.1 180 06:46 06.06.2020
1978 Clouds 12 1006 93 10000 4.1 160 06:26 06.06.2020
1979 Clouds 12 1006 87 10000 1.5 170 05:50 06.06.2020
1980 Clouds 12 1006 87 10000 3.1 200 05:25 06.06.2020
1981 Clouds 12 1006 100 10000 4.1 160 04:38 06.06.2020
1982 Clouds 13 1006 93 10000 1.5 170 02:36 06.06.2020
1983 Clouds 13 1006 93 10000 2.6 290 01:41 06.06.2020
1984 Clouds 13 1006 87 10000 2.1 210 01:18 06.06.2020
1985 Clouds 13 1005 93 10000 0.5 0 00:41 06.06.2020
1986 Clouds 13 1005 87 10000 3.6 190 00:22 06.06.2020
1987 Clouds 13 1005 93 10000 2.6 180 23:40 05.06.2020
1988 Clouds 13 1004 93 10000 3.6 180 23:21 05.06.2020
1989 Clouds 13 1004 87 10000 2.6 170 22:58 05.06.2020
1990 Clouds 13 1004 87 10000 2.6 170 22:40 05.06.2020
1991 Clouds 14 1004 87 10000 2.1 170 22:22 05.06.2020
1992 Clouds 14 1003 82 10000 2.1 180 21:55 05.06.2020
1993 Clouds 15 1003 82 10000 2.1 180 21:37 05.06.2020
1994 Clouds 15 1002 82 10000 3.1 190 21:18 05.06.2020
1995 Clouds 16 1002 72 10000 2.1 180 20:45 05.06.2020
1996 Clouds 17 1002 67 10000 1 0 20:23 05.06.2020
1997 Clouds 17 1002 59 10000 2.1 210 19:59 05.06.2020
1998 Clouds 17 1002 59 10000 2.1 210 19:39 05.06.2020
1999 Clouds 17 1002 63 10000 2.1 270 19:21 05.06.2020
2000 Clouds 18 1002 63 10000 3.6 260 18:40 05.06.2020
2001 Clouds 18 1001 63 10000 4.1 250 18:21 05.06.2020
2002 Clouds 18 1001 63 10000 4.1 250 18:21 05.06.2020
2003 Clouds 18 1001 63 10000 4.1 280 17:59 05.06.2020
2004 Clouds 18 1001 63 10000 4.1 280 17:41 05.06.2020
2005 Rain 18 1001 59 10000 5.7 280 17:21 05.06.2020
2006 Rain 17 1001 59 10000 7.2 270 16:58 05.06.2020
2007 Rain 17 1001 59 10000 7.2 270 16:37 05.06.2020
2008 Clouds 17 1001 63 10000 5.7 280 16:19 05.06.2020
2009 Clouds 17 1001 63 10000 6.2 280 15:39 05.06.2020
2010 Clouds 17 1001 63 10000 5.7 280 15:20 05.06.2020
2011 Clouds 17 1000 67 10000 5.7 290 14:58 05.06.2020
2012 Clouds 17 1000 67 10000 5.7 290 14:39 05.06.2020
2013 Clouds 17 1000 67 10000 6.7 280 14:21 05.06.2020
2014 Clouds 16 1000 72 10000 4.6 280 13:47 05.06.2020
2015 Clouds 17 1000 72 10000 5.1 280 13:28 05.06.2020
2016 Clouds 16 1000 77 10000 5.1 290 12:57 05.06.2020
2017 Clouds 16 1000 77 10000 5.1 290 12:38 05.06.2020
2018 Clouds 16 999 77 10000 4.6 310 12:19 05.06.2020
2019 Clouds 16 999 82 10000 5.1 280 11:43 05.06.2020
2020 Rain 15 999 87 7000 5.7 280 11:24 05.06.2020
2021 Rain 14 999 93 10000 6.2 310 10:58 05.06.2020
2022 Rain 14 999 93 10000 6.2 310 10:39 05.06.2020
2023 Rain 14 999 87 10000 6.2 280 10:20 05.06.2020
2024 Rain 13 998 93 10000 3.6 270 09:57 05.06.2020
2025 Rain 14 998 93 10000 3.6 270 09:39 05.06.2020
2026 Rain 13 998 93 10000 3.6 260 09:19 05.06.2020
2027 Rain 14 998 93 10000 4.1 270 08:57 05.06.2020
2028 Rain 13 998 93 10000 4.1 270 08:39 05.06.2020
2029 Rain 13 998 93 10000 3.6 260 08:18 05.06.2020
2030 Rain 13 998 93 10000 4.6 280 07:49 05.06.2020
2031 Rain 14 998 93 5000 2.1 210 07:31 05.06.2020
2032 Rain 14 997 93 10000 2.1 260 06:48 05.06.2020
2033 Rain 14 997 87 10000 2.1 200 05:23 05.06.2020
2034 Rain 16 997 82 10000 2.6 160 04:27 05.06.2020
2035 Clouds 16 996 72 10000 5.1 260 03:29 05.06.2020
2036 Clouds 17 996 68 10000 4.1 240 02:29 05.06.2020
2037 Clouds 17 996 63 10000 4.1 230 01:58 05.06.2020
2038 Rain 17 996 72 10000 4.1 190 01:31 05.06.2020
2039 Rain 17 995 67 10000 5.1 170 00:44 05.06.2020
2040 Rain 17 995 63 10000 5.1 170 00:22 05.06.2020
2041 Rain 17 995 63 10000 5.7 180 23:48 04.06.2020
2042 Rain 18 995 63 10000 6.2 170 23:29 04.06.2020
2043 Rain 18 995 63 10000 6.2 180 22:57 04.06.2020
2044 Rain 18 995 63 10000 6.2 180 22:39 04.06.2020
2045 Clouds 18 995 63 10000 6.2 180 22:21 04.06.2020
2046 Clouds 19 995 59 10000 6.2 170 21:58 04.06.2020
2047 Clouds 18 995 56 10000 7.2 180 21:38 04.06.2020
2048 Clouds 19 995 56 10000 7.2 180 21:20 04.06.2020
2049 Clouds 19 995 56 10000 6.7 170 20:56 04.06.2020
2050 Clouds 20 995 56 10000 6.7 170 20:38 04.06.2020
2051 Clouds 20 995 56 10000 6.7 170 20:19 04.06.2020
2052 Clouds 20 995 53 10000 8.7 180 19:43 04.06.2020
2053 Clouds 20 995 53 10000 8.7 180 19:21 04.06.2020
2054 Clouds 21 995 47 10000 8.2 180 18:58 04.06.2020
2055 Rain 24 995 53 10000 2.1 220 18:38 04.06.2020
2056 Rain 24 995 53 10000 2.1 220 18:20 04.06.2020
2057 Rain 24 995 53 10000 2.1 220 18:20 04.06.2020
2058 Rain 22 995 56 10000 5.1 170 17:44 04.06.2020
2059 Rain 23 995 53 10000 5.7 180 17:23 04.06.2020
2060 Clouds 23 996 56 10000 3.6 130 16:59 04.06.2020
2061 Clouds 24 996 56 10000 3.6 130 16:40 04.06.2020
2062 Clouds 25 996 53 10000 3.6 140 16:20 04.06.2020
2063 Clouds 25 996 53 10000 3.6 140 16:20 04.06.2020
2064 Clouds 25 997 53 10000 4.1 140 15:44 04.06.2020
2065 Clouds 25 997 50 10000 4.1 140 15:26 04.06.2020
2066 Clouds 24 997 50 10000 4.1 150 14:42 04.06.2020
2067 Clouds 24 998 53 10000 5.7 140 14:24 04.06.2020
2068 Clouds 24 998 60 10000 4.6 120 13:59 04.06.2020
2069 Clouds 23 998 60 10000 4.6 120 13:59 04.06.2020
2070 Clouds 23 998 64 10000 4.6 100 13:40 04.06.2020
2071 Clouds 23 998 64 10000 4.6 100 13:21 04.06.2020
2072 Clouds 22 999 68 10000 3.6 110 12:59 04.06.2020
2073 Clouds 22 999 68 10000 3.6 110 12:41 04.06.2020
2074 Clouds 21 999 68 10000 4.1 120 12:22 04.06.2020
2075 Clouds 20 999 72 10000 3.1 110 11:55 04.06.2020
2076 Clouds 20 999 68 10000 3.1 120 11:37 04.06.2020
2077 Clouds 20 999 68 10000 3.1 120 11:19 04.06.2020
2078 Clouds 19 999 68 10000 3.1 110 10:42 04.06.2020
2079 Clouds 19 999 72 10000 3.6 90 10:23 04.06.2020
2080 Clouds 18 999 77 10000 3.6 110 09:58 04.06.2020
2081 Clouds 17 999 77 10000 3.6 110 09:40 04.06.2020
2082 Clouds 16 999 77 10000 3.1 100 09:21 04.06.2020
2083 Clouds 15 999 77 10000 2.6 100 08:44 04.06.2020
2084 Clouds 15 1000 82 10000 1 0 08:25 04.06.2020
2085 Clouds 14 999 87 10000 1 0 07:47 04.06.2020
2086 Clouds 14 999 87 10000 1 0 07:26 04.06.2020
2087 Clouds 12 1000 93 10000 2.1 140 06:43 04.06.2020
2088 Clouds 11 1000 93 10000 2.1 140 06:24 04.06.2020
2089 Clouds 11 1000 93 10000 3.1 220 05:35 04.06.2020
2090 Clouds 11 1000 93 10000 2.1 0 04:33 04.06.2020
2091 Clouds 11 1002 93 10000 3.1 280 03:24 04.06.2020
2092 Clouds 12 1002 87 10000 1.5 150 01:56 04.06.2020
2093 Rain 12 1003 93 10000 1 0 01:19 04.06.2020
2094 Rain 12 1003 87 10000 1.5 160 00:40 04.06.2020
2095 Clouds 13 1003 93 10000 2.1 150 23:44 03.06.2020
2096 Clouds 13 1003 82 10000 2.6 180 23:21 03.06.2020
2097 Clouds 13 1004 87 10000 3.1 210 22:59 03.06.2020
2098 Clouds 13 1004 87 10000 3.1 210 22:39 03.06.2020
2099 Clouds 14 1004 77 10000 3.6 250 22:19 03.06.2020
2100 Clouds 14 1003 77 10000 1.5 0 21:57 03.06.2020
2101 Rain 14 1003 77 10000 1.5 0 21:39 03.06.2020
2102 Rain 16 1004 72 10000 6.2 340 21:20 03.06.2020
2103 Rain 15 1004 72 10000 4.1 270 20:55 03.06.2020
2104 Rain 16 1004 72 10000 4.1 270 20:37 03.06.2020
2105 Rain 16 1004 67 10000 4.1 280 20:19 03.06.2020
2106 Rain 17 1004 67 10000 5.1 240 19:55 03.06.2020
2107 Rain 17 1004 72 10000 6.2 250 19:36 03.06.2020
2108 Clouds 17 1004 72 10000 3.6 240 19:18 03.06.2020
2109 Clouds 18 1004 72 10000 2.6 190 18:41 03.06.2020
2110 Clouds 19 1004 72 10000 2.6 190 18:22 03.06.2020
2111 Clouds 20 1004 68 10000 4.6 210 17:57 03.06.2020
2112 Clouds 20 1004 68 10000 4.6 210 17:37 03.06.2020
2113 Rain 21 1002 79 0 0.45 247 17:18 03.06.2020
2114 Thunderstorm 21 1005 68 10000 5.1 240 16:42 03.06.2020
2115 Thunderstorm 22 1004 64 10000 2.1 110 16:20 03.06.2020
2116 Clouds 22 1004 64 10000 3.6 70 15:58 03.06.2020
2117 Clouds 22 1004 64 10000 3.6 70 15:40 03.06.2020
2118 Thunderstorm 22 1005 72 10000 4.6 70 15:20 03.06.2020
2119 Rain 22 1005 82 10000 2.6 80 14:46 03.06.2020
2120 Rain 21 1005 88 10000 3.1 80 14:24 03.06.2020
2121 Rain 21 1005 82 10000 2.6 60 13:56 03.06.2020
2122 Rain 22 1002 67 0 2.24 100 13:38 03.06.2020
2123 Clouds 22 1006 72 2000 3.6 30 13:18 03.06.2020
2124 Thunderstorm 22 1006 49 10000 5.7 310 12:42 03.06.2020
2125 Clouds 22 1006 52 10000 3.1 330 12:21 03.06.2020
2126 Clouds 22 1006 52 10000 5.1 320 11:45 03.06.2020
2127 Clouds 21 1006 56 10000 3.6 330 11:27 03.06.2020
2128 Clouds 20 1007 59 10000 4.1 320 10:57 03.06.2020
2129 Clouds 20 1007 59 10000 4.1 320 10:38 03.06.2020
2130 Clouds 20 1007 59 10000 3.6 310 10:20 03.06.2020
2131 Clouds 18 1007 59 10000 5.1 310 09:42 03.06.2020
2132 Clouds 17 1007 63 10000 3.6 320 09:20 03.06.2020
2133 Clouds 16 1007 72 10000 3.1 320 08:48 03.06.2020
2134 Clouds 16 1007 72 10000 3.6 290 08:25 03.06.2020
2135 Rain 15 1007 77 10000 3.1 280 07:59 03.06.2020
2136 Rain 15 1007 82 10000 3.6 280 07:40 03.06.2020
2137 Rain 14 1007 82 10000 2.1 280 07:19 03.06.2020
2138 Clouds 14 1007 82 10000 2.1 280 06:48 03.06.2020
2139 Clouds 12 1008 87 10000 2.1 290 06:29 03.06.2020
2140 Clouds 12 1008 93 10000 3.1 300 05:46 03.06.2020
2141 Rain 12 1008 87 10000 4.1 270 04:44 03.06.2020
2142 Clouds 12 1009 87 10000 3.1 270 03:50 03.06.2020
2143 Rain 12 1010 93 10000 2.6 240 02:46 03.06.2020
2144 Rain 12 1011 100 10000 2.6 290 01:48 03.06.2020
2145 Rain 13 1012 93 10000 4.1 360 00:41 03.06.2020
2146 Rain 14 1011 87 10000 4.6 10 00:23 03.06.2020
2147 Rain 14 1011 87 10000 3.6 350 23:51 02.06.2020
2148 Rain 15 1011 82 10000 3.6 340 23:27 02.06.2020
2149 Clouds 16 1011 63 10000 6.7 320 22:56 02.06.2020
2150 Rain 16 1011 59 10000 4.6 320 22:37 02.06.2020
2151 Rain 16 1011 59 10000 4.6 320 22:18 02.06.2020
2152 Rain 16 1011 59 10000 5.7 320 21:56 02.06.2020
2153 Rain 16 1011 59 10000 5.7 320 21:37 02.06.2020
2154 Clouds 17 1011 63 10000 4.6 310 21:19 02.06.2020
2155 Clouds 17 1011 59 10000 5.7 320 20:55 02.06.2020
2156 Clouds 17 1011 59 10000 5.7 320 20:36 02.06.2020
2157 Clouds 17 1011 59 10000 5.7 320 20:18 02.06.2020
2158 Clouds 18 1011 52 10000 8.2 320 19:42 02.06.2020
2159 Clouds 18 1012 49 10000 6.7 340 19:23 02.06.2020
2160 Clouds 19 1012 48 10000 8.7 330 18:56 02.06.2020
2161 Clouds 19 1012 42 10000 10.3 340 18:38 02.06.2020
2162 Clouds 19 1012 42 10000 10.3 340 18:19 02.06.2020
2163 Clouds 20 1012 43 10000 8.7 330 17:43 02.06.2020
2164 Clouds 20 1012 46 10000 8.2 330 17:23 02.06.2020
2165 Clouds 20 1013 45 10000 9.3 330 16:57 02.06.2020
2166 Clouds 20 1013 45 10000 9.3 330 16:39 02.06.2020
2167 Clouds 20 1013 46 10000 8.2 340 16:21 02.06.2020
2168 Clouds 20 1013 45 10000 7.7 330 15:57 02.06.2020
2169 Clouds 19 1013 42 10000 9.3 340 15:37 02.06.2020
2170 Clouds 19 1013 42 10000 9.3 340 15:18 02.06.2020
2171 Clouds 21 1013 40 10000 8.7 350 14:42 02.06.2020
2172 Clouds 21 1014 40 10000 9.8 340 14:23 02.06.2020
2173 Clouds 21 1014 40 10000 8.2 350 13:54 02.06.2020
2174 Clouds 21 1014 40 10000 8.2 350 13:36 02.06.2020
2175 Clouds 20 1014 42 10000 8.2 330 13:18 02.06.2020
2176 Clouds 21 1014 42 10000 8.7 330 12:40 02.06.2020
2177 Clouds 20 1014 43 10000 7.7 330 12:21 02.06.2020
2178 Clouds 20 1014 45 10000 7.2 330 11:59 02.06.2020
2179 Clouds 20 1014 45 10000 7.2 330 11:39 02.06.2020
2180 Clouds 20 1015 45 10000 7.7 320 11:20 02.06.2020
2181 Rain 19 1015 48 10000 5.7 310 10:48 02.06.2020
2182 Clouds 19 1015 48 10000 6.2 310 10:28 02.06.2020
2183 Clouds 18 1016 51 10000 5.1 320 09:58 02.06.2020
2184 Clouds 17 1016 51 10000 5.1 320 09:39 02.06.2020
2185 Clouds 17 1016 51 10000 5.1 310 09:20 02.06.2020
2186 Clouds 16 1016 55 10000 3.6 310 08:48 02.06.2020
2187 Clear 16 1016 58 10000 3.1 320 08:22 02.06.2020
2188 Clear 15 1016 54 10000 4.1 310 07:52 02.06.2020
2189 Clear 14 1016 58 10000 4.1 300 07:26 02.06.2020
2190 Clear 13 1016 62 10000 4.6 310 06:47 02.06.2020
2191 Clear 13 1016 66 10000 3.1 290 06:24 02.06.2020
2192 Clear 11 1016 66 10000 3.6 280 05:21 02.06.2020
2193 Clear 11 1017 66 10000 3.6 310 03:25 02.06.2020
2194 Clouds 12 1017 62 10000 3.1 330 02:30 02.06.2020
2195 Clouds 13 1018 58 10000 3.6 340 01:33 02.06.2020
2196 Clouds 14 1018 58 10000 3.6 340 00:26 02.06.2020
2197 Clouds 15 1017 58 10000 1.5 0 23:58 01.06.2020
2198 Clouds 15 1017 58 10000 1.5 0 23:37 01.06.2020
2199 Clear 15 1017 55 10000 2.6 330 23:18 01.06.2020
2200 Clear 16 1017 59 10000 2.6 350 22:54 01.06.2020
2201 Clear 16 1017 59 10000 2.6 350 22:36 01.06.2020
2202 Clear 17 1017 59 10000 2.6 350 22:18 01.06.2020
2203 Clear 17 1017 59 10000 2.6 350 21:41 01.06.2020
2204 Clear 18 1017 52 10000 2.6 350 21:20 01.06.2020
2205 Clouds 19 1016 48 10000 2.6 10 20:58 01.06.2020
2206 Clouds 19 1016 48 10000 2.6 10 20:40 01.06.2020
2207 Clear 19 1016 43 10000 5.1 10 20:19 01.06.2020
2208 Clear 20 1016 43 10000 5.1 10 19:57 01.06.2020
2209 Clear 21 1016 43 10000 4.6 10 19:39 01.06.2020
2210 Clear 21 1016 43 10000 4.6 10 19:19 01.06.2020
2211 Clear 21 1016 40 10000 6.2 360 18:56 01.06.2020
2212 Clear 21 1016 40 10000 6.2 360 18:56 01.06.2020
2213 Clear 21 1016 43 10000 5.1 360 18:38 01.06.2020
2214 Clear 22 1016 43 10000 5.1 360 18:18 01.06.2020
2215 Clear 22 1017 43 10000 5.7 360 17:41 01.06.2020
2216 Clear 22 1017 43 10000 5.7 360 17:20 01.06.2020
2217 Clouds 22 1017 43 10000 5.1 350 16:48 01.06.2020
2218 Clouds 22 1017 52 10000 4.6 340 16:26 01.06.2020
2219 Clouds 22 1017 56 10000 5.1 330 15:59 01.06.2020
2220 Clouds 22 1017 56 10000 5.1 330 15:40 01.06.2020
2221 Clouds 21 1017 56 10000 5.7 330 15:21 01.06.2020
2222 Clouds 21 1018 60 10000 5.1 320 14:59 01.06.2020
2223 Clouds 21 1018 60 10000 5.1 320 14:41 01.06.2020
2224 Clouds 21 1018 60 10000 6.2 310 14:21 01.06.2020
2225 Clouds 21 1018 52 10000 6.2 320 13:56 01.06.2020
2226 Clouds 20 1018 52 10000 6.2 320 13:37 01.06.2020
2227 Clouds 20 1018 52 10000 6.2 320 13:19 01.06.2020
2228 Clouds 20 1018 52 10000 6.7 330 12:57 01.06.2020
2229 Clouds 20 1019 56 10000 6.7 320 12:38 01.06.2020
2230 Clouds 20 1019 56 10000 6.7 320 12:20 01.06.2020
2231 Clouds 19 1019 63 10000 7.2 310 11:40 01.06.2020
2232 Clouds 18 1019 63 10000 7.7 310 11:22 01.06.2020
2233 Clouds 18 1019 63 10000 7.7 310 10:57 01.06.2020
2234 Clouds 17 1019 67 10000 7.7 310 10:38 01.06.2020
2235 Clouds 17 1019 67 10000 7.7 310 10:19 01.06.2020
2236 Clouds 16 1019 67 10000 6.7 310 09:55 01.06.2020
2237 Clouds 16 1019 72 10000 7.2 290 09:37 01.06.2020
2238 Clouds 16 1019 72 10000 7.2 290 09:37 01.06.2020
2239 Clouds 15 1019 72 10000 7.2 290 09:19 01.06.2020
2240 Clouds 14 1019 76 10000 6.2 300 08:42 01.06.2020
2241 Clouds 15 1019 76 10000 6.2 300 08:23 01.06.2020
2242 Clouds 13 1018 82 10000 4.1 300 07:44 01.06.2020
2243 Clouds 12 1018 82 10000 4.1 300 07:26 01.06.2020
2244 Clouds 11 1018 81 10000 4.6 300 06:52 01.06.2020
2245 Clouds 11 1018 87 10000 5.1 300 06:20 01.06.2020
2246 Clouds 11 1018 87 10000 6.2 300 05:49 01.06.2020
2247 Clouds 10 1018 87 10000 6.2 300 04:23 01.06.2020
2248 Clouds 10 1018 87 10000 5.7 310 03:45 01.06.2020
2249 Clouds 11 1018 87 10000 6.7 300 03:18 01.06.2020
2250 Clouds 11 1018 87 10000 6.7 300 01:47 01.06.2020
2251 Clouds 11 1018 87 10000 6.2 300 01:28 01.06.2020
2252 Rain 11 1018 87 10000 6.2 290 00:57 01.06.2020
2253 Rain 11 1018 87 10000 7.7 290 00:39 01.06.2020
2254 Rain 11 1018 87 10000 7.7 290 00:20 01.06.2020
2255 Rain 11 1018 93 10000 7.2 300 23:55 31.05.2020
2256 Rain 11 1018 93 10000 7.2 300 23:55 31.05.2020
2257 Rain 11 1018 87 10000 8.7 300 23:36 31.05.2020
2258 Rain 10 1018 87 6000 8.7 300 23:18 31.05.2020
2259 Rain 10 1018 87 10000 7.2 300 22:42 31.05.2020
2260 Rain 10 1018 87 10000 7.2 300 22:24 31.05.2020
2261 Rain 10 1018 87 10000 7.2 300 21:58 31.05.2020
2262 Rain 10 1017 87 10000 7.2 300 21:39 31.05.2020
2263 Rain 10 1017 87 10000 6.7 300 21:21 31.05.2020
2264 Rain 10 1017 87 10000 7.2 300 21:21 31.05.2020
2265 Rain 10 1017 87 10000 7.2 300 21:21 31.05.2020
2266 Rain 10 1017 93 10000 8.2 300 20:48 31.05.2020
2267 Rain 10 1017 93 10000 8.2 300 20:25 31.05.2020
2268 Rain 10 1017 93 10000 8.2 300 19:57 31.05.2020
2269 Rain 10 1017 87 10000 8.2 300 19:39 31.05.2020
2270 Rain 10 1017 87 10000 8.2 300 19:21 31.05.2020
2271 Rain 10 1017 87 10000 9.3 300 18:58 31.05.2020
2272 Rain 10 1017 87 10000 8.2 290 18:40 31.05.2020
2273 Rain 9 1017 87 10000 7.7 300 18:21 31.05.2020
2274 Rain 9 1016 87 10000 8.2 300 17:43 31.05.2020
2275 Rain 9 1016 87 10000 8.2 300 17:24 31.05.2020
2276 Rain 9 1016 87 10000 8.2 300 17:24 31.05.2020
2277 Rain 9 1016 87 10000 7.7 300 16:43 31.05.2020
2278 Rain 9 1016 87 10000 7.7 300 16:22 31.05.2020
2279 Rain 9 1016 87 10000 9.3 300 15:59 31.05.2020
2280 Rain 9 1016 93 10000 6.7 320 15:38 31.05.2020
2281 Rain 10 1016 87 10000 8.2 300 15:20 31.05.2020
2282 Rain 9 1016 87 10000 8.7 300 14:45 31.05.2020
2283 Rain 9 1016 87 10000 8.7 300 14:20 31.05.2020
2284 Rain 9 1016 87 10000 9.8 300 13:56 31.05.2020
2285 Rain 9 1016 87 10000 9.3 300 13:37 31.05.2020
2286 Rain 9 1016 87 10000 9.3 300 13:19 31.05.2020
2287 Rain 10 1016 87 7000 9.8 300 12:55 31.05.2020
2288 Rain 10 1016 87 7000 9.3 300 12:37 31.05.2020
2289 Rain 10 1016 87 7000 9.3 300 12:18 31.05.2020
2290 Rain 10 1016 87 10000 7.7 300 12:18 31.05.2020
2291 Rain 10 1017 87 10000 6.2 310 11:44 31.05.2020
2292 Rain 11 1017 87 10000 6.2 310 11:21 31.05.2020
2293 Rain 11 1017 81 10000 5.7 320 10:55 31.05.2020
2294 Rain 11 1016 76 10000 6.7 310 10:37 31.05.2020
2295 Rain 11 1016 76 10000 6.7 310 10:18 31.05.2020
2296 Rain 12 1016 66 10000 6.2 320 09:42 31.05.2020
2297 Rain 11 1016 66 10000 6.2 320 09:22 31.05.2020
2298 Rain 12 1016 62 10000 6.7 310 08:57 31.05.2020
2299 Rain 12 1016 62 10000 5.1 310 08:37 31.05.2020
2300 Clouds 12 1016 62 10000 5.1 310 08:19 31.05.2020
2301 Clouds 11 1016 62 10000 6.2 300 07:40 31.05.2020
2302 Clouds 11 1016 62 10000 6.2 300 07:20 31.05.2020
2303 Clouds 11 1016 62 10000 6.2 300 06:50 31.05.2020
2304 Clouds 11 1016 62 10000 6.7 300 06:31 31.05.2020
2305 Clouds 11 1016 62 10000 7.2 300 05:40 31.05.2020
2306 Clouds 11 1016 66 10000 5.1 290 04:25 31.05.2020
2307 Clouds 11 1017 66 10000 5.7 300 03:48 31.05.2020
2308 Clouds 11 1017 66 10000 6.2 300 02:59 31.05.2020
2309 Clouds 11 1018 62 10000 5.7 300 01:48 31.05.2020
2310 Clouds 12 1018 62 10000 5.1 300 01:00 31.05.2020
2311 Clouds 12 1018 66 10000 3.6 300 00:30 31.05.2020
2312 Clouds 12 1018 66 10000 5.1 300 23:55 30.05.2020
2313 Clouds 12 1018 66 10000 4.1 300 23:36 30.05.2020
2314 Clouds 12 1018 66 10000 4.1 300 23:18 30.05.2020
2315 Clouds 12 1018 62 10000 4.1 310 22:41 30.05.2020
2316 Clouds 12 1018 62 10000 4.1 310 22:22 30.05.2020
2317 Rain 12 1018 66 10000 4.1 350 21:56 30.05.2020
2318 Clouds 13 1018 71 10000 3.1 330 21:37 30.05.2020
2319 Clouds 13 1018 71 10000 3.1 330 21:18 30.05.2020
2320 Clouds 13 1018 71 10000 3.1 350 20:56 30.05.2020
2321 Clouds 14 1018 66 10000 4.1 40 20:37 30.05.2020
2322 Clouds 14 1018 66 10000 4.1 40 20:19 30.05.2020
2323 Clouds 15 1017 45 10000 5.1 320 19:42 30.05.2020
2324 Clouds 16 1017 45 10000 5.1 320 19:21 30.05.2020
2325 Rain 16 1017 48 10000 5.1 320 18:45 30.05.2020
2326 Rain 17 1017 48 10000 5.1 320 18:24 30.05.2020
2327 Clouds 17 1017 55 10000 5.1 320 17:55 30.05.2020
2328 Clouds 17 1017 48 10000 7.2 330 17:37 30.05.2020
2329 Clouds 17 1017 48 10000 4.6 20 17:18 30.05.2020
2330 Clouds 16 1017 44 10000 5.1 10 16:41 30.05.2020
2331 Clouds 16 1017 44 10000 5.1 10 16:22 30.05.2020
2332 Clouds 17 1017 42 10000 5.7 310 15:48 30.05.2020
2333 Clouds 17 1017 45 10000 6.2 310 15:29 30.05.2020
2334 Clouds 17 1018 48 10000 6.2 330 14:48 30.05.2020
2335 Clouds 16 1018 48 10000 5.7 310 14:30 30.05.2020
2336 Clouds 17 1018 48 10000 6.7 350 13:47 30.05.2020
2337 Clouds 16 1018 48 10000 6.7 350 13:27 30.05.2020
2338 Clouds 16 1019 51 10000 6.2 320 12:57 30.05.2020
2339 Clouds 15 1019 54 10000 5.7 310 12:39 30.05.2020
2340 Clouds 15 1019 54 10000 5.7 310 12:19 30.05.2020
2341 Clouds 13 1019 62 10000 4.6 310 11:41 30.05.2020
2342 Clouds 12 1019 62 10000 4.6 310 11:23 30.05.2020
2343 Clouds 12 1020 62 10000 4.1 310 10:58 30.05.2020
2344 Clouds 12 1020 62 10000 4.1 310 10:58 30.05.2020
2345 Rain 12 1020 62 10000 4.1 320 10:38 30.05.2020
2346 Clouds 11 1020 66 10000 3.1 330 10:20 30.05.2020
2347 Clouds 11 1020 66 10000 3.6 310 09:44 30.05.2020
2348 Clouds 11 1020 66 10000 3.6 310 09:25 30.05.2020
2349 Clouds 11 1020 66 10000 3.6 320 08:45 30.05.2020
2350 Clouds 11 1020 66 10000 3.6 320 08:27 30.05.2020
2351 Clouds 10 1020 66 10000 3.6 320 07:40 30.05.2020
2352 Clouds 10 1020 66 10000 3.6 320 07:19 30.05.2020
2353 Clouds 10 1020 71 10000 3.6 320 06:31 30.05.2020
2354 Clear 10 1020 76 10000 3.1 320 05:52 30.05.2020
2355 Clear 10 1020 81 10000 3.1 300 05:19 30.05.2020
2356 Clear 10 1021 81 10000 4.1 310 02:56 30.05.2020
2357 Clouds 10 1021 81 10000 4.1 300 02:23 30.05.2020
2358 Clouds 10 1022 76 10000 5.7 300 01:20 30.05.2020
2359 Rain 11 1022 76 10000 3.6 310 00:36 30.05.2020
2360 Clouds 11 1022 76 10000 3.6 310 00:18 30.05.2020
2361 Clouds 12 1022 71 10000 3.6 310 23:41 29.05.2020
2362 Clouds 12 1022 71 10000 3.6 310 23:20 29.05.2020
2363 Clouds 12 1022 71 10000 3.6 310 22:56 29.05.2020
2364 Clouds 12 1022 66 10000 3.1 320 22:38 29.05.2020
2365 Clouds 12 1022 66 10000 3.1 320 22:18 29.05.2020
2366 Clouds 12 1022 66 10000 3.1 320 22:18 29.05.2020
2367 Clouds 13 1022 71 10000 3.6 350 21:41 29.05.2020
2368 Clouds 13 1022 71 10000 3.6 350 21:21 29.05.2020
2369 Clouds 13 1022 71 10000 4.1 340 20:59 29.05.2020
2370 Clouds 13 1022 62 10000 5.1 350 20:40 29.05.2020
2371 Clouds 14 1022 76 10000 4.1 340 20:19 29.05.2020
2372 Rain 14 1022 76 10000 4.6 310 19:44 29.05.2020
2373 Rain 14 1022 76 10000 4.6 310 19:26 29.05.2020
2374 Rain 14 1022 76 10000 3.1 320 18:49 29.05.2020
2375 Clouds 15 1022 72 10000 5.1 300 18:24 29.05.2020
2376 Clouds 16 1022 72 10000 5.1 300 18:00 29.05.2020
2377 Clouds 17 1022 77 10000 5.7 300 17:40 29.05.2020
2378 Clouds 16 1022 77 10000 5.7 300 17:21 29.05.2020
2379 Rain 15 1022 87 10000 6.2 290 16:58 29.05.2020
2380 Rain 15 1022 67 10000 7.2 350 16:40 29.05.2020
2381 Rain 15 1022 67 10000 7.2 350 16:21 29.05.2020
2382 Rain 16 1022 55 10000 5.1 320 15:42 29.05.2020
2383 Clouds 17 1022 55 10000 5.7 340 15:22 29.05.2020
2384 Clouds 17 1022 55 10000 5.7 340 14:59 29.05.2020
2385 Rain 17 1023 52 10000 5.1 330 14:39 29.05.2020
2386 Rain 17 1023 52 10000 5.1 330 14:20 29.05.2020
2387 Clouds 17 1023 63 10000 5.7 320 13:43 29.05.2020
2388 Clouds 17 1023 63 10000 5.7 320 13:23 29.05.2020
2389 Clouds 16 1024 59 10000 7.2 320 12:58 29.05.2020
2390 Clouds 16 1024 62 10000 7.2 330 12:39 29.05.2020
2391 Clouds 16 1024 62 10000 7.2 330 12:39 29.05.2020
2392 Clouds 16 1024 59 10000 6.7 310 12:20 29.05.2020
2393 Clouds 16 1024 62 10000 5.7 320 11:44 29.05.2020
2394 Clouds 15 1024 62 10000 5.7 320 11:25 29.05.2020
2395 Clouds 15 1024 67 10000 6.2 330 10:55 29.05.2020
2396 Clouds 15 1024 71 10000 6.7 320 10:36 29.05.2020
2397 Clouds 15 1024 71 10000 6.7 320 10:36 29.05.2020
2398 Clouds 15 1024 67 10000 6.7 320 10:18 29.05.2020
2399 Clouds 14 1024 71 10000 5.7 320 09:41 29.05.2020
2400 Clouds 14 1024 71 10000 5.7 320 09:19 29.05.2020
2401 Clouds 13 1024 71 10000 6.2 320 08:48 29.05.2020
2402 Clouds 13 1024 71 10000 4.6 310 08:26 29.05.2020
2403 Clouds 12 1024 76 10000 5.1 310 07:52 29.05.2020
2404 Clouds 12 1024 76 10000 5.1 310 07:33 29.05.2020
2405 -273 0 0 0 0 0 06:58 29.05.2020
2406 Clouds 11 1024 76 10000 5.7 300 06:58 29.05.2020
2407 Clouds 11 1024 76 10000 5.1 320 06:40 29.05.2020
2408 Clouds 11 1024 76 10000 5.1 310 06:22 29.05.2020
2409 Clouds 11 1024 76 10000 4.6 320 05:40 29.05.2020
2410 Clouds 11 1024 71 10000 6.7 310 02:35 29.05.2020
2411 Clouds 12 1025 66 10000 5.7 320 01:28 29.05.2020
2412 Clouds 12 1025 66 10000 6.2 320 00:54 29.05.2020
2413 Drizzle 12 1025 62 10000 5.7 320 00:33 29.05.2020
2414 Clouds 12 1025 62 10000 5.7 320 23:58 28.05.2020
2415 Clouds 12 1025 62 10000 6.2 320 23:39 28.05.2020
2416 Clouds 12 1025 66 10000 5.1 320 23:18 28.05.2020
2417 Clouds 12 1025 66 10000 5.7 330 22:42 28.05.2020
2418 Clouds 12 1025 66 10000 5.7 330 22:24 28.05.2020
2419 Clouds 12 1025 66 10000 7.2 340 21:56 28.05.2020
2420 Clouds 12 1024 66 10000 6.7 330 21:38 28.05.2020
2421 Clouds 13 1024 66 10000 6.7 330 21:19 28.05.2020
2422 Clouds 13 1024 76 10000 4.1 330 20:56 28.05.2020
2423 Rain 13 1024 76 10000 4.6 340 20:37 28.05.2020
2424 Clouds 13 1024 76 10000 5.7 350 20:18 28.05.2020
2425 Clouds 13 1024 66 10000 6.7 330 19:43 28.05.2020
2426 Clouds 13 1024 66 10000 6.7 330 19:43 28.05.2020
2427 Clouds 13 1024 66 10000 6.7 330 19:21 28.05.2020
2428 Clouds 13 1024 66 10000 7.2 330 18:58 28.05.2020
2429 Clouds 13 1024 66 10000 7.2 330 18:58 28.05.2020
2430 Clouds 13 1024 66 10000 6.2 330 18:40 28.05.2020
2431 Clouds 13 1024 66 10000 6.2 330 18:22 28.05.2020
2432 Clouds 14 1024 82 10000 7.2 320 17:41 28.05.2020
2433 Clouds 13 1024 82 10000 7.2 320 17:22 28.05.2020
2434 Clouds 13 1024 82 10000 6.7 330 16:57 28.05.2020
2435 Rain 13 1024 87 10000 6.7 320 16:37 28.05.2020
2436 Rain 13 1024 76 10000 7.7 320 16:19 28.05.2020
2437 Rain 13 1024 72 10000 7.2 310 15:42 28.05.2020
2438 Rain 14 1024 72 10000 7.2 310 15:24 28.05.2020
2439 Rain 14 1024 67 10000 7.7 300 14:55 28.05.2020
2440 Rain 15 1024 67 10000 8.2 300 14:36 28.05.2020
2441 Rain 15 1024 67 10000 8.2 310 14:18 28.05.2020
2442 Rain 15 1024 67 10000 7.7 310 13:40 28.05.2020
2443 Rain 15 1024 67 10000 7.7 310 13:20 28.05.2020
2444 Clouds 16 1024 55 10000 7.2 330 12:42 28.05.2020
2445 Clouds 16 1024 55 10000 7.2 330 12:19 28.05.2020
2446 Clouds 16 1025 51 10000 6.7 310 11:44 28.05.2020
2447 Clouds 16 1025 51 10000 6.7 310 11:25 28.05.2020
2448 Clouds 16 1025 51 10000 4.1 310 10:57 28.05.2020
2449 Clouds 16 1025 51 10000 4.1 310 10:57 28.05.2020
2450 Clouds 16 1025 51 10000 4.1 310 10:57 28.05.2020
2451 Rain 16 1024 55 10000 2.6 320 10:39 28.05.2020
2452 Clouds 17 1025 63 10000 2.1 330 10:19 28.05.2020
2453 Clouds 17 1025 63 10000 1.5 340 09:39 28.05.2020
2454 Clouds 16 1025 63 10000 1.5 340 09:20 28.05.2020
2455 Clouds 16 1025 62 10000 2.1 330 08:50 28.05.2020
2456 Clouds 14 1025 71 10000 0.5 0 08:26 28.05.2020
2457 Clouds 13 1026 81 10000 0.5 0 07:45 28.05.2020
2458 Clouds 12 1026 81 10000 0.5 0 07:26 28.05.2020
2459 Clouds 12 1026 93 10000 1 0 06:59 28.05.2020
2460 Clouds 11 1025 81 10000 1.5 230 06:37 28.05.2020
2461 Clouds 11 1026 76 10000 1.5 250 06:19 28.05.2020
2462 Clouds 11 1025 75 0 2.5 301 05:36 28.05.2020
2463 Clouds 10 1026 87 10000 1.5 200 04:32 28.05.2020
2464 Clear 11 1026 76 10000 0.5 0 03:46 28.05.2020
2465 Clear 12 1027 62 10000 3.6 270 02:45 28.05.2020
2466 Clouds 13 1027 62 10000 3.6 280 01:53 28.05.2020
2467 Clouds 12 1027 58 10000 3.1 290 00:55 28.05.2020
2468 Clouds 13 1028 58 10000 3.6 320 00:37 28.05.2020
2469 Clear 13 1028 58 10000 3.6 320 00:18 28.05.2020
2470 Clear 13 1028 54 10000 4.1 310 23:39 27.05.2020
2471 Clouds 13 1028 54 10000 4.1 310 23:21 27.05.2020
2472 Clouds 14 1028 54 10000 4.1 310 23:21 27.05.2020
2473 Clouds 14 1028 54 10000 3.6 310 22:58 27.05.2020
2474 Clouds 14 1028 51 10000 3.1 320 22:40 27.05.2020
2475 Clear 15 1028 51 10000 3.1 320 22:21 27.05.2020
2476 Clear 16 1028 48 10000 3.6 320 21:42 27.05.2020
2477 Clear 16 1028 48 10000 3.6 320 21:24 27.05.2020
2478 Clear 17 1028 45 10000 3.1 330 20:59 27.05.2020
2479 Clear 18 1028 39 10000 4.1 330 20:41 27.05.2020
2480 Clouds 18 1028 39 10000 4.1 330 20:21 27.05.2020
2481 Clouds 19 1028 39 10000 4.1 340 19:57 27.05.2020
2482 Clouds 19 1028 34 10000 6.2 340 19:39 27.05.2020
2483 Clouds 19 1028 34 10000 6.2 340 19:19 27.05.2020
2484 Clouds 20 1028 37 10000 6.2 330 18:40 27.05.2020
2485 Clouds 20 1028 37 10000 6.2 330 18:19 27.05.2020
2486 Clouds 20 1028 37 10000 6.2 340 17:56 27.05.2020
2487 Clouds 20 1028 37 10000 7.2 340 17:37 27.05.2020
2488 Clouds 20 1028 37 10000 7.2 340 17:18 27.05.2020
2489 Clouds 20 1029 40 10000 5.7 350 16:54 27.05.2020
2490 Clouds 20 1029 42 10000 5.7 340 16:36 27.05.2020
2491 Clouds 20 1029 42 10000 5.7 340 16:18 27.05.2020
2492 Clouds 20 1029 40 10000 6.7 330 15:40 27.05.2020
2493 Clouds 20 1029 40 10000 6.7 330 15:21 27.05.2020
2494 Clouds 20 1030 42 10000 6.2 350 14:44 27.05.2020
2495 Clear 20 1030 42 10000 6.2 350 14:22 27.05.2020
2496 Clouds 19 1030 45 10000 7.2 340 13:55 27.05.2020
2497 Clouds 19 1031 48 10000 6.2 340 13:36 27.05.2020
2498 Clouds 19 1031 52 10000 6.2 340 13:18 27.05.2020
2499 Clouds 19 1031 55 10000 6.7 330 12:40 27.05.2020
2500 Clouds 18 1031 55 10000 6.7 330 12:22 27.05.2020
2501 Clouds 17 1032 63 10000 6.7 320 11:40 27.05.2020
2502 Clouds 17 1032 63 10000 6.7 320 11:40 27.05.2020
2503 Clouds 17 1032 63 10000 6.7 320 11:22 27.05.2020
2504 Clouds 16 1032 67 10000 7.7 330 10:58 27.05.2020
2505 Clouds 16 1032 62 10000 5.7 330 10:39 27.05.2020
2506 Clouds 16 1032 62 10000 5.7 330 10:39 27.05.2020
2507 Clouds 15 1032 67 10000 5.7 330 10:20 27.05.2020
2508 Clear 14 1032 71 10000 4.6 320 09:42 27.05.2020
2509 Clear 13 1032 71 10000 4.6 320 09:22 27.05.2020
2510 Clear 13 1032 76 10000 4.6 320 08:58 27.05.2020
2511 Clear 12 1032 76 10000 5.1 320 08:38 27.05.2020
2512 Clear 12 1032 81 10000 5.1 320 08:19 27.05.2020
2513 Clear 11 1032 81 10000 5.1 320 07:51 27.05.2020
2514 Clear 11 1032 81 10000 5.1 320 07:51 27.05.2020
2515 Clouds 11 1032 81 10000 5.7 310 07:33 27.05.2020
2516 Clouds 9 1032 81 10000 5.7 320 06:52 27.05.2020
2517 Clouds 8 1032 87 10000 4.6 320 06:24 27.05.2020
2518 Clouds 8 1032 87 10000 4.6 320 05:49 27.05.2020
2519 Clouds 8 1032 87 10000 4.1 310 05:23 27.05.2020
2520 Rain 9 1032 81 10000 4.1 320 02:42 27.05.2020
2521 Rain 9 1032 81 10000 4.6 320 02:18 27.05.2020
2522 Clouds 10 1032 76 10000 4.1 330 01:31 27.05.2020
2523 Clouds 10 1032 81 10000 3.6 320 00:47 27.05.2020
2524 Clouds 10 1032 81 10000 3.6 320 00:20 27.05.2020
2525 Clouds 10 1031 81 10000 4.1 300 23:57 26.05.2020
2526 Clouds 10 1031 81 10000 3.6 300 23:39 26.05.2020
2527 Clouds 10 1031 81 10000 3.6 300 23:20 26.05.2020
2528 Clear 10 1031 76 10000 5.1 320 22:42 26.05.2020
2529 Clear 10 1031 76 10000 5.1 320 22:23 26.05.2020
2530 Clouds 11 1031 76 10000 5.1 310 21:59 26.05.2020
2531 Clouds 11 1031 81 10000 5.7 320 21:41 26.05.2020
2532 Rain 11 1031 81 10000 5.7 320 21:22 26.05.2020
2533 Rain 11 1030 81 10000 5.1 320 20:59 26.05.2020
2534 Rain 11 1030 81 10000 4.6 320 20:41 26.05.2020
2535 Rain 12 1030 81 10000 4.1 330 20:20 26.05.2020
2536 Rain 12 1030 76 10000 4.6 310 19:41 26.05.2020
2537 Rain 12 1030 76 10000 4.6 310 19:21 26.05.2020
2538 Rain 13 1030 82 10000 5.7 300 18:59 26.05.2020
2539 Rain 12 1030 87 10000 4.6 310 18:39 26.05.2020
2540 Thunderstorm 13 1030 87 10000 4.1 320 18:21 26.05.2020
2541 Rain 14 1029 81 10000 6.7 330 17:42 26.05.2020
2542 Clouds 16 1029 63 10000 5.1 310 17:23 26.05.2020
2543 Clouds 16 1029 63 10000 5.1 310 16:49 26.05.2020
2544 Clouds 15 1029 72 10000 6.2 300 16:23 26.05.2020
2545 Clouds 15 1029 72 10000 4.6 320 15:59 26.05.2020
2546 Clouds 14 1029 77 10000 5.7 320 15:41 26.05.2020
2547 Rain 15 1029 77 10000 5.7 320 15:20 26.05.2020
2548 Clouds 14 1030 82 10000 5.1 310 14:55 26.05.2020
2549 Rain 13 1030 87 10000 2.6 310 14:37 26.05.2020
2550 Rain 13 1030 87 10000 5.1 340 14:18 26.05.2020
2551 Thunderstorm 12 1030 76 10000 5.7 40 13:41 26.05.2020
2552 Rain 13 1029 76 10000 5.7 310 13:22 26.05.2020
2553 Rain 14 1030 82 10000 7.7 310 12:44 26.05.2020
2554 Rain 13 1030 82 10000 7.7 310 12:23 26.05.2020
2555 Rain 15 1030 72 10000 6.7 320 11:59 26.05.2020
2556 Rain 13 1030 76 10000 7.2 310 11:40 26.05.2020
2557 Rain 13 1030 82 10000 6.2 310 11:20 26.05.2020
2558 Rain 12 1030 87 10000 5.7 310 10:47 26.05.2020
2559 -273 0 0 0 0 0 10:19 26.05.2020
2560 Rain 12 1030 87 10000 5.7 310 09:57 26.05.2020
2561 Rain 12 1030 87 10000 5.7 310 09:57 26.05.2020
2562 Rain 11 1030 87 10000 7.2 320 09:37 26.05.2020
2563 Rain 11 1030 76 10000 5.7 320 09:18 26.05.2020
2564 Rain 11 1030 76 10000 5.7 320 09:18 26.05.2020
2565 Clouds 11 1029 76 10000 6.2 320 08:40 26.05.2020
2566 Clouds 12 1029 76 10000 6.2 320 08:22 26.05.2020
2567 Clouds 11 1029 81 10000 5.1 320 07:43 26.05.2020
2568 Clouds 11 1029 81 10000 5.1 320 07:23 26.05.2020
2569 Rain 11 1029 81 10000 5.7 320 06:53 26.05.2020
2570 Rain 11 1029 81 10000 5.7 320 06:31 26.05.2020
2571 Rain 11 1028 81 10000 6.2 320 05:43 26.05.2020
2572 Clouds 11 1028 81 10000 6.2 320 05:21 26.05.2020
2573 Rain 10 1028 76 10000 7.2 320 04:48 26.05.2020
2574 Rain 10 1028 76 10000 7.2 320 04:30 26.05.2020
2575 Clouds 10 1028 76 10000 7.2 320 03:49 26.05.2020
2576 Clouds 11 1029 76 10000 5.7 320 02:40 26.05.2020
2577 Clouds 10 1029 76 10000 6.2 330 01:47 26.05.2020
2578 Rain 11 1028 71 10000 7.2 320 00:48 26.05.2020
2579 Rain 11 1028 71 10000 7.7 320 00:29 26.05.2020
2580 Clouds 11 1028 71 10000 7.2 320 23:59 25.05.2020
2581 Clouds 11 1028 71 10000 6.7 320 23:39 25.05.2020
2582 Clouds 11 1028 71 10000 6.7 320 23:20 25.05.2020
2583 Clouds 11 1028 66 10000 7.7 320 22:56 25.05.2020
2584 Clouds 12 1027 66 10000 6.7 320 22:38 25.05.2020
2585 Clouds 12 1027 66 10000 6.7 320 22:20 25.05.2020
2586 Clouds 12 1027 62 10000 5.7 320 21:59 25.05.2020
2587 Clouds 12 1027 62 10000 5.7 320 21:59 25.05.2020
2588 Clouds 12 1027 66 10000 7.2 330 21:39 25.05.2020
2589 Clouds 12 1027 66 10000 7.2 330 21:20 25.05.2020
2590 Clouds 13 1026 58 10000 6.2 330 20:59 25.05.2020
2591 Clouds 13 1026 58 10000 7.7 330 20:41 25.05.2020
2592 Clouds 13 1026 58 10000 7.7 330 20:21 25.05.2020
2593 Rain 13 1025 54 10000 8.2 320 19:58 25.05.2020
2594 Rain 14 1025 58 10000 5.7 320 19:39 25.05.2020
2595 Rain 14 1025 62 10000 3.1 340 19:18 25.05.2020
2596 Clouds 15 1025 67 10000 7.2 300 18:45 25.05.2020
2597 Clouds 15 1025 67 10000 7.2 300 18:22 25.05.2020
2598 Clouds 15 1025 72 10000 6.2 310 17:57 25.05.2020
2599 Clouds 15 1025 67 10000 6.2 300 17:39 25.05.2020
2600 Clouds 15 1025 67 10000 5.7 300 17:21 25.05.2020
2601 Clouds 15 1025 67 10000 5.7 300 16:56 25.05.2020
2602 Clouds 15 1025 67 10000 5.7 300 16:56 25.05.2020
2603 Clouds 15 1025 71 10000 6.7 310 16:37 25.05.2020
2604 Clouds 15 1025 71 10000 6.7 310 16:19 25.05.2020
2605 Rain 15 1025 82 10000 8.2 300 15:42 25.05.2020
2606 Thunderstorm 14 1025 63 10000 9.3 310 15:19 25.05.2020
2607 Thunderstorm 15 1025 63 10000 9.3 310 14:56 25.05.2020
2608 Rain 16 1025 59 10000 7.7 300 14:38 25.05.2020
2609 Rain 15 1025 63 10000 7.2 300 14:18 25.05.2020
2610 Rain 16 1025 63 10000 6.2 310 13:39 25.05.2020
2611 Clouds 17 1025 63 10000 6.2 310 13:20 25.05.2020
2612 Clouds 16 1026 63 10000 6.2 300 12:57 25.05.2020
2613 Clouds 16 1026 63 10000 6.2 300 12:57 25.05.2020
2614 Clouds 16 1026 76 10000 7.2 280 12:37 25.05.2020
2615 Clouds 15 1026 76 10000 7.2 280 12:19 25.05.2020
2616 Rain 13 1026 81 10000 7.2 280 11:39 25.05.2020
2617 Rain 13 1026 81 10000 7.2 280 11:20 25.05.2020
2618 Rain 12 1026 82 10000 7.2 300 10:56 25.05.2020
2619 Rain 12 1026 67 10000 7.2 310 10:37 25.05.2020
2620 Rain 13 1026 71 10000 7.2 310 10:18 25.05.2020
2621 Rain 13 1026 71 10000 7.2 310 09:54 25.05.2020
2622 Rain 13 1026 76 10000 6.7 290 09:36 25.05.2020
2623 Rain 13 1026 76 10000 6.7 290 09:18 25.05.2020
2624 Rain 12 1027 81 10000 6.2 290 08:39 25.05.2020
2625 Rain 12 1027 81 10000 6.2 290 08:20 25.05.2020
2626 Rain 11 1027 87 10000 6.2 280 07:48 25.05.2020
2627 Rain 11 1027 87 10000 5.7 280 07:26 25.05.2020
2628 Rain 11 1026 87 10000 5.7 280 06:57 25.05.2020
2629 Rain 11 1027 87 10000 6.7 280 06:35 25.05.2020
2630 Rain 11 1026 71 10000 3.6 280 05:24 25.05.2020
2631 Rain 11 1027 76 10000 3.1 260 03:26 25.05.2020
2632 Rain 10 1027 71 10000 4.1 280 02:47 25.05.2020
2633 Clouds 10 1027 71 10000 4.1 280 02:18 25.05.2020
2634 Clouds 10 1027 66 10000 4.6 290 01:41 25.05.2020
2635 Clouds 11 1028 66 10000 3.6 320 00:47 25.05.2020
2636 Clouds 11 1028 66 10000 3.6 320 00:26 25.05.2020
2637 Clouds 12 1028 66 10000 4.6 330 23:58 24.05.2020
2638 Clouds 12 1028 71 10000 3.6 320 23:39 24.05.2020
2639 Clouds 12 1028 71 10000 3.6 320 23:39 24.05.2020
2640 Clouds 12 1028 71 10000 3.6 320 23:20 24.05.2020
2641 Clouds 12 1027 71 10000 3.1 310 22:55 24.05.2020
2642 Clouds 12 1027 71 10000 3.1 310 22:55 24.05.2020
2643 Clouds 12 1027 66 10000 5.1 300 22:37 24.05.2020
2644 Clouds 12 1027 66 10000 6.2 300 22:18 24.05.2020
2645 Clouds 12 1027 66 10000 6.2 300 21:54 24.05.2020
2646 Rain 12 1027 62 10000 5.1 300 21:36 24.05.2020
2647 Rain 13 1027 62 10000 7.2 280 21:18 24.05.2020
2648 Rain 13 1027 58 10000 7.2 280 20:41 24.05.2020
2649 Rain 13 1027 58 10000 7.2 280 20:19 24.05.2020
2650 Rain 13 1026 51 10000 6.7 280 19:56 24.05.2020
2651 Clouds 14 1026 58 10000 8.7 270 19:36 24.05.2020
2652 Clouds 14 1026 58 10000 8.7 270 19:18 24.05.2020
2653 Clouds 15 1026 48 10000 8.7 280 18:42 24.05.2020
2654 Clouds 16 1026 51 10000 11.8 270 18:23 24.05.2020
2655 Clouds 16 1026 51 10000 11.8 270 17:57 24.05.2020
2656 Clouds 17 1026 45 10000 12.9 280 17:38 24.05.2020
2657 Clouds 17 1026 45 10000 12.9 280 17:19 24.05.2020
2658 Clouds 18 1025 45 10000 8.7 280 16:56 24.05.2020
2659 Clouds 18 1026 48 10000 6.2 270 16:37 24.05.2020
2660 Clouds 18 1026 55 10000 5.1 250 16:19 24.05.2020
2661 Clouds 18 1026 55 10000 5.1 250 15:55 24.05.2020
2662 Clouds 17 1027 62 10000 6.7 260 15:36 24.05.2020
2663 Clouds 17 1027 58 10000 9.8 260 15:18 24.05.2020
2664 Clouds 16 1027 58 10000 9.8 260 15:18 24.05.2020
2665 Clouds 16 1026 62 10000 9.8 260 14:41 24.05.2020
2666 Clouds 16 1026 62 10000 9.8 260 14:22 24.05.2020
2667 Rain 16 1027 71 10000 9.8 290 13:56 24.05.2020
2668 Clouds 15 1026 76 10000 3.1 320 13:38 24.05.2020
2669 Clouds 16 1026 76 10000 3.1 320 13:19 24.05.2020
2670 Rain 16 1027 55 10000 6.7 280 12:57 24.05.2020
2671 Rain 16 1027 59 10000 8.7 280 12:38 24.05.2020
2672 Rain 16 1027 59 10000 8.7 280 12:19 24.05.2020
2673 Clouds 16 1027 55 10000 8.7 280 11:55 24.05.2020
2674 Rain 15 1027 59 10000 10.3 290 11:37 24.05.2020
2675 Clouds 15 1027 58 10000 9.8 300 11:19 24.05.2020
2676 Rain 15 1027 59 10000 10.3 290 11:19 24.05.2020
2677 Clouds 14 1027 58 10000 9.3 290 10:43 24.05.2020
2678 Clouds 14 1027 62 10000 9.3 300 10:23 24.05.2020
2679 Clouds 14 1027 62 10000 9.3 300 09:59 24.05.2020
2680 Clouds 14 1027 62 10000 9.3 310 09:41 24.05.2020
2681 Clouds 13 1026 62 10000 8.7 300 09:18 24.05.2020
2682 Clouds 13 1026 71 10000 9.8 300 08:43 24.05.2020
2683 Clouds 12 1026 71 10000 9.8 300 08:25 24.05.2020
2684 Clouds 12 1026 76 10000 8.2 300 07:59 24.05.2020
2685 Clouds 12 1026 71 10000 9.8 290 07:41 24.05.2020
2686 Clouds 11 1026 71 10000 9.8 290 07:21 24.05.2020
2687 Clouds 11 1025 71 10000 10.3 300 06:45 24.05.2020
2688 Clouds 11 1025 71 10000 9.3 300 05:50 24.05.2020
2689 Clouds 11 1024 76 10000 9.3 300 04:51 24.05.2020
2690 Clouds 11 1024 81 10000 8.2 300 03:41 24.05.2020
2691 Clouds 12 1023 87 10000 9.8 300 02:30 24.05.2020
2692 Rain 12 1023 82 10000 8.7 310 01:39 24.05.2020
2693 Rain 12 1023 87 10000 8.2 310 00:39 24.05.2020
2694 Rain 12 1023 87 10000 8.2 310 00:20 24.05.2020
2695 Rain 13 1023 87 10000 10.3 290 23:43 23.05.2020
2696 Rain 13 1023 87 10000 8.7 300 23:21 23.05.2020
2697 Rain 13 1023 87 10000 8.7 300 22:57 23.05.2020
2698 Rain 13 1022 93 10000 11.8 300 22:38 23.05.2020
2699 Rain 13 1021 97 0 2.68 251 22:19 23.05.2020
2700 Rain 14 1021 97 0 1.34 254 21:57 23.05.2020
2701 Rain 15 1019 93 7000 2.1 0 21:37 23.05.2020
2702 Rain 15 1019 93 7000 2.1 0 21:19 23.05.2020
2703 Rain 15 1020 97 0 1.79 245 21:19 23.05.2020
2704 Rain 17 1019 77 4500 2.6 100 20:57 23.05.2020
2705 Rain 17 1017 68 10000 4.1 110 20:37 23.05.2020
2706 Thunderstorm 18 1017 68 10000 4.1 110 20:18 23.05.2020
2707 Clouds 19 1017 68 10000 5.1 120 19:41 23.05.2020
2708 Clouds 19 1017 68 10000 6.2 120 19:20 23.05.2020
2709 Clouds 20 1017 68 10000 6.2 120 18:58 23.05.2020
2710 Clouds 19 1018 68 10000 7.2 130 18:40 23.05.2020
2711 Clouds 19 1018 68 10000 7.2 130 18:21 23.05.2020
2712 Clouds 19 1018 68 10000 7.2 140 17:55 23.05.2020
2713 Clouds 19 1019 68 10000 6.2 140 17:37 23.05.2020
2714 Clouds 19 1019 68 10000 6.2 140 17:19 23.05.2020
2715 Clouds 20 1019 68 10000 6.7 140 16:56 23.05.2020
2716 Clouds 19 1019 68 10000 6.2 130 16:38 23.05.2020
2717 Clouds 19 1020 68 10000 5.7 130 16:19 23.05.2020
2718 Clouds 20 1020 72 10000 5.7 130 15:42 23.05.2020
2719 Clouds 20 1020 72 10000 5.7 130 15:24 23.05.2020
2720 Clouds 20 1021 68 10000 5.1 140 14:57 23.05.2020
2721 Clouds 20 1021 68 10000 5.1 140 14:57 23.05.2020
2722 Clouds 20 1021 72 10000 5.7 140 14:38 23.05.2020
2723 Clouds 20 1021 72 10000 5.7 140 14:20 23.05.2020
2724 Clouds 19 1022 82 10000 5.1 130 13:40 23.05.2020
2725 Clouds 19 1022 82 10000 5.1 130 13:19 23.05.2020
2726 Clouds 17 1022 87 10000 5.1 140 12:56 23.05.2020
2727 Clouds 17 1022 93 10000 5.1 130 12:37 23.05.2020
2728 Clouds 16 1023 93 10000 4.6 140 12:18 23.05.2020
2729 Rain 15 1023 93 10000 5.7 140 11:43 23.05.2020
2730 Rain 15 1023 93 10000 5.7 140 11:21 23.05.2020
2731 Rain 15 1023 93 10000 4.6 140 10:57 23.05.2020
2732 Rain 15 1023 93 10000 4.1 140 10:39 23.05.2020
2733 Rain 15 1023 93 10000 4.1 140 10:20 23.05.2020
2734 Rain 15 1023 93 10000 3.1 140 09:56 23.05.2020
2735 Rain 15 1023 93 10000 3.6 150 09:38 23.05.2020
2736 Rain 15 1023 93 10000 3.6 150 09:20 23.05.2020
2737 Rain 15 1023 87 10000 3.1 150 08:42 23.05.2020
2738 Rain 14 1023 93 10000 3.6 160 08:19 23.05.2020
2739 Rain 14 1023 93 10000 3.6 160 07:46 23.05.2020
2740 Rain 14 1023 93 10000 3.1 170 07:28 23.05.2020
2741 Rain 14 1023 93 10000 2.1 160 06:55 23.05.2020
2742 Rain 14 1023 93 10000 2.1 190 06:36 23.05.2020
2743 Rain 14 1023 93 10000 4.1 180 04:49 23.05.2020
2744 Rain 14 1024 93 9000 1 150 03:30 23.05.2020
2745 Rain 13 1024 87 10000 2.1 220 02:56 23.05.2020
2746 Rain 13 1023 87 10000 1.5 240 01:57 23.05.2020
2747 Rain 13 1023 82 10000 1 0 01:21 23.05.2020
2748 Rain 14 1023 82 10000 3.1 40 00:46 23.05.2020
2749 Rain 14 1023 82 10000 3.1 40 00:25 23.05.2020
2750 Rain 14 1023 77 10000 3.1 340 23:57 22.05.2020
2751 Rain 14 1022 63 10000 2.1 60 23:38 22.05.2020
2752 Rain 15 1022 63 10000 1.5 80 23:18 22.05.2020
2753 Rain 16 1022 59 10000 2.1 70 22:43 22.05.2020
2754 Rain 17 1022 59 10000 2.1 70 22:21 22.05.2020
2755 Rain 17 1022 52 10000 1.5 150 21:57 22.05.2020
2756 Rain 17 1022 48 10000 2.1 160 21:38 22.05.2020
2757 Rain 17 1022 48 10000 2.1 160 21:20 22.05.2020
2758 Clouds 19 1022 34 10000 0.5 0 20:45 22.05.2020
2759 Clouds 19 1022 37 10000 1 0 20:21 22.05.2020
2760 Clouds 20 1022 37 10000 1 0 19:59 22.05.2020
2761 Clouds 20 1022 37 10000 1 0 19:37 22.05.2020
2762 Clouds 20 1022 37 10000 1 0 19:18 22.05.2020
2763 Clouds 21 1022 32 10000 1 0 18:39 22.05.2020
2764 Clouds 21 1022 32 10000 1 0 18:39 22.05.2020
2765 Clouds 21 1022 32 10000 1 0 18:19 22.05.2020
2766 Clouds 22 1022 32 10000 1.5 330 17:56 22.05.2020
2767 Clouds 22 1022 30 10000 2.6 30 17:36 22.05.2020
2768 Clouds 22 1022 30 10000 2.6 30 17:18 22.05.2020
2769 Clouds 22 1023 30 10000 2.1 60 16:43 22.05.2020
2770 Clouds 22 1023 30 10000 2.1 0 16:20 22.05.2020
2771 Clouds 22 1023 30 10000 2.1 0 15:58 22.05.2020
2772 Clouds 22 1023 30 10000 3.6 350 15:40 22.05.2020
2773 Clouds 22 1023 30 10000 3.6 350 15:40 22.05.2020
2774 Clouds 21 1023 30 10000 3.6 350 15:19 22.05.2020
2775 Clouds 21 1024 34 10000 2.1 0 14:43 22.05.2020
2776 Clouds 21 1024 34 10000 2.1 0 14:24 22.05.2020
2777 Clouds 20 1024 34 10000 1.5 0 13:45 22.05.2020
2778 Clouds 19 1024 34 10000 1.5 0 13:20 22.05.2020
2779 Clouds 19 1024 33 10000 1.5 0 12:54 22.05.2020
2780 Clouds 19 1025 33 10000 2.1 20 12:36 22.05.2020
2781 Clouds 18 1025 33 10000 2.1 20 12:18 22.05.2020
2782 Clouds 18 1025 36 10000 2.1 0 11:42 22.05.2020
2783 Clouds 18 1025 36 10000 2.1 0 11:42 22.05.2020
2784 Clouds 17 1025 34 10000 1.5 0 11:20 22.05.2020
2785 Clouds 17 1025 34 10000 1.5 0 10:55 22.05.2020
2786 Clouds 17 1025 38 10000 2.6 40 10:36 22.05.2020
2787 Clouds 17 1025 38 10000 2.6 40 10:18 22.05.2020
2788 Clouds 15 1025 47 10000 1.5 50 09:41 22.05.2020
2789 Clouds 14 1025 47 10000 1.5 50 09:19 22.05.2020
2790 Clouds 13 1025 53 10000 2.1 40 08:44 22.05.2020
2791 Clouds 12 1025 53 10000 2.1 40 08:21 22.05.2020
2792 Clouds 12 1025 53 10000 2.1 40 08:21 22.05.2020
2793 Clouds 12 1025 57 10000 1.5 70 07:57 22.05.2020
2794 Clouds 11 1025 70 10000 0.5 0 07:27 22.05.2020
2795 Clouds 9 1025 81 10000 0.5 0 06:58 22.05.2020
2796 Clouds 8 1024 81 10000 1.5 60 06:36 22.05.2020
2797 Clouds 8 1025 75 10000 1.5 340 05:40 22.05.2020
2798 Clouds 8 1024 70 10000 1 30 04:51 22.05.2020
2799 Clouds 8 1024 65 10000 1 0 04:32 22.05.2020
2800 Clouds 9 1024 65 10000 2.1 150 03:48 22.05.2020
2801 Clouds 9 1024 57 10000 2.1 360 02:59 22.05.2020
2802 Clouds 10 1024 53 10000 2.6 310 01:57 22.05.2020
2803 Clouds 10 1024 50 10000 1.5 320 01:28 22.05.2020
2804 Clouds 11 1024 53 10000 1.5 10 00:49 22.05.2020
2805 Clouds 12 1024 43 10000 2.1 330 00:28 22.05.2020
2806 Clouds 12 1024 50 10000 1.5 10 23:45 21.05.2020
2807 Clouds 13 1024 50 10000 1.5 10 23:25 21.05.2020
2808 Clouds 13 1023 47 10000 2.6 10 22:58 21.05.2020
2809 Clouds 13 1023 47 10000 2.6 10 22:58 21.05.2020
2810 Clouds 13 1023 50 10000 1 0 22:40 21.05.2020
2811 Clouds 13 1023 50 10000 1 0 22:40 21.05.2020
2812 Clouds 14 1023 50 10000 1 0 22:21 21.05.2020
2813 Clouds 14 1022 47 10000 3.6 40 21:59 21.05.2020
2814 Clouds 15 1022 44 10000 3.6 40 21:40 21.05.2020
2815 Clear 15 1022 44 10000 3.6 40 21:22 21.05.2020
2816 Clouds 16 1021 39 10000 4.6 50 20:45 21.05.2020
2817 Clouds 17 1021 39 10000 4.6 50 20:22 21.05.2020
2818 Clouds 18 1020 37 10000 4.1 30 19:55 21.05.2020
2819 Clouds 18 1020 37 10000 4.1 30 19:36 21.05.2020
2820 Clouds 19 1020 37 10000 3.6 30 19:18 21.05.2020
2821 Clouds 19 1020 34 10000 3.6 40 18:40 21.05.2020
2822 Clouds 20 1020 34 10000 3.6 40 18:19 21.05.2020
2823 Clouds 20 1020 34 10000 3.6 10 17:58 21.05.2020
2824 Clouds 20 1020 32 10000 4.1 340 17:40 21.05.2020
2825 Clouds 20 1020 32 10000 4.1 340 17:22 21.05.2020
2826 Clouds 21 1021 32 10000 5.7 310 16:46 21.05.2020
2827 Clouds 21 1021 32 10000 5.7 310 16:24 21.05.2020
2828 Clouds 20 1021 30 10000 4.6 330 15:54 21.05.2020
2829 Clouds 20 1021 30 10000 5.7 350 15:36 21.05.2020
2830 Clouds 19 1021 32 10000 5.1 360 15:18 21.05.2020
2831 Clouds 19 1022 32 10000 5.1 20 14:39 21.05.2020
2832 Clouds 20 1022 32 10000 4.6 360 14:18 21.05.2020
2833 Clouds 19 1022 32 10000 6.7 360 13:41 21.05.2020
2834 Clouds 19 1022 32 10000 6.7 360 13:22 21.05.2020
2835 Clouds 19 1022 32 10000 6.2 20 12:57 21.05.2020
2836 Clouds 19 1022 34 10000 5.7 10 12:37 21.05.2020
2837 Clouds 19 1022 34 10000 5.7 10 12:19 21.05.2020
2838 Clouds 18 1022 36 10000 3.6 10 11:42 21.05.2020
2839 Clouds 18 1022 36 10000 3.6 10 11:23 21.05.2020
2840 Clouds 18 1022 42 10000 4.6 30 10:58 21.05.2020
2841 Clouds 18 1022 41 10000 4.6 50 10:39 21.05.2020
2842 Clouds 17 1022 41 10000 4.6 50 10:19 21.05.2020
2843 Clouds 17 1022 48 10000 3.1 40 09:54 21.05.2020
2844 Clouds 17 1022 51 10000 2.6 10 09:36 21.05.2020
2845 Clear 15 1022 54 10000 3.6 10 09:18 21.05.2020
2846 Clear 15 1022 58 10000 2.6 10 08:42 21.05.2020
2847 Clear 14 1022 58 10000 2.6 10 08:23 21.05.2020
2848 Clear 14 1021 58 10000 2.1 360 07:44 21.05.2020
2849 Clear 13 1021 58 10000 2.1 360 07:25 21.05.2020
2850 Clear 12 1021 58 10000 2.1 330 06:52 21.05.2020
2851 Clear 11 1021 66 10000 3.1 320 05:54 21.05.2020
2852 Clear 11 1020 58 10000 3.1 330 04:56 21.05.2020
2853 Clear 11 1020 58 10000 3.1 330 03:22 21.05.2020
2854 Clear 11 1020 58 10000 3.1 330 03:22 21.05.2020
2855 Clear 11 1020 58 10000 3.1 330 03:22 21.05.2020
2856 Clear 12 1020 58 10000 3.1 330 02:42 21.05.2020
2857 Clouds 12 1020 58 10000 3.1 330 02:21 21.05.2020
2858 Clouds 13 1020 54 10000 3.6 340 01:43 21.05.2020
2859 Clouds 13 1020 54 10000 3.6 340 01:19 21.05.2020
2860 Clouds 14 1020 58 10000 3.6 340 00:48 21.05.2020
2861 Clouds 14 1020 58 10000 3.6 340 00:22 21.05.2020
2862 Clouds 15 1019 58 10000 3.6 340 23:41 20.05.2020
2863 Clear 15 1019 58 10000 3.6 340 23:20 20.05.2020
2864 Clear 15 1019 51 10000 3.1 360 22:57 20.05.2020
2865 Clear 15 1019 54 10000 3.6 350 22:38 20.05.2020
2866 Clear 16 1019 54 10000 3.6 350 22:20 20.05.2020
2867 Clear 17 1018 45 10000 3.6 340 21:40 20.05.2020
2868 Clouds 17 1018 45 10000 3.6 340 21:21 20.05.2020
2869 Clouds 18 1017 39 10000 6.2 350 20:44 20.05.2020
2870 Clouds 19 1017 39 10000 6.2 350 20:25 20.05.2020
2871 Clouds 19 1017 34 10000 7.2 340 19:57 20.05.2020
2872 Clouds 20 1017 32 10000 7.7 340 19:38 20.05.2020
2873 Clouds 20 1017 32 10000 7.2 330 19:19 20.05.2020
2874 Clouds 20 1017 32 10000 7.2 330 18:44 20.05.2020
2875 Clouds 20 1017 32 10000 7.2 330 18:26 20.05.2020
2876 Clouds 21 1017 28 10000 7.2 350 17:44 20.05.2020
2877 Clouds 21 1017 28 10000 7.2 350 17:24 20.05.2020
2878 Clouds 21 1017 30 10000 6.7 340 16:59 20.05.2020
2879 Clouds 21 1017 30 10000 8.7 360 16:39 20.05.2020
2880 Clouds 21 1017 30 10000 8.7 360 16:39 20.05.2020
2881 Clouds 21 1017 30 10000 8.7 360 16:21 20.05.2020
2882 Clouds 21 1017 30 10000 8.2 330 15:55 20.05.2020
2883 Clouds 22 1017 33 10000 7.7 350 15:36 20.05.2020
2884 Clouds 21 1017 35 10000 7.2 350 15:18 20.05.2020
2885 Clouds 21 1018 37 10000 7.2 340 14:41 20.05.2020
2886 Clouds 21 1018 37 10000 7.2 340 14:20 20.05.2020
2887 Clouds 21 1018 42 10000 7.7 350 13:40 20.05.2020
2888 Clouds 20 1018 42 10000 7.7 350 13:19 20.05.2020
2889 Clouds 20 1018 42 10000 8.2 360 12:43 20.05.2020
2890 Clouds 20 1018 42 10000 8.2 360 12:21 20.05.2020
2891 Clouds 19 1018 42 10000 8.2 360 11:57 20.05.2020
2892 Clouds 19 1018 42 10000 8.2 360 11:36 20.05.2020
2893 Clouds 19 1018 45 10000 7.7 360 11:18 20.05.2020
2894 Clouds 19 1018 52 10000 7.7 350 10:42 20.05.2020
2895 Clouds 19 1018 52 10000 6.7 10 10:19 20.05.2020
2896 Clouds 18 1018 55 10000 7.2 360 09:44 20.05.2020
2897 Clouds 18 1018 59 10000 6.2 350 09:21 20.05.2020
2898 Clear 17 1018 63 10000 6.7 360 08:44 20.05.2020
2899 Clouds 16 1017 67 10000 6.2 340 08:20 20.05.2020
2900 Clouds 16 1017 67 10000 6.2 340 07:55 20.05.2020
2901 Clouds 16 1018 63 10000 6.2 340 07:37 20.05.2020
2902 Clouds 16 1017 67 10000 5.7 340 07:19 20.05.2020
2903 Clouds 15 1017 67 10000 6.2 350 06:34 20.05.2020
2904 Clouds 16 1017 63 10000 5.7 350 05:19 20.05.2020
2905 Clouds 16 1017 63 10000 5.7 350 04:26 20.05.2020
2906 Clouds 17 1017 67 10000 4.1 360 03:38 20.05.2020
2907 Clouds 17 1017 72 10000 4.1 10 02:23 20.05.2020
2908 Clouds 17 1016 72 10000 3.1 30 01:28 20.05.2020
2909 Clouds 18 1016 68 10000 2.6 210 00:44 20.05.2020
2910 Clouds 18 1016 63 10000 1.5 180 00:23 20.05.2020
2911 Clouds 18 1016 59 10000 1.5 250 23:41 19.05.2020
2912 Rain 19 1016 68 10000 1.5 180 23:19 19.05.2020
2913 Rain 19 1016 68 10000 1.5 180 22:56 19.05.2020
2914 Rain 19 1016 68 10000 2.1 180 22:38 19.05.2020
2915 Rain 19 1016 63 10000 2.6 190 22:18 19.05.2020
2916 Rain 19 1016 63 10000 2.6 190 21:56 19.05.2020
2917 Rain 20 1016 63 10000 3.1 200 21:37 19.05.2020
2918 Rain 20 1016 64 10000 3.1 190 21:19 19.05.2020
2919 Rain 20 1016 64 10000 3.1 190 20:56 19.05.2020
2920 Rain 21 1016 60 10000 3.1 190 20:38 19.05.2020
2921 Rain 21 1016 60 10000 3.1 190 20:38 19.05.2020
2922 Clouds 21 1016 60 10000 3.1 190 20:19 19.05.2020
2923 Clouds 22 1016 56 10000 3.6 170 19:39 19.05.2020
2924 Clouds 22 1016 56 10000 3.6 170 19:21 19.05.2020
2925 Clouds 23 1016 46 10000 4.6 180 18:57 19.05.2020
2926 Clouds 23 1016 46 10000 5.7 180 18:38 19.05.2020
2927 Rain 23 1016 44 10000 5.7 180 18:20 19.05.2020
2928 Rain 24 1016 41 10000 1.5 130 17:41 19.05.2020
2929 Clouds 25 1016 41 10000 1.5 130 17:21 19.05.2020
2930 Clouds 26 1017 38 10000 2.1 130 16:58 19.05.2020
2931 Clouds 26 1017 33 10000 0.5 0 16:38 19.05.2020
2932 Clouds 26 1017 36 10000 1.5 0 16:19 19.05.2020
2933 Clouds 26 1017 36 10000 1.5 0 15:44 19.05.2020
2934 Clouds 26 1018 36 10000 1.5 80 15:21 19.05.2020
2935 Clouds 26 1018 36 10000 1.5 80 14:57 19.05.2020
2936 Clouds 26 1018 36 10000 1 0 14:38 19.05.2020
2937 Clouds 26 1018 36 10000 1 0 14:20 19.05.2020
2938 Clouds 25 1018 38 10000 1.5 330 13:57 19.05.2020
2939 Clouds 25 1018 41 10000 3.1 30 13:38 19.05.2020
2940 Clouds 25 1018 41 10000 3.1 30 13:38 19.05.2020
2941 Clouds 25 1018 41 10000 3.1 30 13:20 19.05.2020
2942 Clouds 25 1018 41 10000 3.1 30 13:20 19.05.2020
2943 Clouds 25 1019 38 10000 4.1 20 12:56 19.05.2020
2944 Clouds 26 1019 41 10000 4.1 10 12:37 19.05.2020
2945 Clouds 25 1019 41 10000 3.1 350 12:19 19.05.2020
2946 Clouds 23 1019 46 10000 4.1 350 11:42 19.05.2020
2947 Clouds 23 1019 46 10000 4.1 350 11:23 19.05.2020
2948 Clouds 23 1019 49 10000 3.1 320 10:58 19.05.2020
2949 Clouds 23 1020 49 10000 2.1 0 10:40 19.05.2020
2950 Clouds 22 1020 49 10000 2.1 0 10:21 19.05.2020
2951 Clouds 22 1018 62 0 0.45 122 09:46 19.05.2020
2952 Clear 19 1020 59 10000 2.1 340 09:25 19.05.2020
2953 Clear 18 1020 63 10000 1.5 20 08:48 19.05.2020
2954 Clouds 18 1020 63 10000 0.5 0 08:25 19.05.2020
2955 Clouds 17 1020 72 10000 1 0 07:57 19.05.2020
2956 Clouds 16 1020 72 10000 0.5 0 07:37 19.05.2020
2957 Clouds 14 1020 71 10000 0.5 0 07:19 19.05.2020
2958 Clouds 13 1019 76 10000 1 0 06:40 19.05.2020
2959 Clouds 12 1019 87 10000 1.5 150 06:18 19.05.2020
2960 Clouds 12 1019 81 10000 0.5 0 05:39 19.05.2020
2961 Clear 12 1019 81 10000 1.5 320 04:54 19.05.2020
2962 Clear 13 1020 71 10000 2.6 190 02:59 19.05.2020
2963 Clear 15 1020 76 10000 2.1 180 01:21 19.05.2020
2964 Clear 16 1020 63 10000 1.5 240 00:40 19.05.2020
2965 Clear 15 1020 63 10000 2.1 130 00:18 19.05.2020
2966 Clear 16 1020 63 10000 2.1 110 23:40 18.05.2020
2967 Clear 16 1020 63 10000 2.1 110 23:20 18.05.2020
2968 Clear 17 1020 59 10000 2.1 110 22:59 18.05.2020
2969 Clear 18 1020 59 10000 2.1 160 22:39 18.05.2020
2970 Clear 18 1020 59 10000 2.1 160 22:20 18.05.2020
2971 Clear 18 1020 52 10000 2.1 130 21:43 18.05.2020
2972 Clear 19 1020 52 10000 2.1 130 21:22 18.05.2020
2973 Clear 21 1020 43 10000 2.6 100 20:58 18.05.2020
2974 Clear 21 1020 43 10000 2.6 100 20:39 18.05.2020
2975 Clear 22 1020 40 10000 2.6 60 20:20 18.05.2020
2976 Clear 23 1020 40 10000 2.6 60 19:56 18.05.2020
2977 Clear 23 1020 38 10000 3.1 60 19:38 18.05.2020
2978 Clear 25 1020 38 10000 3.1 50 19:18 18.05.2020
2979 Clear 24 1020 36 10000 3.6 60 18:45 18.05.2020
2980 Clear 25 1020 36 10000 3.6 60 18:22 18.05.2020
2981 Clear 25 1020 36 10000 3.1 50 17:40 18.05.2020
2982 Clear 25 1021 36 10000 2.1 10 17:18 18.05.2020
2983 Clear 26 1021 36 10000 2.1 10 16:57 18.05.2020
2984 Clear 26 1021 33 10000 2.6 360 16:38 18.05.2020
2985 Clear 26 1021 36 10000 2.6 0 16:18 18.05.2020
2986 Clear 26 1021 36 10000 2.6 0 15:56 18.05.2020
2987 Clear 26 1022 36 10000 2.1 0 15:37 18.05.2020
2988 Clear 25 1022 35 10000 2.1 0 15:19 18.05.2020
2989 Clear 25 1022 38 10000 2.6 20 14:43 18.05.2020
2990 Clear 25 1022 38 10000 2.6 20 14:25 18.05.2020
2991 Clear 25 1022 38 10000 3.1 0 13:58 18.05.2020
2992 Clouds 24 1023 40 10000 2.6 320 13:39 18.05.2020
2993 Clouds 24 1023 43 10000 1.5 0 13:19 18.05.2020
2994 Clouds 24 1023 43 10000 1.5 0 12:56 18.05.2020
2995 Clouds 23 1023 49 10000 1.5 0 12:38 18.05.2020
2996 Clouds 23 1023 49 10000 1.5 0 12:18 18.05.2020
2997 Clouds 22 1023 52 10000 1.5 20 11:47 18.05.2020
2998 Clouds 21 1023 52 10000 1.5 20 11:27 18.05.2020
2999 Clouds 21 1023 55 10000 1.5 0 10:58 18.05.2020
3000 Clear 21 1021 66 0 0.45 247 10:40 18.05.2020
3001 Clouds 20 1023 55 10000 1 0 10:22 18.05.2020
3002 Clear 18 1023 63 10000 1.5 60 09:43 18.05.2020
3003 Clear 16 1023 63 10000 1.5 60 09:24 18.05.2020
3004 Clear 15 1023 67 10000 1.5 30 08:45 18.05.2020
3005 Clear 15 1023 67 10000 1.5 30 08:26 18.05.2020
3006 Clear 13 1023 71 10000 1 0 07:54 18.05.2020
3007 Clear 12 1023 81 10000 1 150 07:26 18.05.2020
3008 Clear 10 1023 81 10000 1 140 06:51 18.05.2020
3009 Clear 10 1022 81 10000 1 0 06:33 18.05.2020
3010 Clear 9 1022 81 10000 1.5 230 05:49 18.05.2020
3011 Clear 10 1022 81 10000 1.5 230 05:21 18.05.2020
3012 Clear 10 1022 87 10000 2.1 190 03:31 18.05.2020
3013 Clouds 11 1022 81 10000 3.1 200 02:22 18.05.2020
3014 Clouds 12 1022 81 10000 2.6 160 00:55 18.05.2020
3015 Clouds 12 1022 66 10000 1 310 00:25 18.05.2020
3016 Clouds 12 1022 71 10000 1.5 330 23:57 17.05.2020
3017 Clouds 13 1022 54 10000 1 0 23:39 17.05.2020
3018 Clouds 13 1022 54 10000 1 0 23:20 17.05.2020
3019 Clouds 13 1022 58 10000 1 0 22:56 17.05.2020
3020 Clouds 14 1022 58 10000 1.5 170 22:37 17.05.2020
3021 Clouds 15 1022 58 10000 1.5 170 22:19 17.05.2020
3022 Clouds 16 1021 51 10000 2.1 150 21:55 17.05.2020
3023 Clouds 16 1021 48 10000 1 10 21:37 17.05.2020
3024 Clouds 16 1021 48 10000 1 10 21:18 17.05.2020
3025 Clouds 18 1021 42 10000 2.1 20 20:42 17.05.2020
3026 Clouds 19 1020 37 10000 2.1 330 20:21 17.05.2020
3027 Clouds 20 1020 37 10000 2.1 330 19:57 17.05.2020
3028 Clouds 20 1020 37 10000 2.6 320 19:38 17.05.2020
3029 Clouds 20 1020 35 10000 3.1 320 19:19 17.05.2020
3030 Clouds 21 1020 33 10000 3.1 320 18:43 17.05.2020
3031 Clouds 22 1020 33 10000 3.1 320 18:24 17.05.2020
3032 Clouds 21 1020 35 10000 2.6 320 17:59 17.05.2020
3033 Clouds 21 1020 35 10000 3.6 310 17:39 17.05.2020
3034 Clouds 22 1020 35 10000 3.6 310 17:21 17.05.2020
3035 Clouds 21 1020 42 10000 3.6 350 16:40 17.05.2020
3036 Clouds 22 1020 42 10000 3.6 350 16:21 17.05.2020
3037 Clouds 22 1020 37 10000 4.1 350 15:59 17.05.2020
3038 Clouds 22 1020 37 10000 3.6 330 15:39 17.05.2020
3039 Clouds 22 1020 37 10000 3.6 330 15:21 17.05.2020
3040 Clouds 21 1020 49 10000 2.6 50 14:56 17.05.2020
3041 Clouds 22 1018 65 0 0.89 238 14:37 17.05.2020
3042 Clouds 21 1020 48 10000 2.6 0 14:19 17.05.2020
3043 Clouds 21 1020 48 10000 1.5 60 13:41 17.05.2020
3044 Clouds 21 1020 48 10000 1.5 60 13:20 17.05.2020
3045 Clouds 10 1019 87 10000 1 120 04:53 17.05.2020
3046 Clouds 10 1019 87 10000 1.5 110 03:19 17.05.2020
3047 Clouds 10 1019 87 10000 2.1 90 02:22 17.05.2020
3048 Clouds 10 1019 87 10000 1.5 100 01:49 17.05.2020
3049 Clouds 10 1019 76 10000 2.1 100 00:43 17.05.2020
3050 Clouds 10 1019 76 10000 2.1 100 00:21 17.05.2020
3051 Clouds 11 1020 76 10000 1 0 23:42 16.05.2020
3052 Clouds 11 1020 76 10000 1 0 23:21 16.05.2020
3053 Clouds 12 1020 71 10000 2.1 100 22:59 16.05.2020
3054 Clouds 13 1020 67 10000 2.6 100 22:41 16.05.2020
3055 Clouds 13 1020 67 10000 2.6 100 22:20 16.05.2020
3056 Clouds 14 1021 67 10000 2.1 90 21:55 16.05.2020
3057 Clouds 14 1020 62 10000 2.1 120 21:37 16.05.2020
3058 Clouds 14 1020 62 10000 2.1 120 21:18 16.05.2020
3059 Clouds 15 1020 62 10000 2.1 120 20:54 16.05.2020
3060 Clouds 16 1020 59 10000 2.1 130 20:36 16.05.2020
3061 Clouds 16 1020 59 10000 2.1 130 20:18 16.05.2020
3062 Clouds 17 1021 48 10000 3.6 140 19:40 16.05.2020
3063 Clouds 17 1021 48 10000 3.6 140 19:22 16.05.2020
3064 Clouds 17 1021 51 10000 4.6 130 18:55 16.05.2020
3065 Clouds 17 1021 48 10000 3.6 120 18:36 16.05.2020
3066 Clouds 18 1021 48 10000 4.1 150 18:18 16.05.2020
3067 Clouds 18 1021 45 10000 4.1 130 17:40 16.05.2020
3068 Clouds 18 1021 45 10000 4.6 140 17:20 16.05.2020
3069 Clouds 19 1021 45 10000 4.1 130 16:42 16.05.2020
3070 Clouds 19 1022 42 10000 4.1 130 16:23 16.05.2020
3071 Clouds 18 1022 42 10000 4.1 130 15:59 16.05.2020
3072 Clouds 19 1022 42 10000 3.1 130 15:40 16.05.2020
3073 Clouds 18 1022 42 10000 3.1 130 15:20 16.05.2020
3074 Clouds 18 1022 44 10000 3.6 130 14:55 16.05.2020
3075 Clouds 18 1023 41 10000 3.1 160 14:37 16.05.2020
3076 Clouds 18 1023 48 10000 3.1 130 14:19 16.05.2020
3077 Clouds 18 1023 44 10000 3.1 120 13:42 16.05.2020
3078 Clouds 18 1023 44 10000 3.1 120 13:23 16.05.2020
3079 Clouds 18 1023 41 10000 2.6 150 12:57 16.05.2020
3080 Clouds 17 1023 41 10000 2.6 150 12:39 16.05.2020
3081 Clouds 17 1023 51 10000 2.1 120 12:18 16.05.2020
3082 Clouds 16 1024 51 10000 1.5 0 11:41 16.05.2020
3083 Clouds 16 1024 51 10000 1.5 0 11:41 16.05.2020
3084 Clouds 16 1024 51 10000 1.5 0 11:22 16.05.2020
3085 Clouds 16 1024 54 10000 1 0 10:57 16.05.2020
3086 Clouds 16 1024 58 10000 1 0 10:39 16.05.2020
3087 Clouds 16 1024 58 10000 1 0 10:20 16.05.2020
3088 Clear 15 1024 66 10000 1 0 09:46 16.05.2020
3089 Clear 12 1024 66 10000 1 0 09:28 16.05.2020
3090 Clear 11 1023 71 10000 1.5 240 08:46 16.05.2020
3091 Clouds 11 1023 71 10000 1.5 240 08:24 16.05.2020
3092 Clouds 10 1023 81 10000 1.5 210 07:59 16.05.2020
3093 Clouds 10 1023 81 10000 1 0 07:40 16.05.2020
3094 Clouds 9 1023 81 10000 1 0 07:21 16.05.2020
3095 Clouds 7 1023 86 10000 2.1 210 06:47 16.05.2020
3096 Clouds 6 1022 93 10000 2.1 200 06:19 16.05.2020
3097 Clouds 7 1022 86 10000 1.5 250 05:42 16.05.2020
3098 Clouds 7 1022 86 10000 1.5 250 05:20 16.05.2020
3099 Clear 8 1022 81 10000 2.1 280 03:27 16.05.2020
3100 Clear 8 1021 76 10000 5.1 300 02:45 16.05.2020
3101 Clouds 8 1021 76 10000 4.6 290 02:19 16.05.2020
3102 Clouds 8 1021 81 10000 5.1 290 01:40 16.05.2020
3103 Clouds 8 1021 81 10000 4.6 280 00:58 16.05.2020
3104 Clouds 8 1021 81 10000 3.6 300 00:40 16.05.2020
3105 Clouds 8 1021 81 10000 3.6 300 00:20 16.05.2020
3106 Clouds 8 1020 81 10000 5.1 280 23:40 15.05.2020
3107 Clouds 8 1020 81 10000 5.1 280 23:19 15.05.2020
3108 Clouds 9 1020 76 10000 6.2 280 22:42 15.05.2020
3109 Clouds 9 1020 76 10000 6.2 280 22:21 15.05.2020
3110 Clouds 9 1020 81 10000 4.6 290 21:57 15.05.2020
3111 Clouds 9 1019 76 10000 6.2 300 21:39 15.05.2020
3112 Clouds 9 1019 76 10000 6.2 300 21:21 15.05.2020
3113 Clouds 9 1019 76 10000 7.2 310 20:56 15.05.2020
3114 Rain 9 1019 81 10000 6.7 300 20:37 15.05.2020
3115 Rain 10 1019 81 10000 6.7 300 20:19 15.05.2020
3116 Clouds 10 1018 81 10000 6.7 310 19:43 15.05.2020
3117 Clouds 10 1017 81 10000 5.1 310 19:24 15.05.2020
3118 Clouds 10 1017 81 10000 5.1 310 18:54 15.05.2020
3119 Clouds 10 1017 76 10000 6.7 310 18:36 15.05.2020
3120 Clouds 10 1017 81 10000 6.2 310 18:18 15.05.2020
3121 Clouds 9 1017 81 10000 6.2 320 17:38 15.05.2020
3122 Clouds 9 1017 81 10000 6.2 320 17:19 15.05.2020
3123 Clouds 9 1016 87 10000 5.7 320 16:56 15.05.2020
3124 Rain 9 1016 87 10000 5.1 320 16:38 15.05.2020
3125 Rain 9 1015 87 10000 5.7 320 16:18 15.05.2020
3126 Rain 9 1014 93 4600 5.1 330 15:41 15.05.2020
3127 Rain 8 1014 93 4600 5.1 330 15:21 15.05.2020
3128 Rain 9 1014 100 5000 5.7 320 14:58 15.05.2020
3129 Rain 9 1013 100 5000 4.1 330 14:40 15.05.2020
3130 Rain 8 1013 93 10000 4.1 340 14:22 15.05.2020
3131 Rain 9 1013 93 9000 3.6 360 13:43 15.05.2020
3132 Rain 9 1013 93 9000 3.6 360 13:22 15.05.2020
3133 Rain 8 1012 100 7000 3.6 10 12:59 15.05.2020
3134 Rain 8 1012 100 8000 3.6 20 12:39 15.05.2020
3135 Rain 8 1012 100 8000 3.6 20 12:39 15.05.2020
3136 Rain 9 1012 100 7000 3.1 30 12:18 15.05.2020
3137 Rain 8 1012 100 7000 3.1 30 11:56 15.05.2020
3138 Rain 9 1012 93 9000 3.1 50 11:37 15.05.2020
3139 Rain 9 1012 93 9000 3.1 50 11:19 15.05.2020
3140 Rain 9 1013 100 8000 2.6 20 10:56 15.05.2020
3141 Rain 8 1012 100 8000 2.6 360 10:38 15.05.2020
3142 Rain 8 1012 100 8000 2.6 360 10:19 15.05.2020
3143 Rain 9 1013 100 6000 2.6 10 09:40 15.05.2020
3144 Rain 8 1013 100 6000 2.6 10 09:20 15.05.2020
3145 Clouds 8 1013 93 6000 2.1 10 08:59 15.05.2020
3146 Clouds 8 1013 100 6000 2.6 20 08:38 15.05.2020
3147 Mist 8 1013 93 5000 1.5 360 08:19 15.05.2020
3148 Mist 8 1013 93 4800 2.1 350 07:46 15.05.2020
3149 Rain 8 1013 93 4800 2.1 350 07:28 15.05.2020
3150 Rain 8 1013 93 4800 0.5 0 06:57 15.05.2020
3151 Rain 8 1013 100 5000 1.5 360 05:56 15.05.2020
3152 Rain 9 1014 93 6000 2.6 310 04:38 15.05.2020
3153 Rain 9 1014 87 8000 1 0 03:49 15.05.2020
3154 Rain 10 1014 71 10000 2.6 310 02:44 15.05.2020
3155 Clouds 11 1014 66 10000 3.6 350 01:32 15.05.2020
3156 Clouds 12 1015 62 10000 3.1 340 00:57 15.05.2020
3157 Clouds 12 1015 62 10000 1.5 320 00:39 15.05.2020
3158 Clouds 12 1015 62 10000 1.5 320 00:20 15.05.2020
3159 Clouds 12 1015 62 10000 3.1 360 23:40 14.05.2020
3160 Clouds 12 1015 62 10000 3.1 360 23:18 14.05.2020
3161 Clouds 12 1015 62 10000 3.1 360 23:18 14.05.2020
3162 Clouds 12 1015 58 10000 2.1 360 22:42 14.05.2020
3163 Clouds 12 1015 58 10000 2.1 360 22:23 14.05.2020
3164 Clouds 12 1015 62 10000 2.1 340 21:58 14.05.2020
3165 Clouds 12 1015 58 10000 1.5 340 21:40 14.05.2020
3166 Clouds 13 1015 58 10000 2.1 360 21:19 14.05.2020
3167 Clouds 13 1015 58 10000 2.1 360 20:56 14.05.2020
3168 Clouds 13 1015 58 10000 2.6 10 20:38 14.05.2020
3169 Clouds 13 1015 58 10000 2.6 10 20:19 14.05.2020
3170 Clouds 13 1015 54 10000 3.6 20 19:56 14.05.2020
3171 Clouds 14 1014 54 10000 5.1 10 19:37 14.05.2020
3172 Clouds 14 1014 58 10000 4.6 10 19:19 14.05.2020
3173 Clouds 14 1014 58 10000 4.6 10 18:54 14.05.2020
3174 Clouds 14 1014 58 10000 4.1 10 18:36 14.05.2020
3175 Clouds 14 1015 54 10000 5.1 10 18:18 14.05.2020
3176 Clouds 15 1015 54 10000 5.1 10 17:55 14.05.2020
3177 Clouds 15 1014 54 10000 5.7 360 17:36 14.05.2020
3178 Clouds 14 1014 58 10000 6.2 20 17:18 14.05.2020
3179 Clouds 15 1014 54 10000 5.1 360 16:39 14.05.2020
3180 Clouds 15 1014 54 10000 5.1 360 16:20 14.05.2020
3181 Clouds 15 1014 58 10000 5.1 10 15:57 14.05.2020
3182 Clouds 15 1015 54 10000 6.2 340 15:39 14.05.2020
3183 Clouds 15 1015 54 10000 6.2 340 15:19 14.05.2020
3184 Clouds 15 1014 58 10000 6.2 360 14:56 14.05.2020
3185 Clouds 16 1014 54 10000 6.2 350 14:38 14.05.2020
3186 Clouds 15 1014 54 10000 4.6 340 14:19 14.05.2020
3187 Clouds 16 1014 54 10000 4.6 340 13:55 14.05.2020
3188 Clouds 15 1014 58 10000 7.2 360 13:37 14.05.2020
3189 Clouds 16 1014 54 10000 6.7 350 13:18 14.05.2020
3190 Clouds 16 1014 54 10000 6.7 350 12:56 14.05.2020
3191 Clouds 16 1014 58 10000 8.7 350 12:37 14.05.2020
3192 Clouds 15 1014 58 10000 8.7 350 12:18 14.05.2020
3193 Clouds 15 1013 58 10000 7.7 350 11:55 14.05.2020
3194 Clouds 14 1013 66 10000 7.2 340 11:37 14.05.2020
3195 Clouds 13 1013 66 10000 8.2 340 11:19 14.05.2020
3196 Clouds 12 1012 71 10000 8.7 340 10:41 14.05.2020
3197 Clouds 12 1012 71 10000 8.7 340 10:22 14.05.2020
3198 Clouds 12 1012 71 10000 7.2 330 09:43 14.05.2020
3199 Clouds 11 1012 71 10000 7.2 330 09:24 14.05.2020
3200 Clouds 10 1012 81 10000 7.2 320 08:56 14.05.2020
3201 Clouds 10 1011 87 10000 7.2 320 08:37 14.05.2020
3202 Rain 9 1011 87 10000 6.7 320 08:18 14.05.2020
3203 Clouds 9 1011 87 10000 5.7 320 07:44 14.05.2020
3204 Clouds 9 1011 87 10000 5.7 320 07:21 14.05.2020
3205 Clouds 9 1010 87 10000 6.7 320 06:43 14.05.2020
3206 Clouds 9 1010 87 10000 6.7 320 06:23 14.05.2020
3207 Clouds 9 1009 93 10000 5.7 320 05:37 14.05.2020
3208 Rain 9 1007 87 10000 5.7 320 04:45 14.05.2020
3209 Clouds 9 1007 93 10000 3.6 320 03:39 14.05.2020
3210 Clouds 10 1007 93 10000 3.1 330 03:19 14.05.2020
3211 Clouds 10 1006 93 10000 4.1 340 02:34 14.05.2020
3212 Clouds 10 1007 93 10000 4.1 340 01:48 14.05.2020
3213 Clouds 10 1007 87 10000 3.1 340 00:53 14.05.2020
3214 Clouds 10 1007 87 10000 3.1 340 00:27 14.05.2020
3215 Clouds 10 1004 94 0 0.89 82 23:45 13.05.2020
3216 Clouds 10 1007 93 10000 2.6 340 23:24 13.05.2020
3217 Clouds 10 1007 93 10000 2.1 340 22:59 13.05.2020
3218 Clouds 10 1007 87 10000 2.1 50 22:41 13.05.2020
3219 Clouds 10 1007 87 10000 2.1 50 22:21 13.05.2020
3220 Clouds 11 1007 87 10000 3.6 70 21:58 13.05.2020
3221 Clouds 11 1007 81 10000 4.1 90 21:39 13.05.2020
3222 Clouds 11 1007 81 10000 4.6 90 21:19 13.05.2020
3223 Clouds 11 1008 81 10000 4.1 80 20:55 13.05.2020
3224 Clouds 11 1007 81 10000 4.6 90 20:55 13.05.2020
3225 Clouds 11 1008 81 10000 4.1 80 20:37 13.05.2020
3226 Clouds 11 1008 81 10000 4.1 80 20:18 13.05.2020
3227 Clouds 11 1008 81 10000 6.2 90 19:41 13.05.2020
3228 Clouds 11 1008 81 10000 6.2 90 19:22 13.05.2020
3229 Clouds 12 1009 76 10000 5.7 100 18:44 13.05.2020
3230 Clouds 12 1009 76 10000 5.7 100 18:22 13.05.2020
3231 Clouds 12 1009 76 10000 5.7 100 18:22 13.05.2020
3232 Clouds 13 1010 81 10000 4.1 70 17:58 13.05.2020
3233 Clouds 13 1010 81 10000 4.6 80 17:38 13.05.2020
3234 Rain 14 1010 71 10000 5.7 100 17:18 13.05.2020
3235 Rain 14 1011 58 10000 5.7 80 16:40 13.05.2020
3236 Rain 15 1011 58 10000 5.7 80 16:19 13.05.2020
3237 Clouds 16 1011 55 10000 5.1 110 15:55 13.05.2020
3238 Clouds 16 1011 55 10000 4.6 100 15:37 13.05.2020
3239 Clouds 16 1011 55 10000 4.6 100 15:18 13.05.2020
3240 Clouds 17 1011 51 10000 5.7 120 14:54 13.05.2020
3241 Clouds 16 1012 55 10000 5.7 150 14:36 13.05.2020
3242 Clouds 16 1012 55 10000 5.7 150 14:18 13.05.2020
3243 Clouds 17 1012 55 10000 5.1 120 13:42 13.05.2020
3244 Clouds 16 1012 55 10000 5.1 120 13:22 13.05.2020
3245 Clouds 16 1013 54 10000 4.1 140 12:59 13.05.2020
3246 Clouds 15 1013 54 10000 4.1 110 12:41 13.05.2020
3247 Clouds 15 1013 58 10000 5.1 120 12:20 13.05.2020
3248 Clouds 14 1013 58 10000 5.1 120 11:56 13.05.2020
3249 Clouds 15 1013 54 10000 6.2 130 11:38 13.05.2020
3250 Clouds 14 1013 54 10000 6.2 130 11:20 13.05.2020
3251 Clouds 13 1013 62 10000 6.7 140 10:58 13.05.2020
3252 Clouds 12 1013 66 10000 7.7 140 10:38 13.05.2020
3253 Clouds 12 1013 66 10000 7.7 140 10:19 13.05.2020
3254 Clouds 11 1013 66 10000 9.8 140 09:47 13.05.2020
3255 Clouds 10 1013 66 10000 8.2 140 09:24 13.05.2020
3256 Clouds 10 1013 66 10000 8.7 140 08:58 13.05.2020
3257 Clouds 10 1013 66 10000 7.2 140 08:39 13.05.2020
3258 Clouds 9 1013 66 10000 7.2 140 08:20 13.05.2020
3259 Clouds 8 1013 70 10000 6.2 130 07:52 13.05.2020
3260 Clouds 8 1013 70 10000 6.2 130 07:52 13.05.2020
3261 Clouds 8 1013 70 10000 6.7 140 07:32 13.05.2020
3262 Clouds 7 1013 70 10000 6.7 130 06:55 13.05.2020
3263 Clouds 7 1013 70 10000 6.2 130 06:35 13.05.2020
3264 Clouds 6 1014 70 10000 5.1 110 05:43 13.05.2020
3265 Clouds 6 1015 70 10000 4.6 120 03:58 13.05.2020
3266 Clouds 6 1016 56 10000 4.1 100 02:38 13.05.2020
3267 Clouds 6 1017 60 10000 3.1 90 01:46 13.05.2020
3268 Clouds 6 1017 65 10000 2.1 110 00:58 13.05.2020
3269 Clouds 6 1017 64 10000 3.1 140 00:25 13.05.2020
3270 Clouds 6 1017 60 10000 3.6 170 23:59 12.05.2020
3271 Clouds 6 1017 65 10000 3.6 170 23:39 12.05.2020
3272 Clouds 7 1017 65 10000 3.1 160 23:20 12.05.2020
3273 Clouds 7 1017 52 10000 2.1 130 22:42 12.05.2020
3274 Clouds 7 1017 52 10000 2.1 130 22:22 12.05.2020
3275 Clouds 8 1017 45 10000 2.6 100 21:57 12.05.2020
3276 Clouds 8 1017 49 10000 2.1 120 21:38 12.05.2020
3277 Clouds 9 1017 40 10000 1.5 80 21:20 12.05.2020
3278 Clouds 10 1017 40 10000 1.5 80 20:59 12.05.2020
3279 Clouds 10 1017 40 10000 1.5 80 20:59 12.05.2020
3280 Clouds 10 1016 40 10000 2.6 40 20:40 12.05.2020
3281 Clouds 11 1016 40 10000 2.6 40 20:22 12.05.2020
3282 Clouds 13 1017 37 10000 1.5 10 19:59 12.05.2020
3283 Clouds 13 1017 32 10000 2.1 10 19:40 12.05.2020
3284 Clouds 14 1017 32 10000 2.6 360 19:21 12.05.2020
3285 Clouds 14 1017 32 10000 2.6 360 18:56 12.05.2020
3286 Clouds 14 1017 28 10000 2.1 0 18:38 12.05.2020
3287 Clouds 13 1017 30 10000 3.1 300 18:20 12.05.2020
3288 Clouds 14 1017 32 10000 3.6 340 17:43 12.05.2020
3289 Clouds 14 1017 32 10000 3.6 340 17:24 12.05.2020
3290 Clouds 14 1017 32 10000 2.6 0 16:47 12.05.2020
3291 Clouds 13 1017 32 10000 2.6 0 16:26 12.05.2020
3292 Clouds 13 1017 32 10000 4.1 360 15:57 12.05.2020
3293 Clouds 13 1017 32 10000 6.2 320 15:39 12.05.2020
3294 Clouds 13 1017 32 10000 6.2 320 15:39 12.05.2020
3295 Clouds 13 1017 32 10000 6.2 320 15:19 12.05.2020
3296 Clouds 13 1017 32 10000 5.7 340 14:58 12.05.2020
3297 Clouds 13 1017 34 10000 6.7 330 14:39 12.05.2020
3298 Clouds 12 1017 37 10000 7.7 340 14:20 12.05.2020
3299 Clouds 12 1017 37 10000 7.7 340 13:59 12.05.2020
3300 Clouds 12 1017 37 10000 7.7 330 13:41 12.05.2020
3301 Clouds 12 1017 37 10000 7.7 330 13:20 12.05.2020
3302 Clouds 11 1017 34 10000 6.7 330 12:58 12.05.2020
3303 Clouds 11 1017 39 10000 7.2 330 12:40 12.05.2020
3304 Clouds 11 1017 39 10000 7.2 330 12:40 12.05.2020
3305 Clouds 11 1017 39 10000 7.2 330 12:40 12.05.2020
3306 Clouds 10 1017 45 10000 7.7 330 12:22 12.05.2020
3307 Clouds 11 1017 45 10000 7.7 330 11:58 12.05.2020
3308 Clouds 10 1017 52 10000 8.7 330 11:39 12.05.2020
3309 Clouds 10 1017 52 10000 8.7 330 11:21 12.05.2020
3310 Clouds 9 1016 56 10000 8.7 320 10:59 12.05.2020
3311 Clouds 9 1016 56 10000 8.7 340 10:40 12.05.2020
3312 Clouds 7 1016 60 10000 9.3 330 10:22 12.05.2020
3313 Rain 8 1016 60 10000 9.3 330 09:59 12.05.2020
3314 Rain 7 1016 60 10000 8.2 320 09:40 12.05.2020
3315 Rain 6 1016 60 10000 8.2 320 09:21 12.05.2020
3316 Clouds 5 1015 65 10000 10.8 320 08:57 12.05.2020
3317 Clouds 5 1015 56 10000 8.2 320 08:38 12.05.2020
3318 Clouds 5 1015 64 10000 8.2 320 08:19 12.05.2020
3319 Rain 5 1014 75 10000 8.7 320 07:42 12.05.2020
3320 Rain 4 1014 75 10000 8.7 320 07:23 12.05.2020
3321 Rain 5 1012 75 10000 7.7 330 06:49 12.05.2020
3322 Rain 5 1012 75 10000 7.7 330 06:27 12.05.2020
3323 Rain 5 1011 70 10000 10.3 320 05:51 12.05.2020
3324 Rain 5 1011 75 10000 9.8 320 05:30 12.05.2020
3325 Rain 6 1007 75 10000 9.3 320 03:27 12.05.2020
3326 Rain 7 1007 75 10000 9.3 320 02:52 12.05.2020
3327 Rain 7 1007 70 10000 10.3 330 02:25 12.05.2020
3328 Clouds 8 1005 70 10000 9.8 320 01:27 12.05.2020
3329 Clouds 9 1004 76 10000 9.8 320 00:28 12.05.2020
3330 Rain 9 1003 76 10000 8.2 320 23:59 11.05.2020
3331 Rain 9 1003 81 10000 9.3 320 23:40 11.05.2020
3332 Rain 9 1003 81 10000 9.3 320 23:21 11.05.2020
3333 Rain 10 1002 81 10000 9.8 310 22:59 11.05.2020
3334 Rain 10 1002 81 10000 9.8 310 22:59 11.05.2020
3335 Rain 10 1002 72 0 7.53 304 22:40 11.05.2020
3336 Rain 11 1001 82 10000 7.2 300 22:20 11.05.2020
3337 Rain 14 1001 82 10000 12.3 290 21:58 11.05.2020
3338 Rain 15 999 55 10000 3.6 290 21:40 11.05.2020
3339 Rain 15 997 85 0 3.13 252 21:19 11.05.2020
3340 -273 0 0 0 0 0 20:59 11.05.2020
3341 Clouds 18 996 37 10000 8.2 190 20:40 11.05.2020
3342 Rain 19 996 37 10000 8.2 190 20:21 11.05.2020
3343 Rain 21 995 33 10000 12.3 190 19:56 11.05.2020
3344 Rain 21 995 31 10000 12.3 190 19:38 11.05.2020
3345 Clouds 23 995 31 10000 12.3 190 19:19 11.05.2020
3346 Clouds 24 995 33 10000 12.9 180 18:55 11.05.2020
3347 Clouds 24 995 36 10000 14.4 180 18:37 11.05.2020
3348 Clouds 24 995 36 10000 13.4 180 18:18 11.05.2020
3349 Clouds 24 995 36 10000 13.4 180 17:55 11.05.2020
3350 Clouds 24 995 38 10000 13.4 180 17:36 11.05.2020
3351 Clouds 24 995 38 10000 13.4 180 17:36 11.05.2020
3352 Clouds 24 995 38 10000 13.4 180 17:36 11.05.2020
3353 Clouds 24 995 38 10000 14.9 170 17:18 11.05.2020
3354 Clouds 23 995 40 10000 13.9 160 16:42 11.05.2020
3355 Clouds 23 996 44 10000 11.3 150 16:22 11.05.2020
3356 Clouds 22 996 44 10000 11.3 150 15:58 11.05.2020
3357 Clouds 21 997 43 10000 12.9 170 15:39 11.05.2020
3358 Clouds 21 998 46 10000 13.4 170 15:19 11.05.2020
3359 Clouds 21 998 46 10000 13.4 170 14:55 11.05.2020
3360 Rain 22 999 46 10000 10.8 160 14:37 11.05.2020
3361 Rain 22 999 43 10000 12.3 160 14:19 11.05.2020
3362 Clouds 21 999 49 10000 7.7 150 13:42 11.05.2020
3363 Clouds 21 999 52 10000 8.2 160 13:22 11.05.2020
3364 Clouds 21 999 52 10000 8.2 160 12:58 11.05.2020
3365 Clouds 20 1000 56 10000 8.7 150 12:40 11.05.2020
3366 Clouds 19 1000 56 10000 8.7 150 12:22 11.05.2020
3367 Clouds 19 1000 56 10000 5.7 160 11:57 11.05.2020
3368 Clouds 19 1001 56 10000 4.6 140 11:38 11.05.2020
3369 Clouds 19 1001 56 10000 4.6 140 11:20 11.05.2020
3370 Clouds 19 1001 56 10000 6.2 130 10:56 11.05.2020
3371 Clouds 19 1001 55 10000 5.7 140 10:38 11.05.2020
3372 Clouds 18 1001 63 10000 5.1 120 10:19 11.05.2020
3373 Clouds 18 1001 63 10000 5.1 120 09:56 11.05.2020
3374 Clouds 18 1001 59 10000 4.1 110 09:37 11.05.2020
3375 Clouds 16 1001 63 10000 3.6 120 09:18 11.05.2020
3376 Clouds 15 1002 67 10000 2.6 130 08:40 11.05.2020
3377 Clouds 15 1002 67 10000 3.1 110 08:22 11.05.2020
3378 Clouds 14 1002 67 10000 3.1 110 07:56 11.05.2020
3379 Clouds 13 1002 76 10000 2.6 110 07:38 11.05.2020
3380 Clouds 13 1002 81 10000 3.1 130 07:19 11.05.2020
3381 Clouds 12 1000 97 0 0.45 112 06:33 11.05.2020
3382 Clouds 12 1003 93 10000 1.5 130 05:51 11.05.2020
3383 Clouds 13 1003 87 10000 1 140 05:21 11.05.2020
3384 Clouds 13 1003 87 10000 1.5 160 03:52 11.05.2020
3385 Rain 14 1004 87 10000 0.77 129 02:36 11.05.2020
3386 Clear 14 1004 87 10000 1 0 01:59 11.05.2020
3387 Clear 15 1005 93 10000 1.5 140 01:18 11.05.2020
3388 Clear 15 1005 87 10000 1.5 160 00:40 11.05.2020
3389 Clear 15 1006 82 10000 1 0 00:18 11.05.2020
3390 Clear 16 1006 82 10000 2.6 200 23:39 10.05.2020
3391 Clear 16 1006 82 10000 2.6 200 23:20 10.05.2020
3392 Clear 16 1003 91 0 1.26 234 22:54 10.05.2020
3393 Clear 17 1006 77 10000 1 0 22:36 10.05.2020
3394 Clouds 18 1007 77 10000 2.6 250 22:18 10.05.2020
3395 Clouds 17 1006 77 10000 2.1 260 21:42 10.05.2020
3396 Rain 18 1006 72 10000 3.6 250 21:18 10.05.2020
3397 Rain 18 1004 85 0 2.87 268 20:43 10.05.2020
3398 Rain 19 1007 60 10000 2.6 290 20:24 10.05.2020
3399 Rain 20 1007 60 10000 4.1 320 19:58 10.05.2020
3400 Rain 20 1006 60 10000 2.1 340 19:39 10.05.2020
3401 Rain 20 1007 56 10000 2.1 350 19:21 10.05.2020
3402 Rain 20 1006 60 10000 2.1 340 19:21 10.05.2020
3403 Clouds 21 1007 56 10000 2.1 350 18:56 10.05.2020
3404 Clouds 21 1007 56 10000 3.1 340 18:36 10.05.2020
3405 Clouds 21 1007 53 10000 4.6 320 18:18 10.05.2020
3406 Clouds 21 1007 53 10000 4.6 320 17:58 10.05.2020
3407 Clouds 21 1007 56 10000 6.7 310 17:39 10.05.2020
3408 Clouds 21 1007 56 10000 6.7 310 17:20 10.05.2020
3409 Clouds 22 1007 53 10000 6.7 300 16:54 10.05.2020
3410 Thunderstorm 21 1006 47 10000 6.2 150 16:36 10.05.2020
3411 Clouds 22 1006 50 10000 7.2 150 16:18 10.05.2020
3412 Rain 22 1006 49 10000 6.2 140 15:41 10.05.2020
3413 Rain 23 1006 49 10000 6.2 140 15:22 10.05.2020
3414 Clouds 23 1006 49 10000 6.2 130 14:56 10.05.2020
3415 Clouds 23 1007 47 10000 6.7 130 14:38 10.05.2020
3416 Clouds 23 1007 49 10000 6.2 130 14:19 10.05.2020
3417 Clouds 23 1007 49 10000 6.2 130 13:58 10.05.2020
3418 Clouds 23 1007 49 10000 5.7 140 13:37 10.05.2020
3419 Clouds 23 1007 53 10000 5.7 140 13:19 10.05.2020
3420 Clouds 23 1007 53 10000 5.7 140 12:56 10.05.2020
3421 Clouds 23 1007 49 10000 5.7 130 12:37 10.05.2020
3422 Clouds 21 1007 49 10000 5.7 130 12:19 10.05.2020
3423 Clouds 21 1008 56 10000 5.1 140 11:54 10.05.2020
3424 Clouds 21 1008 56 10000 4.6 130 11:36 10.05.2020
3425 Clouds 20 1008 56 10000 4.6 130 11:18 10.05.2020
3426 Clouds 20 1008 56 10000 4.1 120 10:42 10.05.2020
3427 Clouds 21 1008 56 10000 4.1 120 10:24 10.05.2020
3428 Clouds 20 1008 63 10000 4.1 130 09:56 10.05.2020
3429 Clouds 19 1008 63 10000 3.6 120 09:38 10.05.2020
3430 Clouds 18 1009 63 10000 4.1 140 09:19 10.05.2020
3431 Clouds 17 1008 59 10000 4.1 140 08:44 10.05.2020
3432 Clouds 16 1008 59 10000 4.1 120 08:23 10.05.2020
3433 Clouds 16 1009 59 10000 2.1 130 07:44 10.05.2020
3434 Clouds 16 1009 59 10000 2.1 130 07:19 10.05.2020
3435 Clouds 14 1008 67 10000 3.6 140 06:51 10.05.2020
3436 Clouds 14 1008 67 10000 4.1 130 06:29 10.05.2020
3437 Clouds 14 1008 62 10000 4.6 110 05:48 10.05.2020
3438 Clouds 14 1009 67 10000 2.6 100 04:49 10.05.2020
3439 Clouds 15 1009 67 10000 2.6 100 04:29 10.05.2020
3440 Clouds 15 1009 63 10000 3.6 120 03:52 10.05.2020
3441 Clouds 15 1009 63 10000 3.1 120 03:30 10.05.2020
3442 Clouds 16 1009 67 10000 1.5 110 02:25 10.05.2020
3443 -273 0 0 0 0 0 01:59 10.05.2020
3444 Clouds 16 1010 63 10000 1.5 150 01:59 10.05.2020
3445 Clouds 16 1010 67 10000 3.6 150 01:40 10.05.2020
3446 Clouds 16 1010 67 10000 3.6 150 01:19 10.05.2020
3447 Clouds 17 1010 63 10000 3.1 150 00:53 10.05.2020
3448 Clouds 17 1010 67 10000 3.1 150 00:22 10.05.2020
3449 Clouds 18 1010 63 10000 2.6 160 23:57 09.05.2020
3450 Clouds 18 1011 63 10000 3.1 150 23:38 09.05.2020
3451 Clouds 18 1011 67 10000 3.1 160 23:19 09.05.2020
3452 Clouds 18 1011 67 10000 3.1 160 23:19 09.05.2020
3453 Clouds 18 1011 55 10000 2.1 120 22:41 09.05.2020
3454 Clouds 19 1011 55 10000 2.1 120 22:23 09.05.2020
3455 Clouds 19 1011 49 10000 2.1 110 21:58 09.05.2020
3456 Clouds 19 1011 49 10000 3.6 130 21:40 09.05.2020
3457 Clouds 20 1011 46 10000 3.1 130 21:20 09.05.2020
3458 Clouds 21 1011 46 10000 3.1 130 20:57 09.05.2020
3459 Clouds 21 1011 46 10000 3.6 160 20:38 09.05.2020
3460 Clouds 22 1011 46 10000 3.6 160 20:20 09.05.2020
3461 Clouds 23 1011 38 10000 4.1 180 19:55 09.05.2020
3462 Clouds 24 1011 36 10000 5.1 190 19:37 09.05.2020
3463 Clouds 23 1011 36 10000 5.1 190 19:18 09.05.2020
3464 Clouds 24 1011 29 10000 4.1 130 18:42 09.05.2020
3465 Clouds 24 1011 29 10000 4.1 130 18:42 09.05.2020
3466 Clouds 24 1011 29 10000 4.1 130 18:23 09.05.2020
3467 Clouds 25 1012 27 10000 5.1 160 17:46 09.05.2020
3468 Clouds 25 1012 27 10000 5.1 160 17:23 09.05.2020
3469 Clouds 25 1012 27 10000 5.1 150 16:57 09.05.2020
3470 Clouds 25 1012 26 10000 3.6 150 16:38 09.05.2020
3471 Clouds 25 1012 26 10000 3.6 150 16:38 09.05.2020
3472 Clouds 25 1012 26 10000 3.6 150 16:19 09.05.2020
3473 Clouds 26 1013 27 10000 4.1 160 15:44 09.05.2020
3474 Clouds 26 1013 29 10000 4.6 100 15:22 09.05.2020
3475 Clouds 26 1013 29 10000 4.6 100 14:56 09.05.2020
3476 Clouds 25 1013 31 10000 3.6 130 14:38 09.05.2020
3477 Clouds 25 1013 31 10000 3.6 130 14:18 09.05.2020
3478 Clouds 25 1014 31 10000 4.1 130 14:18 09.05.2020
3479 Clouds 25 1014 31 10000 4.1 130 13:56 09.05.2020
3480 Clouds 24 1014 33 10000 5.1 140 13:38 09.05.2020
3481 Clouds 23 1014 33 10000 5.1 140 13:18 09.05.2020
3482 Clouds 23 1015 38 10000 3.6 130 12:40 09.05.2020
3483 Clouds 23 1015 38 10000 3.6 130 12:22 09.05.2020
3484 Clouds 22 1015 43 10000 2.1 40 11:45 09.05.2020
3485 Clouds 21 1015 43 10000 2.1 40 11:20 09.05.2020
3486 Clouds 20 1015 48 10000 2.1 0 10:56 09.05.2020
3487 Clouds 20 1015 52 10000 2.1 0 10:38 09.05.2020
3488 Clouds 20 1015 52 10000 2.1 0 10:20 09.05.2020
3489 Clouds 19 1015 51 10000 2.1 110 09:54 09.05.2020
3490 Clouds 17 1015 55 10000 1 0 09:36 09.05.2020
3491 Clouds 16 1016 58 10000 1.5 200 09:18 09.05.2020
3492 Clouds 15 1016 62 10000 1 0 08:43 09.05.2020
3493 Clouds 15 1016 62 10000 1 0 08:25 09.05.2020
3494 Clouds 13 1015 71 10000 1.5 100 07:48 09.05.2020
3495 Clouds 13 1015 71 10000 1.5 100 07:30 09.05.2020
3496 Clouds 12 1015 81 10000 2.1 170 06:45 09.05.2020
3497 Clouds 11 1015 76 10000 2.1 170 06:21 09.05.2020
3498 Clouds 11 1015 76 10000 3.1 180 05:44 09.05.2020
3499 Clouds 12 1015 66 10000 2.6 170 03:44 09.05.2020
3500 Clouds 12 1015 62 10000 3.1 180 02:55 09.05.2020
3501 Clouds 13 1015 58 10000 1.5 240 02:30 09.05.2020
3502 Clouds 13 1015 58 10000 1 0 01:51 09.05.2020
3503 Clouds 13 1015 54 10000 2.6 90 01:23 09.05.2020
3504 Clouds 13 1016 62 10000 1.5 90 00:47 09.05.2020
3505 Clouds 14 1016 62 10000 1.5 90 00:29 09.05.2020
3506 Clouds 14 1016 54 10000 1.5 100 23:49 08.05.2020
3507 Clouds 14 1016 54 10000 1.5 100 23:29 08.05.2020
3508 Clouds 15 1015 48 10000 2.1 80 22:58 08.05.2020
3509 Clouds 15 1016 48 10000 2.6 80 22:40 08.05.2020
3510 Clouds 15 1016 48 10000 2.6 80 22:19 08.05.2020
3511 Clouds 16 1015 45 10000 2.6 90 21:58 08.05.2020
3512 Clouds 17 1015 42 10000 2.1 90 21:39 08.05.2020
3513 Clouds 17 1015 40 10000 2.1 80 21:18 08.05.2020
3514 Clouds 18 1015 40 10000 2.1 80 20:56 08.05.2020
3515 Clouds 19 1015 37 10000 2.6 70 20:38 08.05.2020
3516 Clouds 20 1015 37 10000 2.6 70 20:20 08.05.2020
3517 Clouds 21 1015 31 10000 3.1 50 19:44 08.05.2020
3518 Clouds 22 1015 31 10000 3.1 50 19:23 08.05.2020
3519 Clouds 23 1015 31 10000 2.6 60 18:55 08.05.2020
3520 Clouds 23 1016 31 10000 2.6 130 18:37 08.05.2020
3521 Clouds 24 1016 28 10000 2.1 110 18:18 08.05.2020
3522 Clouds 24 1016 28 10000 2.1 0 17:41 08.05.2020
3523 Clouds 24 1016 27 10000 1.5 0 17:18 08.05.2020
3524 Clouds 24 1017 28 10000 2.6 0 16:44 08.05.2020
3525 Clouds 24 1017 28 10000 2.6 0 16:26 08.05.2020
3526 Clouds 23 1017 28 10000 3.1 0 15:57 08.05.2020
3527 Clouds 23 1017 28 10000 2.6 150 15:39 08.05.2020
3528 Clouds 22 1018 28 10000 2.1 150 15:18 08.05.2020
3529 Clouds 22 1018 28 10000 2.1 150 14:54 08.05.2020
3530 Clouds 23 1018 28 10000 2.1 180 14:36 08.05.2020
3531 Clouds 23 1019 32 10000 2.6 0 14:18 08.05.2020
3532 Clouds 21 1019 34 10000 2.6 150 13:39 08.05.2020
3533 Clouds 21 1019 34 10000 3.6 150 13:19 08.05.2020
3534 Clouds 20 1020 37 10000 3.1 0 12:45 08.05.2020
3535 Clouds 20 1020 37 10000 3.1 0 12:25 08.05.2020
3536 Clouds 19 1020 42 10000 2.6 120 11:59 08.05.2020
3537 Clouds 18 1020 45 10000 2.6 150 11:41 08.05.2020
3538 Clouds 17 1020 48 10000 3.1 130 11:21 08.05.2020
3539 Clouds 17 1020 48 10000 3.1 130 10:57 08.05.2020
3540 Clouds 17 1021 48 10000 2.6 130 10:39 08.05.2020
3541 Clouds 16 1021 50 10000 2.6 150 10:18 08.05.2020
3542 Clouds 15 1021 54 10000 2.1 130 09:41 08.05.2020
3543 Clouds 14 1021 54 10000 2.1 130 09:19 08.05.2020
3544 Clouds 12 1021 58 10000 1.5 170 08:57 08.05.2020
3545 Clouds 11 1021 62 10000 1.5 120 08:39 08.05.2020
3546 Clouds 11 1021 62 10000 1.5 120 08:20 08.05.2020
3547 Clouds 10 1021 75 10000 1 0 07:39 08.05.2020
3548 Clouds 9 1021 70 10000 1.5 70 07:19 08.05.2020
3549 Clouds 8 1021 75 10000 1.5 140 06:47 08.05.2020
3550 Clouds 7 1021 75 10000 2.1 130 06:20 08.05.2020
3551 Clouds 7 1021 75 10000 1.5 170 05:34 08.05.2020
3552 Clear 8 1022 75 10000 2.1 170 03:50 08.05.2020
3553 Clear 9 1022 70 10000 1.5 200 02:30 08.05.2020
3554 Clear 10 1022 57 10000 1.5 360 01:41 08.05.2020
3555 Clear 10 1022 53 10000 2.6 350 01:21 08.05.2020
3556 Clear 10 1022 53 10000 2.6 20 00:48 08.05.2020
3557 Clear 11 1022 53 10000 2.6 20 00:27 08.05.2020
3558 Clear 12 1021 46 10000 3.1 30 23:57 07.05.2020
3559 Clear 12 1021 66 10000 3.6 30 23:38 07.05.2020
3560 Clear 12 1021 61 10000 3.6 30 23:20 07.05.2020
3561 Clear 13 1021 33 10000 2.1 340 22:42 07.05.2020
3562 Clear 13 1021 33 10000 2.1 340 22:42 07.05.2020
3563 Clear 14 1021 33 10000 2.1 340 22:20 07.05.2020
3564 Clear 14 1021 31 10000 1 0 21:57 07.05.2020
3565 Clear 15 1020 31 10000 1 0 21:39 07.05.2020
3566 Clear 15 1020 31 10000 1 0 21:20 07.05.2020
3567 Clear 15 1019 29 10000 3.1 320 20:58 07.05.2020
3568 Clear 17 1019 24 10000 4.6 330 20:40 07.05.2020
3569 Clear 18 1019 24 10000 4.6 330 20:20 07.05.2020
3570 Clear 19 1019 24 10000 5.1 340 20:20 07.05.2020
3571 Clear 19 1019 22 10000 7.2 330 19:48 07.05.2020
3572 Clear 19 1019 22 10000 7.2 330 19:23 07.05.2020
3573 Clear 20 1018 22 10000 7.7 320 18:57 07.05.2020
3574 Clear 20 1018 44 10000 6.7 300 18:38 07.05.2020
3575 Clear 20 1018 44 10000 6.7 300 18:38 07.05.2020
3576 Clear 20 1018 28 10000 8.7 290 18:20 07.05.2020
3577 Clear 20 1018 28 10000 9.3 290 17:41 07.05.2020
3578 Clear 21 1018 28 10000 9.3 280 17:20 07.05.2020
3579 Clear 20 1018 28 10000 8.7 310 16:43 07.05.2020
3580 Clear 20 1018 30 10000 9.3 290 16:20 07.05.2020
3581 Clear 20 1018 30 10000 9.3 290 15:58 07.05.2020
3582 Clear 20 1018 30 10000 9.3 290 15:58 07.05.2020
3583 Clear 20 1019 30 10000 8.2 300 15:39 07.05.2020
3584 Clear 20 1019 30 10000 8.2 300 15:19 07.05.2020
3585 Clear 20 1019 28 10000 8.7 290 14:59 07.05.2020
3586 Clear 20 1019 30 10000 10.3 310 14:41 07.05.2020
3587 Clouds 19 1019 32 10000 8.7 280 14:19 07.05.2020
3588 Clouds 19 1020 29 10000 9.3 290 13:42 07.05.2020
3589 Clouds 19 1020 29 10000 9.3 290 13:24 07.05.2020
3590 Clouds 18 1020 34 10000 8.7 300 12:44 07.05.2020
3591 Clouds 17 1020 34 10000 8.7 300 12:20 07.05.2020
3592 Clouds 17 1020 33 10000 10.3 320 11:58 07.05.2020
3593 Clouds 17 1020 33 10000 10.3 320 11:38 07.05.2020
3594 Clouds 16 1020 33 10000 10.3 320 11:20 07.05.2020
3595 Clouds 16 1021 41 10000 8.7 310 10:41 07.05.2020
3596 Clouds 15 1021 41 10000 8.7 310 10:22 07.05.2020
3597 Clouds 15 1021 44 10000 7.7 310 09:41 07.05.2020
3598 Clouds 13 1021 44 10000 7.7 310 09:20 07.05.2020
3599 Clouds 13 1021 47 10000 7.2 310 08:57 07.05.2020
3600 Clouds 12 1021 47 10000 7.2 310 08:57 07.05.2020
3601 Clouds 12 1021 50 10000 7.2 300 08:38 07.05.2020
3602 Clouds 12 1021 50 10000 7.2 300 08:20 07.05.2020
3603 Clouds 11 1021 53 10000 7.7 300 07:45 07.05.2020
3604 Clear 11 1021 53 10000 7.7 300 07:26 07.05.2020
3605 Clear 10 1021 57 10000 7.2 300 06:48 07.05.2020
3606 Clear 9 1021 57 10000 7.2 300 06:24 07.05.2020
3607 Clear 9 1020 53 10000 6.2 300 05:32 07.05.2020
3608 Clear 10 1020 53 10000 6.2 300 03:55 07.05.2020
3609 Clear 10 1020 57 10000 6.2 300 03:25 07.05.2020
3610 Clear 10 1021 57 10000 5.1 300 02:53 07.05.2020
3611 Clouds 10 1021 57 10000 5.1 300 01:45 07.05.2020
3612 Clouds 10 1021 54 10000 4.6 300 01:24 07.05.2020
3613 Clouds 11 1020 54 10000 5.1 300 00:46 07.05.2020
3614 Clouds 11 1020 54 10000 5.1 300 00:27 07.05.2020
3615 Clouds 11 1020 54 10000 5.1 300 00:27 07.05.2020
3616 Clouds 11 1020 50 10000 7.2 300 23:47 06.05.2020
3617 Clear 11 1020 50 10000 7.2 300 23:26 06.05.2020
3618 Clear 12 1020 47 10000 7.7 300 22:58 06.05.2020
3619 Clear 12 1018 69 0 1.79 237 22:40 06.05.2020
3620 Clear 12 1020 47 10000 6.2 300 22:20 06.05.2020
3621 Clear 12 1020 47 10000 7.2 300 21:58 06.05.2020
3622 Clear 13 1019 50 10000 5.7 310 21:40 06.05.2020
3623 Clear 12 1019 50 10000 5.7 310 21:40 06.05.2020
3624 Clear 13 1019 50 10000 5.7 310 21:21 06.05.2020
3625 Clear 13 1019 50 10000 5.7 330 20:43 06.05.2020
3626 Clouds 14 1019 50 10000 5.7 330 20:25 06.05.2020
3627 Clouds 14 1018 50 10000 4.6 320 19:59 06.05.2020
3628 Clouds 14 1018 47 10000 5.1 330 19:39 06.05.2020
3629 Clouds 14 1018 47 10000 5.1 330 19:21 06.05.2020
3630 Clouds 14 1018 47 10000 5.1 330 19:21 06.05.2020
3631 Clouds 15 1018 47 10000 5.1 320 18:59 06.05.2020
3632 Clouds 15 1018 44 10000 7.7 310 18:41 06.05.2020
3633 Clouds 15 1018 44 10000 7.7 310 18:22 06.05.2020
3634 Clouds 15 1018 47 10000 7.7 310 17:59 06.05.2020
3635 Clouds 16 1018 44 10000 9.3 310 17:40 06.05.2020
3636 Clouds 16 1018 44 10000 9.3 310 17:22 06.05.2020
3637 Clouds 16 1019 47 10000 9.3 310 16:59 06.05.2020
3638 Clouds 16 1019 47 10000 8.2 330 16:41 06.05.2020
3639 Clouds 15 1019 47 10000 8.2 330 16:41 06.05.2020
3640 Clouds 15 1019 47 10000 8.2 330 16:22 06.05.2020
3641 Clouds 15 1019 47 10000 8.2 330 15:59 06.05.2020
3642 Clouds 15 1019 47 10000 10.8 310 15:41 06.05.2020
3643 Clouds 15 1019 47 10000 10.8 310 15:22 06.05.2020
3644 Clouds 14 1017 60 0 1.34 38 14:56 06.05.2020
3645 Clouds 14 1019 43 10000 9.3 320 14:37 06.05.2020
3646 Clouds 14 1019 43 10000 9.8 320 14:18 06.05.2020
3647 Clouds 13 1019 47 10000 10.8 300 13:56 06.05.2020
3648 Clouds 13 1019 47 10000 10.8 300 13:36 06.05.2020
3649 Clouds 14 1019 41 10000 8.2 320 13:18 06.05.2020
3650 Rain 13 1019 45 10000 9.8 310 12:42 06.05.2020
3651 Rain 13 1019 42 10000 9.8 310 12:23 06.05.2020
3652 Rain 13 1020 42 10000 9.3 330 11:41 06.05.2020
3653 Rain 12 1020 44 10000 9.3 330 11:21 06.05.2020
3654 Clouds 12 1020 44 10000 8.7 330 10:58 06.05.2020
3655 Clouds 11 1020 44 10000 8.7 320 10:38 06.05.2020
3656 Clouds 11 1020 48 10000 8.7 320 10:19 06.05.2020
3657 Clouds 10 1020 57 10000 6.2 310 09:45 06.05.2020
3658 Clouds 9 1020 57 10000 6.7 320 09:24 06.05.2020
3659 Clouds 8 1020 61 10000 9.3 310 08:55 06.05.2020
3660 Clear 8 1020 61 10000 7.7 320 08:36 06.05.2020
3661 Clear 7 1020 65 10000 7.7 310 08:18 06.05.2020
3662 Clear 7 1019 65 10000 7.7 310 07:40 06.05.2020
3663 Clear 6 1019 67 10000 6.7 320 07:21 06.05.2020
3664 Clear 5 1019 67 10000 6.7 320 06:58 06.05.2020
3665 Clear 5 1019 68 10000 6.2 330 06:40 06.05.2020
3666 Clear 5 1019 68 10000 5.1 320 06:19 06.05.2020
3667 Clear 5 1019 68 10000 5.7 310 05:37 06.05.2020
3668 Clear 5 1019 67 10000 5.1 300 04:41 06.05.2020
3669 Clear 6 1019 66 10000 5.7 300 03:47 06.05.2020
3670 Clear 6 1019 64 10000 5.7 300 03:22 06.05.2020
3671 Clouds 6 1019 63 10000 6.2 320 02:38 06.05.2020
3672 Clouds 6 1019 60 10000 6.2 320 02:20 06.05.2020
3673 Clouds 7 1019 61 10000 5.1 320 01:41 06.05.2020
3674 Clouds 8 1019 70 10000 5.7 310 00:56 06.05.2020
3675 Clouds 8 1018 70 10000 4.6 290 00:31 06.05.2020
3676 Rain 8 1018 70 10000 4.1 300 23:58 05.05.2020
3677 Rain 8 1018 70 10000 6.7 340 23:39 05.05.2020
3678 Rain 8 1018 70 10000 6.7 340 23:19 05.05.2020
3679 Rain 8 1017 57 10000 6.2 350 22:42 05.05.2020
3680 Rain 9 1017 57 10000 6.2 350 22:20 05.05.2020
3681 Rain 10 1016 57 10000 3.6 360 21:59 05.05.2020
3682 Rain 10 1016 57 10000 3.6 350 21:40 05.05.2020
3683 Rain 11 1015 54 10000 5.7 350 21:21 05.05.2020
3684 Rain 11 1015 54 10000 5.7 350 20:59 05.05.2020
3685 Rain 12 1014 47 10000 3.6 30 20:39 05.05.2020
3686 Rain 13 1014 50 10000 4.1 340 20:19 05.05.2020
3687 Clouds 14 1014 50 10000 4.1 340 19:57 05.05.2020
3688 Clouds 14 1014 50 10000 4.6 330 19:37 05.05.2020
3689 Clouds 14 1014 44 10000 4.6 330 19:18 05.05.2020
3690 Clouds 15 1014 44 10000 4.6 340 18:55 05.05.2020
3691 Clouds 16 1014 38 10000 5.1 330 18:37 05.05.2020
3692 Clouds 16 1014 38 10000 5.1 330 18:18 05.05.2020
3693 Clouds 16 1014 36 10000 5.7 330 17:42 05.05.2020
3694 Clouds 16 1014 36 10000 5.7 330 17:24 05.05.2020
3695 Clouds 16 1014 33 10000 5.7 340 16:57 05.05.2020
3696 Clouds 16 1014 33 10000 5.7 340 16:37 05.05.2020
3697 Clouds 16 1014 36 10000 5.7 330 16:18 05.05.2020
3698 Clouds 16 1014 36 10000 5.7 330 15:55 05.05.2020
3699 Clouds 16 1014 38 10000 6.2 340 15:37 05.05.2020
3700 Clouds 16 1014 38 10000 6.2 340 15:19 05.05.2020
3701 Clouds 16 1014 47 10000 5.1 320 14:42 05.05.2020
3702 Clouds 16 1014 47 10000 5.1 320 14:42 05.05.2020
3703 Clouds 16 1014 47 10000 3.6 310 14:24 05.05.2020
3704 Clouds 16 1014 47 10000 3.6 310 13:59 05.05.2020
3705 Clouds 16 1014 47 10000 3.6 310 13:59 05.05.2020
3706 Clouds 16 1015 50 10000 5.1 330 13:41 05.05.2020
3707 Clouds 16 1015 54 10000 5.1 310 13:21 05.05.2020
3708 Clouds 15 1015 54 10000 5.1 310 12:59 05.05.2020
3709 Clouds 15 1015 58 10000 4.1 300 12:40 05.05.2020
3710 Clouds 13 1016 58 10000 4.1 310 12:20 05.05.2020
3711 Clouds 13 1016 58 10000 4.1 310 11:59 05.05.2020
3712 Clouds 13 1016 62 10000 6.2 300 11:40 05.05.2020
3713 Clouds 12 1016 62 10000 5.1 310 11:19 05.05.2020
3714 Clouds 12 1016 62 10000 5.1 310 10:54 05.05.2020
3715 Clouds 12 1016 62 10000 5.7 310 10:36 05.05.2020
3716 Clouds 11 1016 66 10000 5.7 330 10:18 05.05.2020
3717 Clouds 12 1015 76 10000 5.1 350 09:43 05.05.2020
3718 Clouds 12 1015 76 10000 5.1 350 09:43 05.05.2020
3719 Clouds 11 1015 76 10000 5.1 350 09:25 05.05.2020
3720 Rain 11 1015 76 10000 5.1 340 08:43 05.05.2020
3721 Rain 11 1015 76 10000 5.1 340 08:21 05.05.2020
3722 Clouds 11 1015 76 10000 5.1 330 07:59 05.05.2020
3723 Clouds 11 1015 81 10000 5.7 320 07:41 05.05.2020
3724 Clouds 10 1014 76 10000 6.2 310 07:19 05.05.2020
3725 Clouds 10 1014 76 10000 6.2 310 06:50 05.05.2020
3726 Rain 10 1014 76 10000 6.7 350 06:29 05.05.2020
3727 Rain 11 1014 87 10000 5.1 300 05:50 05.05.2020
3728 Clouds 11 1013 87 10000 5.1 270 04:52 05.05.2020
3729 Rain 11 1014 87 10000 1 0 02:37 05.05.2020
3730 Rain 12 1014 82 10000 3.6 240 00:56 05.05.2020
3731 Rain 13 1014 71 10000 3.1 270 00:28 05.05.2020
3732 Rain 14 1014 58 10000 1 0 23:48 04.05.2020
3733 Rain 14 1014 58 10000 1 0 23:48 04.05.2020
3734 Rain 14 1014 58 10000 2.1 190 23:25 04.05.2020
3735 Rain 14 1014 54 10000 2.6 170 22:58 04.05.2020
3736 Rain 15 1012 65 0 2.26 244 22:40 04.05.2020
3737 Rain 15 1012 65 0 2.25 264 22:21 04.05.2020
3738 Rain 15 1014 51 10000 3.1 180 21:57 04.05.2020
3739 Rain 15 1014 51 10000 3.1 180 21:57 04.05.2020
3740 Rain 15 1014 44 10000 3.6 180 21:37 04.05.2020
3741 Rain 15 1014 44 10000 3.6 180 21:18 04.05.2020
3742 Rain 16 1015 44 10000 2.6 140 20:40 04.05.2020
3743 Rain 16 1015 44 10000 2.6 140 20:40 04.05.2020
3744 Rain 16 1015 44 10000 2.6 140 20:40 04.05.2020
3745 Rain 17 1015 44 10000 2.6 140 20:19 04.05.2020
3746 Rain 17 1015 41 10000 3.1 150 19:55 04.05.2020
3747 Rain 18 1015 42 10000 3.6 160 19:37 04.05.2020
3748 Clouds 18 1015 42 10000 3.6 160 19:18 04.05.2020
3749 Clouds 18 1015 32 10000 1.5 90 18:39 04.05.2020
3750 Clouds 18 1015 32 10000 1.5 90 18:39 04.05.2020
3751 Clouds 19 1015 28 10000 1.5 240 18:20 04.05.2020
3752 Clouds 19 1015 28 10000 1.5 240 17:56 04.05.2020
3753 Clouds 19 1015 32 10000 2.1 0 17:37 04.05.2020
3754 Clouds 19 1016 32 10000 1 0 17:19 04.05.2020
3755 Clouds 20 1016 32 10000 1.5 0 16:43 04.05.2020
3756 Clouds 20 1016 32 10000 1.5 0 16:23 04.05.2020
3757 Clouds 20 1017 32 10000 2.1 130 15:58 04.05.2020
3758 Clouds 20 1017 34 10000 2.1 110 15:39 04.05.2020
3759 Clouds 20 1017 34 10000 3.1 0 15:20 04.05.2020
3760 Clouds 20 1017 34 10000 3.1 0 14:48 04.05.2020
3761 Clouds 20 1017 34 10000 2.1 0 14:20 04.05.2020
3762 Clouds 19 1018 36 10000 3.6 10 13:21 04.05.2020
3763 Clouds 19 1018 36 10000 3.6 10 13:20 04.05.2020
3764 Clouds 19 1018 36 10000 3.6 10 13:20 04.05.2020
3765 Clouds 19 1018 26 10000 2.1 0 13:20 04.05.2020
3766 Clouds 19 1018 36 10000 3.6 10 13:20 04.05.2020
3767 Clouds 18 1018 39 10000 1.5 0 12:43 04.05.2020
3768 Clouds 18 1018 39 10000 1.5 0 12:43 04.05.2020
3769 Clouds 18 1018 39 10000 1.5 0 12:43 04.05.2020
3770 Clouds 18 1018 39 10000 1.5 0 12:43 04.05.2020
3771 Clouds 18 1018 39 10000 1.5 0 12:43 04.05.2020
3772 Clouds 17 1019 51 10000 1 0 10:42 04.05.2020
3773 Clouds 17 1019 51 10000 1 0 10:42 04.05.2020
3774 Clouds 17 1019 51 10000 1 0 10:42 04.05.2020
3775 Clouds 17 1019 51 10000 1 0 10:42 04.05.2020
3776 Clouds 17 1019 51 10000 1 0 10:42 04.05.2020
3777 Clouds 13 1019 58 10000 0.5 0 09:26 04.05.2020
3778 Clouds 13 1019 58 10000 0.5 0 09:26 04.05.2020
3779 Clouds 13 1019 58 10000 0.5 0 09:26 04.05.2020
3780 Clouds 13 1019 58 10000 0.5 0 09:26 04.05.2020
3781 Clouds 13 1019 58 10000 0.5 0 09:26 04.05.2020
3782 Clouds 9 1019 81 10000 2.1 150 07:53 04.05.2020
3783 Clouds 8 1019 81 10000 2.1 150 07:33 04.05.2020
3784 Clouds 8 1019 81 10000 2.1 150 07:33 04.05.2020
3785 Clouds 8 1019 81 10000 2.1 150 07:33 04.05.2020
3786 Clouds 8 1019 81 10000 2.1 150 07:33 04.05.2020
3787 Clouds 7 1019 76 0 1.36 295 05:24 04.05.2020
3788 Clouds 7 1019 81 10000 1 0 04:48 04.05.2020
3789 Clouds 7 1019 75 10000 1 0 02:38 04.05.2020
3790 Clouds 8 1019 66 10000 3.1 280 01:20 04.05.2020
3791 -273 0 0 0 0 0 23:59 03.05.2020
3792 Clear 9 1019 62 10000 3.1 280 23:41 03.05.2020
3793 Clear 9 1019 62 10000 3.1 280 23:23 03.05.2020
3794 Clear 10 1018 54 10000 4.1 260 22:43 03.05.2020
3795 Clear 10 1018 54 10000 4.1 260 22:24 03.05.2020
3796 Clear 11 1018 50 10000 3.1 330 21:42 03.05.2020
3797 Clear 11 1018 50 10000 3.1 330 21:22 03.05.2020
3798 Clear 11 1018 46 10000 4.1 340 20:56 03.05.2020
3799 Clouds 12 1018 41 10000 5.1 340 20:38 03.05.2020
3800 Clouds 12 1018 41 10000 5.1 340 20:20 03.05.2020
3801 Clouds 13 1017 38 10000 6.7 340 20:20 03.05.2020
3802 Clouds 14 1017 41 10000 6.7 350 19:47 03.05.2020
3803 Clouds 14 1017 41 10000 6.7 350 19:47 03.05.2020
3804 Clouds 14 1017 41 10000 6.7 350 19:47 03.05.2020
3805 Clouds 14 1017 41 10000 6.7 350 19:47 03.05.2020
3806 Clouds 14 1017 41 10000 6.7 350 19:47 03.05.2020
3807 Clouds 15 1017 41 10000 6.7 350 19:27 03.05.2020
3808 Clouds 15 1017 41 10000 6.7 350 19:27 03.05.2020
3809 Clouds 15 1017 41 10000 6.7 350 19:27 03.05.2020
3810 Clouds 15 1017 41 10000 6.7 350 19:27 03.05.2020
3811 Clouds 15 1017 41 10000 6.7 350 19:27 03.05.2020
3812 Clouds 16 1017 36 10000 9.3 340 18:40 03.05.2020
3813 Clouds 16 1017 38 10000 8.2 320 18:21 03.05.2020
3814 Clouds 16 1017 38 10000 8.2 320 17:59 03.05.2020
3815 Clouds 16 1017 39 10000 8.2 320 17:40 03.05.2020
3816 Clouds 16 1017 38 10000 7.2 330 17:21 03.05.2020
3817 Clouds 16 1017 38 10000 8.2 330 16:45 03.05.2020
3818 Clouds 16 1017 38 10000 8.2 330 16:45 03.05.2020
3819 Clouds 16 1017 41 10000 7.2 330 16:20 03.05.2020
3820 Clouds 16 1017 41 10000 7.2 330 16:20 03.05.2020
3821 Clouds 16 1017 41 10000 7.2 330 15:58 03.05.2020
3822 Clouds 16 1016 36 10000 8.2 300 15:39 03.05.2020
3823 Clouds 17 1016 36 10000 8.2 300 15:20 03.05.2020
3824 Clouds 16 1016 38 10000 9.3 330 14:58 03.05.2020
3825 Clouds 16 1016 36 10000 8.7 330 14:39 03.05.2020
3826 Clouds 16 1016 36 10000 8.7 330 14:20 03.05.2020
3827 Clouds 15 1016 38 10000 9.3 330 13:51 03.05.2020
3828 Clouds 15 1016 38 10000 9.3 330 13:51 03.05.2020
3829 Clouds 16 1016 38 10000 9.3 330 13:51 03.05.2020
3830 Clouds 15 1016 38 10000 9.3 330 13:51 03.05.2020
3831 Rain 15 1016 44 10000 9.3 310 12:59 03.05.2020
3832 Clouds 15 1016 47 10000 8.2 330 12:41 03.05.2020
3833 Clouds 14 1016 47 10000 8.2 330 12:18 03.05.2020
3834 Clouds 14 1016 44 10000 10.3 330 11:55 03.05.2020
3835 Clouds 13 1016 54 10000 8.2 310 11:37 03.05.2020
3836 Clouds 14 1016 54 10000 9.8 320 11:18 03.05.2020
3837 Clouds 13 1016 54 10000 10.3 310 10:46 03.05.2020
3838 Clouds 13 1016 54 10000 10.3 310 10:46 03.05.2020
3839 Clouds 13 1016 54 10000 10.3 310 10:46 03.05.2020
3840 Clouds 13 1016 54 10000 10.3 310 10:46 03.05.2020
3841 Clouds 13 1016 54 10000 10.3 310 10:45 03.05.2020
3842 Clouds 12 1016 58 10000 9.3 310 09:57 03.05.2020
3843 Clouds 12 1016 58 10000 9.3 310 09:57 03.05.2020
3844 Clouds 12 1016 58 10000 9.3 310 09:57 03.05.2020
3845 Clouds 12 1015 58 10000 8.2 320 09:32 03.05.2020
3846 Clouds 12 1015 58 10000 8.2 320 09:32 03.05.2020
3847 Clouds 12 1015 58 10000 8.2 320 09:32 03.05.2020
3848 Clouds 12 1015 58 10000 8.2 320 09:32 03.05.2020
3849 Clouds 11 1015 62 10000 7.7 310 08:55 03.05.2020
3850 Clouds 11 1015 57 10000 8.7 310 08:55 03.05.2020
3851 Clouds 11 1015 57 10000 8.7 310 08:55 03.05.2020
3852 Clouds 11 1015 57 10000 8.7 310 08:55 03.05.2020
3853 Clouds 11 1015 57 10000 8.7 310 08:55 03.05.2020
3854 Clouds 10 1015 62 10000 7.7 310 08:21 03.05.2020
3855 Clouds 10 1015 62 10000 7.7 310 08:21 03.05.2020
3856 Clouds 9 1014 61 10000 8.7 300 07:39 03.05.2020
3857 Clouds 8 1013 70 10000 5.7 300 06:19 03.05.2020
3858 Clear 8 1013 75 10000 4.6 300 05:46 03.05.2020
3859 Clear 8 1013 70 10000 6.2 300 04:46 03.05.2020
3860 Clear 8 1013 70 10000 6.2 300 04:23 03.05.2020
3861 Clear 9 1012 66 10000 8.2 280 02:57 03.05.2020
3862 Clouds 9 1012 66 10000 6.2 290 02:24 03.05.2020
3863 Clouds 9 1012 71 10000 8.2 280 01:44 03.05.2020
3864 Clouds 9 1011 66 10000 9.3 280 01:24 03.05.2020
3865 Rain 9 1011 66 10000 9.3 280 00:42 03.05.2020
3866 Rain 10 1008 82 0 1.79 247 00:21 03.05.2020
3867 Rain 9 1011 66 10000 9.3 280 00:21 03.05.2020
3868 Rain 10 1011 62 10000 11.8 280 23:59 02.05.2020
3869 Rain 10 1008 79 0 2.24 222 23:41 02.05.2020
3870 Clouds 11 1010 58 10000 11.8 270 23:21 02.05.2020
3871 Clouds 12 1009 50 10000 8.2 280 22:43 02.05.2020
3872 Clouds 13 1009 50 10000 8.2 280 22:23 02.05.2020
3873 Rain 13 1009 47 10000 5.7 290 21:56 02.05.2020
3874 Clouds 13 1008 47 10000 4.6 280 21:38 02.05.2020
3875 Clouds 13 1008 47 10000 4.6 280 21:18 02.05.2020
3876 Clouds 13 1008 47 10000 4.6 270 20:56 02.05.2020
3877 Clouds 13 1008 41 10000 6.2 270 20:37 02.05.2020
3878 Clear 14 1008 41 10000 6.2 270 20:18 02.05.2020
3879 Clear 14 1008 41 10000 8.2 280 19:55 02.05.2020
3880 Clear 15 1008 36 10000 7.7 270 19:37 02.05.2020
3881 Clear 16 1008 36 10000 7.7 270 19:18 02.05.2020
3882 Clear 17 1008 34 10000 9.3 270 18:40 02.05.2020
3883 Clear 18 1008 34 10000 9.3 270 18:22 02.05.2020
3884 Clear 18 1008 34 10000 9.3 280 17:57 02.05.2020
3885 Clear 18 1008 31 10000 8.2 290 17:39 02.05.2020
3886 Clear 18 1008 31 10000 8.2 290 17:20 02.05.2020
3887 Clear 19 1008 31 10000 9.3 290 16:57 02.05.2020
3888 Clear 18 1008 28 10000 10.3 270 16:39 02.05.2020
3889 Clear 18 1008 34 10000 7.7 290 16:21 02.05.2020
3890 Clear 18 1009 36 10000 9.3 290 15:42 02.05.2020
3891 Clear 18 1009 36 10000 9.3 290 15:20 02.05.2020
3892 Clear 18 1009 39 10000 8.7 280 14:46 02.05.2020
3893 Clear 18 1009 39 10000 8.7 280 14:28 02.05.2020
3894 Clear 17 1008 39 10000 8.7 280 13:59 02.05.2020
3895 Clouds 17 1009 42 10000 10.3 280 13:40 02.05.2020
3896 Clouds 17 1009 42 10000 10.3 280 13:20 02.05.2020
3897 Clouds 18 1009 48 10000 7.7 280 12:43 02.05.2020
3898 Clouds 17 1009 48 10000 7.7 280 12:24 02.05.2020
3899 Clouds 17 1009 48 10000 8.7 280 11:58 02.05.2020
3900 Rain 17 1009 51 10000 8.2 280 11:39 02.05.2020
3901 Rain 16 1009 51 10000 8.2 280 11:21 02.05.2020
3902 Rain 16 1009 51 10000 6.7 290 10:56 02.05.2020
3903 Clouds 16 1008 55 10000 5.7 300 10:38 02.05.2020
3904 Clouds 16 1008 55 10000 5.7 300 10:20 02.05.2020
3905 Clouds 16 1008 55 10000 5.7 300 10:20 02.05.2020
3906 Clouds 15 1008 62 10000 5.1 300 09:54 02.05.2020
3907 Clouds 14 1008 62 10000 5.1 310 09:36 02.05.2020
3908 Clouds 14 1008 67 10000 5.7 320 09:18 02.05.2020
3909 Clouds 13 1008 71 10000 5.7 300 08:44 02.05.2020
3910 Clouds 13 1008 71 10000 5.7 300 08:25 02.05.2020
3911 Clouds 12 1008 76 10000 2.1 330 07:47 02.05.2020
3912 Clouds 11 1007 81 10000 2.6 250 07:27 02.05.2020
3913 Clouds 11 1007 81 10000 3.6 300 06:50 02.05.2020
3914 Clouds 10 1006 81 10000 3.6 300 05:28 02.05.2020
3915 Clouds 10 1006 81 10000 6.7 280 04:37 02.05.2020
3916 Clouds 10 1006 81 10000 5.1 290 04:18 02.05.2020
3917 Clouds 10 1006 87 10000 4.1 300 02:43 02.05.2020
3918 Clouds 10 1006 87 10000 2.6 300 02:19 02.05.2020
3919 Rain 10 1006 87 10000 2.6 310 01:33 02.05.2020
3920 Rain 11 1003 86 0 1.34 240 00:46 02.05.2020
3921 Rain 11 1005 76 10000 3.1 170 00:24 02.05.2020
3922 Rain 12 1005 76 10000 3.1 170 23:57 01.05.2020
3923 Rain 13 1005 81 10000 4.1 170 23:38 01.05.2020
3924 Clear 13 1004 76 10000 4.6 160 23:19 01.05.2020
3925 Clear 13 1004 76 10000 4.6 160 22:54 01.05.2020
3926 Clear 13 1004 76 10000 3.6 180 22:36 01.05.2020
3927 Clear 13 1004 76 10000 3.1 170 22:18 01.05.2020
3928 Clear 14 1004 62 10000 5.1 170 21:41 01.05.2020
3929 Clouds 14 1004 62 10000 5.1 170 21:21 01.05.2020
3930 Clouds 15 1004 62 10000 5.7 180 20:58 01.05.2020
3931 Clouds 16 1004 55 10000 6.7 180 20:40 01.05.2020
3932 Clouds 17 1004 48 10000 6.2 180 20:20 01.05.2020
3933 -273 0 0 0 0 0 19:59 01.05.2020
3934 Clouds 18 1004 39 10000 0.5 0 19:41 01.05.2020
3935 Clouds 19 1004 39 10000 0.5 0 19:22 01.05.2020
3936 Clouds 20 1004 34 10000 1.5 10 18:56 01.05.2020
3937 Clouds 20 1004 34 10000 2.1 0 18:38 01.05.2020
3938 Clouds 20 1004 32 10000 4.1 270 18:19 01.05.2020
3939 Clouds 20 1004 32 10000 4.1 270 18:19 01.05.2020
3940 Rain 20 1004 34 10000 3.6 270 17:41 01.05.2020
3941 Rain 20 1004 34 10000 3.6 270 17:23 01.05.2020
3942 Rain 20 1005 34 10000 4.6 320 17:23 01.05.2020
3943 Rain 20 1005 34 10000 4.6 320 16:58 01.05.2020
3944 Rain 20 1005 39 10000 3.1 290 16:40 01.05.2020
3945 Clouds 20 1005 39 10000 3.1 290 16:21 01.05.2020
3946 Clouds 20 1005 39 10000 5.7 260 15:58 01.05.2020
3947 Clouds 20 1006 39 10000 5.7 250 15:40 01.05.2020
3948 Clouds 20 1006 39 10000 5.7 250 15:20 01.05.2020
3949 Clouds 19 1006 48 10000 2.1 360 14:44 01.05.2020
3950 Clouds 19 1006 48 10000 2.1 360 14:25 01.05.2020
3951 Clouds 19 1006 51 10000 3.6 350 13:57 01.05.2020
3952 Clouds 19 1006 48 10000 4.6 260 13:39 01.05.2020
3953 Clouds 19 1003 66 0 0.89 234 13:21 01.05.2020
3954 Clouds 18 1007 51 10000 5.7 290 12:56 01.05.2020
3955 Clouds 18 1007 55 10000 6.2 300 12:37 01.05.2020
3956 Clouds 17 1007 55 10000 6.2 300 12:19 01.05.2020
3957 Clouds 16 1007 59 10000 6.7 280 11:43 01.05.2020
3958 Clouds 15 1007 59 10000 6.7 280 11:25 01.05.2020
3959 Clouds 15 1007 67 10000 4.6 290 10:58 01.05.2020
3960 Clouds 14 1008 71 10000 4.6 280 10:40 01.05.2020
3961 Clouds 13 1007 76 10000 4.1 310 10:20 01.05.2020
3962 Clouds 13 1007 76 10000 4.1 310 10:20 01.05.2020
3963 Clouds 13 1007 81 10000 2.6 310 09:44 01.05.2020
3964 Clouds 13 1007 81 10000 2.6 310 09:44 01.05.2020
3965 Rain 12 1007 81 10000 2.6 310 09:20 01.05.2020
3966 Clouds 12 1007 87 10000 2.1 330 08:59 01.05.2020
3967 Rain 11 1007 87 10000 3.1 320 08:41 01.05.2020
3968 Rain 11 1007 87 10000 3.1 320 08:22 01.05.2020
3969 Rain 11 1007 81 10000 4.1 270 07:46 01.05.2020
3970 Rain 10 1007 81 10000 4.1 270 07:23 01.05.2020
3971 Rain 10 1007 87 10000 4.6 280 06:50 01.05.2020
3972 Rain 10 1007 81 10000 6.2 240 05:36 01.05.2020
3973 Rain 11 1007 71 10000 8.2 280 04:47 01.05.2020
3974 Clouds 13 1006 62 10000 9.3 280 03:25 01.05.2020
3975 Rain 13 1003 75 0 1.34 215 02:45 01.05.2020
3976 Clouds 14 1002 74 0 1.79 217 02:24 01.05.2020
3977 Clouds 16 1005 63 10000 4.6 140 01:28 01.05.2020
3978 Clouds 16 1005 63 10000 5.7 140 00:59 01.05.2020
3979 Clouds 16 1005 63 10000 5.1 140 00:37 01.05.2020
3980 Clouds 16 1005 63 10000 4.6 140 00:18 01.05.2020
3981 Clouds 16 1005 63 10000 4.6 140 23:55 30.04.2020
3982 Clouds 17 1005 59 10000 5.1 140 23:37 30.04.2020
3983 Clouds 17 1005 59 10000 5.1 140 23:37 30.04.2020
3984 Clouds 17 1005 59 10000 5.7 150 23:18 30.04.2020
3985 Clouds 17 1005 55 10000 5.1 150 22:41 30.04.2020
3986 Clouds 17 1005 55 10000 5.1 150 22:21 30.04.2020
3987 Clouds 18 1005 52 10000 4.6 140 21:56 30.04.2020
3988 Clouds 18 1006 52 10000 5.7 150 21:38 30.04.2020
3989 Clouds 18 1006 52 10000 5.1 150 21:19 30.04.2020
3990 Clouds 18 1006 52 10000 5.1 150 20:54 30.04.2020
3991 Clouds 19 1006 45 10000 4.6 150 20:36 30.04.2020
3992 Clouds 19 1006 45 10000 4.6 150 20:18 30.04.2020
3993 Clouds 20 1005 42 10000 5.1 140 19:42 30.04.2020
3994 Clouds 20 1005 42 10000 5.1 140 19:23 30.04.2020
3995 Clouds 21 1005 40 10000 5.7 150 18:56 30.04.2020
3996 Clouds 21 1005 37 10000 5.7 140 18:37 30.04.2020
3997 Clouds 22 1006 37 10000 5.7 150 18:19 30.04.2020
3998 Clouds 22 1006 37 10000 5.7 150 17:55 30.04.2020
3999 Clouds 22 1006 37 10000 5.1 140 17:37 30.04.2020
4000 Clouds 22 1006 37 10000 5.7 140 17:19 30.04.2020
4001 Clouds 23 1006 37 10000 5.7 140 16:54 30.04.2020
4002 Clouds 23 1007 37 10000 3.1 180 16:36 30.04.2020
4003 Clouds 23 1003 53 0 0.89 112 16:18 30.04.2020
4004 Clouds 23 1007 35 10000 4.6 150 15:44 30.04.2020
4005 Clouds 22 1007 35 10000 4.6 150 15:21 30.04.2020
4006 Clouds 22 1008 35 10000 1.5 0 14:42 30.04.2020
4007 Clouds 22 1008 35 10000 1.5 0 14:22 30.04.2020
4008 Clouds 22 1008 37 10000 2.1 0 13:59 30.04.2020
4009 Clouds 22 1008 37 10000 2.1 180 13:40 30.04.2020
4010 Clouds 22 1008 37 10000 2.1 180 13:22 30.04.2020
4011 Clouds 21 1009 40 10000 2.1 0 12:59 30.04.2020
4012 Clouds 20 1009 37 10000 1.5 0 12:40 30.04.2020
4013 Clouds 20 1009 42 10000 2.1 330 12:19 30.04.2020
4014 Clouds 20 1009 42 10000 3.1 340 11:38 30.04.2020
4015 Clouds 20 1009 42 10000 3.1 340 11:19 30.04.2020
4016 Clouds 19 1010 45 10000 4.1 320 10:58 30.04.2020
4017 Clouds 19 1010 48 10000 3.1 330 10:38 30.04.2020
4018 Clouds 19 1010 48 10000 3.1 330 10:20 30.04.2020
4019 Clouds 18 1010 51 10000 3.6 310 09:55 30.04.2020
4020 Clouds 17 1010 51 10000 3.6 310 09:37 30.04.2020
4021 Clear 16 1010 55 10000 5.7 300 09:18 30.04.2020
4022 Clear 15 1010 58 10000 5.1 280 08:44 30.04.2020
4023 Clouds 15 1010 58 10000 5.1 280 08:23 30.04.2020
4024 Clouds 13 1009 66 10000 4.1 300 07:43 30.04.2020
4025 Clouds 13 1009 66 10000 4.1 300 07:25 30.04.2020
4026 Clouds 12 1009 66 10000 4.1 290 06:52 30.04.2020
4027 Clouds 12 1009 62 10000 5.7 300 06:18 30.04.2020
4028 Clouds 12 1009 62 10000 6.2 300 05:44 30.04.2020
4029 Clouds 12 1009 66 10000 4.6 300 04:36 30.04.2020
4030 Clouds 13 1009 62 10000 6.7 290 03:57 30.04.2020
4031 Clouds 13 1009 62 10000 7.2 280 02:47 30.04.2020
4032 Clouds 13 1009 62 10000 7.2 280 02:25 30.04.2020
4033 Clouds 13 1009 62 10000 6.2 290 01:36 30.04.2020
4034 Clouds 13 1008 67 10000 6.7 280 00:42 30.04.2020
4035 Clouds 13 1008 67 10000 7.7 280 00:20 30.04.2020
4036 Clouds 13 1008 67 10000 7.7 280 23:57 29.04.2020
4037 Clouds 13 1008 67 10000 8.7 280 23:37 29.04.2020
4038 Clouds 13 1008 71 10000 9.3 280 23:19 29.04.2020
4039 Clouds 13 1008 67 10000 8.7 280 22:40 29.04.2020
4040 Clouds 13 1008 67 10000 8.7 290 22:22 29.04.2020
4041 Clouds 13 1008 67 10000 8.7 290 21:59 29.04.2020
4042 Clouds 13 1008 67 10000 9.8 280 21:37 29.04.2020
4043 Clouds 13 1008 67 10000 9.8 290 21:19 29.04.2020
4044 Clouds 13 1008 67 10000 9.8 290 20:56 29.04.2020
4045 Clouds 13 1007 67 10000 9.3 290 20:37 29.04.2020
4046 Clouds 13 1007 67 10000 7.7 280 20:18 29.04.2020
4047 Clouds 14 1007 62 10000 8.2 280 19:43 29.04.2020
4048 Clouds 14 1007 59 10000 9.3 280 19:22 29.04.2020
4049 Clouds 14 1007 59 10000 9.3 280 18:57 29.04.2020
4050 Clouds 14 1006 59 10000 8.2 280 18:38 29.04.2020
4051 Clouds 15 1006 59 10000 7.2 290 18:18 29.04.2020
4052 Clouds 16 1006 59 10000 7.2 290 17:41 29.04.2020
4053 Clouds 16 1006 63 10000 8.2 280 17:21 29.04.2020
4054 Clouds 16 1006 63 10000 8.2 280 16:55 29.04.2020
4055 Clouds 16 1006 63 10000 7.7 280 16:36 29.04.2020
4056 Clouds 16 1006 63 10000 9.8 280 16:18 29.04.2020
4057 Clouds 15 1006 63 10000 9.8 280 15:54 29.04.2020
4058 Clouds 16 1006 59 10000 9.3 280 15:36 29.04.2020
4059 Clouds 16 1006 55 10000 8.7 270 15:18 29.04.2020
4060 Clouds 15 1006 55 10000 7.7 280 14:41 29.04.2020
4061 Clouds 17 1006 55 10000 7.7 280 14:23 29.04.2020
4062 Clouds 17 1006 59 10000 6.7 300 13:56 29.04.2020
4063 Clouds 17 1006 59 10000 7.2 280 13:37 29.04.2020
4064 Clouds 17 1006 63 10000 7.2 270 13:18 29.04.2020
4065 Clouds 17 1006 63 10000 6.2 280 12:41 29.04.2020
4066 Clouds 17 1005 59 10000 5.7 310 12:19 29.04.2020
4067 Clouds 17 1005 59 10000 5.7 310 12:19 29.04.2020
4068 Clouds 17 1005 59 10000 5.7 310 11:58 29.04.2020
4069 Clouds 16 1005 67 10000 5.1 310 11:38 29.04.2020
4070 Clouds 17 1005 67 10000 5.1 310 11:20 29.04.2020
4071 Rain 17 1005 82 10000 5.7 300 10:39 29.04.2020
4072 Rain 16 1005 72 10000 7.7 300 10:20 29.04.2020
4073 Rain 16 1005 72 10000 7.7 300 09:59 29.04.2020
4074 Rain 16 1005 67 10000 6.7 290 09:40 29.04.2020
4075 Rain 15 1005 67 10000 7.2 280 09:19 29.04.2020
4076 Rain 15 1004 67 10000 7.2 280 08:43 29.04.2020
4077 Rain 15 1004 67 10000 7.2 280 08:25 29.04.2020
4078 Rain 15 1004 72 10000 6.7 280 07:53 29.04.2020
4079 Rain 15 1004 77 10000 6.2 280 07:28 29.04.2020
4080 Rain 14 1004 72 10000 5.7 270 06:52 29.04.2020
4081 Rain 14 1004 72 10000 6.2 270 06:32 29.04.2020
4082 Clouds 14 1003 71 10000 2.6 260 05:43 29.04.2020
4083 Clouds 14 1003 71 10000 2.6 260 05:19 29.04.2020
4084 Clouds 14 1003 67 10000 4.6 260 04:20 29.04.2020
4085 Clouds 15 1003 71 10000 2.1 250 02:58 29.04.2020
4086 Clouds 15 1003 71 10000 2.6 180 01:56 29.04.2020
4087 Clouds 16 1003 76 10000 4.1 160 01:28 29.04.2020
4088 Clouds 16 1003 76 10000 4.1 160 00:56 29.04.2020
4089 Clouds 16 1003 72 10000 3.6 140 00:37 29.04.2020
4090 Clouds 16 1003 71 10000 3.6 150 00:18 29.04.2020
4091 Clouds 16 1003 63 10000 4.1 150 23:43 28.04.2020
4092 Clouds 16 1003 63 10000 4.1 150 23:43 28.04.2020
4093 Clouds 17 1003 63 10000 4.1 150 23:21 28.04.2020
4094 Clouds 17 1003 59 10000 3.6 140 22:39 28.04.2020
4095 Clouds 18 1004 63 10000 4.1 140 22:20 28.04.2020
4096 Clouds 18 1004 63 10000 4.1 140 21:59 28.04.2020
4097 Clouds 18 1004 55 10000 3.6 140 21:40 28.04.2020
4098 Clouds 18 1004 55 10000 3.6 140 21:40 28.04.2020
4099 Clouds 19 1004 52 10000 3.1 140 21:22 28.04.2020
4100 Clouds 20 1004 52 10000 3.1 140 20:59 28.04.2020
4101 Clouds 20 1003 43 10000 3.6 120 20:40 28.04.2020
4102 Clouds 20 1003 43 10000 3.6 120 20:40 28.04.2020
4103 Clouds 20 1003 43 10000 3.6 120 20:40 28.04.2020
4104 Clouds 21 1003 40 10000 3.1 100 20:20 28.04.2020
4105 Clouds 21 1003 40 10000 3.1 100 19:56 28.04.2020
4106 Clouds 22 1004 40 10000 3.6 110 19:38 28.04.2020
4107 Clouds 22 1004 40 10000 3.6 110 19:19 28.04.2020
4108 Clouds 23 1004 37 10000 3.6 120 18:55 28.04.2020
4109 Clouds 23 1004 35 10000 5.1 130 18:37 28.04.2020
4110 Clouds 23 1004 36 10000 5.1 120 18:18 28.04.2020
4111 Clouds 23 1005 36 10000 4.1 140 17:37 28.04.2020
4112 Clouds 24 1005 36 10000 4.1 140 17:19 28.04.2020
4113 Clouds 24 1005 36 10000 4.1 140 17:19 28.04.2020
4114 Clear 23 1005 38 10000 4.1 130 16:57 28.04.2020
4115 Clouds 23 1005 36 10000 3.6 120 16:39 28.04.2020
4116 Clouds 24 1005 36 10000 3.6 120 16:21 28.04.2020
4117 Clouds 24 1006 38 10000 3.6 110 15:55 28.04.2020
4118 Clouds 24 1006 35 10000 2.6 0 15:37 28.04.2020
4119 Clouds 24 1006 37 10000 3.1 0 15:19 28.04.2020
4120 Clouds 23 1006 37 10000 3.1 0 14:54 28.04.2020
4121 Clouds 23 1007 40 10000 4.6 150 14:36 28.04.2020
4122 Clouds 23 1007 49 10000 4.6 150 14:18 28.04.2020
4123 Clouds 21 1007 49 10000 3.6 110 13:41 28.04.2020
4124 Clouds 22 1007 49 10000 3.6 110 13:23 28.04.2020
4125 Clouds 21 1008 56 10000 3.6 150 12:59 28.04.2020
4126 Clouds 21 1008 56 10000 4.6 110 12:41 28.04.2020
4127 Clouds 21 1008 56 10000 4.6 110 12:22 28.04.2020
4128 Clouds 19 1008 63 10000 3.1 140 11:42 28.04.2020
4129 Clouds 18 1008 67 10000 3.1 130 11:22 28.04.2020
4130 Clouds 18 1008 67 10000 3.1 130 10:58 28.04.2020
4131 Clouds 18 1008 72 10000 3.6 140 10:38 28.04.2020
4132 Clouds 17 1009 77 10000 3.6 170 10:18 28.04.2020
4133 Clouds 16 1009 82 10000 3.6 140 09:44 28.04.2020
4134 Clouds 14 1009 82 10000 3.6 140 09:25 28.04.2020
4135 Clouds 14 1009 82 10000 4.1 150 08:57 28.04.2020
4136 Clouds 12 1009 87 10000 2.6 140 08:38 28.04.2020
4137 Clouds 12 1009 87 10000 1 0 08:20 28.04.2020
4138 Clouds 11 1009 87 10000 2.1 150 07:42 28.04.2020
4139 Clouds 9 1009 93 10000 2.6 160 07:19 28.04.2020
4140 Clouds 9 1008 93 10000 2.6 160 06:43 28.04.2020
4141 Clouds 9 1008 93 10000 2.6 150 05:53 28.04.2020
4142 Clouds 9 1008 93 10000 2.1 150 05:35 28.04.2020
4143 Clouds 10 1008 87 10000 2.1 100 04:35 28.04.2020
4144 Clouds 12 1009 71 10000 0.5 0 02:39 28.04.2020
4145 Clear 12 1009 71 10000 1 110 01:58 28.04.2020
4146 Clear 13 1009 66 10000 1.5 120 01:22 28.04.2020
4147 Clear 14 1010 62 10000 2.1 250 00:49 28.04.2020
4148 Clear 14 1010 62 10000 2.1 250 00:19 28.04.2020
4149 Clear 14 1009 62 10000 1 0 23:43 27.04.2020
4150 Rain 14 1009 62 10000 1 0 23:21 27.04.2020
4151 Clear 15 1010 62 10000 3.1 150 22:43 27.04.2020
4152 Rain 15 1010 62 10000 3.1 150 22:24 27.04.2020
4153 Rain 15 1010 58 10000 2.6 170 21:58 27.04.2020
4154 Rain 16 1010 55 10000 2.1 170 21:39 27.04.2020
4155 Rain 16 1010 55 10000 2.1 170 21:20 27.04.2020
4156 Rain 16 1010 55 10000 2.1 130 20:59 27.04.2020
4157 Rain 16 1010 55 10000 2.6 150 20:40 27.04.2020
4158 Clouds 17 1010 55 10000 2.6 150 20:21 27.04.2020
4159 Clouds 18 1009 52 10000 3.1 160 19:57 27.04.2020
4160 Rain 18 1009 42 10000 3.1 160 19:38 27.04.2020
4161 Rain 19 1010 34 10000 2.1 190 19:19 27.04.2020
4162 Rain 19 1010 34 10000 2.1 190 19:19 27.04.2020
4163 Clouds 19 1010 34 10000 2.1 190 18:56 27.04.2020
4164 Clouds 20 1010 34 10000 1.5 120 18:37 27.04.2020
4165 Clouds 20 1010 32 10000 1.5 0 18:18 27.04.2020
4166 Clouds 20 1010 32 10000 1.5 0 18:18 27.04.2020
4167 Clouds 20 1010 30 10000 1.5 340 17:41 27.04.2020
4168 Clouds 20 1010 32 10000 2.6 220 17:20 27.04.2020
4169 Clouds 20 1010 32 10000 2.6 220 16:55 27.04.2020
4170 Clouds 21 1010 32 10000 1 0 16:37 27.04.2020
4171 Clouds 21 1010 32 10000 1 0 16:19 27.04.2020
4172 Clouds 21 1010 34 10000 3.1 200 15:56 27.04.2020
4173 Rain 21 1011 37 10000 3.1 110 15:37 27.04.2020
4174 Rain 20 1011 37 10000 3.1 110 15:18 27.04.2020
4175 Rain 20 1011 40 10000 2.1 0 14:41 27.04.2020
4176 Clouds 20 1011 40 10000 2.1 0 14:20 27.04.2020
4177 Clouds 20 1011 40 10000 1.5 0 13:57 27.04.2020
4178 Clouds 19 1012 45 10000 3.1 170 13:39 27.04.2020
4179 Clouds 19 1012 45 10000 3.1 170 13:19 27.04.2020
4180 Clouds 19 1012 48 10000 3.6 150 12:43 27.04.2020
4181 Clouds 17 1012 48 10000 3.6 140 12:23 27.04.2020
4182 Clouds 17 1012 48 10000 3.6 140 11:57 27.04.2020
4183 Clouds 18 1009 50 0 1.79 98 11:38 27.04.2020
4184 Clouds 16 1012 51 10000 3.6 140 11:19 27.04.2020
4185 Clouds 16 1012 50 10000 4.1 130 10:42 27.04.2020
4186 Clouds 15 1012 50 10000 4.1 130 10:24 27.04.2020
4187 Clouds 14 1012 50 10000 4.1 130 09:58 27.04.2020
4188 Clouds 12 1012 50 10000 4.6 120 09:40 27.04.2020
4189 Clouds 12 1012 53 10000 3.6 110 09:18 27.04.2020
4190 Clouds 11 1012 53 10000 3.6 110 08:53 27.04.2020
4191 Clouds 7 1012 53 10000 4.6 110 08:33 27.04.2020
4192 Clouds 7 1012 61 10000 3.1 110 07:46 27.04.2020
4193 Clouds 7 1012 61 10000 3.1 110 07:27 27.04.2020
4194 Clouds 6 1012 63 10000 3.1 120 06:59 27.04.2020
4195 Clouds 6 1011 71 10000 3.1 120 06:37 27.04.2020
4196 Clouds 6 1011 71 10000 3.1 100 06:18 27.04.2020
4197 Clouds 7 1011 61 10000 3.1 100 05:21 27.04.2020
4198 Clouds 7 1012 65 10000 2.6 110 04:40 27.04.2020
4199 Clouds 7 1012 71 10000 2.1 140 03:48 27.04.2020
4200 Clouds 7 1012 65 10000 2.6 170 02:36 27.04.2020
4201 Clouds 8 1012 65 10000 3.6 170 01:22 27.04.2020
4202 Clouds 8 1012 65 10000 3.6 170 00:45 27.04.2020
4203 Clouds 8 1012 61 10000 3.6 170 00:19 27.04.2020
4204 Clouds 9 1012 61 10000 2.6 170 23:55 26.04.2020
4205 Clouds 9 1012 49 10000 2.1 160 23:37 26.04.2020
4206 Clouds 9 1012 49 10000 2.1 160 23:18 26.04.2020
4207 Clouds 10 1012 61 10000 2.1 120 22:55 26.04.2020
4208 Clouds 10 1012 61 10000 1.5 100 22:37 26.04.2020
4209 Clouds 10 1012 61 10000 1.5 100 22:18 26.04.2020
4210 Clouds 11 1012 61 10000 2.1 120 21:55 26.04.2020
4211 Clouds 11 1011 61 10000 1.5 90 21:37 26.04.2020
4212 Clouds 12 1011 55 10000 1.5 80 21:18 26.04.2020
4213 Clouds 13 1011 55 10000 2.1 80 20:39 26.04.2020
4214 Clouds 15 1011 55 10000 2.1 80 20:20 26.04.2020
4215 Clouds 15 1011 31 10000 2.1 100 19:59 26.04.2020
4216 Clouds 16 1011 55 10000 2.1 70 19:38 26.04.2020
4217 Clouds 16 1011 31 10000 1.5 30 19:19 26.04.2020
4218 Rain 17 1011 55 10000 1.5 70 18:44 26.04.2020
4219 Rain 18 1011 39 10000 3.1 60 18:25 26.04.2020
4220 Clouds 18 1011 39 10000 3.1 60 17:57 26.04.2020
4221 Clouds 18 1011 39 10000 2.1 0 17:39 26.04.2020
4222 Clouds 18 1011 39 10000 2.1 0 17:19 26.04.2020
4223 Clouds 18 1011 39 10000 2.6 0 16:42 26.04.2020
4224 Clouds 18 1011 39 10000 2.6 0 16:23 26.04.2020
4225 Clouds 18 1011 39 0 2.1 20 15:59 26.04.2020
4226 Clouds 18 1011 39 0 2.1 20 15:41 26.04.2020
4227 Clouds 17 1012 36 10000 2.6 70 15:21 26.04.2020
4228 Clouds 18 1012 37 10000 2.6 90 14:57 26.04.2020
4229 Clouds 18 1012 27 0 2.1 80 14:38 26.04.2020
4230 Clear 17 1012 36 10000 3.6 50 14:18 26.04.2020
4231 Clear 17 1012 36 10000 3.6 50 13:55 26.04.2020
4232 Clear 17 1012 36 10000 2.6 40 13:37 26.04.2020
4233 Clear 16 1012 36 10000 2.6 40 13:18 26.04.2020
4234 Clear 16 1013 33 0 1 330 12:40 26.04.2020
4235 Clouds 15 1013 35 10000 2.1 0 12:21 26.04.2020
4236 Clouds 15 1013 35 10000 2.1 0 11:59 26.04.2020
4237 Clouds 14 1013 44 10000 2.1 40 11:40 26.04.2020
4238 Clouds 14 1013 44 10000 2.1 40 11:21 26.04.2020
4239 Clouds 14 1013 44 10000 2.1 40 11:21 26.04.2020
4240 Clouds 14 1013 46 10000 1 0 10:56 26.04.2020
4241 Clouds 14 1013 46 10000 1 0 10:56 26.04.2020
4242 Clear 14 1013 58 0 1 310 10:38 26.04.2020
4243 Clear 13 1013 58 0 1 310 10:20 26.04.2020
4244 Clear 12 1012 61 10000 1.5 30 09:40 26.04.2020
4245 Clouds 10 1012 61 10000 1.5 30 09:22 26.04.2020
4246 Clouds 10 1012 66 10000 2.6 20 08:58 26.04.2020
4247 Clouds 8 1012 70 10000 2.1 10 08:40 26.04.2020
4248 Clouds 9 1012 70 10000 2.1 10 08:20 26.04.2020
4249 Clouds 7 1012 75 10000 0.5 0 07:46 26.04.2020
4250 Clouds 6 1012 75 10000 0.5 0 07:21 26.04.2020
4251 Clouds 4 1012 86 10000 2.6 180 06:44 26.04.2020
4252 Clouds 5 1012 75 10000 1 0 05:58 26.04.2020
4253 Clouds 5 1011 80 10000 1 310 05:39 26.04.2020
4254 Clouds 5 1011 75 10000 1.5 330 04:58 26.04.2020
4255 Clouds 6 1011 75 10000 1 320 04:22 26.04.2020
4256 Clouds 6 1011 65 10000 2.6 320 02:53 26.04.2020
4257 Clouds 6 1012 65 10000 3.1 330 02:32 26.04.2020
4258 Clouds 7 1012 61 10000 3.6 310 01:51 26.04.2020
4259 Clouds 7 1012 61 10000 3.1 320 01:27 26.04.2020
4260 Clouds 7 1011 57 10000 3.1 310 00:40 26.04.2020
4261 Clear 8 1011 57 10000 3.1 310 00:19 26.04.2020
4262 Clear 9 1011 53 10000 3.6 330 23:39 25.04.2020
4263 Clear 9 1011 53 10000 3.6 330 23:21 25.04.2020
4264 Clear 10 1010 53 10000 4.1 340 22:58 25.04.2020
4265 Clear 10 1010 53 10000 4.6 340 22:40 25.04.2020
4266 Clear 11 1010 50 10000 6.2 350 22:19 25.04.2020
4267 Clear 11 1010 50 10000 6.2 350 21:54 25.04.2020
4268 Clear 11 1010 50 10000 5.1 340 21:36 25.04.2020
4269 Clouds 12 1009 46 10000 5.7 350 21:18 25.04.2020
4270 Clouds 12 1009 43 10000 5.1 360 20:42 25.04.2020
4271 Clouds 12 1009 43 10000 5.1 360 20:22 25.04.2020
4272 Rain 14 1008 41 10000 7.2 360 19:55 25.04.2020
4273 Rain 14 1008 38 10000 6.7 350 19:37 25.04.2020
4274 Clouds 14 1008 38 10000 6.7 360 19:19 25.04.2020
4275 Clouds 15 1008 36 10000 7.2 360 18:41 25.04.2020
4276 Clouds 16 1008 36 10000 8.2 360 18:21 25.04.2020
4277 Clouds 16 1008 36 10000 8.2 360 17:58 25.04.2020
4278 Clouds 16 1008 33 10000 7.7 360 17:38 25.04.2020
4279 Clouds 16 1008 33 10000 7.7 360 17:19 25.04.2020
4280 Clouds 17 1008 29 10000 9.3 350 16:57 25.04.2020
4281 Clouds 18 1008 27 10000 8.2 340 16:38 25.04.2020
4282 Clouds 17 1008 29 10000 9.8 340 16:19 25.04.2020
4283 Clouds 18 1007 46 10000 10.8 340 15:42 25.04.2020
4284 Clouds 18 1007 42 10000 10.8 340 15:21 25.04.2020
4285 Clouds 18 1007 34 10000 9.8 340 14:58 25.04.2020
4286 Clouds 18 1007 36 10000 10.3 350 14:39 25.04.2020
4287 Clouds 19 1007 28 10000 10.8 330 14:20 25.04.2020
4288 Clouds 19 1007 28 10000 10.8 330 13:55 25.04.2020
4289 Clouds 19 1007 25 10000 11.3 320 13:37 25.04.2020
4290 Clouds 19 1007 32 10000 9.8 320 13:18 25.04.2020
4291 Clouds 18 1007 36 10000 7.7 310 12:42 25.04.2020
4292 Rain 19 1007 36 10000 7.7 310 12:21 25.04.2020
4293 Rain 18 1007 42 10000 8.2 320 11:59 25.04.2020
4294 Rain 17 1006 39 10000 7.2 320 11:41 25.04.2020
4295 Rain 17 1006 39 10000 6.7 320 11:23 25.04.2020
4296 Rain 17 1006 39 10000 6.7 320 10:54 25.04.2020
4297 Rain 17 1006 42 10000 5.1 320 10:36 25.04.2020
4298 Rain 17 1006 42 10000 7.2 320 10:18 25.04.2020
4299 Rain 17 1005 39 10000 6.7 320 09:41 25.04.2020
4300 Clouds 16 1005 39 10000 5.7 280 09:21 25.04.2020
4301 Clouds 16 1005 42 10000 4.6 270 08:42 25.04.2020
4302 Clouds 15 1005 42 10000 4.6 270 08:22 25.04.2020
4303 Clouds 15 1005 44 10000 4.1 270 07:59 25.04.2020
4304 Clouds 14 1005 44 10000 5.1 280 07:41 25.04.2020
4305 Clouds 14 1005 44 10000 5.1 280 07:19 25.04.2020
4306 Clouds 13 1005 41 10000 6.2 290 06:42 25.04.2020
4307 Clouds 14 1005 44 10000 3.6 260 05:44 25.04.2020
4308 Clouds 14 1005 44 10000 3.6 260 05:26 25.04.2020
4309 Clouds 14 1005 41 10000 3.6 260 04:20 25.04.2020
4310 Clouds 14 1006 44 10000 2.6 250 02:38 25.04.2020
4311 Clouds 13 1006 41 10000 2.6 250 02:18 25.04.2020
4312 Clouds 13 1007 41 10000 4.1 260 01:45 25.04.2020
4313 Clouds 13 1007 41 10000 4.1 260 01:19 25.04.2020
4314 Clouds 14 1007 41 10000 3.1 260 00:42 25.04.2020
4315 Clouds 14 1007 41 10000 3.1 270 00:18 25.04.2020
4316 Clouds 15 1007 44 10000 3.6 280 23:42 24.04.2020
4317 Clouds 15 1007 44 10000 3.6 250 23:21 24.04.2020
4318 Clouds 15 1007 42 10000 4.1 230 22:41 24.04.2020
4319 Clouds 15 1007 42 10000 4.1 230 22:21 24.04.2020
4320 Clouds 16 1007 39 10000 4.1 230 21:59 24.04.2020
4321 Clouds 16 1007 39 10000 4.1 230 21:59 24.04.2020
4322 Clouds 16 1007 39 10000 3.6 230 21:41 24.04.2020
4323 Clouds 16 1007 39 10000 3.6 230 21:23 24.04.2020
4324 Clouds 17 1007 34 10000 2.1 250 20:59 24.04.2020
4325 Clouds 17 1007 34 0 3.1 260 20:40 24.04.2020
4326 Clouds 19 1007 28 0 6.2 270 20:19 24.04.2020
4327 Clouds 19 1007 28 0 6.2 270 19:54 24.04.2020
4328 Clouds 20 1007 26 10000 6.2 270 19:36 24.04.2020
4329 Clouds 21 1007 26 10000 5.7 270 19:18 24.04.2020
4330 Clouds 21 1007 26 10000 8.2 260 18:40 24.04.2020
4331 Clouds 21 1007 26 10000 8.2 260 18:22 24.04.2020
4332 Clouds 22 1008 23 10000 7.7 280 17:44 24.04.2020
4333 Clouds 22 1008 23 10000 7.7 280 17:25 24.04.2020
4334 Clouds 22 1008 23 10000 7.2 280 16:59 24.04.2020
4335 Clouds 22 1008 38 10000 8.2 280 16:41 24.04.2020
4336 Clouds 22 1008 38 10000 8.2 280 16:22 24.04.2020
4337 Clouds 22 1009 38 10000 6.7 280 15:59 24.04.2020
4338 Clouds 23 1009 22 10000 7.2 280 15:39 24.04.2020
4339 Clouds 23 1009 22 10000 7.2 280 15:19 24.04.2020
4340 Clouds 22 1010 21 10000 3.6 0 14:40 24.04.2020
4341 Clouds 23 1010 21 10000 3.6 0 14:40 24.04.2020
4342 Clouds 22 1010 21 10000 3.6 0 14:22 24.04.2020
4343 Clouds 22 1011 30 10000 2.1 0 13:57 24.04.2020
4344 Clouds 22 1011 30 10000 2.1 0 13:57 24.04.2020
4345 Clouds 21 1011 32 10000 1 0 13:39 24.04.2020
4346 Clouds 22 1011 32 10000 1 0 13:20 24.04.2020
4347 Clouds 21 1012 30 0 4.1 220 12:42 24.04.2020
4348 Clouds 20 1012 34 10000 1.5 150 12:24 24.04.2020
4349 Clouds 20 1012 34 0 4.1 240 11:59 24.04.2020
4350 Clouds 19 1013 39 0 5.1 240 11:39 24.04.2020
4351 Clouds 19 1013 39 0 5.1 240 11:20 24.04.2020
4352 Clouds 18 1013 41 10000 1 0 10:56 24.04.2020
4353 Clouds 17 1014 47 0 1 220 10:37 24.04.2020
4354 Clouds 16 1014 47 10000 1 0 10:19 24.04.2020
4355 Clouds 14 1014 53 10000 1 0 09:47 24.04.2020
4356 Clear 12 1014 53 10000 1 0 09:24 24.04.2020
4357 Clear 11 1014 61 10000 1 0 08:58 24.04.2020
4358 Clear 11 1014 61 10000 0.5 0 08:40 24.04.2020
4359 Clear 9 1014 75 10000 1.5 180 08:18 24.04.2020
4360 Clear 8 1014 75 10000 1.5 180 07:47 24.04.2020
4361 Clear 6 1014 59 10000 0.5 0 07:27 24.04.2020
4362 Clear 5 1014 69 10000 1.5 200 06:58 24.04.2020
4363 Clear 5 1014 59 10000 1 130 06:38 24.04.2020
4364 Clear 6 1015 60 10000 0.5 0 05:49 24.04.2020
4365 Clear 6 1015 67 10000 0.5 0 04:46 24.04.2020
4366 Clear 7 1016 62 10000 0.5 0 03:27 24.04.2020
4367 Clear 7 1017 62 10000 3.1 180 02:44 24.04.2020
4368 Clear 7 1017 64 10000 3.1 180 02:20 24.04.2020
4369 Clear 8 1015 56 0 1.54 151 01:37 24.04.2020
4370 Clear 9 1018 64 10000 2.1 200 00:43 24.04.2020
4371 Clear 9 1018 61 10000 3.1 180 00:18 24.04.2020
4372 Clear 9 1018 59 10000 3.6 180 23:45 23.04.2020
4373 Clear 10 1018 59 10000 3.6 180 23:26 23.04.2020
4374 Clear 10 1018 53 10000 3.6 170 22:55 23.04.2020
4375 Clear 10 1018 59 10000 3.1 180 22:37 23.04.2020
4376 Clear 11 1018 59 10000 3.1 180 22:19 23.04.2020
4377 Clear 11 1018 46 10000 2.6 180 21:56 23.04.2020
4378 Clear 12 1018 46 10000 2.6 190 21:38 23.04.2020
4379 Clear 12 1018 46 10000 2.6 190 21:20 23.04.2020
4380 Clear 13 1018 38 10000 1.5 160 20:54 23.04.2020
4381 Clear 13 1018 38 10000 1.5 160 20:54 23.04.2020
4382 Clear 13 1018 38 10000 1.5 160 20:54 23.04.2020
4383 Clear 14 1018 55 10000 2.1 160 20:36 23.04.2020
4384 Clear 15 1018 55 10000 2.1 160 20:18 23.04.2020
4385 Clear 17 1018 25 10000 1 0 19:42 23.04.2020
4386 Clear 17 1018 25 10000 1 0 19:23 23.04.2020
4387 Rain 19 1019 55 10000 1 0 19:00 23.04.2020
4388 Clear 18 1019 55 10000 1 0 19:00 23.04.2020
4389 Rain 18 1019 55 10000 1 0 18:40 23.04.2020
4390 Rain 19 1019 25 10000 1.5 0 18:21 23.04.2020
4391 Rain 19 1019 25 10000 1.5 0 17:57 23.04.2020
4392 Clear 19 1019 25 10000 2.1 0 17:39 23.04.2020
4393 Clear 20 1019 25 10000 2.1 0 17:20 23.04.2020
4394 Clear 19 1020 41 10000 3.1 210 16:44 23.04.2020
4395 Clear 19 1020 41 10000 3.1 210 16:44 23.04.2020
4396 Clear 20 1020 41 10000 3.1 210 16:21 23.04.2020
4397 Clear 20 1020 25 10000 2.6 0 15:59 23.04.2020
4398 Clear 20 1021 25 10000 2.1 0 15:40 23.04.2020
4399 Clear 20 1021 25 10000 2.1 0 15:22 23.04.2020
4400 Clear 19 1021 40 10000 2.6 0 14:54 23.04.2020
4401 Clear 20 1021 27 10000 2.6 0 14:36 23.04.2020
4402 Clear 18 1022 40 10000 3.1 190 14:18 23.04.2020
4403 Clear 18 1022 40 10000 3.1 190 13:40 23.04.2020
4404 Clear 18 1022 33 10000 2.6 160 13:22 23.04.2020
4405 Clear 18 1022 33 10000 2.6 160 12:57 23.04.2020
4406 Clear 18 1022 29 10000 3.1 140 12:38 23.04.2020
4407 Clear 17 1022 29 10000 3.1 140 12:20 23.04.2020
4408 Clear 16 1023 33 10000 4.1 140 11:47 23.04.2020
4409 Clear 16 1023 33 10000 4.1 140 11:27 23.04.2020
4410 Clear 16 1023 45 10000 4.1 120 10:58 23.04.2020
4411 Clear 15 1023 35 10000 4.1 140 10:39 23.04.2020
4412 Clear 15 1023 35 10000 4.1 140 10:20 23.04.2020
4413 Clear 12 1023 53 10000 2.1 140 09:40 23.04.2020
4414 Clear 11 1023 53 10000 2.1 140 09:18 23.04.2020
4415 Clear 10 1022 61 10000 1.5 240 08:50 23.04.2020
4416 Clear 9 1022 61 10000 1.5 240 08:30 23.04.2020
4417 Clear 7 1022 61 10000 1 0 07:57 23.04.2020
4418 Clear 7 1022 61 10000 1.5 260 07:39 23.04.2020
4419 Clear 6 1022 61 10000 1.5 260 07:21 23.04.2020
4420 Clear 4 1022 74 10000 1 250 06:45 23.04.2020
4421 Clear 4 1022 74 10000 1 0 05:50 23.04.2020
4422 Clear 4 1021 74 10000 2.6 160 05:21 23.04.2020
4423 Clear 6 1021 69 10000 1 0 03:32 23.04.2020
4424 Clear 6 1021 65 10000 3.6 170 02:23 23.04.2020
4425 Clear 7 1021 59 10000 1.5 140 01:38 23.04.2020
4426 Clear 7 1021 65 10000 0.5 0 00:56 23.04.2020
4427 Clear 8 1021 65 10000 2.6 320 00:28 23.04.2020
4428 Clear 8 1021 65 10000 2.6 320 00:28 23.04.2020
4429 Clear 8 1021 52 10000 1.5 210 23:58 22.04.2020
4430 Clear 9 1021 49 10000 1.5 170 23:40 22.04.2020
4431 Clear 9 1021 49 10000 2.1 180 23:19 22.04.2020
4432 Clear 9 1021 59 10000 1.5 190 22:41 22.04.2020
4433 Clear 10 1021 59 10000 1.5 190 22:20 22.04.2020
4434 Clear 10 1021 59 10000 1.5 170 21:59 22.04.2020
4435 Clear 11 1021 59 10000 1.5 170 21:59 22.04.2020
4436 Clear 11 1021 57 10000 1.5 160 21:41 22.04.2020
4437 Clear 11 1021 55 10000 1.5 160 21:22 22.04.2020
4438 Clear 12 1020 55 10000 2.1 170 20:59 22.04.2020
4439 Clear 13 1020 35 10000 2.6 150 20:41 22.04.2020
4440 Clear 14 1020 41 10000 3.1 160 20:19 22.04.2020
4441 Clear 15 1020 41 10000 3.1 160 19:57 22.04.2020
4442 Clear 16 1020 29 10000 1.5 140 19:38 22.04.2020
4443 Clear 17 1020 27 10000 2.1 140 19:18 22.04.2020
4444 Clear 17 1020 27 10000 2.1 140 18:57 22.04.2020
4445 Clear 17 1020 29 10000 1.5 90 18:38 22.04.2020
4446 Clear 17 1020 29 10000 1.5 90 18:20 22.04.2020
4447 Clear 18 1020 27 10000 1.5 100 17:43 22.04.2020
4448 Clear 18 1021 29 10000 3.1 80 17:25 22.04.2020
4449 Clear 18 1021 29 10000 3.1 80 16:58 22.04.2020
4450 Clear 18 1021 27 10000 4.1 60 16:39 22.04.2020
4451 Clear 18 1021 27 10000 4.1 60 16:20 22.04.2020
4452 Clear 18 1022 29 10000 3.6 40 15:41 22.04.2020
4453 Clear 18 1022 27 10000 3.6 90 15:22 22.04.2020
4454 Clear 18 1022 27 10000 3.6 90 14:58 22.04.2020
4455 Clear 18 1022 27 10000 3.1 0 14:38 22.04.2020
4456 Clear 17 1022 31 10000 2.6 120 14:19 22.04.2020
4457 Clear 17 1022 31 10000 2.6 0 13:45 22.04.2020
4458 Clear 17 1022 31 10000 2.6 0 13:21 22.04.2020
4459 Clear 16 1023 30 10000 3.6 90 12:57 22.04.2020
4460 Clear 16 1023 33 10000 3.1 120 12:39 22.04.2020
4461 Clear 16 1023 33 10000 3.1 110 12:21 22.04.2020
4462 Clear 14 1023 33 10000 4.1 120 11:40 22.04.2020
4463 Clear 14 1023 33 10000 4.1 120 11:20 22.04.2020
4464 Clear 14 1023 35 10000 4.1 130 10:59 22.04.2020
4465 Clear 13 1023 35 10000 4.1 130 10:39 22.04.2020
4466 Clear 13 1023 35 10000 4.1 130 10:19 22.04.2020
4467 Clear 12 1023 40 10000 4.6 120 09:39 22.04.2020
4468 Clear 10 1023 40 10000 4.6 120 09:21 22.04.2020
4469 Clear 9 1024 46 10000 2.6 80 08:56 22.04.2020
4470 Clear 9 1023 61 10000 1 0 08:38 22.04.2020
4471 Clear 8 1023 59 10000 0.5 0 08:20 22.04.2020
4472 Clear 7 1023 69 10000 1 80 07:53 22.04.2020
4473 Clear 5 1023 60 10000 1.5 90 07:28 22.04.2020
4474 Clear 4 1022 60 10000 1.5 110 06:53 22.04.2020
4475 Clear 4 1023 60 10000 1.5 160 06:18 22.04.2020
4476 Clear 4 1022 60 10000 2.1 160 05:35 22.04.2020
4477 Clear 4 1022 69 10000 2.6 160 04:20 22.04.2020
4478 Clear 5 1022 69 10000 1.5 190 02:43 22.04.2020
4479 Clear 6 1022 65 10000 0.5 0 01:50 22.04.2020
4480 Clear 6 1022 65 10000 1 20 01:25 22.04.2020
4481 Clear 7 1022 65 10000 1.5 60 00:47 22.04.2020
4482 Clear 8 1021 59 10000 0.5 0 00:22 22.04.2020
4483 Clear 8 1021 59 10000 1.5 50 23:59 21.04.2020
4484 Clear 8 1021 59 10000 3.1 30 23:40 21.04.2020
4485 Clear 8 1021 59 10000 3.1 30 23:18 21.04.2020
4486 Clear 10 1021 43 10000 0.5 0 22:40 21.04.2020
4487 Clear 10 1021 37 10000 1.5 100 22:21 21.04.2020
4488 Clear 10 1021 37 10000 1.5 100 21:59 21.04.2020
4489 Clear 10 1021 37 10000 1.5 110 21:41 21.04.2020
4490 Clear 11 1021 37 10000 1.5 110 21:22 21.04.2020
4491 Clear 11 1020 37 10000 0.5 0 20:55 21.04.2020
4492 Clear 12 1020 33 10000 1 110 20:37 21.04.2020
4493 Clear 13 1020 33 10000 1 110 20:19 21.04.2020
4494 Clear 15 1020 26 10000 3.6 110 19:40 21.04.2020
4495 Clear 15 1020 26 10000 3.6 110 19:19 21.04.2020
4496 Clear 16 1020 26 10000 3.6 120 18:57 21.04.2020
4497 Clear 16 1020 25 10000 3.1 80 18:38 21.04.2020
4498 Clear 17 1020 25 10000 3.1 80 18:19 21.04.2020
4499 Clear 16 1020 26 10000 4.1 120 17:55 21.04.2020
4500 Clear 17 1020 25 10000 4.6 90 17:37 21.04.2020
4501 Clear 17 1020 27 10000 2.6 100 17:18 21.04.2020
4502 Clear 17 1020 27 10000 3.1 80 16:39 21.04.2020
4503 Clear 17 1020 27 10000 3.1 80 16:19 21.04.2020
4504 Clear 17 1020 29 10000 4.1 40 15:57 21.04.2020
4505 Clear 17 1020 29 10000 4.1 80 15:39 21.04.2020
4506 Clear 17 1020 33 10000 2.6 0 15:21 21.04.2020
4507 Clear 17 1020 33 10000 2.6 0 14:57 21.04.2020
4508 Clear 17 1021 30 10000 2.6 0 14:39 21.04.2020
4509 Clear 17 1021 30 10000 2.6 0 14:21 21.04.2020
4510 Clear 16 1021 33 10000 3.1 90 13:41 21.04.2020
4511 Clear 16 1021 33 10000 3.1 90 13:22 21.04.2020
4512 Clear 15 1021 35 10000 4.1 80 12:55 21.04.2020
4513 Clear 14 1021 35 10000 4.1 80 12:37 21.04.2020
4514 Clear 14 1021 32 10000 3.6 130 12:18 21.04.2020
4515 Clear 14 1021 32 10000 3.6 130 11:55 21.04.2020
4516 Clear 13 1021 32 10000 4.1 120 11:36 21.04.2020
4517 Clear 13 1021 34 10000 5.7 130 11:18 21.04.2020
4518 Clear 12 1021 34 10000 5.7 130 10:55 21.04.2020
4519 Clear 12 1021 34 10000 5.7 110 10:37 21.04.2020
4520 Clear 12 1021 34 10000 5.7 110 10:19 21.04.2020
4521 Clear 11 1021 39 10000 6.2 110 09:37 21.04.2020
4522 Clear 10 1021 39 10000 6.2 110 09:19 21.04.2020
4523 Clear 9 1021 39 10000 5.1 130 08:56 21.04.2020
4524 Clear 9 1021 49 10000 2.6 110 08:38 21.04.2020
4525 Clear 8 1021 56 10000 1 0 08:18 21.04.2020
4526 Clear 7 1021 52 10000 2.6 120 07:43 21.04.2020
4527 Clear 6 1021 52 10000 2.6 120 07:21 21.04.2020
4528 Clear 5 1021 52 10000 3.6 130 06:44 21.04.2020
4529 Clear 4 1020 60 10000 2.1 110 06:19 21.04.2020
4530 Clear 4 1020 64 10000 2.1 110 05:48 21.04.2020
4531 Clear 4 1020 64 10000 2.6 150 03:48 21.04.2020
4532 Clear 4 1020 64 10000 2.6 150 03:27 21.04.2020
4533 Clear 5 1021 65 10000 2.1 60 01:46 21.04.2020
4534 Clear 6 1020 63 10000 1 80 00:58 21.04.2020
4535 Clear 6 1020 63 10000 1 0 00:33 21.04.2020
4536 Clear 7 1020 63 10000 1.5 40 23:44 20.04.2020
4537 Clear 7 1020 63 10000 1.5 40 23:44 20.04.2020
4538 Clear 8 1020 49 10000 1 160 23:25 20.04.2020
4539 Clear 8 1020 49 10000 1 160 22:57 20.04.2020
4540 Clear 9 1020 52 10000 2.1 170 22:38 20.04.2020
4541 Clear 9 1020 49 10000 1.5 170 22:19 20.04.2020
4542 Clear 9 1020 49 10000 1.5 170 21:57 20.04.2020
4543 Clear 10 1020 46 10000 1.5 150 21:38 20.04.2020
4544 Clear 10 1020 46 10000 2.6 140 21:19 20.04.2020
4545 Clear 11 1020 46 10000 2.6 140 20:57 20.04.2020
4546 Clear 12 1019 40 10000 2.6 140 20:38 20.04.2020
4547 Clear 13 1019 61 10000 2.6 120 20:18 20.04.2020
4548 Clear 14 1019 61 10000 2.6 120 19:57 20.04.2020
4549 Clear 14 1019 61 10000 2.6 130 19:38 20.04.2020
4550 Clear 15 1019 61 10000 2.6 130 19:19 20.04.2020
4551 Clear 16 1019 31 10000 2.6 100 18:42 20.04.2020
4552 Clear 16 1019 31 10000 2.6 100 18:22 20.04.2020
4553 Clear 16 1019 31 10000 3.1 90 17:55 20.04.2020
4554 Clear 16 1019 31 10000 3.1 120 17:37 20.04.2020
4555 Clear 16 1019 31 10000 3.1 120 17:19 20.04.2020
4556 Clear 16 1019 44 10000 3.1 110 16:58 20.04.2020
4557 Clear 16 1019 44 10000 2.6 0 16:39 20.04.2020
4558 Clear 16 1019 44 10000 2.6 0 16:18 20.04.2020
4559 Clear 16 1020 38 10000 2.1 0 15:43 20.04.2020
4560 Clouds 16 1020 38 10000 2.1 0 15:23 20.04.2020
4561 Clouds 15 1020 44 10000 2.6 130 14:56 20.04.2020
4562 Clouds 16 1020 38 10000 3.1 0 14:38 20.04.2020
4563 Clouds 15 1020 38 10000 3.1 0 14:18 20.04.2020
4564 Clouds 15 1021 41 10000 2.6 0 13:41 20.04.2020
4565 Clouds 15 1021 41 10000 2.6 0 13:23 20.04.2020
4566 Clouds 15 1021 45 10000 2.1 0 12:58 20.04.2020
4567 Clouds 15 1021 45 10000 3.1 90 12:39 20.04.2020
4568 Clouds 14 1021 51 10000 3.1 90 12:18 20.04.2020
4569 Clouds 13 1022 40 10000 4.1 130 11:41 20.04.2020
4570 Clouds 13 1022 40 10000 4.1 130 11:22 20.04.2020
4571 Clouds 12 1022 46 10000 1.5 50 10:57 20.04.2020
4572 Clouds 11 1022 49 10000 1.5 40 10:39 20.04.2020
4573 Clouds 11 1022 43 0 2.68 83 10:19 20.04.2020
4574 Clouds 10 1019 48 0 1.79 108 09:56 20.04.2020
4575 Clouds 10 1022 48 0 4.17 101 09:37 20.04.2020
4576 Clouds 9 1022 56 10000 2.6 20 09:19 20.04.2020
4577 Clouds 8 1022 56 10000 2.6 20 08:41 20.04.2020
4578 Clouds 7 1022 60 10000 1.5 340 08:22 20.04.2020
4579 Clouds 6 1022 60 10000 1.5 340 07:52 20.04.2020
4580 Clouds 5 1021 60 10000 1.5 350 07:29 20.04.2020
4581 Clouds 5 1021 64 10000 1 300 06:58 20.04.2020
4582 Clouds 4 1021 64 10000 1 330 06:36 20.04.2020
4583 Clouds 4 1021 56 10000 1.5 310 05:43 20.04.2020
4584 Clouds 5 1020 64 10000 2.1 330 04:21 20.04.2020
4585 Clouds 6 1020 56 10000 3.1 350 02:46 20.04.2020
4586 Clouds 7 1020 56 10000 3.1 360 01:54 20.04.2020
4587 Clouds 7 1020 52 10000 3.6 360 01:28 20.04.2020
4588 Clouds 8 1020 52 10000 4.1 10 00:37 20.04.2020
4589 Clouds 8 1019 52 10000 4.1 360 23:59 19.04.2020
4590 Clouds 8 1019 55 10000 4.1 350 23:39 19.04.2020
4591 Clouds 8 1019 55 10000 4.1 350 23:20 19.04.2020
4592 Clouds 9 1019 55 10000 4.1 350 22:43 19.04.2020
4593 Clouds 9 1019 55 10000 4.1 350 22:23 19.04.2020
4594 Clouds 10 1019 55 10000 3.1 350 21:59 19.04.2020
4595 Clouds 11 1018 50 10000 3.1 340 21:41 19.04.2020
4596 Clouds 11 1018 63 10000 3.1 360 21:21 19.04.2020
4597 Clouds 11 1018 63 10000 3.1 360 20:55 19.04.2020
4598 Clouds 11 1018 63 10000 5.1 350 20:37 19.04.2020
4599 Clouds 12 1018 63 10000 5.1 350 20:19 19.04.2020
4600 Clouds 12 1017 47 10000 5.7 360 19:55 19.04.2020
4601 Rain 13 1016 47 10000 5.7 360 19:37 19.04.2020
4602 Rain 13 1016 47 10000 5.7 360 19:19 19.04.2020
4603 Rain 14 1017 47 10000 4.6 360 18:54 19.04.2020
4604 Rain 14 1017 47 10000 5.7 360 18:36 19.04.2020
4605 Clouds 14 1016 47 10000 5.7 20 18:18 19.04.2020
4606 Clouds 14 1017 54 10000 5.7 350 17:41 19.04.2020
4607 Rain 14 1017 54 10000 5.7 350 17:23 19.04.2020
4608 Clouds 14 1016 58 10000 5.1 360 16:59 19.04.2020
4609 Clouds 14 1016 62 10000 5.1 20 16:39 19.04.2020
4610 Clouds 14 1016 66 10000 4.6 10 16:21 19.04.2020
4611 Clouds 14 1016 66 10000 4.6 10 15:54 19.04.2020
4612 Clouds 14 1016 66 10000 5.1 20 15:36 19.04.2020
4613 Clouds 13 1016 76 10000 4.6 360 15:18 19.04.2020
4614 Clouds 13 1016 81 10000 5.1 350 14:38 19.04.2020
4615 Clouds 13 1016 76 10000 4.1 360 14:20 19.04.2020
4616 Clouds 12 1016 76 10000 4.1 360 13:56 19.04.2020
4617 Clouds 13 1016 81 10000 4.6 360 13:36 19.04.2020
4618 Clouds 13 1016 81 10000 4.6 360 13:18 19.04.2020
4619 Rain 12 1016 81 10000 5.1 350 12:43 19.04.2020
4620 Rain 12 1016 81 10000 5.1 350 12:24 19.04.2020
4621 Rain 13 1016 82 10000 3.1 350 11:39 19.04.2020
4622 Rain 13 1015 87 10000 2.1 360 11:20 19.04.2020
4623 Rain 13 1015 87 10000 2.1 360 10:59 19.04.2020
4624 Rain 13 1015 87 10000 3.6 360 10:41 19.04.2020
4625 Rain 13 1015 81 10000 1.5 20 10:20 19.04.2020
4626 Rain 13 1015 81 10000 1.5 20 09:55 19.04.2020
4627 Rain 13 1015 76 10000 5.7 350 09:36 19.04.2020
4628 Rain 12 1014 71 10000 3.1 360 09:18 19.04.2020
4629 Clouds 12 1014 66 10000 3.6 350 08:39 19.04.2020
4630 Clouds 12 1014 66 10000 3.6 350 08:20 19.04.2020
4631 Rain 11 1013 76 10000 2.6 300 07:45 19.04.2020
4632 Rain 11 1013 76 10000 2.6 300 07:25 19.04.2020
4633 Rain 11 1013 76 10000 2.1 310 06:56 19.04.2020
4634 Rain 11 1013 76 10000 2.6 330 06:22 19.04.2020
4635 Rain 13 1013 82 10000 2.1 360 04:57 19.04.2020
4636 Rain 14 1013 82 10000 2.6 20 03:34 19.04.2020
4637 Rain 15 1014 77 10000 4.1 250 02:22 19.04.2020
4638 Rain 15 1014 77 10000 4.1 250 01:58 19.04.2020
4639 Rain 15 1014 72 10000 2.6 280 01:22 19.04.2020
4640 Rain 15 1014 72 10000 3.1 250 00:41 19.04.2020
4641 Rain 15 1014 72 10000 3.1 250 00:19 19.04.2020
4642 Rain 15 1014 63 10000 2.6 240 23:42 18.04.2020
4643 Clouds 15 1014 72 10000 2.1 230 23:19 18.04.2020
4644 Rain 15 1012 71 0 1.72 249 22:43 18.04.2020
4645 Rain 15 1012 68 0 1.72 249 22:24 18.04.2020
4646 Rain 16 1014 55 10000 2.1 180 21:59 18.04.2020
4647 Rain 17 1014 55 10000 3.6 200 21:41 18.04.2020
4648 Clouds 17 1014 52 10000 3.6 200 21:22 18.04.2020
4649 Clouds 18 1014 52 10000 3.6 200 20:58 18.04.2020
4650 Rain 18 1013 48 10000 2.1 180 20:40 18.04.2020
4651 Clouds 19 1013 40 10000 1 140 20:20 18.04.2020
4652 Clouds 20 1013 37 10000 1 70 19:42 18.04.2020
4653 Clouds 20 1013 37 10000 1 70 19:24 18.04.2020
4654 Clouds 21 1013 40 10000 2.1 40 18:40 18.04.2020
4655 Clouds 22 1014 35 10000 1 0 18:20 18.04.2020
4656 Clouds 22 1014 35 10000 1 0 17:58 18.04.2020
4657 Rain 22 1014 37 10000 1.5 360 17:40 18.04.2020
4658 Rain 22 1014 37 10000 1.5 360 17:20 18.04.2020
4659 Rain 22 1014 35 10000 1.5 290 16:43 18.04.2020
4660 Rain 22 1014 35 10000 1.5 290 16:22 18.04.2020
4661 Rain 22 1015 35 10000 2.1 0 15:56 18.04.2020
4662 Rain 22 1015 35 10000 1 0 15:37 18.04.2020
4663 Rain 22 1015 35 10000 1 0 15:19 18.04.2020
4664 Rain 21 1016 40 10000 1 0 14:44 18.04.2020
4665 Rain 21 1016 40 10000 1 0 14:24 18.04.2020
4666 Rain 21 1016 39 10000 2.1 0 13:44 18.04.2020
4667 Rain 20 1016 45 10000 2.1 360 13:25 18.04.2020
4668 Rain 20 1016 45 10000 2.1 360 12:56 18.04.2020
4669 Rain 20 1016 45 10000 2.1 360 12:56 18.04.2020
4670 Clouds 19 1017 45 10000 2.1 30 12:38 18.04.2020
4671 Clouds 19 1017 45 10000 2.6 60 12:19 18.04.2020
4672 Clouds 18 1017 45 10000 2.6 30 11:42 18.04.2020
4673 Clouds 18 1017 48 10000 2.6 360 11:23 18.04.2020
4674 Clouds 18 1015 50 0 0.89 109 10:57 18.04.2020
4675 Clouds 17 1017 51 10000 3.1 10 10:37 18.04.2020
4676 Clouds 16 1017 54 10000 3.1 10 10:18 18.04.2020
4677 Clouds 15 1017 54 10000 3.6 350 09:42 18.04.2020
4678 Clouds 14 1017 54 10000 3.6 350 09:23 18.04.2020
4679 Clouds 13 1017 58 10000 2.1 330 08:44 18.04.2020
4680 Clouds 13 1017 58 10000 2.1 330 08:26 18.04.2020
4681 Clouds 12 1016 66 10000 2.1 300 07:58 18.04.2020
4682 Clouds 11 1016 71 10000 2.6 320 07:36 18.04.2020
4683 Clouds 10 1016 66 10000 3.1 290 06:55 18.04.2020
4684 Rain 10 1015 66 10000 2.6 310 06:25 18.04.2020
4685 Rain 11 1015 66 10000 4.6 350 05:36 18.04.2020
4686 Rain 11 1015 76 10000 2.6 320 04:46 18.04.2020
4687 Rain 11 1015 76 10000 1 350 04:25 18.04.2020
4688 Rain 12 1015 71 10000 1.5 350 02:48 18.04.2020
4689 Rain 13 1015 71 10000 1.5 10 02:23 18.04.2020
4690 Rain 13 1015 58 10000 1.5 40 01:53 18.04.2020
4691 Rain 13 1015 58 10000 1.5 40 01:34 18.04.2020
4692 Rain 14 1014 58 10000 2.6 360 00:44 18.04.2020
4693 Rain 15 1014 58 10000 2.6 360 00:22 18.04.2020
4694 Rain 15 1014 51 10000 2.6 360 23:55 17.04.2020
4695 Rain 15 1014 54 10000 1 0 23:37 17.04.2020
4696 Rain 15 1014 51 10000 1.5 220 23:18 17.04.2020
4697 Rain 15 1014 51 10000 1.5 220 22:55 17.04.2020
4698 Rain 16 1014 54 10000 2.6 170 22:36 17.04.2020
4699 Rain 16 1014 54 10000 2.6 170 22:18 17.04.2020
4700 Rain 17 1013 45 10000 3.1 30 21:41 17.04.2020
4701 Rain 17 1013 45 10000 3.1 30 21:21 17.04.2020
4702 Rain 19 1013 42 10000 2.6 30 20:56 17.04.2020
4703 Rain 20 1013 35 10000 2.6 50 20:37 17.04.2020
4704 Rain 20 1013 30 10000 2.1 60 20:18 17.04.2020
4705 Rain 21 1013 30 10000 2.1 60 19:56 17.04.2020
4706 Rain 21 1013 33 10000 2.6 40 19:38 17.04.2020
4707 Rain 21 1013 33 10000 2.6 40 19:20 17.04.2020
4708 Rain 23 1013 29 10000 3.6 340 18:42 17.04.2020
4709 Clouds 23 1013 29 10000 3.6 340 18:23 17.04.2020
4710 Clouds 23 1013 27 10000 2.6 360 17:55 17.04.2020
4711 Clouds 24 1013 27 10000 3.6 320 17:36 17.04.2020
4712 Clouds 23 1013 27 10000 5.1 300 17:18 17.04.2020
4713 Clouds 25 1013 25 10000 5.7 310 16:41 17.04.2020
4714 Clouds 24 1014 27 10000 5.1 310 16:22 17.04.2020
4715 Clouds 24 1014 27 10000 5.1 310 16:22 17.04.2020
4716 Clouds 24 1014 25 10000 6.2 320 15:41 17.04.2020
4717 Clouds 24 1014 25 10000 6.2 320 15:22 17.04.2020
4718 Clouds 24 1014 25 10000 2.6 320 14:55 17.04.2020
4719 Clouds 23 1014 28 10000 4.1 340 14:37 17.04.2020
4720 Clouds 23 1014 28 10000 4.6 290 14:19 17.04.2020
4721 Clouds 23 1015 31 10000 5.7 330 13:40 17.04.2020
4722 Clouds 23 1015 31 10000 5.7 330 13:20 17.04.2020
4723 Clouds 23 1015 30 10000 4.6 310 12:58 17.04.2020
4724 Clouds 23 1015 32 10000 5.7 320 12:40 17.04.2020
4725 Clouds 22 1015 32 10000 5.7 320 12:21 17.04.2020
4726 Clouds 21 1015 30 10000 5.1 310 11:40 17.04.2020
4727 Clouds 20 1015 30 10000 5.1 310 11:19 17.04.2020
4728 Clouds 20 1015 30 10000 5.7 310 10:44 17.04.2020
4729 Clouds 19 1015 30 10000 5.7 310 10:23 17.04.2020
4730 Clouds 19 1015 34 10000 6.7 300 09:57 17.04.2020
4731 Clouds 16 1015 39 10000 1 0 09:39 17.04.2020
4732 Clouds 16 1015 39 10000 1 0 09:19 17.04.2020
4733 Clouds 14 1015 42 10000 1 0 08:49 17.04.2020
4734 Clouds 14 1015 50 10000 2.1 290 08:28 17.04.2020
4735 Clouds 13 1015 66 10000 2.1 210 07:58 17.04.2020
4736 Clouds 11 1014 70 10000 2.1 190 07:40 17.04.2020
4737 Clouds 10 1014 70 10000 2.1 190 07:19 17.04.2020
4738 Clouds 10 1014 47 10000 2.6 260 06:44 17.04.2020
4739 Clouds 11 1014 47 10000 2.6 260 06:20 17.04.2020
4740 Clouds 11 1014 66 10000 1 0 03:36 17.04.2020
4741 Clouds 11 1014 66 10000 2.1 170 03:18 17.04.2020
4742 Clouds 11 1014 61 10000 2.1 170 01:52 17.04.2020
4743 Clouds 11 1015 62 10000 2.1 180 01:22 17.04.2020
4744 Clouds 12 1015 54 10000 3.6 170 00:26 17.04.2020
4745 Clouds 13 1014 57 10000 3.6 170 23:55 16.04.2020
4746 Clouds 13 1014 57 10000 3.6 170 23:37 16.04.2020
4747 Clouds 13 1014 41 10000 2.6 160 23:19 16.04.2020
4748 Clouds 13 1014 47 10000 2.6 240 22:40 16.04.2020
4749 Clouds 13 1014 47 10000 3.1 170 22:22 16.04.2020
4750 Clouds 14 1015 44 10000 2.6 170 21:59 16.04.2020
4751 Clouds 14 1015 44 10000 1.5 160 21:40 16.04.2020
4752 Clouds 14 1015 44 10000 1.5 160 21:19 16.04.2020
4753 Clouds 16 1014 41 10000 1 130 20:43 16.04.2020
4754 Clouds 16 1014 39 10000 1 140 20:23 16.04.2020
4755 Clouds 18 1014 37 10000 1.5 130 19:59 16.04.2020
4756 Clouds 19 1014 37 10000 1.5 130 19:39 16.04.2020
4757 Clouds 20 1014 32 10000 2.1 140 19:20 16.04.2020
4758 Clouds 22 1014 28 10000 2.1 140 18:57 16.04.2020
4759 Clouds 22 1015 54 10000 0.5 0 18:38 16.04.2020
4760 Clouds 22 1015 33 10000 0.5 0 18:20 16.04.2020
4761 Clouds 22 1015 33 10000 1 0 17:45 16.04.2020
4762 Clouds 22 1015 20 10000 1.5 0 17:26 16.04.2020
4763 Clouds 22 1015 33 10000 2.1 90 17:00 16.04.2020
4764 Clouds 23 1015 33 10000 2.1 90 16:41 16.04.2020
4765 Clouds 22 1016 25 10000 1.5 120 16:19 16.04.2020
4766 Clouds 22 1016 26 10000 2.1 0 15:44 16.04.2020
4767 Clouds 22 1017 28 10000 2.1 0 15:19 16.04.2020
4768 Clouds 21 1017 28 10000 3.6 140 14:58 16.04.2020
4769 Clouds 21 1017 30 10000 2.6 0 14:39 16.04.2020
4770 Clouds 21 1017 30 10000 2.6 0 14:19 16.04.2020
4771 Clouds 21 1017 28 10000 2.6 120 13:56 16.04.2020
4772 Clouds 20 1018 30 10000 2.6 130 13:37 16.04.2020
4773 Clouds 20 1018 30 10000 2.6 130 13:18 16.04.2020
4774 Clouds 19 1018 32 10000 3.6 130 12:56 16.04.2020
4775 Clouds 19 1018 32 10000 3.6 130 12:56 16.04.2020
4776 Clouds 18 1018 34 10000 4.1 120 12:37 16.04.2020
4777 Clouds 19 1018 32 10000 3.6 130 12:37 16.04.2020
4778 Clouds 18 1018 34 10000 4.1 120 12:18 16.04.2020
4779 Clouds 17 1019 36 10000 4.6 130 11:54 16.04.2020
4780 Clouds 17 1019 36 10000 4.6 130 11:36 16.04.2020
4781 Clouds 16 1019 38 10000 4.1 130 11:18 16.04.2020
4782 Clouds 15 1019 41 10000 3.6 130 10:39 16.04.2020
4783 Clouds 14 1020 47 10000 3.1 140 10:19 16.04.2020
4784 Clouds 13 1020 50 10000 2.6 120 09:58 16.04.2020
4785 Clouds 12 1020 50 10000 2.6 120 09:38 16.04.2020
4786 Clouds 11 1020 50 10000 2.1 160 09:19 16.04.2020
4787 Clouds 9 1020 49 10000 1 0 08:42 16.04.2020
4788 Clouds 8 1021 52 10000 2.1 130 08:23 16.04.2020
4789 Clouds 6 1021 49 10000 2.1 160 07:46 16.04.2020
4790 Clouds 4 1021 69 10000 2.6 160 07:27 16.04.2020
4791 Clouds 4 1021 69 10000 2.1 170 06:46 16.04.2020
4792 Clear 3 1021 69 10000 2.6 170 06:26 16.04.2020
4793 Clear 4 1021 69 10000 2.6 170 05:49 16.04.2020
4794 Clear 4 1021 74 10000 2.1 190 04:44 16.04.2020
4795 Clouds 5 1022 64 10000 2.1 190 03:24 16.04.2020
4796 Clouds 5 1022 56 10000 2.6 200 02:55 16.04.2020
4797 Clouds 5 1022 69 10000 0.5 0 02:33 16.04.2020
4798 Clouds 6 1023 56 10000 2.1 200 01:21 16.04.2020
4799 Clouds 6 1023 56 10000 2.1 190 00:38 16.04.2020
4800 Clouds 7 1023 56 10000 2.1 190 00:18 16.04.2020
4801 Clouds 7 1023 48 10000 1 0 23:43 15.04.2020
4802 Clouds 7 1023 39 10000 1.5 230 23:22 15.04.2020
4803 Clouds 8 1022 52 10000 1.5 190 22:58 15.04.2020
4804 Clouds 8 1022 52 10000 1.5 190 22:37 15.04.2020
4805 Clouds 9 1023 48 10000 2.6 200 22:19 15.04.2020
4806 Rain 9 1022 49 10000 3.6 170 21:41 15.04.2020
4807 Rain 10 1022 43 10000 3.6 180 21:23 15.04.2020
4808 Clouds 10 1022 45 10000 2.1 160 20:59 15.04.2020
4809 Clouds 10 1022 45 10000 2.1 160 20:59 15.04.2020
4810 Clouds 11 1022 30 10000 1 0 20:41 15.04.2020
4811 Clouds 12 1022 30 10000 1 0 20:22 15.04.2020
4812 Clouds 13 1022 35 10000 1 0 19:59 15.04.2020
4813 Clouds 14 1022 28 10000 1.5 330 19:39 15.04.2020
4814 Rain 14 1022 28 10000 1.5 330 19:18 15.04.2020
4815 Rain 15 1022 26 10000 3.1 270 18:40 15.04.2020
4816 Clouds 16 1022 26 10000 3.1 270 18:22 15.04.2020
4817 Clouds 16 1022 29 10000 2.6 320 17:56 15.04.2020
4818 Clouds 16 1022 29 10000 2.6 320 17:38 15.04.2020
4819 Clouds 16 1022 26 10000 3.6 340 17:20 15.04.2020
4820 Clouds 16 1023 25 10000 5.1 320 16:55 15.04.2020
4821 Clouds 16 1023 25 10000 5.1 320 16:37 15.04.2020
4822 Clouds 16 1023 23 10000 5.7 310 16:18 15.04.2020
4823 Clouds 15 1023 21 10000 5.1 320 15:56 15.04.2020
4824 Clouds 15 1023 21 10000 5.1 320 15:37 15.04.2020
4825 Clouds 15 1023 24 10000 4.1 310 15:19 15.04.2020
4826 Clouds 15 1023 24 10000 4.1 310 15:19 15.04.2020
4827 Clouds 15 1024 28 10000 1.5 0 14:55 15.04.2020
4828 Clouds 14 1024 28 10000 1.5 0 14:36 15.04.2020
4829 Clouds 14 1024 28 10000 1.5 0 14:36 15.04.2020
4830 Clouds 14 1024 28 10000 2.1 0 14:18 15.04.2020
4831 Clouds 13 1024 30 10000 5.1 300 13:40 15.04.2020
4832 Clouds 13 1024 30 10000 5.1 300 13:21 15.04.2020
4833 Clouds 13 1025 32 10000 3.1 0 12:59 15.04.2020
4834 Clouds 12 1025 32 10000 3.1 0 12:41 15.04.2020
4835 Clouds 12 1025 34 10000 3.1 280 12:23 15.04.2020
4836 Clouds 12 1025 34 10000 3.1 0 11:58 15.04.2020
4837 Clouds 11 1025 34 10000 3.1 0 11:39 15.04.2020
4838 Clouds 11 1025 34 10000 3.6 310 11:20 15.04.2020
4839 Clouds 10 1026 36 10000 4.1 280 10:39 15.04.2020
4840 Clouds 10 1026 36 10000 4.1 280 10:20 15.04.2020
4841 Clouds 9 1026 42 10000 3.1 290 09:57 15.04.2020
4842 Clouds 8 1026 42 10000 3.1 290 09:39 15.04.2020
4843 Clear 7 1026 45 10000 3.1 250 09:20 15.04.2020
4844 Clear 5 1026 52 10000 3.1 240 08:55 15.04.2020
4845 Clear 4 1026 64 10000 3.6 170 08:37 15.04.2020
4846 Clear 4 1026 64 10000 3.6 170 08:19 15.04.2020
4847 Clear 3 1026 59 10000 2.1 230 07:49 15.04.2020
4848 Clear 2 1025 64 10000 3.1 240 07:30 15.04.2020
4849 Clear 0 1025 59 10000 4.1 280 06:33 15.04.2020
4850 Clear 1 1025 55 10000 4.1 290 05:50 15.04.2020
4851 Clear 1 1025 55 10000 3.1 270 04:49 15.04.2020
4852 Clear 1 1025 55 10000 3.1 270 04:24 15.04.2020
4853 Clear 1 1025 51 10000 3.6 300 03:23 15.04.2020
4854 Clear 2 1025 51 10000 3.6 270 02:52 15.04.2020
4855 Clear 2 1025 51 10000 3.6 310 01:54 15.04.2020
4856 Clear 3 1025 51 10000 3.6 320 01:25 15.04.2020
4857 Clear 4 1025 51 10000 3.1 310 00:52 15.04.2020
4858 Clear 4 1025 48 10000 3.1 320 00:31 15.04.2020
4859 Clear 5 1025 45 10000 5.1 320 23:57 14.04.2020
4860 Clear 5 1025 45 10000 5.1 320 23:39 14.04.2020
4861 Clear 5 1024 45 10000 4.6 320 23:21 14.04.2020
4862 Rain 5 1024 41 10000 4.6 310 22:58 14.04.2020
4863 Clear 5 1024 41 10000 4.6 310 22:39 14.04.2020
4864 Clear 5 1024 41 10000 3.1 320 22:21 14.04.2020
4865 Clear 5 1024 41 10000 3.1 330 21:58 14.04.2020
4866 Clear 5 1024 41 10000 3.1 330 21:40 14.04.2020
4867 Clouds 5 1023 41 10000 4.6 320 21:20 14.04.2020
4868 Clouds 6 1023 38 10000 4.6 330 21:00 14.04.2020
4869 Clouds 6 1023 38 10000 4.6 330 20:40 14.04.2020
4870 Clouds 6 1022 41 10000 4.6 330 20:21 14.04.2020
4871 Clouds 6 1022 36 10000 7.7 330 19:57 14.04.2020
4872 Clouds 7 1022 36 10000 7.2 330 19:38 14.04.2020
4873 Clouds 7 1022 36 10000 7.2 330 19:19 14.04.2020
4874 Rain 8 1021 42 10000 9.3 310 18:41 14.04.2020
4875 Rain 8 1021 42 10000 9.3 310 18:22 14.04.2020
4876 Rain 8 1021 39 10000 8.2 330 17:58 14.04.2020
4877 Rain 8 1021 39 10000 8.2 330 17:58 14.04.2020
4878 Clouds 8 1021 39 10000 8.2 330 17:39 14.04.2020
4879 Clouds 9 1021 34 10000 9.3 310 17:21 14.04.2020
4880 Clouds 9 1021 36 10000 8.2 330 16:58 14.04.2020
4881 Clouds 9 1021 36 10000 8.2 330 16:39 14.04.2020
4882 Clouds 9 1021 45 10000 7.7 320 16:21 14.04.2020
4883 Clouds 9 1021 42 10000 8.7 340 15:57 14.04.2020
4884 Clouds 8 1020 33 10000 8.7 320 15:38 14.04.2020
4885 Clouds 9 1020 33 10000 8.7 320 15:19 14.04.2020
4886 Clouds 9 1020 36 10000 7.7 310 14:57 14.04.2020
4887 Clouds 9 1020 36 10000 7.7 310 14:38 14.04.2020
4888 Clouds 8 1021 42 10000 9.8 340 14:20 14.04.2020
4889 Clouds 8 1020 39 10000 9.3 330 13:43 14.04.2020
4890 Clouds 8 1020 39 10000 8.7 330 13:24 14.04.2020
4891 Clouds 8 1020 41 10000 9.8 330 12:56 14.04.2020
4892 Clouds 7 1020 41 10000 9.8 330 12:38 14.04.2020
4893 Clouds 7 1019 39 10000 8.2 340 12:19 14.04.2020
4894 Clouds 7 1019 39 10000 8.7 320 11:41 14.04.2020
4895 Clouds 7 1019 42 10000 8.2 340 11:22 14.04.2020
4896 Clouds 7 1019 48 10000 7.2 340 10:56 14.04.2020
4897 Clouds 7 1018 45 10000 9.8 340 10:38 14.04.2020
4898 Clouds 7 1018 45 10000 9.8 340 10:20 14.04.2020
4899 Clouds 6 1018 52 10000 9.3 330 09:42 14.04.2020
4900 Clouds 6 1018 60 10000 8.2 340 09:23 14.04.2020
4901 Clouds 5 1019 62 0 6.39 333 08:56 14.04.2020
4902 Clouds 5 1019 62 0 6.39 333 08:37 14.04.2020
4903 Clouds 5 1017 56 10000 6.2 330 08:19 14.04.2020
4904 Clouds 4 1017 56 10000 5.7 330 07:51 14.04.2020
4905 Clouds 4 1016 60 10000 5.1 330 07:26 14.04.2020
4906 Clouds 4 1016 60 10000 6.2 320 06:45 14.04.2020
4907 Clouds 4 1016 56 10000 6.2 320 05:52 14.04.2020
4908 Clouds 4 1017 66 0 5.28 324 03:48 14.04.2020
4909 Rain 5 1016 65 10000 5.1 330 02:40 14.04.2020
4910 Rain 6 1015 65 10000 7.2 330 01:29 14.04.2020
4911 Rain 6 1014 70 10000 6.2 330 00:59 14.04.2020
4912 Rain 7 1013 75 10000 6.2 340 00:32 14.04.2020
4913 Rain 7 1013 75 10000 6.2 340 23:59 13.04.2020
4914 Rain 7 1013 75 10000 6.2 340 23:39 13.04.2020
4915 Rain 8 1013 75 10000 7.2 340 23:20 13.04.2020
4916 Rain 8 1013 76 10000 6.7 350 22:55 13.04.2020
4917 Rain 8 1013 81 10000 7.7 350 22:37 13.04.2020
4918 Rain 9 1013 81 10000 7.7 350 22:18 13.04.2020
4919 Rain 9 1013 87 10000 7.7 330 21:41 13.04.2020
4920 Rain 10 1012 76 10000 8.2 330 21:21 13.04.2020
4921 Rain 11 1011 76 10000 5.7 300 20:59 13.04.2020
4922 Rain 11 1011 81 10000 5.7 310 20:40 13.04.2020
4923 Rain 11 1011 81 10000 5.7 310 20:20 13.04.2020
4924 Rain 12 1011 76 10000 10.8 310 19:58 13.04.2020
4925 Rain 12 1010 82 0 5.1 200 19:37 13.04.2020
4926 Rain 12 1010 82 0 5.1 200 19:19 13.04.2020
4927 Rain 13 1010 82 0 5.1 200 19:19 13.04.2020
4928 Clouds 14 1009 48 10000 7.7 320 18:57 13.04.2020
4929 Clouds 15 1009 48 10000 7.7 320 18:37 13.04.2020
4930 Rain 16 1010 67 0 3.1 300 18:18 13.04.2020
4931 Rain 17 1009 37 10000 4.6 330 17:56 13.04.2020
4932 Clouds 19 1009 37 10000 4.6 330 17:37 13.04.2020
4933 Rain 20 1009 37 10000 5.1 340 17:19 13.04.2020
4934 Rain 20 1009 37 10000 5.1 340 17:19 13.04.2020
4935 Rain 20 1009 34 10000 8.7 330 16:57 13.04.2020
4936 Rain 20 1009 34 10000 8.7 330 16:37 13.04.2020
4937 Clouds 20 1009 37 10000 6.2 340 16:19 13.04.2020
4938 Clouds 21 1009 30 10000 8.7 290 15:46 13.04.2020
4939 Clouds 21 1009 32 10000 8.2 280 15:28 13.04.2020
4940 Clouds 21 1010 32 10000 7.2 270 14:59 13.04.2020
4941 Clouds 21 1010 32 10000 7.7 270 14:40 13.04.2020
4942 Clouds 21 1010 32 10000 7.7 270 14:22 13.04.2020
4943 Clouds 21 1010 33 10000 6.7 270 13:56 13.04.2020
4944 Clouds 21 1010 33 10000 6.7 270 13:38 13.04.2020
4945 Clouds 21 1011 35 10000 6.7 270 13:20 13.04.2020
4946 Clouds 21 1011 35 10000 7.7 280 12:58 13.04.2020
4947 Clouds 21 1011 35 10000 7.7 280 12:40 13.04.2020
4948 Clouds 20 1011 32 10000 9.3 280 12:20 13.04.2020
4949 Clouds 20 1011 37 10000 6.7 280 11:58 13.04.2020
4950 Clouds 20 1011 37 10000 6.7 280 11:39 13.04.2020
4951 Clouds 19 1011 48 10000 1.5 300 11:18 13.04.2020
4952 Clouds 19 1011 51 10000 2.1 60 10:55 13.04.2020
4953 Clouds 19 1011 51 10000 2.1 60 10:36 13.04.2020
4954 Clouds 18 1011 55 10000 1.5 70 10:18 13.04.2020
4955 Clouds 17 1011 51 10000 1 0 09:44 13.04.2020
4956 Clouds 15 1011 62 10000 1 0 09:25 13.04.2020
4957 Clouds 13 1011 76 10000 1.5 190 08:45 13.04.2020
4958 Clouds 13 1011 76 10000 1.5 150 08:27 13.04.2020
4959 Clouds 12 1011 76 10000 1.5 150 08:27 13.04.2020
4960 Clouds 12 1011 71 10000 2.1 140 07:57 13.04.2020
4961 Clouds 11 1011 81 10000 2.1 170 07:38 13.04.2020
4962 Clouds 11 1011 81 10000 2.1 170 07:18 13.04.2020
4963 Clouds 11 1011 81 10000 2.6 150 06:44 13.04.2020
4964 Clouds 10 1011 81 10000 2.6 220 05:53 13.04.2020
4965 Clouds 11 1011 76 10000 1.5 170 05:20 13.04.2020
4966 Clouds 11 1011 71 10000 3.6 230 04:50 13.04.2020
4967 Clouds 11 1011 66 10000 2.1 220 04:20 13.04.2020
4968 Clouds 12 1011 76 10000 4.1 220 03:43 13.04.2020
4969 Clouds 13 1012 58 10000 4.6 230 02:41 13.04.2020
4970 Clouds 13 1012 62 10000 2.6 180 01:48 13.04.2020
4971 Clouds 13 1012 58 10000 0.5 0 01:30 13.04.2020
4972 Clouds 14 1013 55 10000 3.1 120 00:51 13.04.2020
4973 Clouds 14 1013 45 10000 4.1 120 00:30 13.04.2020
4974 Rain 14 1014 55 10000 5.1 200 23:57 12.04.2020
4975 Rain 14 1014 55 10000 5.1 200 23:39 12.04.2020
4976 Clouds 14 1013 54 10000 3.6 180 23:20 12.04.2020
4977 Clouds 14 1013 54 10000 4.6 170 22:55 12.04.2020
4978 Clouds 15 1014 54 10000 3.6 160 22:36 12.04.2020
4979 Clouds 15 1014 54 10000 3.6 160 22:18 12.04.2020
4980 Clouds 16 1014 51 10000 3.6 160 21:38 12.04.2020
4981 Clouds 16 1014 42 10000 2.6 150 21:20 12.04.2020
4982 Clouds 16 1014 42 10000 2.6 140 20:44 12.04.2020
4983 Clouds 17 1014 45 10000 2.6 140 20:44 12.04.2020
4984 Clouds 17 1014 45 10000 2.6 140 20:24 12.04.2020
4985 Clouds 18 1014 39 10000 3.1 140 19:59 12.04.2020
4986 Clouds 20 1015 40 10000 3.6 150 19:41 12.04.2020
4987 Clouds 20 1015 40 10000 3.6 150 19:20 12.04.2020
4988 Clouds 21 1015 37 10000 4.1 150 18:58 12.04.2020
4989 Clouds 22 1015 33 10000 4.1 160 18:39 12.04.2020
4990 Clouds 22 1015 33 10000 3.1 130 18:19 12.04.2020
4991 Clouds 22 1015 33 10000 3.1 130 17:55 12.04.2020
4992 Clouds 22 1016 33 10000 3.6 150 17:37 12.04.2020
4993 Clouds 22 1016 33 10000 3.6 150 17:18 12.04.2020
4994 Clouds 22 1017 30 10000 2.1 0 16:42 12.04.2020
4995 Clouds 22 1017 30 10000 2.1 0 16:22 12.04.2020
4996 Clouds 22 1017 30 10000 1 0 15:55 12.04.2020
4997 Clouds 22 1017 30 10000 1 0 15:37 12.04.2020
4998 Clear 22 1017 33 10000 2.6 230 15:18 12.04.2020
4999 Clear 21 1018 35 10000 2.1 170 14:39 12.04.2020
5000 Clear 21 1018 35 10000 2.1 170 14:21 12.04.2020
5001 Clear 21 1019 37 10000 3.1 130 13:57 12.04.2020
5002 Clear 20 1019 37 10000 3.1 0 13:37 12.04.2020
5003 Clear 20 1019 37 10000 3.1 0 13:18 12.04.2020
5004 Clear 19 1020 36 10000 2.6 140 12:45 12.04.2020
5005 Clear 17 1020 36 10000 3.1 130 12:21 12.04.2020
5006 Clear 17 1020 38 10000 2.6 130 11:58 12.04.2020
5007 Clear 17 1020 38 10000 2.6 130 11:38 12.04.2020
5008 Clear 16 1021 41 10000 3.1 130 11:19 12.04.2020
5009 Clear 16 1021 41 10000 4.1 120 10:56 12.04.2020
5010 Clear 15 1021 41 10000 4.1 120 10:37 12.04.2020
5011 Clear 14 1021 41 10000 4.1 120 10:19 12.04.2020
5012 Clear 13 1021 43 10000 4.1 130 09:56 12.04.2020
5013 Clear 12 1021 43 10000 4.1 130 09:37 12.04.2020
5014 Clear 12 1021 53 10000 1 0 09:19 12.04.2020
5015 Clear 12 1021 53 10000 1 0 09:19 12.04.2020
5016 Clear 10 1022 61 10000 1 0 08:47 12.04.2020
5017 Clear 9 1022 75 10000 1.5 340 08:29 12.04.2020
5018 Clear 7 1021 81 10000 1 330 07:47 12.04.2020
5019 Clear 6 1021 80 10000 1 0 07:19 12.04.2020
5020 Clear 6 1021 58 10000 0.5 0 06:42 12.04.2020
5021 Clear 6 1021 59 10000 1 80 06:22 12.04.2020
5022 Clear 6 1022 59 10000 1.5 160 05:42 12.04.2020
5023 Clear 7 1022 59 10000 2.1 180 04:26 12.04.2020
5024 Clouds 7 1023 53 10000 1 0 03:29 12.04.2020
5025 Clouds 7 1023 53 10000 2.6 180 02:47 12.04.2020
5026 Clouds 8 1023 53 10000 4.1 170 02:27 12.04.2020
5027 Clouds 8 1023 53 10000 1.5 280 01:22 12.04.2020
5028 Clouds 8 1023 53 10000 1.5 280 01:22 12.04.2020
5029 Clouds 9 1023 56 10000 1.5 190 00:43 12.04.2020
5030 Rain 10 1023 46 10000 1 300 00:21 12.04.2020
5031 Clouds 9 1023 46 10000 1.5 250 23:47 11.04.2020
5032 Clouds 9 1023 46 10000 1.5 250 23:47 11.04.2020
5033 Clouds 10 1023 46 10000 1 290 23:26 11.04.2020
5034 Clouds 10 1023 49 10000 2.1 230 22:59 11.04.2020
5035 Clouds 10 1023 49 10000 2.1 230 22:37 11.04.2020
5036 Clouds 11 1023 43 10000 1.5 160 22:18 11.04.2020
5037 Clouds 11 1023 43 10000 1.5 150 21:55 11.04.2020
5038 Clouds 12 1023 43 10000 1.5 150 21:36 11.04.2020
5039 Clouds 12 1023 43 10000 1.5 140 21:18 11.04.2020
5040 Clouds 13 1023 35 10000 2.1 60 20:55 11.04.2020
5041 Clouds 14 1023 33 10000 2.6 50 20:37 11.04.2020
5042 Clouds 14 1023 33 10000 2.6 50 20:19 11.04.2020
5043 Clouds 14 1023 33 10000 2.6 50 20:19 11.04.2020
5044 Rain 15 1023 31 10000 3.1 50 19:56 11.04.2020
5045 Rain 16 1023 31 10000 3.1 50 19:37 11.04.2020
5046 Rain 17 1023 51 10000 4.1 40 19:18 11.04.2020
5047 Clouds 18 1023 33 10000 4.1 30 18:55 11.04.2020
5048 Clear 18 1023 31 10000 4.1 10 18:37 11.04.2020
5049 Clear 19 1023 31 10000 4.1 10 18:18 11.04.2020
5050 Clear 19 1023 32 10000 4.6 360 17:57 11.04.2020
5051 Clear 19 1023 32 10000 4.6 360 17:57 11.04.2020
5052 Clear 19 1023 34 10000 6.2 10 17:37 11.04.2020
5053 Clear 19 1023 34 10000 6.2 10 17:37 11.04.2020
5054 Clear 19 1023 34 10000 6.2 10 17:19 11.04.2020
5055 Clear 19 1023 34 10000 4.1 350 16:42 11.04.2020
5056 Clear 19 1023 34 10000 5.1 350 16:21 11.04.2020
5057 Clear 19 1023 32 10000 4.6 10 15:41 11.04.2020
5058 Clouds 19 1024 34 10000 5.7 10 15:21 11.04.2020
5059 Clouds 19 1024 34 10000 3.1 350 14:59 11.04.2020
5060 Clouds 19 1024 34 10000 2.6 0 14:40 11.04.2020
5061 Clouds 18 1024 34 10000 2.6 0 14:22 11.04.2020
5062 Clouds 18 1024 33 10000 2.1 360 13:43 11.04.2020
5063 Clouds 18 1025 33 10000 2.6 310 13:25 11.04.2020
5064 Clouds 18 1025 36 10000 3.1 360 12:59 11.04.2020
5065 Clouds 17 1025 44 10000 3.6 20 12:38 11.04.2020
5066 Clouds 17 1025 44 10000 3.6 20 12:18 11.04.2020
5067 Clouds 16 1025 38 10000 3.1 10 11:43 11.04.2020
5068 Clouds 15 1025 38 10000 3.1 10 11:22 11.04.2020
5069 Clouds 15 1025 44 10000 2.1 0 10:57 11.04.2020
5070 Clouds 15 1025 44 10000 2.1 0 10:39 11.04.2020
5071 Clouds 14 1025 44 10000 2.6 10 10:21 11.04.2020
5072 Clouds 14 1025 44 10000 2.6 340 09:57 11.04.2020
5073 Clouds 13 1025 48 10000 2.6 340 09:38 11.04.2020
5074 Clouds 12 1024 60 10000 2.6 10 09:20 11.04.2020
5075 Clouds 11 1024 53 10000 1.5 350 08:43 11.04.2020
5076 Clouds 10 1024 57 10000 1.5 330 08:25 11.04.2020
5077 Clouds 9 1024 70 10000 1 340 07:49 11.04.2020
5078 Clouds 8 1024 75 10000 1 60 07:28 11.04.2020
5079 Clouds 8 1023 75 10000 1 20 06:47 11.04.2020
5080 Clouds 8 1023 70 10000 0.5 0 05:59 11.04.2020
5081 Clouds 9 1023 70 10000 0.5 0 04:35 11.04.2020
5082 Clouds 9 1023 70 10000 1 60 03:40 11.04.2020
5083 Clouds 10 1023 65 10000 2.1 180 01:53 11.04.2020
5084 Clouds 9 1023 70 10000 2.6 170 01:20 11.04.2020
5085 Clouds 10 1023 50 10000 1.5 280 00:44 11.04.2020
5086 Clouds 10 1023 53 10000 1 0 00:19 11.04.2020
5087 Clouds 10 1023 53 10000 1.5 270 23:57 10.04.2020
5088 Clouds 11 1023 50 10000 1.5 250 23:38 10.04.2020
5089 Clouds 11 1023 50 10000 1.5 250 23:18 10.04.2020
5090 Clouds 11 1023 50 10000 1.5 250 23:18 10.04.2020
5091 Clouds 12 1022 53 10000 2.1 180 22:43 10.04.2020
5092 Clouds 12 1022 50 10000 1 0 22:22 10.04.2020
5093 Clouds 13 1022 50 10000 2.1 30 21:58 10.04.2020
5094 Clouds 13 1022 50 10000 2.1 30 21:40 10.04.2020
5095 Clouds 14 1022 44 10000 2.1 40 21:20 10.04.2020
5096 Clouds 14 1021 44 10000 3.1 50 20:43 10.04.2020
5097 Clouds 15 1021 41 10000 3.1 20 20:24 10.04.2020
5098 Clouds 16 1021 39 10000 4.6 10 19:59 10.04.2020
5099 Clouds 17 1021 39 10000 4.6 10 19:41 10.04.2020
5100 Clouds 18 1021 39 10000 4.6 10 19:21 10.04.2020
5101 Clouds 18 1021 39 10000 4.6 10 19:21 10.04.2020
5102 Clouds 18 1021 34 10000 4.1 10 18:58 10.04.2020
5103 Clouds 19 1021 34 10000 4.1 10 18:40 10.04.2020
5104 Clouds 19 1021 37 10000 5.1 360 18:21 10.04.2020
5105 Clouds 19 1021 32 10000 5.1 340 17:58 10.04.2020
5106 Clouds 20 1021 32 10000 5.1 340 17:40 10.04.2020
5107 Clouds 20 1022 34 10000 5.7 360 17:21 10.04.2020
5108 Clouds 20 1022 34 10000 4.1 330 16:57 10.04.2020
5109 Clouds 20 1022 34 10000 5.7 330 16:38 10.04.2020
5110 Clouds 20 1022 34 10000 5.7 330 16:20 10.04.2020
5111 Clouds 20 1023 34 10000 5.7 340 15:56 10.04.2020
5112 Clouds 20 1023 34 10000 5.7 340 15:56 10.04.2020
5113 Clouds 20 1023 37 10000 6.2 350 15:37 10.04.2020
5114 Clouds 20 1023 37 10000 6.2 350 15:19 10.04.2020
5115 Clouds 19 1023 42 10000 4.6 350 14:57 10.04.2020
5116 Clouds 19 1023 42 10000 4.6 350 14:38 10.04.2020
5117 Clouds 19 1024 37 10000 4.1 350 14:19 10.04.2020
5118 Clouds 19 1024 36 10000 5.7 350 13:43 10.04.2020
5119 Clouds 18 1024 36 10000 4.6 350 13:22 10.04.2020
5120 Clouds 18 1025 39 10000 5.1 350 12:44 10.04.2020
5121 Clouds 18 1025 42 10000 5.1 330 12:24 10.04.2020
5122 Clouds 17 1025 41 10000 5.1 360 11:58 10.04.2020
5123 Clouds 17 1025 44 10000 3.1 350 11:40 10.04.2020
5124 Clouds 17 1025 44 10000 3.1 350 11:22 10.04.2020
5125 Clouds 16 1025 44 10000 4.1 360 10:56 10.04.2020
5126 Clouds 16 1025 51 10000 4.6 10 10:37 10.04.2020
5127 Clouds 16 1025 51 10000 4.6 10 10:18 10.04.2020
5128 Clouds 14 1025 54 10000 4.6 350 09:42 10.04.2020
5129 Clouds 14 1025 54 10000 4.6 350 09:20 10.04.2020
5130 Clouds 13 1025 54 10000 4.6 350 08:47 10.04.2020
5131 Clouds 12 1025 58 10000 4.6 350 08:26 10.04.2020
5132 Clouds 10 1025 58 10000 4.6 340 07:49 10.04.2020
5133 Clouds 10 1024 62 10000 4.6 340 07:28 10.04.2020
5134 Clouds 10 1024 62 10000 4.6 320 06:59 10.04.2020
5135 Clear 10 1024 62 10000 5.1 320 06:30 10.04.2020
5136 Clear 10 1024 62 10000 5.1 320 06:30 10.04.2020
5137 Clear 10 1024 62 10000 5.1 320 06:30 10.04.2020
5138 Clear 10 1023 62 10000 4.6 310 05:56 10.04.2020
5139 Clear 10 1023 58 10000 5.1 320 05:22 10.04.2020
5140 Clear 10 1023 58 10000 4.6 320 04:42 10.04.2020
5141 Clear 11 1022 47 10000 2.6 330 03:32 10.04.2020
5142 Clouds 11 1022 43 10000 3.1 320 02:50 10.04.2020
5143 Clouds 11 1022 61 10000 2.1 320 02:31 10.04.2020
5144 Clouds 11 1022 61 10000 3.1 280 01:30 10.04.2020
5145 Clouds 11 1022 61 10000 2.6 270 00:55 10.04.2020
5146 Clouds 12 1022 47 0 2.34 317 00:37 10.04.2020
5147 Clouds 12 1022 47 0 2.34 317 00:18 10.04.2020
5148 Clouds 13 1022 49 10000 3.1 320 23:41 09.04.2020
5149 Clouds 13 1022 49 10000 3.1 300 23:22 09.04.2020
5150 Clouds 14 1021 49 10000 3.1 320 22:56 09.04.2020
5151 Clouds 14 1021 49 10000 3.1 320 22:38 09.04.2020
5152 Clouds 15 1021 49 10000 3.6 320 22:19 09.04.2020
5153 Clouds 16 1021 49 10000 3.6 320 21:38 09.04.2020
5154 Clouds 16 1021 33 10000 4.1 330 21:19 09.04.2020
5155 Clouds 17 1020 25 10000 1.5 260 20:47 09.04.2020
5156 Clouds 18 1020 31 10000 1.5 240 20:22 09.04.2020
5157 Clouds 19 1019 48 10000 1 60 19:59 09.04.2020
5158 Clouds 20 1019 28 10000 2.1 20 19:38 09.04.2020
5159 Clouds 21 1019 28 10000 2.1 20 19:20 09.04.2020
5160 Clouds 22 1019 24 10000 2.6 360 18:42 09.04.2020
5161 Clear 22 1020 20 10000 3.6 340 18:21 09.04.2020
5162 Clear 23 1020 18 10000 4.1 350 17:57 09.04.2020
5163 Clear 23 1020 18 10000 4.1 350 17:38 09.04.2020
5164 Clear 23 1020 18 10000 2.6 0 17:18 09.04.2020
5165 Clear 23 1020 18 10000 5.1 340 16:39 09.04.2020
5166 Clear 23 1020 18 10000 5.1 340 16:20 09.04.2020
5167 Clear 23 1021 17 10000 5.1 350 15:56 09.04.2020
5168 Clear 23 1021 17 10000 5.1 350 15:56 09.04.2020
5169 Clear 22 1021 18 10000 4.1 340 15:37 09.04.2020
5170 Clear 22 1021 18 10000 4.1 340 15:19 09.04.2020
5171 Clear 23 1021 17 10000 4.6 20 14:42 09.04.2020
5172 Clear 22 1022 21 10000 4.1 360 14:21 09.04.2020
5173 Clear 22 1022 30 10000 1.5 0 13:58 09.04.2020
5174 Clear 21 1022 30 10000 1.5 0 13:40 09.04.2020
5175 Clear 21 1022 30 10000 2.6 360 13:21 09.04.2020
5176 Clear 20 1022 31 10000 1.5 120 12:54 09.04.2020
5177 Clear 20 1022 31 10000 1.5 120 12:36 09.04.2020
5178 Clear 18 1023 37 10000 1 0 12:18 09.04.2020
5179 Clear 17 1023 37 10000 1 0 11:42 09.04.2020
5180 Clear 16 1023 35 10000 1.5 60 11:20 09.04.2020
5181 Clear 16 1023 35 10000 2.1 30 10:58 09.04.2020
5182 Clear 15 1023 37 10000 1 0 10:40 09.04.2020
5183 Clear 15 1023 37 10000 1 0 10:21 09.04.2020
5184 Clear 13 1023 43 10000 1.5 80 09:56 09.04.2020
5185 Clear 11 1023 46 10000 1 0 09:38 09.04.2020
5186 Clear 10 1023 46 10000 1 0 09:20 09.04.2020
5187 Clear 9 1023 49 10000 0.5 0 08:44 09.04.2020
5188 Clear 8 1022 60 10000 1 150 08:23 09.04.2020
5189 Clear 6 1022 64 10000 1.5 160 07:56 09.04.2020
5190 Clear 5 1022 59 0 1 250 07:27 09.04.2020
5191 Clear 5 1022 55 10000 1.5 240 06:56 09.04.2020
5192 Clear 5 1022 55 10000 1 0 06:25 09.04.2020
5193 Clear 5 1022 48 10000 1 190 05:43 09.04.2020
5194 Clear 6 1022 48 10000 1.5 310 04:26 09.04.2020
5195 Clear 8 1023 34 10000 3.1 170 02:32 09.04.2020
5196 Clear 8 1023 37 10000 2.6 170 01:42 09.04.2020
5197 Clear 9 1023 39 10000 2.1 170 01:24 09.04.2020
5198 Clear 10 1024 37 10000 4.1 150 00:43 09.04.2020
5199 Clear 10 1024 37 10000 4.1 150 00:20 09.04.2020
5200 Clear 10 1024 37 10000 4.6 170 23:59 08.04.2020
5201 Clear 11 1024 37 10000 4.6 170 23:41 08.04.2020
5202 Clear 11 1024 42 10000 4.6 170 23:21 08.04.2020
5203 Clear 11 1024 39 10000 4.6 160 22:44 08.04.2020
5204 Clear 12 1024 39 10000 4.6 160 22:24 08.04.2020
5205 Clear 12 1025 37 10000 4.1 150 21:57 08.04.2020
5206 Clear 13 1025 32 10000 4.1 150 21:38 08.04.2020
5207 Clear 13 1025 32 10000 4.1 150 21:19 08.04.2020
5208 Clear 14 1024 26 10000 4.1 140 20:58 08.04.2020
5209 Clear 14 1024 26 10000 4.1 140 20:38 08.04.2020
5210 Clear 15 1024 26 10000 4.1 140 20:20 08.04.2020
5211 Clear 16 1024 21 10000 4.6 140 19:55 08.04.2020
5212 Clear 17 1024 21 10000 4.6 140 19:36 08.04.2020
5213 Clear 18 1024 20 10000 6.2 140 19:18 08.04.2020
5214 Clear 18 1024 20 10000 6.2 140 19:18 08.04.2020
5215 Clear 18 1025 19 10000 7.7 140 18:41 08.04.2020
5216 Clear 19 1025 19 10000 8.2 140 18:23 08.04.2020
5217 Clear 20 1025 19 10000 8.2 140 17:54 08.04.2020
5218 Clear 20 1025 18 10000 7.7 140 17:36 08.04.2020
5219 Clear 20 1025 18 10000 7.7 140 17:18 08.04.2020
5220 Clear 21 1026 19 10000 8.2 140 16:42 08.04.2020
5221 Clear 21 1026 19 10000 8.2 140 16:23 08.04.2020
5222 Clear 20 1026 18 10000 8.2 130 15:55 08.04.2020
5223 Clear 20 1026 18 10000 8.2 130 15:37 08.04.2020
5224 Clear 21 1027 15 10000 7.7 160 15:18 08.04.2020
5225 Clear 21 1027 15 10000 7.7 160 14:42 08.04.2020
5226 Clear 20 1027 15 10000 7.7 170 14:24 08.04.2020
5227 Clear 20 1028 15 10000 7.7 160 13:45 08.04.2020
5228 Clear 19 1028 15 10000 8.2 170 13:23 08.04.2020
5229 Clear 19 1028 17 10000 7.2 140 13:00 08.04.2020
5230 Clear 19 1028 17 10000 7.2 140 12:41 08.04.2020
5231 Clear 17 1029 20 10000 8.2 140 12:18 08.04.2020
5232 Clear 17 1029 20 10000 8.2 140 11:55 08.04.2020
5233 Clear 17 1029 21 10000 8.2 130 11:37 08.04.2020
5234 Clear 16 1029 21 10000 8.2 130 11:19 08.04.2020
5235 Clear 15 1029 22 10000 6.7 130 10:55 08.04.2020
5236 Clear 15 1030 26 10000 6.7 120 10:37 08.04.2020
5237 Clear 14 1030 26 10000 6.7 120 10:18 08.04.2020
5238 Clear 12 1030 28 10000 6.7 140 09:42 08.04.2020
5239 Clear 10 1030 27 10000 5.1 130 09:20 08.04.2020
5240 Clear 9 1030 36 10000 4.6 110 08:59 08.04.2020
5241 Clear 8 1030 36 10000 4.6 110 08:59 08.04.2020
5242 Clear 8 1030 36 10000 4.6 110 08:40 08.04.2020
5243 Clear 6 1030 39 10000 5.7 120 08:21 08.04.2020
5244 Clear 5 1030 42 10000 3.6 140 07:43 08.04.2020
5245 Clear 5 1030 42 10000 3.6 140 07:43 08.04.2020
5246 Clear 4 1030 48 10000 2.6 150 07:22 08.04.2020
5247 Clear 3 1030 44 10000 1.5 130 06:43 08.04.2020
5248 Clear 3 1030 51 10000 4.6 160 05:49 08.04.2020
5249 Clear 6 1030 36 10000 4.1 150 03:22 08.04.2020
5250 Clear 6 1030 39 10000 5.1 150 02:38 08.04.2020
5251 Clear 6 1030 36 10000 2.6 150 02:18 08.04.2020
5252 Clear 7 1030 29 10000 4.1 120 01:30 08.04.2020
5253 Clear 8 1031 52 10000 1.5 340 00:52 08.04.2020
5254 Clear 8 1030 31 10000 4.6 140 00:33 08.04.2020
5255 Clear 9 1031 34 10000 4.6 150 23:58 07.04.2020
5256 Clear 10 1031 31 10000 4.6 140 23:38 07.04.2020
5257 Clear 10 1031 31 10000 4.6 140 23:20 07.04.2020
5258 Clear 10 1031 24 10000 5.1 140 22:56 07.04.2020
5259 Clear 10 1031 24 10000 5.1 140 22:38 07.04.2020
5260 Clear 11 1031 25 10000 4.6 140 22:19 07.04.2020
5261 Clear 11 1031 24 10000 4.6 140 21:54 07.04.2020
5262 Clear 12 1030 24 10000 4.6 140 21:36 07.04.2020
5263 Clear 12 1030 24 10000 4.6 140 21:18 07.04.2020
5264 Clear 13 1030 22 10000 4.6 140 20:41 07.04.2020
5265 Clear 14 1030 22 10000 4.6 140 20:21 07.04.2020
5266 Clear 15 1030 22 10000 5.1 140 19:59 07.04.2020
5267 Clear 16 1030 21 10000 5.1 140 19:38 07.04.2020
5268 Clear 16 1030 21 10000 5.1 140 19:38 07.04.2020
5269 Clear 17 1030 21 10000 5.1 140 19:20 07.04.2020
5270 Clear 17 1030 20 10000 6.7 140 18:59 07.04.2020
5271 Clear 18 1030 20 10000 7.2 150 18:41 07.04.2020
5272 Clear 19 1030 18 10000 8.7 150 18:21 07.04.2020
5273 Clear 19 1030 18 10000 8.7 150 17:56 07.04.2020
5274 Clear 19 1030 17 10000 8.2 150 17:37 07.04.2020
5275 Clear 20 1030 19 10000 7.7 150 17:19 07.04.2020
5276 Clear 19 1030 19 10000 7.7 150 16:44 07.04.2020
5277 Clear 19 1031 17 10000 7.2 140 16:26 07.04.2020
5278 Clear 19 1031 17 10000 8.2 140 15:46 07.04.2020
5279 Clear 19 1031 17 10000 8.2 140 15:26 07.04.2020
5280 Clear 19 1031 20 10000 7.7 140 14:56 07.04.2020
5281 Clear 19 1031 20 10000 7.7 140 14:38 07.04.2020
5282 Clear 18 1032 23 10000 9.3 130 14:19 07.04.2020
5283 Clear 18 1031 18 0 6.2 110 13:42 07.04.2020
5284 Clear 18 1032 23 10000 8.7 140 13:19 07.04.2020
5285 Clear 17 1032 23 10000 8.2 140 12:58 07.04.2020
5286 Clear 17 1032 26 10000 8.2 140 12:39 07.04.2020
5287 Clear 16 1032 26 10000 8.2 140 12:21 07.04.2020
5288 Clear 16 1032 26 10000 8.2 140 11:58 07.04.2020
5289 Clear 16 1032 26 10000 8.2 140 11:40 07.04.2020
5290 Clear 15 1033 28 10000 8.2 140 11:19 07.04.2020
5291 Clear 14 1032 28 10000 8.2 140 10:39 07.04.2020
5292 Clear 14 1032 30 10000 7.2 140 10:21 07.04.2020
5293 Clear 13 1032 32 10000 7.2 140 09:56 07.04.2020
5294 Clear 12 1032 32 10000 6.7 140 09:38 07.04.2020
5295 Clear 10 1032 32 10000 6.7 140 09:18 07.04.2020
5296 Clear 9 1032 34 10000 6.2 140 08:40 07.04.2020
5297 Clear 9 1032 36 10000 5.7 140 08:22 07.04.2020
5298 Clear 7 1032 55 10000 4.1 150 07:55 07.04.2020
5299 Clear 6 1032 59 10000 4.1 170 07:37 07.04.2020
5300 Clear 6 1032 59 10000 4.1 170 07:18 07.04.2020
5301 Clear 6 1031 52 10000 4.1 160 06:39 07.04.2020
5302 Clear 6 1031 52 10000 4.1 160 06:18 07.04.2020
5303 Clear 6 1031 48 10000 4.6 170 05:26 07.04.2020
5304 Clear 8 1030 39 10000 7.2 140 04:31 07.04.2020
5305 Clear 8 1030 45 10000 4.6 180 03:23 07.04.2020
5306 Clear 8 1030 42 10000 4.1 190 02:47 07.04.2020
5307 Clear 9 1030 39 10000 4.1 160 01:43 07.04.2020
5308 Clear 9 1030 39 10000 5.7 160 01:22 07.04.2020
5309 Clear 10 1030 39 10000 5.1 150 00:26 07.04.2020
5310 Clear 11 1030 34 10000 5.7 140 23:44 06.04.2020
5311 Clear 11 1030 34 10000 5.7 140 23:23 06.04.2020
5312 Clear 11 1030 34 10000 5.7 150 22:56 06.04.2020
5313 Clear 12 1030 34 10000 5.7 150 22:37 06.04.2020
5314 Clear 12 1030 34 10000 5.1 140 22:19 06.04.2020
5315 Clear 12 1030 34 10000 5.1 140 21:56 06.04.2020
5316 Clear 13 1029 32 10000 5.7 140 21:37 06.04.2020
5317 Clear 13 1029 32 10000 5.7 140 21:18 06.04.2020
5318 Clear 13 1029 30 10000 5.1 140 20:42 06.04.2020
5319 Clear 14 1029 28 10000 6.2 140 20:23 06.04.2020
5320 Clear 15 1028 28 10000 6.7 140 19:58 06.04.2020
5321 Clear 15 1028 28 10000 6.7 140 19:39 06.04.2020
5322 Clear 16 1028 26 10000 6.7 150 19:20 06.04.2020
5323 Clear 17 1028 25 10000 8.7 140 18:55 06.04.2020
5324 Clear 17 1028 23 10000 9.3 150 18:36 06.04.2020
5325 Clear 17 1028 23 10000 9.3 150 18:18 06.04.2020
5326 Clear 18 1028 22 10000 9.8 150 17:41 06.04.2020
5327 Clear 18 1028 23 10000 10.8 160 17:19 06.04.2020
5328 Clear 19 1028 23 10000 11.3 160 16:50 06.04.2020
5329 Clear 19 1029 24 10000 10.8 140 16:31 06.04.2020
5330 Clear 19 1029 24 10000 11.3 150 15:40 06.04.2020
5331 Clear 19 1029 24 10000 11.3 150 15:40 06.04.2020
5332 Clear 19 1029 36 10000 9.3 150 13:46 06.04.2020
5333 Clear 18 1029 31 10000 8.7 150 13:24 06.04.2020
5334 Clear 18 1029 33 10000 9.8 150 12:56 06.04.2020
5335 Clear 18 1029 33 10000 9.8 150 12:56 06.04.2020
5336 Clear 18 1029 33 10000 9.8 150 12:56 06.04.2020
5337 Clear 18 1029 33 10000 9.8 150 12:56 06.04.2020
5338 Clear 17 1029 51 10000 9.3 140 12:21 06.04.2020
5339 Clear 16 1028 51 0 5.1 0 11:54 06.04.2020
5340 Clear 15 1029 51 10000 7.7 140 11:32 06.04.2020
5341 Clear 15 1029 51 10000 7.7 140 11:31 06.04.2020
5342 Clear 15 1029 51 10000 8.7 140 11:31 06.04.2020
5343 Clear 15 1029 51 10000 8.7 140 11:31 06.04.2020
5344 Clear 15 1029 51 10000 7.7 140 11:31 06.04.2020
5345 Clear 14 1029 37 10000 7.2 130 10:50 06.04.2020
5346 Clear 14 1029 37 10000 7.2 130 10:50 06.04.2020
5347 Clear 14 1029 37 10000 7.2 130 10:50 06.04.2020
5348 Clear 14 1029 37 10000 7.2 130 10:50 06.04.2020
5349 Clear 14 1029 37 10000 7.2 130 10:50 06.04.2020
5350 Clear 13 1029 40 10000 6.2 140 10:21 06.04.2020
5351 Clear 12 1029 40 10000 5.7 130 09:47 06.04.2020
5352 Clear 12 1029 40 10000 5.7 130 09:47 06.04.2020
5353 Clear 12 1029 40 10000 5.7 130 09:47 06.04.2020
5354 Clear 12 1029 40 10000 5.7 130 09:47 06.04.2020
5355 Clear 10 1029 43 10000 5.7 120 09:20 06.04.2020
5356 Clear 9 1029 45 10000 4.6 120 08:54 06.04.2020
5357 Clear 8 1028 49 10000 2.6 110 08:30 06.04.2020
5358 Clear 7 1028 48 10000 3.1 110 07:30 06.04.2020
5359 Clear 7 1028 48 10000 3.1 110 07:30 06.04.2020
5360 Clear 7 1028 48 10000 3.1 110 07:30 06.04.2020
5361 Clear 5 1028 60 10000 2.1 140 06:41 06.04.2020
5362 Clear 5 1028 49 10000 4.6 120 06:22 06.04.2020
5363 Clear 6 1028 64 10000 2.1 130 04:19 06.04.2020
5364 Clear 6 1028 56 10000 4.1 170 02:57 06.04.2020
5365 Clear 6 1028 64 10000 4.1 170 02:25 06.04.2020
5366 Clear 7 1027 52 10000 2.6 170 01:23 06.04.2020
5367 Clear 7 1027 56 10000 3.6 180 00:41 06.04.2020
5368 Clear 7 1027 56 10000 3.6 180 00:41 06.04.2020
5369 Clear 7 1027 52 10000 3.1 170 00:21 06.04.2020
5370 Clear 8 1027 45 10000 2.1 170 23:43 05.04.2020
5371 Clear 8 1027 52 10000 2.6 170 23:25 05.04.2020
5372 Clear 8 1027 52 10000 2.6 170 23:25 05.04.2020
5373 Clear 8 1027 45 10000 2.1 170 23:25 05.04.2020
5374 Clear 8 1027 52 10000 2.6 170 22:55 05.04.2020
5375 Clear 8 1027 52 10000 2.6 170 22:55 05.04.2020
5376 Clear 8 1027 42 10000 1.5 160 22:37 05.04.2020
5377 Clear 8 1027 43 10000 1.5 110 22:18 05.04.2020
5378 Clear 9 1027 37 10000 1.5 100 21:46 05.04.2020
5379 Clear 10 1027 37 10000 2.1 100 21:24 05.04.2020
5380 Clear 10 1027 37 10000 2.1 100 21:24 05.04.2020
5381 Clear 10 1027 37 10000 2.1 100 21:24 05.04.2020
5382 Clear 11 1027 34 10000 1 100 20:27 05.04.2020
5383 Clear 12 1027 35 10000 1 110 20:00 05.04.2020
5384 Clear 13 1027 33 10000 2.6 100 19:37 05.04.2020
5385 Clear 14 1027 28 10000 3.6 110 19:19 05.04.2020
5386 Clear 15 1027 26 10000 3.6 120 18:44 05.04.2020
5387 Clear 15 1027 26 10000 3.6 120 18:44 05.04.2020
5388 Clear 15 1027 26 10000 3.6 120 18:44 05.04.2020
5389 Clear 15 1027 26 10000 3.6 120 18:44 05.04.2020
5390 Clear 15 1027 26 10000 3.6 120 18:44 05.04.2020
5391 Clear 16 1027 25 10000 3.6 130 17:52 05.04.2020
5392 Clear 16 1027 25 10000 3.6 130 17:52 05.04.2020
5393 Clear 16 1027 25 10000 3.6 130 17:52 05.04.2020
5394 Clear 16 1027 25 10000 3.6 130 17:52 05.04.2020
5395 Clear 16 1027 25 10000 3.6 130 17:52 05.04.2020
5396 Clear 16 1027 25 10000 3.6 110 17:24 05.04.2020
5397 Clear 17 1027 27 10000 3.6 120 16:47 05.04.2020
5398 Clear 17 1027 26 10000 4.6 130 16:20 05.04.2020
5399 Clear 17 1028 29 10000 4.6 140 15:51 05.04.2020
5400 Clear 17 1028 29 10000 4.6 140 15:32 05.04.2020
5401 Clear 16 1028 29 10000 3.1 110 14:49 05.04.2020
5402 Clear 16 1028 29 10000 3.1 110 14:49 05.04.2020
5403 Clear 16 1028 28 10000 3.1 100 14:24 05.04.2020
5404 Clear 15 1029 30 10000 3.6 120 13:43 05.04.2020
5405 Clear 14 1029 33 10000 3.6 130 12:48 05.04.2020
5406 Clear 12 1030 32 10000 2.6 110 11:41 05.04.2020
5407 Clear 12 1030 34 10000 3.6 120 11:20 05.04.2020
5408 Clear 12 1030 34 10000 3.6 120 11:20 05.04.2020
5409 Clear 11 1030 43 10000 2.1 100 10:48 05.04.2020
5410 Clear 10 1030 45 10000 1 0 10:24 05.04.2020
5411 Clear 10 1030 45 10000 1 0 10:24 05.04.2020
5412 Clear 9 1030 52 10000 1 0 09:57 05.04.2020
5413 Clear 7 1030 52 10000 1 0 09:31 05.04.2020
5414 Clear 6 1030 52 10000 1 0 09:01 05.04.2020
5415 Clear 6 1030 60 10000 0.5 0 08:59 05.04.2020
5416 Clear 6 1030 52 10000 1 0 08:58 05.04.2020
5417 Clear 2 1029 62 10000 1 320 07:25 05.04.2020
5418 Clear 2 1028 69 10000 1 0 04:35 05.04.2020
5419 Clear 3 1028 56 10000 1.5 330 03:30 05.04.2020
5420 Clear 3 1027 56 10000 3.6 310 02:49 05.04.2020
5421 Clear 4 1027 48 10000 2.6 330 01:46 05.04.2020
5422 Clear 4 1027 48 10000 2.1 330 01:25 05.04.2020
5423 Clear 5 1027 48 10000 2.6 340 00:43 05.04.2020
5424 Rain 5 1027 48 10000 2.1 340 00:21 05.04.2020
5425 Clear 6 1027 56 10000 1 0 23:43 04.04.2020
5426 Clear 6 1027 52 10000 3.6 330 23:23 04.04.2020
5427 Clear 6 1027 52 10000 3.6 330 22:59 04.04.2020
5428 Clear 7 1027 49 10000 3.1 340 22:40 04.04.2020
5429 Clear 7 1026 45 10000 2.6 350 22:21 04.04.2020
5430 Clear 7 1026 49 10000 2.6 350 21:58 04.04.2020
5431 Clear 7 1026 49 10000 2.6 350 21:39 04.04.2020
5432 Clouds 8 1026 45 10000 2.6 350 21:19 04.04.2020
5433 Clouds 9 1026 46 10000 2.6 350 20:58 04.04.2020
5434 Clouds 9 1026 46 10000 2.6 350 20:39 04.04.2020
5435 Clouds 9 1025 46 10000 2.6 10 20:20 04.04.2020
5436 Clouds 10 1025 46 10000 2.6 10 19:57 04.04.2020
5437 Clouds 11 1025 43 10000 3.1 10 19:37 04.04.2020
5438 Rain 12 1024 40 10000 3.6 20 19:19 04.04.2020
5439 Rain 12 1024 35 10000 4.6 10 18:55 04.04.2020
5440 Rain 13 1024 35 10000 4.6 10 18:37 04.04.2020
5441 Clouds 13 1024 33 10000 5.1 20 18:18 04.04.2020
5442 Clouds 14 1024 35 10000 5.1 30 17:41 04.04.2020
5443 Clouds 14 1024 35 10000 5.1 20 17:20 04.04.2020
5444 Clouds 14 1024 35 10000 5.1 20 16:56 04.04.2020
5445 Clouds 14 1024 35 10000 5.1 20 16:38 04.04.2020
5446 Clouds 14 1024 35 10000 5.1 20 16:19 04.04.2020
5447 Clouds 14 1024 45 10000 3.1 50 15:41 04.04.2020
5448 Clouds 14 1024 33 10000 3.1 330 15:23 04.04.2020
5449 Clouds 14 1024 35 10000 4.1 330 14:59 04.04.2020
5450 Clouds 14 1024 35 10000 4.1 330 14:40 04.04.2020
5451 Clouds 14 1024 35 10000 2.1 340 14:22 04.04.2020
5452 Clouds 14 1024 45 10000 3.1 360 13:55 04.04.2020
5453 Clouds 14 1024 45 10000 3.1 360 13:37 04.04.2020
5454 Clouds 14 1024 37 10000 2.1 50 13:19 04.04.2020
5455 Clouds 13 1024 37 10000 2.1 0 12:44 04.04.2020
5456 Clouds 13 1025 37 10000 1 0 12:24 04.04.2020
5457 Clouds 13 1025 37 10000 1 0 11:59 04.04.2020
5458 Clouds 13 1024 50 0 2.28 8 11:38 04.04.2020
5459 Clouds 12 1024 43 10000 1.5 80 11:19 04.04.2020
5460 Clouds 12 1024 53 10000 2.1 40 10:56 04.04.2020
5461 Clouds 12 1024 53 10000 2.1 40 10:37 04.04.2020
5462 Clouds 11 1024 57 10000 2.1 30 10:18 04.04.2020
5463 Clouds 10 1024 61 10000 2.1 10 09:54 04.04.2020
5464 Clouds 10 1024 61 10000 2.1 10 09:36 04.04.2020
5465 Clouds 7 1023 65 10000 1 0 09:18 04.04.2020
5466 Clouds 7 1023 75 10000 0.5 0 08:41 04.04.2020
5467 Clouds 6 1023 80 10000 0.5 0 08:20 04.04.2020
5468 Clouds 5 1022 73 0 1 220 07:44 04.04.2020
5469 Clouds 4 1022 80 10000 0.5 0 07:26 04.04.2020
5470 Clouds 4 1022 80 10000 0.5 0 06:53 04.04.2020
5471 Clouds 4 1021 74 10000 2.1 160 06:20 04.04.2020
5472 Clouds 4 1021 80 10000 2.1 170 05:43 04.04.2020
5473 Clouds 5 1021 80 10000 1.5 180 05:24 04.04.2020
5474 Clouds 5 1021 80 10000 1 140 04:31 04.04.2020
5475 Clouds 5 1021 80 10000 1 0 03:51 04.04.2020
5476 Clouds 6 1020 76 10000 1.5 310 02:52 04.04.2020
5477 Clouds 6 1020 76 10000 1.5 310 02:33 04.04.2020
5478 Clouds 6 1020 76 10000 1 300 01:57 04.04.2020
5479 Clouds 6 1020 60 10000 1.5 330 01:25 04.04.2020
5480 Clouds 7 1019 76 10000 1 340 00:50 04.04.2020
5481 Clouds 7 1019 76 10000 1 340 00:30 04.04.2020
5482 Clouds 7 1019 67 10000 2.6 340 23:40 03.04.2020
5483 Clouds 7 1018 67 10000 2.6 350 23:21 03.04.2020
5484 Clouds 7 1018 67 10000 2.1 340 22:59 03.04.2020
5485 Clouds 8 1018 67 10000 2.1 340 22:39 03.04.2020
5486 Clouds 8 1018 67 10000 2.1 340 22:39 03.04.2020
5487 Clouds 8 1018 67 10000 1.5 340 22:19 03.04.2020
5488 Rain 8 1018 67 10000 2.1 20 21:45 03.04.2020
5489 Rain 9 1018 68 10000 2.1 20 21:26 03.04.2020
5490 Clouds 9 1017 68 10000 3.1 20 20:57 03.04.2020
5491 Clouds 9 1017 68 10000 3.1 20 20:39 03.04.2020
5492 Clouds 10 1016 46 10000 3.6 10 20:21 03.04.2020
5493 Clouds 11 1016 40 10000 4.6 360 19:58 03.04.2020
5494 Clouds 11 1016 40 10000 4.6 360 19:39 03.04.2020
5495 Clouds 11 1015 40 10000 4.6 350 19:21 03.04.2020
5496 Clouds 12 1015 40 10000 4.6 350 18:59 03.04.2020
5497 Clouds 12 1015 35 10000 4.6 350 18:41 03.04.2020
5498 Clouds 12 1015 35 10000 4.6 350 18:41 03.04.2020
5499 Clouds 13 1014 35 10000 6.7 320 18:23 03.04.2020
5500 Clouds 13 1014 30 10000 5.7 310 17:57 03.04.2020
5501 Clouds 14 1014 30 10000 5.7 310 17:39 03.04.2020
5502 Clouds 14 1014 33 10000 4.6 310 17:18 03.04.2020
5503 Clouds 14 1014 33 10000 5.7 310 16:45 03.04.2020
5504 Clouds 14 1014 30 10000 6.7 320 16:22 03.04.2020
5505 Clouds 14 1013 30 10000 5.7 310 15:58 03.04.2020
5506 Clouds 14 1013 30 10000 5.7 310 15:40 03.04.2020
5507 Clouds 14 1013 30 10000 4.6 320 15:21 03.04.2020
5508 Clouds 14 1013 28 10000 4.6 270 14:56 03.04.2020
5509 Clouds 14 1014 30 10000 3.1 330 14:38 03.04.2020
5510 Clouds 14 1014 30 10000 3.1 330 14:20 03.04.2020
5511 Clouds 14 1014 30 10000 3.1 330 13:43 03.04.2020
5512 Clouds 14 1013 30 10000 6.7 320 13:25 03.04.2020
5513 Clouds 14 1014 30 10000 5.7 280 12:56 03.04.2020
5514 Clouds 14 1014 30 10000 5.7 280 12:37 03.04.2020
5515 Clear 14 1013 30 10000 4.6 310 12:18 03.04.2020
5516 Clear 13 1013 32 10000 4.6 300 11:55 03.04.2020
5517 Clear 13 1013 32 10000 4.6 300 11:37 03.04.2020
5518 Clear 12 1013 32 10000 4.6 310 11:18 03.04.2020
5519 Clear 12 1013 34 10000 4.6 310 10:55 03.04.2020
5520 Clear 11 1013 34 10000 4.6 310 10:36 03.04.2020
5521 Clear 10 1013 37 10000 5.7 310 10:18 03.04.2020
5522 Clear 9 1013 45 10000 3.6 320 09:40 03.04.2020
5523 Clear 6 1013 52 10000 1.5 340 09:22 03.04.2020
5524 Clear 5 1013 64 10000 1.5 300 08:59 03.04.2020
5525 Clear 5 1013 64 10000 1.5 300 08:40 03.04.2020
5526 Clear 5 1013 64 10000 1.5 300 08:40 03.04.2020
5527 Clear 4 1012 69 10000 0.5 0 08:22 03.04.2020
5528 Clear 2 1012 74 10000 2.1 190 07:50 03.04.2020
5529 Clear 2 1012 74 10000 2.1 190 07:32 03.04.2020
5530 Clear 1 1011 68 10000 2.6 180 06:55 03.04.2020
5531 Clear 0 1011 68 10000 2.6 180 06:25 03.04.2020
5532 Clear 1 1011 74 10000 3.1 180 05:42 03.04.2020
5533 Clear 1 1010 55 10000 1 0 03:47 03.04.2020
5534 Clear 1 1010 47 10000 2.1 260 03:29 03.04.2020
5535 Clear 1 1010 51 10000 2.6 200 02:29 03.04.2020
5536 Clear 2 1010 44 10000 3.6 180 01:23 03.04.2020
5537 Clear 3 1010 41 10000 1.5 180 00:41 03.04.2020
5538 Clear 3 1010 47 10000 3.1 170 00:20 03.04.2020
5539 Clear 4 1010 44 10000 4.1 160 23:42 02.04.2020
5540 Clear 4 1010 44 10000 4.1 160 23:42 02.04.2020
5541 Clear 4 1010 44 10000 3.6 160 23:24 02.04.2020
5542 Clear 5 1010 44 10000 3.6 160 22:59 02.04.2020
5543 Clear 5 1010 41 10000 3.6 160 22:41 02.04.2020
5544 Clear 6 1010 38 10000 4.6 150 22:21 02.04.2020
5545 Clear 6 1010 30 10000 4.6 140 21:57 02.04.2020
5546 Clear 7 1010 30 10000 4.6 140 21:36 02.04.2020
5547 Clear 7 1011 35 10000 5.1 150 21:18 02.04.2020
5548 Clear 8 1010 30 10000 5.1 150 20:44 02.04.2020
5549 Clear 8 1010 30 10000 5.1 150 20:24 02.04.2020
5550 Clear 9 1010 30 10000 5.1 150 19:55 02.04.2020
5551 Clear 9 1010 29 10000 4.6 140 19:37 02.04.2020
5552 Clear 10 1010 27 10000 5.7 150 19:19 02.04.2020
5553 Clear 11 1011 25 10000 5.7 140 18:42 02.04.2020
5554 Clear 12 1011 25 10000 5.7 140 18:21 02.04.2020
5555 Clear 12 1011 25 10000 5.7 140 17:59 02.04.2020
5556 Clear 12 1011 25 10000 5.7 140 17:59 02.04.2020
5557 Clear 12 1011 25 10000 5.7 140 17:40 02.04.2020
5558 Clear 13 1011 25 10000 6.2 130 17:22 02.04.2020
5559 Clear 13 1011 26 10000 5.1 130 16:57 02.04.2020
5560 Clear 13 1011 26 10000 5.1 130 16:39 02.04.2020
5561 Clear 13 1012 25 10000 5.7 120 16:21 02.04.2020
5562 Clear 13 1012 25 10000 5.7 120 15:56 02.04.2020
5563 Clear 13 1012 25 10000 3.6 140 15:38 02.04.2020
5564 Clear 12 1012 25 10000 5.7 140 15:18 02.04.2020
5565 Clear 12 1012 25 10000 5.7 140 15:18 02.04.2020
5566 Clear 12 1013 25 10000 3.1 130 14:55 02.04.2020
5567 Clear 12 1013 25 10000 3.1 130 14:37 02.04.2020
5568 Clear 12 1013 27 10000 2.6 180 14:18 02.04.2020
5569 Clear 12 1014 29 10000 2.6 0 13:40 02.04.2020
5570 Clear 11 1014 31 10000 1.5 0 13:21 02.04.2020
5571 Clear 11 1015 34 10000 2.1 0 12:59 02.04.2020
5572 Clear 10 1015 34 10000 2.1 0 12:41 02.04.2020
5573 Clear 10 1015 33 10000 2.1 0 12:19 02.04.2020
5574 Clear 10 1015 33 10000 2.1 0 12:19 02.04.2020
5575 Clear 10 1015 33 10000 2.1 0 12:19 02.04.2020
5576 Clear 10 1015 33 10000 2.1 0 12:19 02.04.2020
5577 Clear 9 1015 33 10000 2.1 0 11:57 02.04.2020
5578 Clear 8 1015 39 10000 1.5 0 11:38 02.04.2020
5579 Clear 8 1015 45 0 1 40 11:19 02.04.2020
5580 Clear 8 1015 45 0 1 40 11:19 02.04.2020
5581 Clear 7 1016 44 10000 2.1 170 10:55 02.04.2020
5582 Clear 7 1016 44 10000 2.1 170 10:37 02.04.2020
5583 Clear 6 1016 48 10000 1 0 10:19 02.04.2020
5584 Clear 5 1016 55 10000 1.5 150 09:56 02.04.2020
5585 Clear 4 1016 55 10000 1.5 150 09:38 02.04.2020
5586 Clear 2 1016 55 10000 1.5 160 09:19 02.04.2020
5587 Clear 1 1016 69 10000 1.5 150 08:46 02.04.2020
5588 Clear 0 1016 68 10000 2.1 170 08:26 02.04.2020
5589 Clear -1 1016 63 10000 2.1 220 07:45 02.04.2020
5590 Clear -2 1015 68 10000 2.1 180 07:21 02.04.2020
5591 Clear -2 1015 68 10000 2.1 180 06:58 02.04.2020
5592 Clear -3 1015 63 10000 1.5 230 06:22 02.04.2020
5593 Clear -2 1015 68 10000 3.6 160 05:45 02.04.2020
5594 Clear -2 1015 63 10000 2.1 210 04:35 02.04.2020
5595 Clear -1 1017 47 10000 2.1 240 01:52 02.04.2020
5596 Clear 0 1017 78 10000 2.6 180 00:50 02.04.2020
5597 Clear 0 1017 78 10000 2.6 180 00:50 02.04.2020
5598 Clear 0 1017 58 10000 2.1 170 00:28 02.04.2020
5599 Clear 1 1017 58 10000 3.1 150 23:57 01.04.2020
5600 Clear 1 1017 58 10000 3.1 150 23:37 01.04.2020
5601 Clear 1 1017 58 10000 3.1 150 23:37 01.04.2020
5602 Clear 1 1018 58 10000 3.6 160 23:18 01.04.2020
5603 Clear 2 1018 47 10000 3.6 150 22:41 01.04.2020
5604 Clear 2 1018 71 10000 3.6 150 22:22 01.04.2020
5605 Clear 2 1018 71 10000 3.6 150 22:22 01.04.2020
5606 Clear 2 1018 71 10000 3.6 150 21:57 01.04.2020
5607 Clear 2 1018 47 10000 2.6 160 21:39 01.04.2020
5608 Clear 3 1018 44 10000 3.1 160 21:18 01.04.2020
5609 Clear 3 1018 44 10000 3.1 160 20:55 01.04.2020
5610 Clear 4 1018 55 10000 2.6 160 20:37 01.04.2020
5611 Rain 4 1018 44 10000 3.6 140 20:18 01.04.2020
5612 Rain 4 1018 44 10000 3.6 140 20:18 01.04.2020
5613 Rain 5 1018 48 10000 3.6 150 19:43 01.04.2020
5614 Clear 6 1018 41 10000 3.6 150 19:22 01.04.2020
5615 Clear 7 1018 41 10000 3.6 150 18:59 01.04.2020
5616 Clear 7 1018 41 10000 3.6 150 18:59 01.04.2020
5617 Clear 7 1018 41 10000 3.6 150 18:59 01.04.2020
5618 Clear 7 1018 41 10000 3.6 150 18:59 01.04.2020
5619 Clear 7 1018 39 10000 3.1 150 18:40 01.04.2020
5620 Clear 8 1019 31 10000 1.5 0 18:21 01.04.2020
5621 Clear 8 1019 31 10000 3.1 180 17:56 01.04.2020
5622 Clear 8 1019 31 10000 3.1 180 17:56 01.04.2020
5623 Clear 8 1019 31 10000 3.1 180 17:56 01.04.2020
5624 Clear 8 1019 31 10000 3.1 180 17:37 01.04.2020
5625 Clear 9 1019 28 10000 2.1 130 17:18 01.04.2020
5626 Clear 9 1019 28 10000 2.6 180 16:54 01.04.2020
5627 Clear 9 1019 28 10000 2.6 180 16:36 01.04.2020
5628 Clear 9 1020 31 10000 2.1 220 16:18 01.04.2020
5629 Clear 9 1021 33 10000 1 0 15:42 01.04.2020
5630 Clear 8 1021 33 10000 1 0 15:22 01.04.2020
5631 Clear 8 1022 33 10000 1.5 0 14:58 01.04.2020
5632 Clear 8 1022 33 10000 1.5 0 14:39 01.04.2020
5633 Clear 8 1022 35 10000 1 0 14:20 01.04.2020
5634 Clouds 7 1022 35 10000 1.5 0 13:59 01.04.2020
5635 Clouds 7 1022 35 10000 1.5 0 13:59 01.04.2020
5636 Clouds 7 1022 35 10000 1.5 0 13:38 01.04.2020
5637 Clouds 7 1023 38 10000 1.5 260 13:20 01.04.2020
5638 Clouds 7 1023 44 10000 3.6 320 12:57 01.04.2020
5639 Clouds 6 1023 44 10000 3.6 320 12:37 01.04.2020
5640 Clear 6 1024 48 0 1 360 12:18 01.04.2020
5641 Clear 6 1024 48 0 1 360 12:18 01.04.2020
5642 Rain 5 1024 51 0 1 110 11:56 01.04.2020
5643 Rain 5 1024 51 0 1 110 11:37 01.04.2020
5644 Rain 5 1024 51 0 1 110 11:37 01.04.2020
5645 Rain 5 1024 51 0 1 110 11:37 01.04.2020
5646 Rain 5 1025 55 0 1 230 11:18 01.04.2020
5647 Clouds 4 1025 64 10000 2.6 360 10:38 01.04.2020
5648 Rain 3 1025 64 10000 2.1 10 10:20 01.04.2020
5649 Rain 2 1025 69 10000 2.6 10 09:58 01.04.2020
5650 Clear 2 1025 69 10000 2.6 10 09:39 01.04.2020
5651 Clear 1 1025 80 10000 2.6 10 09:19 01.04.2020
5652 Clear 0 1025 80 10000 2.6 350 08:44 01.04.2020
5653 Clear -1 1025 80 10000 2.6 340 08:19 01.04.2020
5654 Clear -2 1025 79 10000 2.6 340 07:56 01.04.2020
5655 Clear -3 1025 79 10000 2.6 340 07:38 01.04.2020
5656 Clear -4 1024 79 10000 3.1 340 07:18 01.04.2020
5657 Clear -4 1024 79 10000 3.1 340 06:39 01.04.2020
5658 Clear -4 1025 79 10000 3.6 320 06:20 01.04.2020
5659 Clear -3 1025 79 10000 4.6 330 04:55 01.04.2020
5660 Clear -3 1025 79 10000 3.6 320 03:39 01.04.2020
5661 Clouds -2 1025 80 10000 4.6 320 02:59 01.04.2020
5662 Clouds -2 1025 86 10000 4.1 320 02:31 01.04.2020
5663 Clouds -2 1026 86 10000 3.6 320 01:49 01.04.2020
5664 Clouds -2 1026 86 10000 3.1 320 01:24 01.04.2020
5665 Clouds -1 1026 80 10000 3.1 330 00:47 01.04.2020
5666 Clouds -1 1026 80 10000 4.1 330 00:22 01.04.2020
5667 Clouds -1 1026 80 10000 3.1 330 23:55 31.03.2020
5668 Clouds -1 1026 80 10000 3.1 330 23:37 31.03.2020
5669 Clouds -1 1026 80 10000 3.1 350 23:19 31.03.2020
5670 Clouds 0 1026 81 10000 3.6 340 22:40 31.03.2020
5671 Clouds 0 1026 81 10000 4.1 330 22:21 31.03.2020
5672 Clouds 0 1026 81 10000 2.6 320 21:58 31.03.2020
5673 Clouds 0 1026 81 10000 2.6 320 21:58 31.03.2020
5674 Clouds 0 1026 81 10000 2.6 320 21:39 31.03.2020
5675 Snow 1 1025 74 10000 2.6 310 21:21 31.03.2020
5676 Clouds 1 1025 69 10000 3.6 300 20:57 31.03.2020
5677 Clouds 1 1025 69 10000 3.6 300 20:37 31.03.2020
5678 Clouds 1 1025 69 10000 3.6 300 20:18 31.03.2020
5679 Rain 2 1025 55 10000 3.1 330 19:55 31.03.2020
5680 Rain 2 1025 55 10000 3.1 330 19:37 31.03.2020
5681 Rain 3 1025 59 10000 2.1 330 19:18 31.03.2020
5682 Snow 4 1025 69 10000 0.5 0 18:43 31.03.2020
5683 Clouds 4 1024 74 10000 1.5 170 18:20 31.03.2020
5684 Clouds 5 1025 74 0 2.1 100 17:56 31.03.2020
5685 Clouds 5 1025 74 0 2.1 100 17:56 31.03.2020
5686 Clouds 5 1025 74 0 2.1 100 17:38 31.03.2020
5687 Clouds 5 1025 74 0 2.1 100 17:38 31.03.2020
5688 Clouds 5 1025 45 0 5.1 270 17:20 31.03.2020
5689 Snow 6 1025 51 10000 11.8 330 16:42 31.03.2020
5690 Clouds 6 1024 35 10000 2.6 0 16:20 31.03.2020
5691 Clouds 6 1024 35 10000 2.6 0 15:59 31.03.2020
5692 Clouds 7 1024 33 10000 3.1 360 15:41 31.03.2020
5693 Clouds 7 1024 33 10000 2.6 0 15:23 31.03.2020
5694 Clouds 7 1024 33 10000 2.6 0 15:00 31.03.2020
5695 Clouds 7 1024 33 10000 2.6 0 15:00 31.03.2020
5696 Clouds 7 1024 35 10000 3.1 350 14:41 31.03.2020
5697 Clouds 7 1025 33 10000 2.1 0 14:22 31.03.2020
5698 Clouds 7 1025 35 10000 2.6 10 13:55 31.03.2020
5699 Clouds 7 1025 35 10000 2.6 10 13:37 31.03.2020
5700 Clouds 6 1025 35 10000 3.1 0 13:18 31.03.2020
5701 Clouds 7 1025 33 10000 2.6 360 12:44 31.03.2020
5702 Clouds 6 1026 35 0 1 250 12:20 31.03.2020
5703 Clouds 6 1026 32 10000 1 0 12:20 31.03.2020
5704 Clouds 6 1026 36 0 1.2 348 11:55 31.03.2020
5705 Clouds 6 1026 36 0 1.2 348 11:36 31.03.2020
5706 Clouds 6 1026 36 0 1.2 348 11:36 31.03.2020
5707 Clouds 6 1026 38 10000 2.1 0 11:18 31.03.2020
5708 Clouds 5 1026 38 10000 1.5 0 10:55 31.03.2020
5709 Clouds 4 1026 43 10000 1 0 10:37 31.03.2020
5710 Clouds 5 1026 38 10000 1.5 0 10:37 31.03.2020
5711 Clouds 4 1026 43 10000 1 0 10:18 31.03.2020
5712 Clouds 3 1026 50 10000 1 0 09:43 31.03.2020
5713 Clouds 1 1026 67 10000 0.5 0 09:24 31.03.2020
5714 Clouds 1 1026 70 10000 0.5 0 08:57 31.03.2020
5715 Clouds 0 1026 68 10000 1.5 150 08:39 31.03.2020
5716 Clouds -1 1026 73 10000 1 0 08:19 31.03.2020
5717 Clouds -2 1026 68 0 2.1 250 07:56 31.03.2020
5718 Clouds -2 1026 73 10000 2.1 170 07:38 31.03.2020
5719 Clouds -3 1025 73 10000 2.6 160 07:19 31.03.2020
5720 Clouds -3 1025 68 0 0.96 296 06:47 31.03.2020
5721 Clouds -4 1025 67 10000 0.5 0 06:23 31.03.2020
5722 Clouds -3 1025 67 10000 1.5 170 05:40 31.03.2020
5723 Clouds -3 1025 54 10000 2.6 260 03:43 31.03.2020
5724 Clouds -3 1025 54 10000 1.5 290 02:19 31.03.2020
5725 Clouds -2 1025 50 10000 2.6 280 01:45 31.03.2020
5726 Snow -1 1025 50 10000 3.1 300 00:51 31.03.2020
5727 Snow -1 1025 50 10000 2.6 320 00:25 31.03.2020
5728 Clouds -1 1025 78 10000 2.1 350 23:58 30.03.2020
5729 Clouds -1 1025 78 10000 2.1 350 23:38 30.03.2020
5730 Clouds -1 1025 78 10000 2.6 20 23:18 30.03.2020
5731 Clouds 0 1024 78 10000 2.6 30 22:55 30.03.2020
5732 Clouds 0 1024 78 10000 2.6 30 22:36 30.03.2020
5733 Clouds 0 1024 43 10000 3.1 30 22:18 30.03.2020
5734 Clouds 0 1024 43 10000 3.1 30 21:55 30.03.2020
5735 Clouds 1 1024 43 10000 3.1 30 21:36 30.03.2020
5736 Clouds 1 1024 37 10000 3.6 20 21:18 30.03.2020
5737 Clouds 2 1023 37 10000 3.1 10 20:42 30.03.2020
5738 Clouds 2 1023 37 10000 3.1 30 20:24 30.03.2020
5739 Clouds 3 1023 37 10000 3.1 30 19:59 30.03.2020
5740 Clouds 3 1023 34 10000 3.1 10 19:40 30.03.2020
5741 Clouds 4 1022 30 10000 5.1 360 19:21 30.03.2020
5742 Clouds 5 1022 30 10000 5.1 350 18:56 30.03.2020
5743 Clouds 5 1022 30 10000 5.1 350 18:38 30.03.2020
5744 Clouds 6 1022 27 10000 6.7 360 18:19 30.03.2020
5745 Clouds 6 1022 30 10000 7.2 340 17:56 30.03.2020
5746 Clouds 6 1022 30 10000 7.2 340 17:56 30.03.2020
5747 Clouds 6 1022 30 10000 7.2 340 17:37 30.03.2020
5748 Clouds 6 1022 30 10000 5.7 350 17:18 30.03.2020
5749 Clouds 6 1022 28 10000 6.2 330 16:54 30.03.2020
5750 Clouds 6 1022 28 10000 6.2 330 16:36 30.03.2020
5751 Clouds 6 1022 28 10000 7.2 330 16:18 30.03.2020
5752 Clouds 6 1022 32 10000 7.7 340 15:41 30.03.2020
5753 Clouds 6 1022 30 10000 6.7 340 15:22 30.03.2020
5754 Clouds 6 1023 28 0 3.1 10 14:59 30.03.2020
5755 Clouds 6 1023 35 10000 6.7 350 14:39 30.03.2020
5756 Clouds 5 1023 35 10000 7.7 330 14:19 30.03.2020
5757 Clouds 5 1023 35 10000 7.7 330 14:19 30.03.2020
5758 Clouds 5 1023 35 10000 7.2 340 13:58 30.03.2020
5759 Clouds 5 1023 35 10000 7.2 340 13:40 30.03.2020
5760 Clouds 5 1023 37 10000 7.2 350 13:20 30.03.2020
5761 Clouds 4 1023 37 10000 7.7 330 12:54 30.03.2020
5762 Clouds 4 1023 37 10000 7.7 330 12:36 30.03.2020
5763 Clouds 4 1024 37 10000 8.2 350 12:18 30.03.2020
5764 Clouds 3 1024 37 10000 8.7 350 11:42 30.03.2020
5765 Clouds 3 1024 43 10000 8.7 340 11:23 30.03.2020
5766 Clouds 3 1024 43 10000 8.7 340 10:57 30.03.2020
5767 Clouds 2 1024 43 10000 8.7 340 10:38 30.03.2020
5768 Clouds 2 1024 50 10000 7.7 360 10:20 30.03.2020
5769 Clouds 2 1024 50 10000 9.3 360 09:54 30.03.2020
5770 Clouds 2 1024 50 10000 9.3 360 09:36 30.03.2020
5771 Clouds 1 1023 55 10000 8.7 340 09:18 30.03.2020
5772 Clouds 1 1023 59 10000 7.7 340 08:39 30.03.2020
5773 Clouds 1 1023 59 10000 7.7 340 08:20 30.03.2020
5774 Clouds 1 1022 64 10000 7.2 340 07:45 30.03.2020
5775 Clouds 1 1022 64 10000 7.7 340 07:23 30.03.2020
5776 Clouds 1 1021 59 10000 8.2 340 06:47 30.03.2020
5777 Clouds 1 1021 64 10000 8.2 340 06:27 30.03.2020
5778 Clouds 2 1021 59 10000 7.7 350 05:46 30.03.2020
5779 Clouds 3 1020 59 10000 7.2 350 04:40 30.03.2020
5780 Clouds 3 1020 69 10000 7.2 350 04:20 30.03.2020
5781 Clouds 4 1020 64 10000 8.7 350 02:52 30.03.2020
5782 Clouds 5 1019 79 10000 7.7 360 01:59 30.03.2020
5783 Clouds 5 1019 60 10000 7.7 320 01:24 30.03.2020
5784 Rain 5 1018 60 10000 7.2 320 00:30 30.03.2020
5785 Clouds 5 1018 60 10000 6.7 320 23:59 29.03.2020
5786 Clouds 5 1018 60 10000 7.2 320 23:40 29.03.2020
5787 Clouds 6 1018 56 10000 7.7 320 23:21 29.03.2020
5788 Clouds 6 1017 56 10000 6.2 330 22:55 29.03.2020
5789 Clouds 6 1017 56 10000 6.2 330 22:37 29.03.2020
5790 Clouds 6 1017 52 10000 7.2 340 22:18 29.03.2020
5791 Clouds 7 1017 45 10000 7.7 340 21:40 29.03.2020
5792 Clouds 7 1017 45 10000 6.7 340 21:21 29.03.2020
5793 Clouds 8 1016 42 10000 5.7 340 20:56 29.03.2020
5794 Clouds 8 1016 42 10000 5.7 340 20:38 29.03.2020
5795 Clouds 8 1015 37 10000 6.7 330 20:19 29.03.2020
5796 Clouds 9 1015 37 10000 6.2 340 19:59 29.03.2020
5797 Rain 9 1015 37 10000 6.2 340 19:41 29.03.2020
5798 Rain 10 1015 34 10000 7.7 330 19:23 29.03.2020
5799 Clouds 11 1014 34 10000 9.3 320 18:57 29.03.2020
5800 Clouds 11 1014 34 10000 9.3 320 18:39 29.03.2020
5801 Clouds 12 1014 32 10000 8.2 320 18:20 29.03.2020
5802 Clouds 12 1014 32 10000 8.7 310 17:56 29.03.2020
5803 Clouds 13 1014 32 10000 8.7 310 17:38 29.03.2020
5804 Clouds 13 1014 30 10000 8.7 320 17:19 29.03.2020
5805 Clouds 13 1013 33 10000 7.2 320 16:57 29.03.2020
5806 Clouds 14 1013 33 10000 7.2 320 16:38 29.03.2020
5807 Clouds 14 1014 33 10000 7.7 310 16:19 29.03.2020
5808 Clouds 14 1014 35 10000 9.3 330 15:43 29.03.2020
5809 Clouds 14 1014 35 10000 9.3 330 15:43 29.03.2020
5810 Clouds 13 1014 37 10000 7.7 320 15:25 29.03.2020
5811 Clouds 13 1014 37 10000 7.7 320 14:59 29.03.2020
5812 Clouds 14 1014 35 10000 8.2 310 14:40 29.03.2020
5813 Clouds 13 1014 45 10000 8.7 310 14:20 29.03.2020
5814 Clouds 13 1014 45 10000 8.7 310 13:58 29.03.2020
5815 Clouds 14 1014 45 10000 8.7 310 13:40 29.03.2020
5816 Clouds 13 1014 45 10000 8.2 300 13:21 29.03.2020
5817 Clouds 13 1014 45 10000 7.7 300 12:57 29.03.2020
5818 Clouds 13 1014 45 10000 7.7 300 12:38 29.03.2020
5819 Clouds 12 1014 40 10000 7.2 320 12:19 29.03.2020
5820 Clouds 12 1014 40 10000 7.7 300 11:55 29.03.2020
5821 Clouds 12 1014 40 10000 7.7 300 11:37 29.03.2020
5822 Clouds 11 1015 43 10000 7.2 300 11:19 29.03.2020
5823 Clouds 11 1014 40 10000 7.7 310 10:38 29.03.2020
5824 Clouds 10 1014 43 10000 6.7 320 10:19 29.03.2020
5825 Clouds 10 1014 45 10000 6.7 320 09:54 29.03.2020
5826 Clouds 9 1014 45 10000 6.7 320 09:36 29.03.2020
5827 Clouds 9 1014 67 10000 6.2 310 09:18 29.03.2020
5828 Clouds 8 1014 49 10000 6.7 310 08:41 29.03.2020
5829 Clouds 7 1014 67 10000 6.2 300 08:22 29.03.2020
5830 Clouds 6 1013 67 10000 5.7 300 07:45 29.03.2020
5831 Clouds 6 1013 67 10000 4.6 300 07:23 29.03.2020
5832 Clouds 6 1013 72 10000 5.1 310 05:59 29.03.2020
5833 Clouds 7 1013 72 10000 4.1 300 04:56 29.03.2020
5834 Clouds 7 1013 57 10000 4.1 300 03:41 29.03.2020
5835 Rain 8 1013 57 10000 4.6 300 01:57 29.03.2020
5836 Rain 8 1013 57 10000 4.1 290 01:39 29.03.2020
5837 Rain 8 1013 57 10000 4.6 320 01:20 29.03.2020
5838 Clouds 9 1013 53 10000 4.6 320 00:40 29.03.2020
5839 Clouds 9 1013 53 10000 4.6 320 00:18 29.03.2020
5840 Clouds 9 1013 53 10000 4.6 320 23:40 28.03.2020
5841 Clouds 9 1013 53 10000 4.6 320 23:40 28.03.2020
5842 Rain 10 1013 50 10000 4.6 330 23:22 28.03.2020
5843 Rain 10 1013 46 10000 3.6 340 22:43 28.03.2020
5844 Rain 11 1013 43 10000 4.1 320 22:22 28.03.2020
5845 Rain 11 1012 43 10000 3.1 300 21:57 28.03.2020
5846 Rain 12 1012 43 10000 3.1 300 21:39 28.03.2020
5847 Rain 12 1012 43 10000 3.1 300 21:20 28.03.2020
5848 Rain 12 1012 66 10000 3.6 280 20:57 28.03.2020
5849 Rain 12 1012 66 10000 3.6 280 20:38 28.03.2020
5850 Rain 12 1012 52 10000 2.1 270 20:19 28.03.2020
5851 Rain 12 1012 52 10000 0.5 0 19:55 28.03.2020
5852 Rain 13 1012 52 10000 0.5 0 19:36 28.03.2020
5853 Rain 13 1012 52 10000 1 350 19:18 28.03.2020
5854 Rain 14 1012 52 10000 1.5 350 18:42 28.03.2020
5855 Rain 15 1012 52 10000 2.6 350 18:20 28.03.2020
5856 Rain 16 1012 33 10000 3.6 360 17:43 28.03.2020
5857 Rain 17 1012 33 10000 3.1 360 17:24 28.03.2020
5858 Clear 17 1012 31 10000 2.6 340 16:59 28.03.2020
5859 Clear 18 1012 31 10000 2.6 340 16:40 28.03.2020
5860 Clouds 18 1012 36 10000 2.6 30 16:18 28.03.2020
5861 Clouds 18 1012 36 10000 2.6 30 15:55 28.03.2020
5862 Clouds 18 1012 36 10000 3.6 350 15:37 28.03.2020
5863 Clouds 18 1013 36 10000 2.1 60 15:18 28.03.2020
5864 Clouds 19 1013 36 10000 1.5 0 14:41 28.03.2020
5865 Clouds 19 1013 38 10000 1.5 0 14:21 28.03.2020
5866 Clouds 18 1014 38 10000 1 0 13:43 28.03.2020
5867 Clouds 17 1014 33 10000 1 0 13:24 28.03.2020
5868 Clouds 17 1014 33 10000 1.5 0 12:41 28.03.2020
5869 Clear 17 1015 36 10000 2.1 210 12:23 28.03.2020
5870 Clear 16 1015 38 10000 1 0 11:59 28.03.2020
5871 Clear 16 1015 38 10000 1 0 11:41 28.03.2020
5872 Clear 15 1015 44 10000 1.5 320 11:20 28.03.2020
5873 Clear 14 1016 47 10000 2.1 250 10:40 28.03.2020
5874 Clear 14 1016 54 10000 2.1 250 10:22 28.03.2020
5875 Clear 12 1016 53 10000 1 0 09:43 28.03.2020
5876 Clear 12 1016 57 10000 0.5 0 09:24 28.03.2020
5877 Clear 11 1016 57 10000 0.5 0 08:59 28.03.2020
5878 Clear 9 1016 61 10000 1 0 08:41 28.03.2020
5879 Clouds 7 1016 65 10000 1 0 08:22 28.03.2020
5880 Clouds 6 1016 75 10000 1.5 230 07:46 28.03.2020
5881 Clouds 6 1016 75 10000 1.5 230 07:28 28.03.2020
5882 Clouds 3 1016 74 10000 0.5 0 06:37 28.03.2020
5883 Clouds 3 1016 74 10000 0.5 0 06:18 28.03.2020
5884 Clouds 3 1016 74 10000 0.5 0 05:23 28.03.2020
5885 Clouds 3 1016 74 10000 0.5 0 04:43 28.03.2020
5886 Clouds 3 1016 74 10000 1.5 330 04:20 28.03.2020
5887 Clouds 4 1017 67 10000 2.1 160 02:33 28.03.2020
5888 Clouds 5 1017 74 10000 2.1 180 01:46 28.03.2020
5889 Clouds 5 1017 74 10000 3.1 180 01:20 28.03.2020
5890 Clouds 5 1018 74 10000 3.1 180 00:47 28.03.2020
5891 Clouds 6 1018 69 10000 1.5 180 00:20 28.03.2020
5892 Clouds 6 1018 69 10000 2.6 190 23:43 27.03.2020
5893 Clouds 6 1018 69 10000 2.6 180 23:23 27.03.2020
5894 Clouds 6 1018 74 10000 1.5 190 22:56 27.03.2020
5895 Clouds 6 1018 74 10000 1.5 190 22:56 27.03.2020
5896 Clouds 7 1018 65 0 1.52 184 22:38 27.03.2020
5897 Clouds 7 1018 65 10000 2.1 240 22:20 27.03.2020
5898 Clouds 7 1018 56 10000 1.5 240 21:56 27.03.2020
5899 Clouds 7 1018 56 10000 1.5 240 21:38 27.03.2020
5900 Clouds 7 1018 64 10000 2.6 200 21:20 27.03.2020
5901 Clouds 8 1018 56 10000 3.1 200 20:43 27.03.2020
5902 Clear 9 1019 46 10000 1.5 190 20:22 27.03.2020
5903 Clear 9 1019 46 10000 1.5 190 19:59 27.03.2020
5904 Clear 10 1018 60 10000 1 170 19:41 27.03.2020
5905 Clear 10 1018 60 10000 1.5 190 19:22 27.03.2020
5906 Clear 12 1018 50 10000 1.5 170 18:56 27.03.2020
5907 Clear 12 1018 50 10000 1.5 170 18:38 27.03.2020
5908 Clear 13 1018 43 10000 2.1 130 18:19 27.03.2020
5909 Clear 13 1018 43 10000 2.1 130 18:19 27.03.2020
5910 Clear 15 1018 38 10000 2.1 130 17:40 27.03.2020
5911 Clouds 15 1018 45 10000 1.5 110 17:20 27.03.2020
5912 Clouds 15 1018 45 10000 1.5 110 17:20 27.03.2020
5913 Clouds 15 1018 45 10000 3.1 110 16:54 27.03.2020
5914 Clouds 15 1018 45 10000 3.1 110 16:36 27.03.2020
5915 Clouds 16 1018 45 10000 1.5 130 16:18 27.03.2020
5916 Clouds 16 1019 45 10000 3.1 70 15:41 27.03.2020
5917 Clouds 16 1019 36 10000 3.1 70 15:23 27.03.2020
5918 Clouds 16 1019 45 10000 3.6 100 14:46 27.03.2020
5919 Clouds 16 1020 45 10000 3.1 100 14:25 27.03.2020
5920 Clouds 16 1020 45 10000 2.6 70 13:57 27.03.2020
5921 Clouds 16 1020 45 10000 2.6 70 13:37 27.03.2020
5922 Clouds 15 1020 38 10000 4.1 110 13:19 27.03.2020
5923 Clouds 15 1021 41 10000 2.6 0 12:51 27.03.2020
5924 Clouds 15 1021 41 10000 3.1 120 12:21 27.03.2020
5925 Clouds 15 1019 48 0 0.89 232 11:59 27.03.2020
5926 Clouds 14 1021 45 10000 4.6 120 11:41 27.03.2020
5927 Clouds 13 1021 52 10000 4.1 120 11:22 27.03.2020
5928 Clouds 12 1022 52 10000 5.1 130 10:55 27.03.2020
5929 Clouds 12 1022 52 10000 5.1 130 10:37 27.03.2020
5930 Clouds 12 1022 52 10000 5.1 130 10:36 27.03.2020
5931 Clouds 12 1022 52 10000 4.6 120 10:18 27.03.2020
5932 Clouds 11 1022 52 10000 2.6 40 09:56 27.03.2020
5933 Clouds 10 1022 52 10000 2.6 40 09:37 27.03.2020
5934 Clouds 9 1022 61 10000 1 0 09:18 27.03.2020
5935 Clouds 8 1022 60 10000 1.5 210 08:55 27.03.2020
5936 Clouds 8 1022 60 10000 1.5 210 08:37 27.03.2020
5937 Clouds 6 1022 69 10000 2.6 330 08:18 27.03.2020
5938 Clouds 4 1021 78 10000 2.1 180 07:49 27.03.2020
5939 Clouds 3 1021 80 10000 1.5 260 07:23 27.03.2020
5940 Clouds 4 1021 74 10000 2.6 240 06:46 27.03.2020
5941 Clouds 3 1021 78 10000 3.1 160 06:27 27.03.2020
5942 Clouds 1 1021 80 10000 1 150 04:23 27.03.2020
5943 Clouds 3 1021 80 10000 2.1 180 02:25 27.03.2020
5944 Clouds 3 1022 69 10000 1.5 250 01:23 27.03.2020
5945 Clouds 3 1021 74 10000 0.5 0 00:48 27.03.2020
5946 Clouds 3 1022 80 10000 2.6 180 00:23 27.03.2020
5947 Clouds 4 1021 80 10000 2.1 170 23:43 26.03.2020
5948 Clouds 5 1022 80 10000 3.1 170 23:21 26.03.2020
5949 Clouds 5 1022 74 10000 2.6 170 22:58 26.03.2020
5950 Clouds 5 1022 74 10000 2.6 170 22:38 26.03.2020
5951 Clouds 5 1022 74 10000 2.1 170 22:19 26.03.2020
5952 Clouds 5 1022 74 10000 2.1 170 21:56 26.03.2020
5953 Clouds 5 1022 69 10000 2.1 180 21:37 26.03.2020
5954 Clouds 6 1022 60 10000 2.6 180 21:18 26.03.2020
5955 Clouds 6 1022 60 10000 2.6 180 20:56 26.03.2020
5956 Clouds 6 1022 64 10000 2.6 180 20:37 26.03.2020
5957 Clouds 7 1022 60 10000 2.6 180 20:19 26.03.2020
5958 Clouds 7 1022 56 10000 2.6 180 19:54 26.03.2020
5959 Clouds 7 1022 56 10000 2.6 180 19:36 26.03.2020
5960 Clouds 7 1022 52 10000 2.6 240 19:18 26.03.2020
5961 Clouds 8 1022 49 10000 3.1 250 18:41 26.03.2020
5962 Clouds 9 1022 43 10000 2.6 130 18:23 26.03.2020
5963 Clouds 10 1022 37 10000 2.1 120 17:55 26.03.2020
5964 Clouds 10 1022 37 10000 2.1 120 17:37 26.03.2020
5965 Clouds 11 1022 37 10000 2.6 90 17:18 26.03.2020
5966 Clouds 11 1022 37 10000 3.6 110 16:40 26.03.2020
5967 Clouds 11 1022 37 10000 3.6 100 16:21 26.03.2020
5968 Clouds 10 1023 37 10000 3.6 80 15:57 26.03.2020
5969 Clouds 10 1023 37 10000 3.6 80 15:38 26.03.2020
5970 Clouds 10 1023 37 10000 4.6 100 15:20 26.03.2020
5971 Clouds 11 1023 34 10000 4.1 100 14:55 26.03.2020
5972 Clouds 10 1023 34 10000 4.1 100 14:36 26.03.2020
5973 Clouds 10 1023 34 10000 3.6 90 14:18 26.03.2020
5974 Clouds 10 1024 39 10000 3.6 80 13:41 26.03.2020
5975 Clouds 10 1024 39 10000 3.6 90 13:22 26.03.2020
5976 Clouds 9 1024 42 10000 2.6 0 12:55 26.03.2020
5977 Clouds 9 1024 42 10000 2.6 0 12:37 26.03.2020
5978 Clouds 7 1024 42 10000 3.6 100 12:18 26.03.2020
5979 Clouds 7 1025 41 10000 4.1 110 11:44 26.03.2020
5980 Clouds 6 1025 52 10000 2.6 130 11:20 26.03.2020
5981 Clouds 5 1025 55 10000 0.5 0 10:55 26.03.2020
5982 Clouds 5 1025 59 10000 1.5 200 10:36 26.03.2020
5983 Clouds 4 1025 59 10000 1.5 200 10:18 26.03.2020
5984 Clouds 3 1025 69 10000 2.1 250 09:42 26.03.2020
5985 Clouds 3 1025 64 10000 2.6 260 09:19 26.03.2020
5986 Clouds 2 1025 64 10000 1.5 250 08:44 26.03.2020
5987 Clouds 2 1025 64 10000 1.5 250 08:26 26.03.2020
5988 Clouds 1 1025 69 10000 2.1 240 07:57 26.03.2020
5989 Clouds 2 1025 69 10000 2.1 240 07:38 26.03.2020
5990 Clouds 1 1025 69 10000 2.1 260 07:20 26.03.2020
5991 Clouds 1 1025 74 10000 0.5 0 06:46 26.03.2020
5992 Clouds 1 1025 69 10000 0.5 0 05:52 26.03.2020
5993 Clouds 1 1025 87 10000 1.5 60 03:52 26.03.2020
5994 Clouds 1 1025 87 10000 1 20 03:33 26.03.2020
5995 Clouds 1 1026 87 10000 0.5 0 02:53 26.03.2020
5996 Clouds 0 1026 89 10000 0.5 0 01:44 26.03.2020
5997 Clouds 0 1026 80 10000 2.1 40 00:43 26.03.2020
5998 Clouds 0 1027 86 10000 2.1 50 23:45 25.03.2020
5999 Clouds 0 1027 86 10000 1.5 60 23:27 25.03.2020
6000 Clouds 1 1028 84 10000 1.5 60 22:57 25.03.2020
6001 Clouds 1 1028 84 10000 1.5 60 22:38 25.03.2020
6002 Clouds 1 1028 84 10000 1.5 40 22:19 25.03.2020
6003 Clouds 1 1028 69 10000 1.5 50 21:55 25.03.2020
6004 Clouds 1 1028 69 10000 1.5 50 21:37 25.03.2020
6005 Clouds 2 1028 69 10000 0.5 0 21:18 25.03.2020
6006 Clouds 2 1028 69 10000 1 100 20:40 25.03.2020
6007 Clouds 2 1028 69 10000 1.5 110 20:20 25.03.2020
6008 Clouds 2 1028 69 10000 1.5 110 19:59 25.03.2020
6009 Clouds 2 1028 64 10000 2.1 120 19:41 25.03.2020
6010 Clouds 2 1028 64 10000 3.6 110 19:21 25.03.2020
6011 Clouds 2 1028 64 10000 3.6 110 18:56 25.03.2020
6012 Clouds 2 1028 59 10000 4.6 100 18:37 25.03.2020
6013 Clouds 3 1028 59 10000 4.6 100 18:19 25.03.2020
6014 Clouds 3 1028 55 10000 4.1 100 17:54 25.03.2020
6015 Clouds 3 1028 55 10000 5.7 110 17:36 25.03.2020
6016 Clouds 3 1028 55 10000 5.7 110 17:18 25.03.2020
6017 Clouds 4 1028 55 10000 4.1 90 16:41 25.03.2020
6018 Clouds 4 1028 55 10000 4.6 90 16:22 25.03.2020
6019 Clouds 3 1028 55 10000 4.6 90 16:21 25.03.2020
6020 Clouds 3 1028 64 10000 5.1 100 15:44 25.03.2020
6021 Clouds 3 1029 59 10000 4.6 90 15:21 25.03.2020
6022 Clouds 3 1028 55 10000 4.6 80 14:59 25.03.2020
6023 Clouds 3 1028 55 10000 4.6 80 14:40 25.03.2020
6024 Clouds 3 1029 55 10000 3.1 80 14:21 25.03.2020
6025 Clouds 3 1029 55 10000 3.6 90 13:46 25.03.2020
6026 Clouds 3 1029 59 10000 4.1 90 13:25 25.03.2020
6027 Clouds 2 1029 59 10000 4.6 80 12:55 25.03.2020
6028 Clouds 2 1029 59 10000 4.6 80 12:37 25.03.2020
6029 Clouds 3 1029 69 10000 3.6 90 12:18 25.03.2020
6030 Snow 3 1029 64 10000 6.2 110 11:41 25.03.2020
6031 Clouds 3 1029 55 10000 5.1 110 11:21 25.03.2020
6032 Clouds 3 1029 55 10000 5.1 110 11:21 25.03.2020
6033 Snow 4 1029 47 10000 7.2 110 10:59 25.03.2020
6034 Snow 4 1029 47 10000 7.2 110 10:40 25.03.2020
6035 Clouds 4 1030 38 0 2.24 37 10:19 25.03.2020
6036 Clouds 4 1030 38 0 2.24 37 10:19 25.03.2020
6037 Clouds 3 1029 40 10000 4.1 90 09:59 25.03.2020
6038 Clouds 3 1029 40 10000 4.1 90 09:40 25.03.2020
6039 Clouds 2 1029 47 10000 3.1 20 09:22 25.03.2020
6040 Clouds 2 1027 45 0 1.79 99 08:54 25.03.2020
6041 Clouds 1 1029 58 10000 2.6 360 08:36 25.03.2020
6042 Clouds 0 1029 54 10000 2.1 10 08:18 25.03.2020
6043 Clouds -1 1029 58 10000 2.6 10 07:39 25.03.2020
6044 Clouds -1 1029 68 10000 2.6 350 07:19 25.03.2020
6045 Clouds -2 1029 63 10000 2.6 10 06:45 25.03.2020
6046 Clouds -1 1029 63 10000 2.6 10 06:25 25.03.2020
6047 Clouds -2 1029 63 10000 3.1 10 05:50 25.03.2020
6048 Clouds -2 1029 63 10000 2.6 360 04:59 25.03.2020
6049 Clouds -2 1029 63 10000 2.6 360 04:39 25.03.2020
6050 Clouds -2 1029 58 10000 3.1 20 03:35 25.03.2020
6051 Clouds -1 1029 58 10000 1.5 320 01:57 25.03.2020
6052 Clouds -1 1030 58 10000 2.1 360 01:20 25.03.2020
6053 Clouds -1 1027 45 0 0.45 112 00:47 25.03.2020
6054 Clouds 0 1030 58 10000 2.6 20 00:19 25.03.2020
6055 Clouds 0 1029 54 10000 2.1 20 23:44 24.03.2020
6056 Clouds 0 1029 54 10000 2.6 30 23:25 24.03.2020
6057 Clouds 1 1029 79 10000 3.1 10 22:55 24.03.2020
6058 Clouds 1 1029 79 10000 3.1 10 22:37 24.03.2020
6059 Clouds 1 1029 47 10000 4.1 20 22:19 24.03.2020
6060 Clouds 1 1029 47 10000 4.1 10 21:55 24.03.2020
6061 Clouds 1 1029 47 10000 4.1 10 21:36 24.03.2020
6062 Clouds 2 1029 43 10000 4.1 20 21:18 24.03.2020
6063 Clouds 2 1029 43 10000 3.6 10 20:43 24.03.2020
6064 Clouds 2 1029 43 10000 3.6 360 20:24 24.03.2020
6065 Rain 3 1029 43 10000 3.6 360 19:57 24.03.2020
6066 Rain 3 1029 40 10000 3.1 10 19:39 24.03.2020
6067 Rain 3 1029 37 10000 3.6 360 19:18 24.03.2020
6068 Rain 4 1028 32 10000 4.1 10 18:55 24.03.2020
6069 Rain 4 1028 32 10000 4.1 10 18:36 24.03.2020
6070 Rain 5 1028 32 10000 5.7 360 18:18 24.03.2020
6071 Clouds 6 1028 30 10000 7.2 360 17:41 24.03.2020
6072 Clouds 7 1028 28 10000 7.2 360 17:22 24.03.2020
6073 Clouds 7 1028 28 10000 6.2 350 16:58 24.03.2020
6074 Clouds 7 1028 28 10000 6.2 350 16:39 24.03.2020
6075 Clouds 7 1028 28 10000 6.7 360 16:20 24.03.2020
6076 Clouds 7 1029 28 10000 7.2 350 15:57 24.03.2020
6077 Clouds 7 1029 28 10000 7.2 350 15:37 24.03.2020
6078 Clouds 7 1029 30 10000 6.2 360 15:19 24.03.2020
6079 Clouds 7 1029 30 10000 7.2 340 14:42 24.03.2020
6080 Clouds 6 1030 33 10000 7.2 360 14:19 24.03.2020
6081 Clouds 7 1030 33 10000 7.2 360 13:43 24.03.2020
6082 Clouds 7 1030 33 10000 7.2 350 13:24 24.03.2020
6083 Clouds 7 1030 38 10000 6.7 350 12:55 24.03.2020
6084 Clouds 6 1030 38 10000 6.7 350 12:37 24.03.2020
6085 Clouds 5 1031 38 10000 6.7 340 12:18 24.03.2020
6086 Clouds 5 1031 41 10000 6.2 340 11:39 24.03.2020
6087 Clouds 4 1031 44 10000 6.2 340 11:20 24.03.2020
6088 Clouds 4 1031 44 10000 6.7 330 10:43 24.03.2020
6089 Clouds 3 1032 47 10000 6.2 350 10:20 24.03.2020
6090 Clouds 2 1032 47 10000 6.2 350 09:59 24.03.2020
6091 Clouds 2 1032 50 10000 5.7 350 09:41 24.03.2020
6092 Clouds 1 1032 41 10000 5.1 330 09:22 24.03.2020
6093 Clouds 0 1032 54 10000 5.1 330 08:39 24.03.2020
6094 Clouds -1 1032 58 10000 5.1 330 08:21 24.03.2020
6095 Clouds -2 1031 58 10000 4.6 340 07:50 24.03.2020
6096 Clouds -2 1031 58 10000 4.1 340 07:25 24.03.2020
6097 Clouds -3 1031 58 10000 4.6 330 06:58 24.03.2020
6098 Clouds -3 1031 58 10000 4.6 330 06:32 24.03.2020
6099 Clouds -3 1031 63 10000 4.1 330 05:27 24.03.2020
6100 Clouds -3 1031 63 10000 4.1 330 04:41 24.03.2020
6101 Clouds -3 1031 58 10000 4.6 340 03:19 24.03.2020
6102 Clouds -2 1031 50 10000 4.6 340 01:50 24.03.2020
6103 Clouds -2 1031 50 10000 4.1 330 00:51 24.03.2020
6104 Clouds -2 1031 50 10000 4.6 330 00:26 24.03.2020
6105 Clouds -2 1031 50 10000 4.6 340 23:49 23.03.2020
6106 Clouds -1 1031 50 10000 4.6 340 23:29 23.03.2020
6107 Clouds -1 1031 50 10000 5.1 340 22:58 23.03.2020
6108 Clouds -1 1031 50 10000 5.1 340 22:39 23.03.2020
6109 Clouds -1 1031 50 10000 5.1 340 22:21 23.03.2020
6110 Clouds 0 1031 50 10000 5.7 340 21:44 23.03.2020
6111 Clouds 0 1031 43 10000 5.1 350 21:21 23.03.2020
6112 Clouds 0 1031 43 10000 5.7 360 20:59 23.03.2020
6113 Clouds 0 1031 43 10000 5.7 360 20:41 23.03.2020
6114 Clouds 1 1031 40 10000 7.2 360 20:23 23.03.2020
6115 Clouds 1 1031 40 10000 6.7 360 19:55 23.03.2020
6116 Rain 1 1031 40 10000 6.7 360 19:37 23.03.2020
6117 Clouds 1 1031 40 10000 6.2 360 19:18 23.03.2020
6118 Clouds 2 1031 40 10000 7.2 360 18:43 23.03.2020
6119 Clouds 2 1030 37 10000 8.2 10 18:24 23.03.2020
6120 Clouds 2 1030 37 10000 8.7 10 17:57 23.03.2020
6121 Clouds 3 1030 37 10000 9.3 10 17:38 23.03.2020
6122 Clouds 3 1030 37 10000 9.3 10 17:19 23.03.2020
6123 Clouds 3 1030 35 10000 9.3 360 16:43 23.03.2020
6124 Clouds 4 1030 38 10000 9.8 360 16:25 23.03.2020
6125 Clouds 4 1030 38 10000 9.3 10 15:44 23.03.2020
6126 Clouds 4 1030 35 10000 10.3 360 15:21 23.03.2020
6127 Clouds 4 1030 38 10000 9.8 360 14:57 23.03.2020
6128 Clouds 4 1030 38 10000 9.8 360 14:37 23.03.2020
6129 Clouds 4 1030 37 10000 9.8 360 14:18 23.03.2020
6130 Clouds 4 1030 38 10000 9.3 360 13:54 23.03.2020
6131 Clouds 4 1030 38 10000 9.3 360 13:54 23.03.2020
6132 Clouds 4 1031 34 10000 9.8 360 13:36 23.03.2020
6133 Clouds 4 1031 34 10000 9.8 360 13:36 23.03.2020
6134 Clouds 4 1031 34 10000 9.8 360 13:18 23.03.2020
6135 Clouds 4 1031 35 10000 10.8 360 12:41 23.03.2020
6136 Clouds 4 1031 37 10000 9.3 10 12:22 23.03.2020
6137 Clouds 4 1031 37 10000 8.7 360 11:55 23.03.2020
6138 Clouds 3 1031 37 10000 8.7 360 11:37 23.03.2020
6139 Clouds 3 1031 40 10000 8.2 10 11:18 23.03.2020
6140 Clouds 3 1032 40 10000 9.3 20 10:40 23.03.2020
6141 Clouds 3 1032 40 10000 9.3 20 10:40 23.03.2020
6142 Clouds 2 1032 43 10000 8.2 20 10:22 23.03.2020
6143 Clouds 2 1032 47 10000 9.3 10 09:59 23.03.2020
6144 Clouds 2 1032 47 10000 9.3 10 09:40 23.03.2020
6145 Clouds 1 1032 34 10000 7.2 360 09:19 23.03.2020
6146 Clouds 0 1032 34 10000 8.2 350 08:38 23.03.2020
6147 Clouds 0 1032 50 10000 8.7 340 08:19 23.03.2020
6148 Clouds -1 1032 54 10000 9.3 330 07:51 23.03.2020
6149 Clouds -2 1032 58 10000 7.2 330 07:33 23.03.2020
6150 Clouds -3 1032 58 10000 6.7 330 06:55 23.03.2020
6151 Clouds -3 1032 58 10000 6.7 330 06:33 23.03.2020
6152 Clouds -3 1032 58 10000 5.7 330 05:44 23.03.2020
6153 Clouds -3 1033 58 10000 5.1 330 03:54 23.03.2020
6154 Clouds -3 1033 63 10000 5.7 330 02:44 23.03.2020
6155 Clouds -3 1033 63 10000 5.7 330 01:42 23.03.2020
6156 Clouds -3 1033 58 10000 5.1 340 00:46 23.03.2020
6157 Clouds -3 1033 54 10000 5.1 340 00:26 23.03.2020
6158 Clouds -2 1033 54 10000 6.2 340 23:42 22.03.2020
6159 Clouds -2 1033 58 10000 4.6 340 23:24 22.03.2020
6160 Clouds -2 1033 58 10000 5.7 340 22:41 22.03.2020
6161 Clouds -1 1033 58 10000 4.6 350 22:20 22.03.2020
6162 Clouds -1 1033 58 10000 4.1 350 21:41 22.03.2020
6163 Clouds -1 1033 63 10000 4.1 350 21:23 22.03.2020
6164 Clouds -1 1032 58 10000 4.6 360 20:59 22.03.2020
6165 Clouds -1 1032 58 10000 4.6 360 20:40 22.03.2020
6166 Clouds -1 1032 63 10000 4.1 10 20:22 22.03.2020
6167 Rain 0 1032 54 10000 5.7 20 19:56 22.03.2020
6168 Clouds 0 1032 54 10000 5.7 20 19:38 22.03.2020
6169 Rain 0 1031 54 10000 4.6 360 19:19 22.03.2020
6170 Clouds 0 1031 55 10000 5.1 360 18:57 22.03.2020
6171 Rain 1 1031 55 10000 5.1 360 18:39 22.03.2020
6172 Rain 1 1030 55 10000 4.6 360 18:20 22.03.2020
6173 Rain 1 1030 55 10000 6.7 350 17:57 22.03.2020
6174 Clouds 1 1030 55 10000 6.7 350 17:38 22.03.2020
6175 Clouds 2 1030 55 10000 8.7 350 17:20 22.03.2020
6176 Clouds 2 1029 55 10000 7.2 350 16:57 22.03.2020
6177 Clouds 2 1029 55 10000 7.2 350 16:57 22.03.2020
6178 Clouds 2 1029 55 10000 7.2 350 16:39 22.03.2020
6179 Clouds 2 1029 55 10000 7.2 340 16:20 22.03.2020
6180 Snow 3 1029 51 9000 8.2 340 15:40 22.03.2020
6181 Rain 3 1028 44 10000 7.7 340 15:19 22.03.2020
6182 Clouds 3 1028 44 10000 7.7 360 14:46 22.03.2020
6183 Clear 3 1028 51 10000 8.2 340 14:18 22.03.2020
6184 Clear 3 1028 35 10000 7.7 10 13:43 22.03.2020
6185 Clear 3 1028 35 10000 7.2 10 13:20 22.03.2020
6186 Clear 4 1028 35 10000 7.2 10 12:58 22.03.2020
6187 Clear 4 1028 35 10000 7.2 360 12:39 22.03.2020
6188 Clear 4 1028 38 10000 8.7 10 12:19 22.03.2020
6189 Clear 4 1028 41 10000 6.7 360 11:43 22.03.2020
6190 Clear 4 1029 40 10000 8.7 360 11:25 22.03.2020
6191 Clouds 4 1029 44 10000 7.2 360 10:58 22.03.2020
6192 Clouds 3 1029 44 10000 7.2 360 10:39 22.03.2020
6193 Clouds 3 1028 44 10000 6.7 350 10:21 22.03.2020
6194 Clouds 3 1029 51 10000 7.7 340 09:45 22.03.2020
6195 Clouds 3 1028 47 10000 8.2 340 09:27 22.03.2020
6196 Clouds 2 1028 55 10000 6.7 340 08:48 22.03.2020
6197 Clouds 1 1028 55 10000 7.2 340 08:30 22.03.2020
6198 Clouds 0 1028 62 10000 7.2 340 07:55 22.03.2020
6199 Clouds 0 1028 62 10000 7.2 340 07:37 22.03.2020
6200 Clouds -1 1028 63 10000 6.7 330 06:41 22.03.2020
6201 Clouds -2 1027 63 10000 5.7 330 05:47 22.03.2020
6202 Clouds -1 1027 65 10000 5.7 320 04:39 22.03.2020
6203 Clouds 0 1026 64 10000 5.1 350 01:47 22.03.2020
6204 Clouds 1 1026 64 10000 6.2 350 00:50 22.03.2020
6205 Clouds 1 1026 69 10000 5.7 340 00:31 22.03.2020
6206 Clouds 1 1026 64 10000 6.2 340 23:46 21.03.2020
6207 Clouds 1 1026 64 10000 6.2 340 23:22 21.03.2020
6208 Clouds 1 1026 64 10000 6.2 340 22:59 21.03.2020
6209 Clouds 1 1026 64 10000 6.2 340 22:38 21.03.2020
6210 Clouds 1 1026 64 10000 6.2 340 22:38 21.03.2020
6211 Clouds 2 1025 69 10000 6.2 350 22:20 21.03.2020
6212 Clouds 2 1025 64 10000 6.2 350 21:58 21.03.2020
6213 Clouds 2 1025 64 10000 6.2 350 21:38 21.03.2020
6214 Clouds 2 1025 64 10000 7.7 350 21:20 21.03.2020
6215 Clouds 3 1024 64 10000 6.7 350 20:43 21.03.2020
6216 Clouds 3 1024 64 10000 7.7 350 20:22 21.03.2020
6217 Clouds 3 1024 69 10000 7.7 350 19:55 21.03.2020
6218 Clouds 4 1024 69 10000 7.7 350 19:37 21.03.2020
6219 Rain 4 1024 63 10000 8.7 350 19:18 21.03.2020
6220 Clouds 4 1023 63 10000 7.7 350 18:41 21.03.2020
6221 Rain 4 1023 80 10000 8.2 360 18:21 21.03.2020
6222 Rain 4 1022 86 10000 8.7 350 17:59 21.03.2020
6223 Rain 4 1022 86 10000 8.7 350 17:41 21.03.2020
6224 Rain 4 1022 80 10000 9.3 350 17:22 21.03.2020
6225 Rain 5 1021 80 10000 8.2 350 16:43 21.03.2020
6226 Rain 5 1021 80 10000 7.7 360 16:24 21.03.2020
6227 Rain 5 1021 80 10000 7.7 360 16:24 21.03.2020
6228 Rain 5 1021 80 10000 9.3 350 15:59 21.03.2020
6229 Rain 5 1021 80 10000 9.3 350 15:40 21.03.2020
6230 Rain 5 1020 70 10000 9.8 340 15:22 21.03.2020
6231 Rain 5 1020 70 10000 9.8 340 14:57 21.03.2020
6232 Clouds 5 1020 70 10000 8.7 340 14:39 21.03.2020
6233 Clouds 6 1020 75 10000 7.7 340 14:20 21.03.2020
6234 Clouds 6 1020 75 10000 7.7 340 13:58 21.03.2020
6235 Clouds 6 1020 75 10000 7.7 340 13:58 21.03.2020
6236 Rain 6 1020 70 10000 8.2 340 13:39 21.03.2020
6237 Clouds 6 1020 75 10000 7.7 340 13:21 21.03.2020
6238 Clouds 6 1019 75 10000 7.2 340 12:57 21.03.2020
6239 Clouds 6 1019 75 10000 7.2 340 12:37 21.03.2020
6240 Rain 6 1019 75 10000 7.2 340 12:19 21.03.2020
6241 Clouds 6 1019 75 10000 7.2 340 11:55 21.03.2020
6242 Clouds 6 1019 75 10000 7.2 340 11:37 21.03.2020
6243 Clouds 6 1019 80 10000 7.7 330 11:18 21.03.2020
6244 Clouds 6 1019 80 10000 7.2 330 10:56 21.03.2020
6245 Clouds 6 1019 80 10000 7.2 330 10:38 21.03.2020
6246 Clouds 6 1019 86 10000 6.7 340 10:19 21.03.2020
6247 Clouds 6 1019 81 10000 7.2 340 09:55 21.03.2020
6248 Clouds 6 1019 81 10000 7.2 340 09:36 21.03.2020
6249 Clouds 6 1018 86 10000 7.2 350 09:18 21.03.2020
6250 Rain 6 1018 86 10000 7.2 340 08:41 21.03.2020
6251 Rain 6 1018 86 10000 7.2 340 08:23 21.03.2020
6252 Rain 6 1018 86 10000 6.2 350 07:42 21.03.2020
6253 Rain 6 1017 87 10000 5.7 350 07:23 21.03.2020
6254 Rain 6 1017 87 10000 6.2 360 06:46 21.03.2020
6255 Rain 7 1017 87 10000 7.7 360 06:27 21.03.2020
6256 Rain 8 1016 87 10000 8.2 360 05:46 21.03.2020
6257 Rain 9 1016 81 6000 6.2 340 04:42 21.03.2020
6258 Rain 10 1016 76 10000 4.1 350 02:48 21.03.2020
6259 Rain 9 1016 76 10000 4.1 350 02:30 21.03.2020
6260 Rain 10 1016 76 10000 3.6 350 01:32 21.03.2020
6261 Rain 10 1016 71 10000 2.1 350 00:48 21.03.2020
6262 Rain 11 1016 71 10000 3.1 350 00:25 21.03.2020
6263 Rain 11 1016 66 10000 3.1 10 23:49 20.03.2020
6264 Clouds 11 1016 62 10000 2.6 40 23:26 20.03.2020
6265 Clouds 11 1017 58 10000 1.5 50 22:56 20.03.2020
6266 Clouds 11 1017 58 10000 1.5 50 22:37 20.03.2020
6267 Clouds 12 1017 58 10000 2.1 80 22:19 20.03.2020
6268 Clouds 12 1017 58 10000 1 70 21:54 20.03.2020
6269 Clouds 12 1017 58 10000 1 70 21:36 20.03.2020
6270 Clouds 12 1017 54 10000 2.6 60 21:18 20.03.2020
6271 Clouds 12 1017 54 10000 2.6 60 21:18 20.03.2020
6272 Clouds 12 1017 51 10000 2.6 60 20:55 20.03.2020
6273 Clouds 13 1017 51 10000 2.6 60 20:37 20.03.2020
6274 Clear 13 1017 48 10000 2.6 60 20:18 20.03.2020
6275 Clear 14 1017 48 10000 2.6 40 19:44 20.03.2020
6276 Clear 14 1017 45 10000 2.6 50 19:18 20.03.2020
6277 Clear 14 1017 45 10000 2.1 40 18:54 20.03.2020
6278 Clear 15 1017 45 10000 2.1 40 18:36 20.03.2020
6279 Clear 16 1017 42 10000 2.1 50 18:18 20.03.2020
6280 Clear 17 1017 42 10000 2.6 50 17:39 20.03.2020
6281 Clear 18 1017 39 10000 2.1 60 17:21 20.03.2020
6282 Clear 19 1017 37 10000 1.5 50 16:57 20.03.2020
6283 Clear 19 1017 37 10000 1.5 50 16:39 20.03.2020
6284 Clear 19 1017 37 10000 1.5 50 16:39 20.03.2020
6285 Clear 19 1017 37 10000 1 0 16:18 20.03.2020
6286 Clear 20 1018 34 10000 1.5 100 15:42 20.03.2020
6287 Clear 20 1018 37 10000 2.1 0 15:21 20.03.2020
6288 Clear 20 1018 37 10000 2.6 110 14:54 20.03.2020
6289 Clear 19 1018 37 10000 2.6 110 14:36 20.03.2020
6290 Clear 19 1019 37 10000 4.1 130 14:18 20.03.2020
6291 Clear 19 1019 34 10000 4.6 140 13:40 20.03.2020
6292 Clouds 18 1019 39 10000 3.1 90 13:19 20.03.2020
6293 Clouds 18 1020 42 10000 2.6 100 12:39 20.03.2020
6294 Clouds 17 1020 51 10000 2.1 40 12:20 20.03.2020
6295 Clouds 17 1020 51 10000 2.1 40 12:20 20.03.2020
6296 Clear 17 1020 55 10000 1.5 110 11:57 20.03.2020
6297 Clear 16 1021 54 10000 2.6 100 11:38 20.03.2020
6298 Clear 15 1021 54 10000 2.6 100 11:19 20.03.2020
6299 Clear 15 1021 62 10000 1 0 10:41 20.03.2020
6300 Clear 14 1021 62 10000 1 0 10:21 20.03.2020
6301 Clear 13 1021 62 10000 1 0 09:56 20.03.2020
6302 Clear 13 1022 66 10000 1.5 100 09:37 20.03.2020
6303 Clear 12 1022 71 10000 1 0 09:18 20.03.2020
6304 Clear 11 1022 76 10000 0.5 0 08:42 20.03.2020
6305 Clear 10 1022 81 10000 1 0 08:22 20.03.2020
6306 Clear 8 1022 87 9000 0.5 0 07:48 20.03.2020
6307 Clear 7 1022 87 9000 0.5 0 07:30 20.03.2020
6308 Clear 7 1022 87 10000 0.53 104 06:58 20.03.2020
6309 Clear 7 1022 87 10000 0.53 104 06:40 20.03.2020
6310 Clouds 7 1022 87 10000 2.1 40 04:51 20.03.2020
6311 Clouds 7 1022 81 10000 1.5 250 03:22 20.03.2020
6312 Clear 8 1022 75 10000 1.5 160 01:58 20.03.2020
6313 Clear 8 1022 75 10000 0.5 0 00:59 20.03.2020
6314 Clear 8 1022 70 10000 1.5 330 00:30 20.03.2020
6315 Clear 9 1023 70 10000 1 0 23:47 19.03.2020
6316 Clear 9 1023 66 10000 1 0 23:28 19.03.2020
6317 Clear 10 1023 66 10000 1 0 22:57 19.03.2020
6318 Clear 10 1023 66 10000 1 0 22:38 19.03.2020
6319 Clear 10 1023 66 10000 1 180 22:20 19.03.2020
6320 Clear 11 1023 66 10000 2.6 130 21:42 19.03.2020
6321 Clear 11 1023 71 0 0.96 157 21:20 19.03.2020
6322 Clear 11 1023 71 0 0.96 157 20:59 19.03.2020
6323 Clear 12 1023 58 10000 1 70 20:41 19.03.2020
6324 Clear 12 1023 54 10000 1 60 20:23 19.03.2020
6325 Clear 13 1023 54 10000 0.5 0 19:55 19.03.2020
6326 Clear 13 1023 54 10000 0.5 0 19:37 19.03.2020
6327 Clear 13 1022 51 10000 1 20 19:19 19.03.2020
6328 Clear 14 1022 48 10000 1.5 350 18:55 19.03.2020
6329 Clear 15 1022 45 10000 2.1 350 18:37 19.03.2020
6330 Clear 15 1022 45 10000 2.1 350 18:37 19.03.2020
6331 Clear 16 1022 45 10000 2.1 350 18:19 19.03.2020
6332 Clear 17 1022 45 10000 2.1 360 17:41 19.03.2020
6333 Clear 19 1022 39 10000 0.5 0 17:19 19.03.2020
6334 Clear 19 1022 37 10000 0.5 0 16:44 19.03.2020
6335 Clear 19 1023 37 10000 1 0 16:24 19.03.2020
6336 Clear 19 1023 37 10000 1 0 16:24 19.03.2020
6337 Clear 19 1023 39 10000 1 0 15:54 19.03.2020
6338 Clear 19 1023 39 10000 1 0 15:36 19.03.2020
6339 Clear 20 1023 39 10000 1 0 15:18 19.03.2020
6340 Clear 19 1023 42 10000 1 0 14:42 19.03.2020
6341 Clear 19 1024 45 10000 1.5 0 14:21 19.03.2020
6342 Clear 18 1024 45 10000 1.5 0 13:41 19.03.2020
6343 Clear 18 1024 48 10000 1.5 0 13:19 19.03.2020
6344 Clear 18 1025 51 10000 1.5 0 12:57 19.03.2020
6345 Clear 17 1025 51 10000 2.1 190 12:39 19.03.2020
6346 Clear 17 1025 51 10000 2.1 190 12:20 19.03.2020
6347 Clear 16 1026 58 10000 1 0 11:42 19.03.2020
6348 Clear 16 1026 58 10000 1 0 11:23 19.03.2020
6349 Clear 15 1026 58 10000 1 0 10:57 19.03.2020
6350 Clear 14 1026 58 10000 1 0 10:38 19.03.2020
6351 Clear 13 1026 62 10000 1 0 10:19 19.03.2020
6352 Clear 13 1026 62 10000 1 0 09:45 19.03.2020
6353 Clear 12 1026 66 10000 2.1 140 09:27 19.03.2020
6354 Clear 10 1026 66 10000 2.1 140 08:58 19.03.2020
6355 Clear 10 1026 76 10000 1.5 160 08:40 19.03.2020
6356 Clear 8 1025 75 10000 1.5 150 08:19 19.03.2020
6357 Clear 7 1025 81 10000 2.1 170 07:44 19.03.2020
6358 Clear 6 1025 86 10000 1.5 150 07:23 19.03.2020
6359 Clear 5 1025 86 10000 2.1 190 06:32 19.03.2020
6360 Clear 5 1025 86 10000 4.6 160 05:46 19.03.2020
6361 Clear 6 1025 86 10000 2.6 150 04:51 19.03.2020
6362 Clear 6 1025 86 10000 2.6 150 04:24 19.03.2020
6363 Clear 7 1025 81 10000 2.1 150 02:34 19.03.2020
6364 Clear 8 1026 75 10000 1 0 00:57 19.03.2020
6365 Clear 8 1026 75 10000 0.5 0 00:21 19.03.2020
6366 Clear 9 1027 70 10000 2.6 190 23:46 18.03.2020
6367 Clear 9 1027 75 10000 3.6 180 23:27 18.03.2020
6368 Clear 9 1027 70 10000 3.6 170 22:44 18.03.2020
6369 Clear 10 1027 70 10000 4.1 170 22:24 18.03.2020
6370 Clear 10 1027 66 10000 3.6 170 21:59 18.03.2020
6371 Clear 10 1027 66 10000 3.6 170 21:41 18.03.2020
6372 Clear 10 1027 66 10000 3.1 170 21:21 18.03.2020
6373 Clear 10 1027 66 10000 3.1 170 20:57 18.03.2020
6374 Clear 11 1027 62 10000 3.6 160 20:39 18.03.2020
6375 Clear 11 1027 62 10000 3.1 170 20:20 18.03.2020
6376 Clear 11 1027 62 10000 2.6 170 19:55 18.03.2020
6377 Clear 12 1027 62 10000 2.6 170 19:36 18.03.2020
6378 Rain 12 1027 62 10000 2.6 160 19:18 18.03.2020
6379 Rain 14 1026 58 10000 2.6 150 18:41 18.03.2020
6380 Clear 15 1026 48 10000 2.1 130 18:20 18.03.2020
6381 Clear 16 1026 45 10000 1.5 100 17:58 18.03.2020
6382 Clear 16 1026 45 10000 1.5 100 17:39 18.03.2020
6383 Clear 17 1026 42 10000 1.5 110 17:21 18.03.2020
6384 Clear 18 1027 42 10000 1.5 70 16:55 18.03.2020
6385 Clear 18 1027 42 10000 1.5 70 16:37 18.03.2020
6386 Clouds 18 1027 42 10000 1.5 110 16:19 18.03.2020
6387 Clouds 18 1027 39 10000 2.1 360 15:44 18.03.2020
6388 Clouds 18 1028 39 10000 2.1 60 15:20 18.03.2020
6389 Clouds 18 1028 39 10000 3.1 40 14:45 18.03.2020
6390 Clouds 18 1028 45 10000 3.1 30 14:22 18.03.2020
6391 Clouds 18 1028 45 10000 3.1 30 13:58 18.03.2020
6392 Clouds 18 1029 51 10000 2.1 50 13:36 18.03.2020
6393 Clouds 17 1029 51 10000 1.5 30 13:18 18.03.2020
6394 Clouds 17 1029 55 10000 2.6 40 12:41 18.03.2020
6395 Clouds 17 1030 58 10000 2.6 50 12:19 18.03.2020
6396 Clouds 16 1030 62 10000 2.1 40 11:40 18.03.2020
6397 Clouds 15 1030 62 10000 2.1 40 11:21 18.03.2020
6398 Clear 15 1030 66 10000 1.5 40 10:58 18.03.2020
6399 Clear 15 1030 66 10000 1.5 40 10:39 18.03.2020
6400 Clear 14 1030 71 10000 1.5 30 10:20 18.03.2020
6401 Clear 13 1030 76 10000 1.5 50 09:44 18.03.2020
6402 Clear 12 1031 76 10000 2.1 30 09:26 18.03.2020
6403 Clear 12 1031 76 10000 2.1 30 08:58 18.03.2020
6404 Clear 11 1031 81 10000 1.5 40 08:39 18.03.2020
6405 Clouds 8 1030 87 10000 1 40 08:21 18.03.2020
6406 Clouds 7 1030 93 7000 2.55 343 07:49 18.03.2020
6407 Clouds 6 1030 93 6000 1.5 100 07:30 18.03.2020
6408 Clouds 6 1030 93 10000 1.5 100 06:45 18.03.2020
6409 Clouds 6 1030 86 10000 1.5 130 06:23 18.03.2020
6410 Clouds 6 1030 86 10000 1 60 05:35 18.03.2020
6411 Clouds 7 1030 87 10000 0.5 0 04:27 18.03.2020
6412 Clouds 8 1029 75 10000 2.6 310 02:49 18.03.2020
6413 Clouds 8 1029 81 10000 1.5 350 01:48 18.03.2020
6414 Clouds 9 1029 71 10000 3.1 320 01:27 18.03.2020
6415 Clouds 9 1029 66 10000 4.1 300 00:26 18.03.2020
6416 Clouds 9 1030 66 10000 5.1 280 23:57 17.03.2020
6417 Clouds 10 1030 62 10000 6.2 280 23:37 17.03.2020
6418 Clouds 10 1030 62 10000 6.2 280 23:18 17.03.2020
6419 Clouds 10 1030 62 10000 4.6 290 22:41 17.03.2020
6420 Clouds 10 1030 62 10000 5.1 290 22:22 17.03.2020
6421 Clouds 10 1029 62 10000 4.6 280 21:42 17.03.2020
6422 Clouds 10 1029 62 10000 5.7 280 21:22 17.03.2020
6423 Clouds 11 1029 62 10000 5.7 290 20:41 17.03.2020
6424 Clouds 11 1029 54 10000 5.1 290 20:23 17.03.2020
6425 Clouds 11 1029 54 10000 5.1 290 19:59 17.03.2020
6426 Clouds 10 1029 66 10000 2.6 310 19:40 17.03.2020
6427 Clouds 11 1029 62 10000 1.5 330 19:18 17.03.2020
6428 Clouds 11 1029 66 10000 0.5 0 18:56 17.03.2020
6429 Clouds 11 1029 66 10000 0.5 0 18:38 17.03.2020
6430 Clouds 11 1029 66 10000 0.5 0 18:38 17.03.2020
6431 Clouds 11 1029 62 10000 1.5 290 18:20 17.03.2020
6432 Clouds 12 1029 58 10000 2.1 340 17:41 17.03.2020
6433 Clouds 12 1029 58 10000 2.1 340 17:41 17.03.2020
6434 Clouds 12 1029 58 10000 2.1 340 17:41 17.03.2020
6435 Clouds 12 1029 54 10000 2.6 330 17:22 17.03.2020
6436 Clouds 12 1029 54 10000 2.1 320 16:56 17.03.2020
6437 Clouds 13 1029 54 10000 2.1 320 16:38 17.03.2020
6438 Clouds 13 1029 50 10000 2.6 270 16:18 17.03.2020
6439 Clouds 13 1029 46 10000 1 0 15:43 17.03.2020
6440 Clouds 12 1029 50 10000 1.5 280 15:21 17.03.2020
6441 Clouds 12 1029 46 10000 1 0 14:44 17.03.2020
6442 Clouds 12 1029 53 10000 1 0 14:21 17.03.2020
6443 Clouds 12 1029 42 10000 1 0 13:46 17.03.2020
6444 Clouds 12 1029 42 10000 1.5 50 13:28 17.03.2020
6445 Clouds 12 1029 43 10000 1 0 12:59 17.03.2020
6446 Clouds 11 1029 43 10000 1 0 12:40 17.03.2020
6447 Clouds 11 1029 43 10000 1 0 12:22 17.03.2020
6448 Clouds 11 1029 43 10000 1 0 11:47 17.03.2020
6449 Clouds 10 1029 43 10000 1 0 11:29 17.03.2020
6450 Clouds 9 1029 52 10000 0.5 0 10:58 17.03.2020
6451 Clouds 9 1029 52 10000 0.5 0 10:38 17.03.2020
6452 Clouds 9 1029 52 10000 1 0 10:20 17.03.2020
6453 Clouds 9 1029 56 10000 1.5 280 09:59 17.03.2020
6454 Clouds 9 1029 56 10000 1.5 280 09:39 17.03.2020
6455 Clouds 7 1029 65 10000 0.5 0 09:19 17.03.2020
6456 Clouds 6 1029 53 10000 0.5 0 08:47 17.03.2020
6457 Clouds 5 1029 80 10000 0.5 0 08:23 17.03.2020
6458 Clouds 3 1029 80 10000 2.6 170 07:50 17.03.2020
6459 Clouds 3 1028 80 0 1 130 07:28 17.03.2020
6460 Clouds 2 1028 80 10000 1.5 170 06:59 17.03.2020
6461 Clouds 2 1028 80 10000 1.5 260 06:34 17.03.2020
6462 Clouds 2 1028 64 10000 1.5 10 05:55 17.03.2020
6463 Clouds 3 1027 74 10000 1.5 290 03:43 17.03.2020
6464 Clouds 3 1027 69 10000 1.5 140 02:46 17.03.2020
6465 Clouds 3 1026 69 10000 1 0 01:44 17.03.2020
6466 Clouds 3 1026 69 10000 0.91 33 01:25 17.03.2020
6467 Clouds 4 1026 69 10000 1 140 00:38 17.03.2020
6468 Clouds 4 1026 65 10000 0.5 0 23:45 16.03.2020
6469 Clouds 4 1026 65 10000 2.1 150 23:27 16.03.2020
6470 Clear 5 1025 65 10000 3.1 160 22:41 16.03.2020
6471 Clear 5 1025 65 10000 3.1 160 22:41 16.03.2020
6472 Clear 5 1025 60 10000 4.1 150 22:23 16.03.2020
6473 Clear 6 1025 56 10000 4.6 130 21:57 16.03.2020
6474 Clear 6 1025 56 10000 4.6 130 21:39 16.03.2020
6475 Clear 7 1025 56 10000 4.6 130 21:21 16.03.2020
6476 Clear 7 1025 52 10000 4.6 130 20:55 16.03.2020
6477 Clear 7 1025 52 10000 4.6 130 20:37 16.03.2020
6478 Clouds 8 1025 52 10000 5.1 140 20:18 16.03.2020
6479 Clouds 8 1025 49 10000 4.6 130 19:40 16.03.2020
6480 Clouds 9 1025 49 10000 4.6 140 19:20 16.03.2020
6481 Clouds 10 1025 46 10000 4.6 130 18:43 16.03.2020
6482 Clouds 11 1024 40 10000 5.1 130 18:21 16.03.2020
6483 Clouds 12 1024 37 10000 6.2 140 17:55 16.03.2020
6484 Clouds 12 1024 37 10000 6.2 140 17:37 16.03.2020
6485 Clouds 13 1024 35 10000 6.7 140 17:18 16.03.2020
6486 Clouds 13 1024 37 10000 7.7 140 16:44 16.03.2020
6487 Clouds 14 1024 37 10000 7.7 140 16:24 16.03.2020
6488 Clouds 14 1024 37 10000 8.2 140 15:45 16.03.2020
6489 Clouds 14 1024 37 10000 8.2 150 15:27 16.03.2020
6490 Clouds 14 1024 35 10000 9.8 150 14:49 16.03.2020
6491 Clouds 13 1024 35 10000 10.3 150 14:27 16.03.2020
6492 Clouds 13 1024 37 10000 11.3 150 13:58 16.03.2020
6493 Clouds 13 1024 37 10000 11.3 150 13:40 16.03.2020
6494 Clouds 13 1024 37 10000 11.3 150 13:21 16.03.2020
6495 Clouds 13 1025 37 10000 11.8 150 12:44 16.03.2020
6496 Clouds 12 1025 40 10000 11.3 150 12:23 16.03.2020
6497 Clouds 12 1025 37 10000 11.3 150 11:46 16.03.2020
6498 Clouds 11 1025 37 10000 10.8 150 11:27 16.03.2020
6499 Clouds 11 1025 37 10000 10.8 150 11:27 16.03.2020
6500 Clouds 10 1025 39 10000 10.8 150 10:56 16.03.2020
6501 Rain 9 1025 39 10000 10.8 150 10:37 16.03.2020
6502 Rain 9 1025 36 10000 11.3 140 10:18 16.03.2020
6503 Clouds 8 1025 39 10000 9.3 140 09:42 16.03.2020
6504 Clouds 7 1025 44 10000 9.3 140 09:21 16.03.2020
6505 Clouds 6 1024 44 10000 8.7 140 08:52 16.03.2020
6506 Clouds 6 1024 44 10000 8.7 140 08:25 16.03.2020
6507 Clear 3 1024 51 10000 8.7 140 07:48 16.03.2020
6508 Clear 2 1023 47 10000 8.7 140 07:25 16.03.2020
6509 Clear 2 1023 50 10000 9.3 130 06:52 16.03.2020
6510 Clear 1 1023 50 10000 9.3 130 06:24 16.03.2020
6511 Clear 1 1023 50 10000 9.3 130 04:54 16.03.2020
6512 Clear 3 1023 43 10000 8.7 140 02:42 16.03.2020
6513 Clouds 3 1024 37 10000 8.2 140 00:52 16.03.2020
6514 Rain 4 1024 37 10000 8.2 140 00:33 16.03.2020
6515 Rain 3 1025 37 10000 8.2 150 23:46 15.03.2020
6516 Rain 4 1025 32 10000 8.2 150 23:20 15.03.2020
6517 Clear 4 1025 32 10000 8.2 150 22:42 15.03.2020
6518 Clear 5 1026 35 10000 8.7 150 22:23 15.03.2020
6519 Clear 5 1025 41 10000 6.7 140 21:58 15.03.2020
6520 Clear 5 1025 41 10000 6.7 140 21:38 15.03.2020
6521 Clear 5 1026 44 10000 6.2 140 21:18 15.03.2020
6522 Clear 5 1025 41 10000 6.2 140 20:42 15.03.2020
6523 -273 0 0 0 0 0 20:20 15.03.2020
6524 Clear 5 1025 41 10000 6.2 140 19:58 15.03.2020
6525 Clear 5 1025 41 10000 5.7 140 19:39 15.03.2020
6526 Clear 5 1025 44 10000 6.7 140 19:19 15.03.2020
6527 Clear 6 1025 41 10000 5.7 130 18:55 15.03.2020
6528 Clear 6 1025 41 10000 5.7 130 18:37 15.03.2020
6529 Clear 7 1025 39 10000 6.7 140 18:19 15.03.2020
6530 Clear 8 1025 39 10000 7.7 140 17:41 15.03.2020
6531 Clear 8 1025 39 10000 7.7 140 17:41 15.03.2020
6532 Clear 8 1025 36 10000 8.2 140 17:21 15.03.2020
6533 Clear 9 1026 36 10000 8.2 140 16:58 15.03.2020
6534 Clear 9 1026 36 10000 8.2 140 16:39 15.03.2020
6535 Clear 9 1026 36 10000 8.7 150 16:21 15.03.2020
6536 Clear 9 1026 36 10000 8.2 140 15:46 15.03.2020
6537 Clear 9 1026 36 10000 8.2 140 15:28 15.03.2020
6538 Clear 9 1026 34 10000 8.2 160 14:58 15.03.2020
6539 Clear 9 1026 36 10000 7.7 140 14:38 15.03.2020
6540 Clear 9 1027 33 10000 8.2 150 14:19 15.03.2020
6541 Clear 9 1028 33 10000 7.7 150 13:55 15.03.2020
6542 Clear 9 1028 33 10000 7.7 150 13:36 15.03.2020
6543 Clear 9 1028 36 10000 7.7 150 13:18 15.03.2020
6544 Clear 8 1028 39 10000 7.2 150 12:40 15.03.2020
6545 Rain 8 1028 42 10000 6.2 140 12:21 15.03.2020
6546 Rain 7 1028 41 10000 5.1 140 11:43 15.03.2020
6547 Rain 7 1029 44 10000 4.6 160 11:24 15.03.2020
6548 Rain 6 1029 48 10000 3.6 0 10:58 15.03.2020
6549 Rain 6 1029 48 10000 3.6 0 10:39 15.03.2020
6550 Rain 5 1028 44 0 1 80 10:21 15.03.2020
6551 Rain 5 1028 44 0 1 80 09:57 15.03.2020
6552 Clear 4 1029 51 10000 2.6 130 09:36 15.03.2020
6553 Clear 3 1029 51 10000 1.5 120 09:18 15.03.2020
6554 Clear 2 1029 59 10000 1 0 08:40 15.03.2020
6555 Clouds 1 1029 55 10000 0.5 0 08:19 15.03.2020
6556 Clouds -1 1028 60 10000 1 0 07:45 15.03.2020
6557 Clouds -2 1028 63 10000 0.5 0 07:21 15.03.2020
6558 Clouds -3 1028 73 10000 1 0 06:36 15.03.2020
6559 Clouds -2 1028 73 10000 1.5 120 05:48 15.03.2020
6560 Clouds -2 1028 58 10000 2.1 340 04:56 15.03.2020
6561 Clouds -1 1028 58 10000 2.1 340 04:37 15.03.2020
6562 Clouds -2 1027 63 10000 2.6 340 04:18 15.03.2020
6563 Clouds -1 1027 58 10000 3.1 340 03:19 15.03.2020
6564 Clouds 0 1027 55 10000 3.1 330 02:22 15.03.2020
6565 Clouds 1 1026 55 10000 4.1 10 00:58 15.03.2020
6566 Rain 1 1026 55 10000 4.1 10 00:40 15.03.2020
6567 Clouds 1 1026 51 10000 4.6 10 00:19 15.03.2020
6568 Clouds 2 1026 51 10000 4.6 360 23:39 14.03.2020
6569 Clouds 3 1026 51 10000 4.6 10 23:20 14.03.2020
6570 Clouds 3 1026 47 10000 4.6 360 22:56 14.03.2020
6571 Clouds 3 1026 47 10000 4.6 360 22:37 14.03.2020
6572 Clouds 3 1025 51 10000 5.1 20 22:19 14.03.2020
6573 Clouds 3 1025 55 10000 4.6 20 21:55 14.03.2020
6574 Clouds 4 1025 55 10000 4.6 20 21:36 14.03.2020
6575 Clouds 4 1024 52 10000 5.1 30 21:18 14.03.2020
6576 Clouds 4 1024 52 10000 5.1 30 20:56 14.03.2020
6577 Clouds 4 1024 48 10000 4.6 20 20:56 14.03.2020
6578 Clouds 4 1024 48 10000 4.6 20 20:38 14.03.2020
6579 Clouds 4 1024 48 10000 2.6 360 20:18 14.03.2020
6580 Clouds 5 1023 48 10000 2.6 360 19:41 14.03.2020
6581 Clouds 5 1023 41 10000 2.1 360 19:20 14.03.2020
6582 Clouds 6 1023 42 10000 2.6 20 18:40 14.03.2020
6583 Clouds 7 1022 42 10000 3.1 20 18:21 14.03.2020
6584 Clouds 9 1022 36 10000 4.1 20 17:43 14.03.2020
6585 Clouds 9 1022 39 10000 4.1 10 17:24 14.03.2020
6586 Clouds 10 1021 37 10000 4.1 350 16:59 14.03.2020
6587 Clouds 10 1021 37 10000 4.1 350 16:39 14.03.2020
6588 Clouds 10 1021 37 10000 5.1 360 16:20 14.03.2020
6589 Clouds 10 1021 39 10000 4.6 10 15:48 14.03.2020
6590 Clouds 10 1022 39 10000 5.1 340 15:25 14.03.2020
6591 Clouds 10 1021 46 10000 6.2 340 14:44 14.03.2020
6592 Clouds 10 1022 46 10000 5.7 330 14:22 14.03.2020
6593 Clouds 10 1022 46 10000 5.7 340 13:57 14.03.2020
6594 Clouds 10 1022 46 10000 5.7 340 13:39 14.03.2020
6595 Clouds 10 1022 49 10000 5.1 330 13:20 14.03.2020
6596 Clouds 10 1022 49 10000 5.7 350 12:44 14.03.2020
6597 Clouds 10 1022 49 10000 5.7 10 12:26 14.03.2020
6598 Clouds 10 1022 49 10000 5.7 10 12:26 14.03.2020
6599 Clouds 10 1022 49 10000 4.1 320 11:47 14.03.2020
6600 Clouds 9 1022 49 10000 4.1 350 11:26 14.03.2020
6601 Clouds 9 1022 49 10000 3.6 350 10:59 14.03.2020
6602 Clouds 9 1022 49 10000 3.6 350 10:40 14.03.2020
6603 Clouds 9 1022 57 10000 4.1 350 10:22 14.03.2020
6604 Clouds 8 1022 52 10000 5.7 350 09:43 14.03.2020
6605 Clouds 8 1022 52 10000 5.1 340 09:24 14.03.2020
6606 Clouds 7 1022 56 10000 4.6 330 08:47 14.03.2020
6607 Clouds 5 1022 56 10000 4.6 320 08:29 14.03.2020
6608 Clouds 4 1022 56 10000 3.1 330 07:55 14.03.2020
6609 Clouds 4 1022 56 10000 3.1 330 07:37 14.03.2020
6610 Clouds 3 1021 60 10000 3.1 320 07:18 14.03.2020
6611 Clouds 2 1021 64 10000 3.6 310 06:40 14.03.2020
6612 Clouds 2 1021 64 10000 3.6 310 06:40 14.03.2020
6613 Clear 3 1021 56 10000 6.2 300 05:19 14.03.2020
6614 Clear 4 1020 56 10000 2.1 320 03:46 14.03.2020
6615 Clear 4 1020 56 10000 5.7 280 03:24 14.03.2020
6616 Clear 4 1021 60 10000 4.1 260 02:22 14.03.2020
6617 Clear 4 1021 56 10000 2.1 260 00:46 14.03.2020
6618 Clear 4 1020 60 10000 3.1 260 23:46 13.03.2020
6619 Clear 5 1020 60 10000 2.6 260 23:28 13.03.2020
6620 Clear 5 1020 52 10000 1 0 22:49 13.03.2020
6621 Clear 5 1020 52 10000 1.5 330 22:26 13.03.2020
6622 Clear 6 1020 52 10000 3.1 320 21:44 13.03.2020
6623 Clear 6 1020 52 10000 2.1 320 21:22 13.03.2020
6624 Clear 7 1019 54 10000 4.6 280 20:59 13.03.2020
6625 Clear 7 1019 54 10000 4.6 280 20:40 13.03.2020
6626 Clouds 8 1019 49 10000 6.2 270 20:20 13.03.2020
6627 Clouds 8 1018 49 10000 6.7 270 19:48 13.03.2020
6628 Clouds 8 1018 44 10000 7.7 270 19:30 13.03.2020
6629 Clouds 9 1018 46 10000 8.2 270 18:49 13.03.2020
6630 Clouds 9 1018 46 10000 8.2 270 18:31 13.03.2020
6631 Clouds 10 1017 43 10000 9.3 270 17:57 13.03.2020
6632 Clouds 10 1017 43 10000 10.8 270 17:38 13.03.2020
6633 Clouds 11 1017 43 10000 10.8 270 17:20 13.03.2020
6634 Clouds 11 1017 43 10000 10.8 280 16:42 13.03.2020
6635 Clouds 12 1017 43 10000 10.3 270 16:24 13.03.2020
6636 Clouds 12 1016 40 10000 10.3 290 15:56 13.03.2020
6637 Clouds 12 1016 40 10000 10.3 290 15:37 13.03.2020
6638 Clouds 12 1016 37 10000 11.3 290 15:19 13.03.2020
6639 Clouds 12 1016 40 10000 11.3 290 14:41 13.03.2020
6640 Rain 12 1016 46 10000 13.4 300 14:22 13.03.2020
6641 Clouds 12 1016 46 10000 11.8 290 13:57 13.03.2020
6642 Clouds 12 1016 46 10000 11.8 290 13:39 13.03.2020
6643 Clouds 12 1016 37 10000 11.3 280 13:19 13.03.2020
6644 Clouds 11 1016 44 10000 9.3 290 12:54 13.03.2020
6645 Clouds 11 1016 44 10000 9.3 290 12:36 13.03.2020
6646 Clouds 11 1017 50 10000 6.7 290 12:18 13.03.2020
6647 Clouds 11 1017 57 10000 5.1 300 11:42 13.03.2020
6648 Clouds 10 1017 57 10000 7.2 300 11:24 13.03.2020
6649 Clouds 10 1017 57 10000 6.7 300 10:57 13.03.2020
6650 Clouds 10 1017 57 10000 6.7 300 10:38 13.03.2020
6651 Rain 10 1017 61 10000 5.7 300 10:20 13.03.2020
6652 Rain 10 1016 61 10000 8.2 280 09:43 13.03.2020
6653 Rain 9 1016 61 10000 8.7 280 09:24 13.03.2020
6654 Clouds 9 1016 66 10000 7.2 290 08:46 13.03.2020
6655 Clouds 9 1016 70 10000 6.7 300 08:23 13.03.2020
6656 Clouds 9 1016 70 10000 6.7 300 08:23 13.03.2020
6657 Clouds 9 1016 70 10000 6.7 300 07:58 13.03.2020
6658 Clouds 9 1016 76 10000 4.1 320 07:38 13.03.2020
6659 Clouds 9 1015 76 10000 5.7 310 07:18 13.03.2020
6660 Rain 9 1015 87 10000 8.2 330 06:43 13.03.2020
6661 Rain 9 1014 81 10000 1.5 350 05:56 13.03.2020
6662 Rain 10 1013 76 10000 2.6 360 05:37 13.03.2020
6663 Clouds 10 1013 76 10000 2.6 10 04:38 13.03.2020
6664 Clouds 10 1013 81 10000 2.6 360 03:43 13.03.2020
6665 Rain 11 1014 71 10000 5.1 360 01:48 13.03.2020
6666 Rain 11 1014 76 10000 5.1 20 01:19 13.03.2020
6667 Rain 11 1013 71 10000 2.6 350 00:56 13.03.2020
6668 Clouds 11 1013 71 10000 3.6 360 00:29 13.03.2020
6669 Clouds 12 1013 58 10000 5.7 10 23:59 12.03.2020
6670 Clouds 13 1012 51 10000 4.6 280 23:29 12.03.2020
6671 Clouds 14 1012 55 10000 5.1 280 22:58 12.03.2020
6672 Clouds 14 1012 55 10000 5.1 280 22:40 12.03.2020
6673 Clouds 14 1012 51 10000 7.2 280 22:22 12.03.2020
6674 Clouds 15 1012 48 10000 7.2 290 21:46 12.03.2020
6675 Clouds 15 1012 48 10000 7.2 290 21:28 12.03.2020
6676 Clouds 15 1012 52 10000 4.6 280 20:59 12.03.2020
6677 Clouds 16 1012 52 10000 3.6 260 20:40 12.03.2020
6678 Clouds 16 1012 51 10000 3.1 230 20:19 12.03.2020
6679 Clouds 16 1012 51 10000 3.1 210 19:42 12.03.2020
6680 -273 0 0 0 0 0 19:21 12.03.2020
6681 Clouds 16 1012 55 10000 2.6 220 18:45 12.03.2020
6682 Clouds 17 1011<